<?xml version='1.0' encoding='UTF-8'?><gpx version="1.1" creator="JPX - https://github.com/jenetics/jpx" xmlns="http://www.topografix.com/GPX/1/1"><trk><trkseg><trkpt lat="46.0669583" lon="13.22979"><ele>113.0</ele><time>2026-04-11T07:51:19.466Z</time></trkpt><trkpt lat="46.066875" lon="13.2299333"><ele>113.00000000000001</ele><time>2026-04-11T07:51:24.466Z</time></trkpt><trkpt lat="46.0668533" lon="13.2298467"><ele>113.00000000000001</ele><time>2026-04-11T07:52:12.466Z</time></trkpt><trkpt lat="46.06685" lon="13.2297217"><ele>113.0</ele><time>2026-04-11T07:52:15.465Z</time></trkpt><trkpt lat="46.0668267" lon="13.2296333"><ele>113.0</ele><time>2026-04-11T07:52:17.466Z</time></trkpt><trkpt lat="46.0667567" lon="13.2294617"><ele>112.99999999999999</ele><time>2026-04-11T07:52:21.466Z</time></trkpt><trkpt lat="46.066685" lon="13.2293783"><ele>113.0</ele><time>2026-04-11T07:52:23.466Z</time></trkpt><trkpt lat="46.066645" lon="13.229295"><ele>113.0</ele><time>2026-04-11T07:52:25.466Z</time></trkpt><trkpt lat="46.0666" lon="13.2291933"><ele>113.0</ele><time>2026-04-11T07:52:28.466Z</time></trkpt><trkpt lat="46.0665583" lon="13.2290883"><ele>112.99999999999999</ele><time>2026-04-11T07:52:31.466Z</time></trkpt><trkpt lat="46.0666017" lon="13.2290117"><ele>113.0</ele><time>2026-04-11T07:52:34.466Z</time></trkpt><trkpt lat="46.066695" lon="13.22896"><ele>112.60000000000001</ele><time>2026-04-11T07:52:45.465Z</time></trkpt><trkpt lat="46.0667933" lon="13.2289133"><ele>112.20000000000002</ele><time>2026-04-11T07:52:48.466Z</time></trkpt><trkpt lat="46.0668717" lon="13.22886"><ele>111.8</ele><time>2026-04-11T07:52:50.466Z</time></trkpt><trkpt lat="46.0669383" lon="13.2287717"><ele>111.4</ele><time>2026-04-11T07:52:52.465Z</time></trkpt><trkpt lat="46.0670083" lon="13.2286867"><ele>111.0</ele><time>2026-04-11T07:52:54.466Z</time></trkpt><trkpt lat="46.06705" lon="13.228565"><ele>111.0</ele><time>2026-04-11T07:53:12.466Z</time></trkpt><trkpt lat="46.0671133" lon="13.2284867"><ele>111.0</ele><time>2026-04-11T07:53:14.466Z</time></trkpt><trkpt lat="46.067185" lon="13.2283633"><ele>111.0</ele><time>2026-04-11T07:53:16.466Z</time></trkpt><trkpt lat="46.0672883" lon="13.2282767"><ele>111.0</ele><time>2026-04-11T07:53:19.465Z</time></trkpt><trkpt lat="46.0673583" lon="13.2282167"><ele>111.0</ele><time>2026-04-11T07:53:22.466Z</time></trkpt><trkpt lat="46.0673667" lon="13.228085"><ele>111.33333333333333</ele><time>2026-04-11T07:53:25.465Z</time></trkpt><trkpt lat="46.0673617" lon="13.22798"><ele>111.66666666666666</ele><time>2026-04-11T07:53:27.465Z</time></trkpt><trkpt lat="46.0673417" lon="13.2278217"><ele>112.0</ele><time>2026-04-11T07:53:29.466Z</time></trkpt><trkpt lat="46.067315" lon="13.227725"><ele>112.33333333333333</ele><time>2026-04-11T07:53:30.465Z</time></trkpt><trkpt lat="46.0672717" lon="13.2276067"><ele>112.66666666666666</ele><time>2026-04-11T07:53:31.466Z</time></trkpt><trkpt lat="46.0672467" lon="13.2274767"><ele>113.0</ele><time>2026-04-11T07:53:32.466Z</time></trkpt><trkpt lat="46.0672217" lon="13.2273333"><ele>113.16666666666666</ele><time>2026-04-11T07:53:33.466Z</time></trkpt><trkpt lat="46.067195" lon="13.2271917"><ele>113.33333333333333</ele><time>2026-04-11T07:53:34.466Z</time></trkpt><trkpt lat="46.0671717" lon="13.2270633"><ele>113.5</ele><time>2026-04-11T07:53:35.466Z</time></trkpt><trkpt lat="46.0671617" lon="13.2269383"><ele>113.66666666666666</ele><time>2026-04-11T07:53:36.466Z</time></trkpt><trkpt lat="46.0671267" lon="13.2268217"><ele>113.83333333333333</ele><time>2026-04-11T07:53:37.466Z</time></trkpt><trkpt lat="46.0671333" lon="13.2267067"><ele>114.0</ele><time>2026-04-11T07:53:38.465Z</time></trkpt><trkpt lat="46.0671217" lon="13.226605"><ele>114.0</ele><time>2026-04-11T07:53:39.466Z</time></trkpt><trkpt lat="46.0671117" lon="13.2265017"><ele>114.0</ele><time>2026-04-11T07:53:40.465Z</time></trkpt><trkpt lat="46.0670683" lon="13.226405"><ele>114.0</ele><time>2026-04-11T07:53:42.466Z</time></trkpt><trkpt lat="46.066965" lon="13.226415"><ele>114.0</ele><time>2026-04-11T07:53:44.465Z</time></trkpt><trkpt lat="46.06687" lon="13.2265117"><ele>114.0</ele><time>2026-04-11T07:53:45.465Z</time></trkpt><trkpt lat="46.06678" lon="13.22661"><ele>114.0</ele><time>2026-04-11T07:53:46.466Z</time></trkpt><trkpt lat="46.066725" lon="13.2266567"><ele>114.0</ele><time>2026-04-11T07:53:47.465Z</time></trkpt><trkpt lat="46.0666533" lon="13.2267483"><ele>114.0</ele><time>2026-04-11T07:53:48.466Z</time></trkpt><trkpt lat="46.0665733" lon="13.22684"><ele>114.0</ele><time>2026-04-11T07:53:49.466Z</time></trkpt><trkpt lat="46.0664683" lon="13.2269517"><ele>114.0</ele><time>2026-04-11T07:53:50.466Z</time></trkpt><trkpt lat="46.066365" lon="13.2270533"><ele>114.0</ele><time>2026-04-11T07:53:51.466Z</time></trkpt><trkpt lat="46.066275" lon="13.2271467"><ele>114.0</ele><time>2026-04-11T07:53:52.466Z</time></trkpt><trkpt lat="46.0661717" lon="13.22728"><ele>114.0</ele><time>2026-04-11T07:53:53.466Z</time></trkpt><trkpt lat="46.0660983" lon="13.2274683"><ele>114.0</ele><time>2026-04-11T07:53:54.466Z</time></trkpt><trkpt lat="46.0660117" lon="13.22761"><ele>113.4</ele><time>2026-04-11T07:53:55.466Z</time></trkpt><trkpt lat="46.06594" lon="13.227715"><ele>112.80000000000001</ele><time>2026-04-11T07:53:56.466Z</time></trkpt><trkpt lat="46.0658817" lon="13.2277933"><ele>112.19999999999999</ele><time>2026-04-11T07:53:57.466Z</time></trkpt><trkpt lat="46.065835" lon="13.2279083"><ele>111.6</ele><time>2026-04-11T07:53:58.466Z</time></trkpt><trkpt lat="46.0658083" lon="13.2280117"><ele>111.0</ele><time>2026-04-11T07:53:59.465Z</time></trkpt><trkpt lat="46.0658" lon="13.228165"><ele>111.0</ele><time>2026-04-11T07:54:00.466Z</time></trkpt><trkpt lat="46.065795" lon="13.2282633"><ele>111.0</ele><time>2026-04-11T07:54:01.466Z</time></trkpt><trkpt lat="46.0656967" lon="13.2281867"><ele>111.0</ele><time>2026-04-11T07:54:04.466Z</time></trkpt><trkpt lat="46.0656" lon="13.2280867"><ele>111.0</ele><time>2026-04-11T07:54:06.466Z</time></trkpt><trkpt lat="46.0655683" lon="13.227985"><ele>111.0</ele><time>2026-04-11T07:54:07.466Z</time></trkpt><trkpt lat="46.0655283" lon="13.2278533"><ele>111.25</ele><time>2026-04-11T07:54:08.466Z</time></trkpt><trkpt lat="46.0654833" lon="13.22767"><ele>111.5</ele><time>2026-04-11T07:54:09.466Z</time></trkpt><trkpt lat="46.065415" lon="13.2275133"><ele>111.75</ele><time>2026-04-11T07:54:10.466Z</time></trkpt><trkpt lat="46.0653517" lon="13.227375"><ele>112.0</ele><time>2026-04-11T07:54:11.466Z</time></trkpt><trkpt lat="46.06529" lon="13.227265"><ele>112.0</ele><time>2026-04-11T07:54:12.466Z</time></trkpt><trkpt lat="46.06524" lon="13.2271717"><ele>111.99999999999999</ele><time>2026-04-11T07:54:13.466Z</time></trkpt><trkpt lat="46.0651967" lon="13.2270867"><ele>111.99999999999999</ele><time>2026-04-11T07:54:14.466Z</time></trkpt><trkpt lat="46.065125" lon="13.2270067"><ele>112.0</ele><time>2026-04-11T07:54:16.466Z</time></trkpt><trkpt lat="46.0652117" lon="13.22692"><ele>112.0</ele><time>2026-04-11T07:54:20.466Z</time></trkpt><trkpt lat="46.06532" lon="13.2268067"><ele>112.0</ele><time>2026-04-11T07:54:22.466Z</time></trkpt><trkpt lat="46.0653783" lon="13.2267517"><ele>111.99999999999999</ele><time>2026-04-11T07:54:23.466Z</time></trkpt><trkpt lat="46.0654433" lon="13.2266833"><ele>111.99999999999999</ele><time>2026-04-11T07:54:24.466Z</time></trkpt><trkpt lat="46.06552" lon="13.2266217"><ele>112.0</ele><time>2026-04-11T07:54:25.465Z</time></trkpt><trkpt lat="46.0656067" lon="13.2265633"><ele>112.0</ele><time>2026-04-11T07:54:26.466Z</time></trkpt><trkpt lat="46.065755" lon="13.22649"><ele>112.33333333333334</ele><time>2026-04-11T07:54:27.466Z</time></trkpt><trkpt lat="46.065905" lon="13.22645"><ele>112.66666666666666</ele><time>2026-04-11T07:54:28.465Z</time></trkpt><trkpt lat="46.0660567" lon="13.2263967"><ele>113.0</ele><time>2026-04-11T07:54:29.466Z</time></trkpt><trkpt lat="46.0662067" lon="13.2263517"><ele>113.0</ele><time>2026-04-11T07:54:30.466Z</time></trkpt><trkpt lat="46.06635" lon="13.2263233"><ele>113.0</ele><time>2026-04-11T07:54:31.466Z</time></trkpt><trkpt lat="46.0664783" lon="13.2262933"><ele>113.0</ele><time>2026-04-11T07:54:32.465Z</time></trkpt><trkpt lat="46.066605" lon="13.2262883"><ele>113.0</ele><time>2026-04-11T07:54:33.466Z</time></trkpt><trkpt lat="46.066715" lon="13.2262667"><ele>112.99999999999999</ele><time>2026-04-11T07:54:34.466Z</time></trkpt><trkpt lat="46.0668" lon="13.226245"><ele>113.0</ele><time>2026-04-11T07:54:35.466Z</time></trkpt><trkpt lat="46.0668733" lon="13.22623"><ele>113.0</ele><time>2026-04-11T07:54:36.466Z</time></trkpt><trkpt lat="46.06695" lon="13.22621"><ele>113.0</ele><time>2026-04-11T07:54:37.466Z</time></trkpt><trkpt lat="46.06702" lon="13.2261883"><ele>112.99999999999999</ele><time>2026-04-11T07:54:38.465Z</time></trkpt><trkpt lat="46.0670967" lon="13.2261633"><ele>113.0</ele><time>2026-04-11T07:54:39.466Z</time></trkpt><trkpt lat="46.0671667" lon="13.2260283"><ele>112.99999999999999</ele><time>2026-04-11T07:54:41.465Z</time></trkpt><trkpt lat="46.067205" lon="13.2259367"><ele>113.0</ele><time>2026-04-11T07:54:42.466Z</time></trkpt><trkpt lat="46.067255" lon="13.2258767"><ele>113.0</ele><time>2026-04-11T07:54:43.465Z</time></trkpt><trkpt lat="46.067355" lon="13.225795"><ele>113.0</ele><time>2026-04-11T07:54:45.466Z</time></trkpt><trkpt lat="46.0674183" lon="13.2257367"><ele>112.99999999999999</ele><time>2026-04-11T07:54:46.466Z</time></trkpt><trkpt lat="46.067485" lon="13.2256533"><ele>113.0</ele><time>2026-04-11T07:54:47.466Z</time></trkpt><trkpt lat="46.0675367" lon="13.22557"><ele>113.49999999999999</ele><time>2026-04-11T07:54:48.466Z</time></trkpt><trkpt lat="46.0675717" lon="13.2254667"><ele>114.0</ele><time>2026-04-11T07:54:49.466Z</time></trkpt><trkpt lat="46.0676" lon="13.2253683"><ele>114.5</ele><time>2026-04-11T07:54:50.466Z</time></trkpt><trkpt lat="46.067625" lon="13.2252733"><ele>115.0</ele><time>2026-04-11T07:54:51.466Z</time></trkpt><trkpt lat="46.0676517" lon="13.2251733"><ele>115.49999999999999</ele><time>2026-04-11T07:54:52.465Z</time></trkpt><trkpt lat="46.0676817" lon="13.22506"><ele>116.0</ele><time>2026-04-11T07:54:53.466Z</time></trkpt><trkpt lat="46.0677283" lon="13.2249383"><ele>115.25</ele><time>2026-04-11T07:54:54.466Z</time></trkpt><trkpt lat="46.067785" lon="13.22481"><ele>114.5</ele><time>2026-04-11T07:54:55.466Z</time></trkpt><trkpt lat="46.0678483" lon="13.2246767"><ele>113.75</ele><time>2026-04-11T07:54:56.466Z</time></trkpt><trkpt lat="46.06792" lon="13.2245333"><ele>113.0</ele><time>2026-04-11T07:54:57.466Z</time></trkpt><trkpt lat="46.0679983" lon="13.2243783"><ele>113.0</ele><time>2026-04-11T07:54:58.466Z</time></trkpt><trkpt lat="46.0680633" lon="13.2242283"><ele>113.0</ele><time>2026-04-11T07:54:59.466Z</time></trkpt><trkpt lat="46.0681267" lon="13.22409"><ele>113.0</ele><time>2026-04-11T07:55:00.466Z</time></trkpt><trkpt lat="46.068185" lon="13.2239467"><ele>113.0</ele><time>2026-04-11T07:55:01.465Z</time></trkpt><trkpt lat="46.0682433" lon="13.2238017"><ele>113.0</ele><time>2026-04-11T07:55:02.465Z</time></trkpt><trkpt lat="46.0683133" lon="13.22365"><ele>113.0</ele><time>2026-04-11T07:55:03.465Z</time></trkpt><trkpt lat="46.06837" lon="13.2235133"><ele>113.0</ele><time>2026-04-11T07:55:04.466Z</time></trkpt><trkpt lat="46.0684383" lon="13.22337"><ele>113.0</ele><time>2026-04-11T07:55:05.465Z</time></trkpt><trkpt lat="46.06851" lon="13.2232233"><ele>113.0</ele><time>2026-04-11T07:55:06.466Z</time></trkpt><trkpt lat="46.0685783" lon="13.2230867"><ele>113.00000000000001</ele><time>2026-04-11T07:55:07.466Z</time></trkpt><trkpt lat="46.0686367" lon="13.2229483"><ele>113.00000000000001</ele><time>2026-04-11T07:55:08.466Z</time></trkpt><trkpt lat="46.0686917" lon="13.2228283"><ele>113.0</ele><time>2026-04-11T07:55:09.465Z</time></trkpt><trkpt lat="46.0687483" lon="13.2227017"><ele>113.0</ele><time>2026-04-11T07:55:10.466Z</time></trkpt><trkpt lat="46.0688" lon="13.2225667"><ele>113.0</ele><time>2026-04-11T07:55:11.465Z</time></trkpt><trkpt lat="46.0688583" lon="13.2224267"><ele>113.0</ele><time>2026-04-11T07:55:12.466Z</time></trkpt><trkpt lat="46.0689217" lon="13.22229"><ele>113.0</ele><time>2026-04-11T07:55:13.466Z</time></trkpt><trkpt lat="46.0689833" lon="13.2221467"><ele>113.0</ele><time>2026-04-11T07:55:14.466Z</time></trkpt><trkpt lat="46.0690483" lon="13.2220083"><ele>113.2</ele><time>2026-04-11T07:55:15.466Z</time></trkpt><trkpt lat="46.0691067" lon="13.2218733"><ele>113.4</ele><time>2026-04-11T07:55:16.465Z</time></trkpt><trkpt lat="46.069165" lon="13.22175"><ele>113.60000000000001</ele><time>2026-04-11T07:55:17.466Z</time></trkpt><trkpt lat="46.0692233" lon="13.2216317"><ele>113.80000000000001</ele><time>2026-04-11T07:55:18.466Z</time></trkpt><trkpt lat="46.0692833" lon="13.2215083"><ele>114.0</ele><time>2026-04-11T07:55:19.465Z</time></trkpt><trkpt lat="46.0693467" lon="13.221385"><ele>114.0</ele><time>2026-04-11T07:55:20.465Z</time></trkpt><trkpt lat="46.06941" lon="13.2212617"><ele>114.0</ele><time>2026-04-11T07:55:21.466Z</time></trkpt><trkpt lat="46.0694733" lon="13.2211533"><ele>114.0</ele><time>2026-04-11T07:55:22.465Z</time></trkpt><trkpt lat="46.0695283" lon="13.221035"><ele>114.0</ele><time>2026-04-11T07:55:23.466Z</time></trkpt><trkpt lat="46.06959" lon="13.220955"><ele>114.0</ele><time>2026-04-11T07:55:24.466Z</time></trkpt><trkpt lat="46.0696483" lon="13.22088"><ele>114.0</ele><time>2026-04-11T07:55:25.466Z</time></trkpt><trkpt lat="46.0697033" lon="13.220815"><ele>114.0</ele><time>2026-04-11T07:55:26.466Z</time></trkpt><trkpt lat="46.06975" lon="13.2207517"><ele>114.0</ele><time>2026-04-11T07:55:27.466Z</time></trkpt><trkpt lat="46.0697783" lon="13.220665"><ele>114.0</ele><time>2026-04-11T07:55:28.466Z</time></trkpt><trkpt lat="46.0698333" lon="13.220535"><ele>114.0</ele><time>2026-04-11T07:55:30.466Z</time></trkpt><trkpt lat="46.0698783" lon="13.220435"><ele>114.0</ele><time>2026-04-11T07:55:32.466Z</time></trkpt><trkpt lat="46.069925" lon="13.2203633"><ele>114.0</ele><time>2026-04-11T07:55:35.466Z</time></trkpt><trkpt lat="46.0699983" lon="13.22029"><ele>114.0</ele><time>2026-04-11T07:55:50.466Z</time></trkpt><trkpt lat="46.07003" lon="13.2201967"><ele>114.0</ele><time>2026-04-11T07:55:52.466Z</time></trkpt><trkpt lat="46.0700667" lon="13.2200683"><ele>114.0</ele><time>2026-04-11T07:55:54.465Z</time></trkpt><trkpt lat="46.0701367" lon="13.21989"><ele>114.0</ele><time>2026-04-11T07:55:56.465Z</time></trkpt><trkpt lat="46.07018" lon="13.2197967"><ele>114.0</ele><time>2026-04-11T07:55:57.466Z</time></trkpt><trkpt lat="46.07021" lon="13.2196817"><ele>114.0</ele><time>2026-04-11T07:55:58.465Z</time></trkpt><trkpt lat="46.0702433" lon="13.21956"><ele>114.0</ele><time>2026-04-11T07:55:59.466Z</time></trkpt><trkpt lat="46.0702867" lon="13.2194183"><ele>114.0</ele><time>2026-04-11T07:56:00.466Z</time></trkpt><trkpt lat="46.0703433" lon="13.219275"><ele>114.0</ele><time>2026-04-11T07:56:01.466Z</time></trkpt><trkpt lat="46.070395" lon="13.2191483"><ele>114.0</ele><time>2026-04-11T07:56:02.466Z</time></trkpt><trkpt lat="46.0704467" lon="13.2190267"><ele>114.0</ele><time>2026-04-11T07:56:03.466Z</time></trkpt><trkpt lat="46.0704933" lon="13.2188767"><ele>114.0</ele><time>2026-04-11T07:56:04.465Z</time></trkpt><trkpt lat="46.0705367" lon="13.2187317"><ele>114.0</ele><time>2026-04-11T07:56:05.466Z</time></trkpt><trkpt lat="46.0705817" lon="13.21859"><ele>114.0</ele><time>2026-04-11T07:56:06.465Z</time></trkpt><trkpt lat="46.0706383" lon="13.21846"><ele>114.0</ele><time>2026-04-11T07:56:07.465Z</time></trkpt><trkpt lat="46.07069" lon="13.2183333"><ele>114.0</ele><time>2026-04-11T07:56:08.466Z</time></trkpt><trkpt lat="46.0707617" lon="13.218215"><ele>114.0</ele><time>2026-04-11T07:56:09.466Z</time></trkpt><trkpt lat="46.0708333" lon="13.2180917"><ele>114.0</ele><time>2026-04-11T07:56:10.465Z</time></trkpt><trkpt lat="46.070885" lon="13.217955"><ele>114.0</ele><time>2026-04-11T07:56:11.466Z</time></trkpt><trkpt lat="46.0709467" lon="13.2178283"><ele>114.0</ele><time>2026-04-11T07:56:12.466Z</time></trkpt><trkpt lat="46.071005" lon="13.217705"><ele>114.0</ele><time>2026-04-11T07:56:13.466Z</time></trkpt><trkpt lat="46.0710617" lon="13.2175717"><ele>114.0</ele><time>2026-04-11T07:56:14.466Z</time></trkpt><trkpt lat="46.0711167" lon="13.2174417"><ele>114.0</ele><time>2026-04-11T07:56:15.466Z</time></trkpt><trkpt lat="46.0711733" lon="13.217295"><ele>114.0</ele><time>2026-04-11T07:56:16.466Z</time></trkpt><trkpt lat="46.0712283" lon="13.2171417"><ele>114.0</ele><time>2026-04-11T07:56:17.466Z</time></trkpt><trkpt lat="46.071275" lon="13.2170017"><ele>114.0</ele><time>2026-04-11T07:56:18.466Z</time></trkpt><trkpt lat="46.07132" lon="13.2168417"><ele>114.0</ele><time>2026-04-11T07:56:19.466Z</time></trkpt><trkpt lat="46.07137" lon="13.2166917"><ele>114.0</ele><time>2026-04-11T07:56:20.466Z</time></trkpt><trkpt lat="46.0714267" lon="13.2165633"><ele>114.0</ele><time>2026-04-11T07:56:21.466Z</time></trkpt><trkpt lat="46.0714867" lon="13.2164467"><ele>114.0</ele><time>2026-04-11T07:56:22.466Z</time></trkpt><trkpt lat="46.0715417" lon="13.2163233"><ele>114.0</ele><time>2026-04-11T07:56:23.466Z</time></trkpt><trkpt lat="46.0716033" lon="13.2161983"><ele>114.0</ele><time>2026-04-11T07:56:24.466Z</time></trkpt><trkpt lat="46.0716717" lon="13.21607"><ele>114.0</ele><time>2026-04-11T07:56:25.466Z</time></trkpt><trkpt lat="46.07174" lon="13.2159233"><ele>114.0</ele><time>2026-04-11T07:56:26.466Z</time></trkpt><trkpt lat="46.0718233" lon="13.21577"><ele>114.33333333333334</ele><time>2026-04-11T07:56:27.466Z</time></trkpt><trkpt lat="46.0719183" lon="13.215585"><ele>114.66666666666667</ele><time>2026-04-11T07:56:28.466Z</time></trkpt><trkpt lat="46.07202" lon="13.2153733"><ele>115.0</ele><time>2026-04-11T07:56:29.465Z</time></trkpt><trkpt lat="46.0721117" lon="13.215175"><ele>115.0</ele><time>2026-04-11T07:56:30.466Z</time></trkpt><trkpt lat="46.0722067" lon="13.2149917"><ele>115.0</ele><time>2026-04-11T07:56:31.465Z</time></trkpt><trkpt lat="46.0722867" lon="13.214815"><ele>115.0</ele><time>2026-04-11T07:56:32.465Z</time></trkpt><trkpt lat="46.07235" lon="13.2146417"><ele>115.0</ele><time>2026-04-11T07:56:33.466Z</time></trkpt><trkpt lat="46.0724183" lon="13.2144767"><ele>114.75</ele><time>2026-04-11T07:56:34.465Z</time></trkpt><trkpt lat="46.07249" lon="13.2143217"><ele>114.5</ele><time>2026-04-11T07:56:35.466Z</time></trkpt><trkpt lat="46.07256" lon="13.2141683"><ele>114.25</ele><time>2026-04-11T07:56:36.466Z</time></trkpt><trkpt lat="46.0726267" lon="13.2140117"><ele>114.0</ele><time>2026-04-11T07:56:37.466Z</time></trkpt><trkpt lat="46.0727017" lon="13.2138617"><ele>114.0</ele><time>2026-04-11T07:56:38.466Z</time></trkpt><trkpt lat="46.0727683" lon="13.2137017"><ele>114.0</ele><time>2026-04-11T07:56:39.466Z</time></trkpt><trkpt lat="46.07281" lon="13.2135633"><ele>114.0</ele><time>2026-04-11T07:56:40.466Z</time></trkpt><trkpt lat="46.0728767" lon="13.2134167"><ele>114.0</ele><time>2026-04-11T07:56:41.466Z</time></trkpt><trkpt lat="46.0729467" lon="13.2132833"><ele>113.80000000000001</ele><time>2026-04-11T07:56:42.466Z</time></trkpt><trkpt lat="46.073015" lon="13.2131483"><ele>113.60000000000001</ele><time>2026-04-11T07:56:43.466Z</time></trkpt><trkpt lat="46.0730817" lon="13.2130133"><ele>113.4</ele><time>2026-04-11T07:56:44.465Z</time></trkpt><trkpt lat="46.0731233" lon="13.21289"><ele>113.2</ele><time>2026-04-11T07:56:45.465Z</time></trkpt><trkpt lat="46.07318" lon="13.212755"><ele>113.0</ele><time>2026-04-11T07:56:46.466Z</time></trkpt><trkpt lat="46.0732433" lon="13.2126433"><ele>112.99999999999999</ele><time>2026-04-11T07:56:47.466Z</time></trkpt><trkpt lat="46.0732983" lon="13.21254"><ele>113.0</ele><time>2026-04-11T07:56:48.466Z</time></trkpt><trkpt lat="46.0733333" lon="13.2124417"><ele>113.0</ele><time>2026-04-11T07:56:49.466Z</time></trkpt><trkpt lat="46.07336" lon="13.21235"><ele>113.0</ele><time>2026-04-11T07:56:50.466Z</time></trkpt><trkpt lat="46.07339" lon="13.21222"><ele>112.99999999999999</ele><time>2026-04-11T07:56:52.466Z</time></trkpt><trkpt lat="46.0734083" lon="13.2121217"><ele>113.0</ele><time>2026-04-11T07:56:54.465Z</time></trkpt><trkpt lat="46.0734317" lon="13.21202"><ele>113.0</ele><time>2026-04-11T07:57:35.466Z</time></trkpt><trkpt lat="46.0734533" lon="13.21192"><ele>113.00000000000001</ele><time>2026-04-11T07:57:36.466Z</time></trkpt><trkpt lat="46.073475" lon="13.2118"><ele>113.00000000000001</ele><time>2026-04-11T07:57:37.466Z</time></trkpt><trkpt lat="46.0734917" lon="13.2116733"><ele>113.0</ele><time>2026-04-11T07:57:38.466Z</time></trkpt><trkpt lat="46.0735" lon="13.2115283"><ele>113.0</ele><time>2026-04-11T07:57:39.466Z</time></trkpt><trkpt lat="46.0735033" lon="13.21137"><ele>113.5</ele><time>2026-04-11T07:57:40.466Z</time></trkpt><trkpt lat="46.0735133" lon="13.2112067"><ele>114.0</ele><time>2026-04-11T07:57:41.466Z</time></trkpt><trkpt lat="46.0735217" lon="13.21103"><ele>114.5</ele><time>2026-04-11T07:57:42.466Z</time></trkpt><trkpt lat="46.073525" lon="13.2108467"><ele>115.0</ele><time>2026-04-11T07:57:43.466Z</time></trkpt><trkpt lat="46.0735433" lon="13.2106567"><ele>115.25</ele><time>2026-04-11T07:57:44.465Z</time></trkpt><trkpt lat="46.0735467" lon="13.2104617"><ele>115.5</ele><time>2026-04-11T07:57:45.466Z</time></trkpt><trkpt lat="46.0735783" lon="13.210275"><ele>115.75</ele><time>2026-04-11T07:57:46.465Z</time></trkpt><trkpt lat="46.0736017" lon="13.2101067"><ele>116.0</ele><time>2026-04-11T07:57:47.466Z</time></trkpt><trkpt lat="46.073635" lon="13.209935"><ele>115.33333333333333</ele><time>2026-04-11T07:57:48.466Z</time></trkpt><trkpt lat="46.0736583" lon="13.2097217"><ele>114.66666666666666</ele><time>2026-04-11T07:57:49.464Z</time></trkpt><trkpt lat="46.0736767" lon="13.20951"><ele>114.0</ele><time>2026-04-11T07:57:50.464Z</time></trkpt><trkpt lat="46.07369" lon="13.209285"><ele>114.0</ele><time>2026-04-11T07:57:51.465Z</time></trkpt><trkpt lat="46.0736983" lon="13.20903"><ele>114.0</ele><time>2026-04-11T07:57:52.465Z</time></trkpt><trkpt lat="46.0737" lon="13.2087433"><ele>114.0</ele><time>2026-04-11T07:57:53.465Z</time></trkpt><trkpt lat="46.0737017" lon="13.208465"><ele>114.33333333333334</ele><time>2026-04-11T07:57:54.465Z</time></trkpt><trkpt lat="46.0737" lon="13.2081867"><ele>114.66666666666667</ele><time>2026-04-11T07:57:55.465Z</time></trkpt><trkpt lat="46.073725" lon="13.2079017"><ele>115.0</ele><time>2026-04-11T07:57:56.465Z</time></trkpt><trkpt lat="46.0737433" lon="13.2076233"><ele>115.0</ele><time>2026-04-11T07:57:57.465Z</time></trkpt><trkpt lat="46.0737567" lon="13.20737"><ele>115.0</ele><time>2026-04-11T07:57:58.464Z</time></trkpt><trkpt lat="46.073775" lon="13.207125"><ele>115.0</ele><time>2026-04-11T07:57:59.464Z</time></trkpt><trkpt lat="46.0737967" lon="13.2068733"><ele>114.33333333333334</ele><time>2026-04-11T07:58:00.465Z</time></trkpt><trkpt lat="46.0738183" lon="13.2066383"><ele>113.66666666666666</ele><time>2026-04-11T07:58:01.465Z</time></trkpt><trkpt lat="46.073835" lon="13.2064"><ele>113.0</ele><time>2026-04-11T07:58:02.464Z</time></trkpt><trkpt lat="46.0738517" lon="13.2061717"><ele>113.0</ele><time>2026-04-11T07:58:03.465Z</time></trkpt><trkpt lat="46.07387" lon="13.2059417"><ele>113.0</ele><time>2026-04-11T07:58:04.465Z</time></trkpt><trkpt lat="46.0738817" lon="13.205705"><ele>113.0</ele><time>2026-04-11T07:58:05.465Z</time></trkpt><trkpt lat="46.0738983" lon="13.205475"><ele>113.0</ele><time>2026-04-11T07:58:06.464Z</time></trkpt><trkpt lat="46.0739133" lon="13.2052483"><ele>113.0</ele><time>2026-04-11T07:58:07.465Z</time></trkpt><trkpt lat="46.07393" lon="13.2050133"><ele>113.0</ele><time>2026-04-11T07:58:08.465Z</time></trkpt><trkpt lat="46.0739433" lon="13.204775"><ele>113.0</ele><time>2026-04-11T07:58:09.465Z</time></trkpt><trkpt lat="46.0739667" lon="13.2045433"><ele>113.0</ele><time>2026-04-11T07:58:10.465Z</time></trkpt><trkpt lat="46.0739767" lon="13.2043467"><ele>113.0</ele><time>2026-04-11T07:58:11.465Z</time></trkpt><trkpt lat="46.0739883" lon="13.2041433"><ele>113.0</ele><time>2026-04-11T07:58:12.465Z</time></trkpt><trkpt lat="46.0740067" lon="13.2039317"><ele>113.0</ele><time>2026-04-11T07:58:13.465Z</time></trkpt><trkpt lat="46.0740283" lon="13.203705"><ele>113.0</ele><time>2026-04-11T07:58:14.465Z</time></trkpt><trkpt lat="46.0740483" lon="13.2034733"><ele>113.0</ele><time>2026-04-11T07:58:15.465Z</time></trkpt><trkpt lat="46.0740633" lon="13.2032417"><ele>113.0</ele><time>2026-04-11T07:58:16.465Z</time></trkpt><trkpt lat="46.07408" lon="13.20301"><ele>113.0</ele><time>2026-04-11T07:58:17.464Z</time></trkpt><trkpt lat="46.0740967" lon="13.2027817"><ele>113.0</ele><time>2026-04-11T07:58:18.465Z</time></trkpt><trkpt lat="46.074125" lon="13.202575"><ele>112.66666666666666</ele><time>2026-04-11T07:58:19.465Z</time></trkpt><trkpt lat="46.07415" lon="13.202365"><ele>112.33333333333334</ele><time>2026-04-11T07:58:20.465Z</time></trkpt><trkpt lat="46.074175" lon="13.2021433"><ele>112.0</ele><time>2026-04-11T07:58:21.465Z</time></trkpt><trkpt lat="46.07419" lon="13.20192"><ele>111.66666666666667</ele><time>2026-04-11T07:58:22.465Z</time></trkpt><trkpt lat="46.0742117" lon="13.20167"><ele>111.33333333333334</ele><time>2026-04-11T07:58:23.464Z</time></trkpt><trkpt lat="46.0742333" lon="13.2014133"><ele>111.0</ele><time>2026-04-11T07:58:24.464Z</time></trkpt><trkpt lat="46.07424" lon="13.20117"><ele>111.0</ele><time>2026-04-11T07:58:25.464Z</time></trkpt><trkpt lat="46.0742567" lon="13.2009383"><ele>111.0</ele><time>2026-04-11T07:58:26.464Z</time></trkpt><trkpt lat="46.0742717" lon="13.2007117"><ele>111.0</ele><time>2026-04-11T07:58:27.465Z</time></trkpt><trkpt lat="46.0742817" lon="13.20049"><ele>111.0</ele><time>2026-04-11T07:58:28.465Z</time></trkpt><trkpt lat="46.074295" lon="13.2002683"><ele>111.0</ele><time>2026-04-11T07:58:29.464Z</time></trkpt><trkpt lat="46.07431" lon="13.20004"><ele>111.0</ele><time>2026-04-11T07:58:30.465Z</time></trkpt><trkpt lat="46.0743233" lon="13.1997967"><ele>110.66666666666666</ele><time>2026-04-11T07:58:31.465Z</time></trkpt><trkpt lat="46.07434" lon="13.19955"><ele>110.33333333333333</ele><time>2026-04-11T07:58:32.465Z</time></trkpt><trkpt lat="46.0743567" lon="13.1992833"><ele>110.0</ele><time>2026-04-11T07:58:33.465Z</time></trkpt><trkpt lat="46.0743733" lon="13.198995"><ele>110.0</ele><time>2026-04-11T07:58:34.465Z</time></trkpt><trkpt lat="46.0743983" lon="13.19868"><ele>110.0</ele><time>2026-04-11T07:58:35.465Z</time></trkpt><trkpt lat="46.07442" lon="13.1983683"><ele>110.0</ele><time>2026-04-11T07:58:36.464Z</time></trkpt><trkpt lat="46.0744433" lon="13.1980683"><ele>110.0</ele><time>2026-04-11T07:58:37.464Z</time></trkpt><trkpt lat="46.0744683" lon="13.1977717"><ele>110.0</ele><time>2026-04-11T07:58:38.465Z</time></trkpt><trkpt lat="46.0744983" lon="13.1974933"><ele>110.0</ele><time>2026-04-11T07:58:39.464Z</time></trkpt><trkpt lat="46.0745183" lon="13.197215"><ele>110.0</ele><time>2026-04-11T07:58:40.465Z</time></trkpt><trkpt lat="46.07454" lon="13.1969433"><ele>110.0</ele><time>2026-04-11T07:58:41.464Z</time></trkpt><trkpt lat="46.074565" lon="13.1966917"><ele>110.0</ele><time>2026-04-11T07:58:42.465Z</time></trkpt><trkpt lat="46.0745817" lon="13.1964567"><ele>110.0</ele><time>2026-04-11T07:58:43.465Z</time></trkpt><trkpt lat="46.0745967" lon="13.1962083"><ele>110.0</ele><time>2026-04-11T07:58:44.465Z</time></trkpt><trkpt lat="46.0746133" lon="13.1959767"><ele>110.0</ele><time>2026-04-11T07:58:45.465Z</time></trkpt><trkpt lat="46.0746383" lon="13.195745"><ele>110.33333333333333</ele><time>2026-04-11T07:58:46.465Z</time></trkpt><trkpt lat="46.074655" lon="13.1955217"><ele>110.66666666666666</ele><time>2026-04-11T07:58:47.465Z</time></trkpt><trkpt lat="46.0746567" lon="13.1952883"><ele>111.0</ele><time>2026-04-11T07:58:48.465Z</time></trkpt><trkpt lat="46.0746717" lon="13.1950517"><ele>111.33333333333334</ele><time>2026-04-11T07:58:49.465Z</time></trkpt><trkpt lat="46.0746783" lon="13.1948083"><ele>111.66666666666667</ele><time>2026-04-11T07:58:50.465Z</time></trkpt><trkpt lat="46.0747" lon="13.1945617"><ele>112.0</ele><time>2026-04-11T07:58:51.465Z</time></trkpt><trkpt lat="46.07473" lon="13.1943233"><ele>112.0</ele><time>2026-04-11T07:58:52.464Z</time></trkpt><trkpt lat="46.0747533" lon="13.1940783"><ele>112.0</ele><time>2026-04-11T07:58:53.465Z</time></trkpt><trkpt lat="46.07477" lon="13.1938283"><ele>112.0</ele><time>2026-04-11T07:58:54.465Z</time></trkpt><trkpt lat="46.0747883" lon="13.1935833"><ele>112.66666666666667</ele><time>2026-04-11T07:58:55.464Z</time></trkpt><trkpt lat="46.074805" lon="13.1933467"><ele>113.33333333333334</ele><time>2026-04-11T07:58:56.464Z</time></trkpt><trkpt lat="46.07482" lon="13.1931117"><ele>114.0</ele><time>2026-04-11T07:58:57.465Z</time></trkpt><trkpt lat="46.0748367" lon="13.1928833"><ele>114.25</ele><time>2026-04-11T07:58:58.465Z</time></trkpt><trkpt lat="46.0748567" lon="13.1926667"><ele>114.5</ele><time>2026-04-11T07:58:59.465Z</time></trkpt><trkpt lat="46.074875" lon="13.1924617"><ele>114.75</ele><time>2026-04-11T07:59:00.465Z</time></trkpt><trkpt lat="46.074895" lon="13.1922633"><ele>115.0</ele><time>2026-04-11T07:59:01.464Z</time></trkpt><trkpt lat="46.0749217" lon="13.19213"><ele>115.00000000000001</ele><time>2026-04-11T07:59:02.465Z</time></trkpt><trkpt lat="46.074945" lon="13.192025"><ele>115.0</ele><time>2026-04-11T07:59:03.465Z</time></trkpt><trkpt lat="46.0749617" lon="13.1919317"><ele>115.0</ele><time>2026-04-11T07:59:04.465Z</time></trkpt><trkpt lat="46.0749883" lon="13.1918117"><ele>115.0</ele><time>2026-04-11T07:59:06.465Z</time></trkpt><trkpt lat="46.07503" lon="13.19174"><ele>115.00000000000001</ele><time>2026-04-11T07:59:11.464Z</time></trkpt><trkpt lat="46.0750567" lon="13.1915933"><ele>115.0</ele><time>2026-04-11T07:59:20.464Z</time></trkpt><trkpt lat="46.07509" lon="13.1914567"><ele>115.0</ele><time>2026-04-11T07:59:29.465Z</time></trkpt><trkpt lat="46.075125" lon="13.191285"><ele>115.0</ele><time>2026-04-11T07:59:32.465Z</time></trkpt><trkpt lat="46.0751533" lon="13.1911817"><ele>115.0</ele><time>2026-04-11T07:59:33.465Z</time></trkpt><trkpt lat="46.0751833" lon="13.1910667"><ele>115.0</ele><time>2026-04-11T07:59:34.465Z</time></trkpt><trkpt lat="46.0752167" lon="13.19093"><ele>115.0</ele><time>2026-04-11T07:59:35.465Z</time></trkpt><trkpt lat="46.0752783" lon="13.19075"><ele>115.33333333333334</ele><time>2026-04-11T07:59:36.465Z</time></trkpt><trkpt lat="46.07534" lon="13.1905567"><ele>115.66666666666666</ele><time>2026-04-11T07:59:37.465Z</time></trkpt><trkpt lat="46.0754083" lon="13.1903467"><ele>116.0</ele><time>2026-04-11T07:59:38.465Z</time></trkpt><trkpt lat="46.07548" lon="13.1901383"><ele>116.0</ele><time>2026-04-11T07:59:39.464Z</time></trkpt><trkpt lat="46.0755417" lon="13.1899267"><ele>116.0</ele><time>2026-04-11T07:59:40.465Z</time></trkpt><trkpt lat="46.075595" lon="13.1897183"><ele>116.0</ele><time>2026-04-11T07:59:41.465Z</time></trkpt><trkpt lat="46.0756667" lon="13.189505"><ele>116.0</ele><time>2026-04-11T07:59:42.465Z</time></trkpt><trkpt lat="46.0757317" lon="13.1892783"><ele>116.0</ele><time>2026-04-11T07:59:43.465Z</time></trkpt><trkpt lat="46.07579" lon="13.1890567"><ele>116.0</ele><time>2026-04-11T07:59:44.465Z</time></trkpt><trkpt lat="46.075855" lon="13.1888183"><ele>116.0</ele><time>2026-04-11T07:59:45.465Z</time></trkpt><trkpt lat="46.0759233" lon="13.1885583"><ele>116.0</ele><time>2026-04-11T07:59:46.464Z</time></trkpt><trkpt lat="46.0760033" lon="13.1882767"><ele>116.0</ele><time>2026-04-11T07:59:47.465Z</time></trkpt><trkpt lat="46.0760983" lon="13.1879817"><ele>116.0</ele><time>2026-04-11T07:59:48.465Z</time></trkpt><trkpt lat="46.07618" lon="13.187715"><ele>116.0</ele><time>2026-04-11T07:59:49.465Z</time></trkpt><trkpt lat="46.0762733" lon="13.187485"><ele>116.0</ele><time>2026-04-11T07:59:50.465Z</time></trkpt><trkpt lat="46.076335" lon="13.1872633"><ele>115.66666666666666</ele><time>2026-04-11T07:59:51.465Z</time></trkpt><trkpt lat="46.0764033" lon="13.187055"><ele>115.33333333333334</ele><time>2026-04-11T07:59:52.465Z</time></trkpt><trkpt lat="46.07647" lon="13.1868383"><ele>115.0</ele><time>2026-04-11T07:59:53.465Z</time></trkpt><trkpt lat="46.0765283" lon="13.1866333"><ele>115.0</ele><time>2026-04-11T07:59:54.465Z</time></trkpt><trkpt lat="46.0766033" lon="13.186425"><ele>115.0</ele><time>2026-04-11T07:59:55.465Z</time></trkpt><trkpt lat="46.0766733" lon="13.1862217"><ele>115.0</ele><time>2026-04-11T07:59:56.465Z</time></trkpt><trkpt lat="46.0767467" lon="13.18604"><ele>115.0</ele><time>2026-04-11T07:59:57.464Z</time></trkpt><trkpt lat="46.0767833" lon="13.18587"><ele>115.0</ele><time>2026-04-11T07:59:58.465Z</time></trkpt><trkpt lat="46.0768433" lon="13.185745"><ele>115.0</ele><time>2026-04-11T07:59:59.464Z</time></trkpt><trkpt lat="46.0769033" lon="13.1856033"><ele>115.0</ele><time>2026-04-11T08:00:00.465Z</time></trkpt><trkpt lat="46.0769683" lon="13.18546"><ele>115.0</ele><time>2026-04-11T08:00:01.465Z</time></trkpt><trkpt lat="46.07705" lon="13.185325"><ele>115.0</ele><time>2026-04-11T08:00:02.465Z</time></trkpt><trkpt lat="46.0771417" lon="13.18519"><ele>115.0</ele><time>2026-04-11T08:00:03.465Z</time></trkpt><trkpt lat="46.0772333" lon="13.1850517"><ele>115.0</ele><time>2026-04-11T08:00:04.465Z</time></trkpt><trkpt lat="46.0773383" lon="13.1849167"><ele>115.33333333333334</ele><time>2026-04-11T08:00:05.465Z</time></trkpt><trkpt lat="46.07747" lon="13.1848017"><ele>115.66666666666666</ele><time>2026-04-11T08:00:06.465Z</time></trkpt><trkpt lat="46.0776117" lon="13.1846733"><ele>116.0</ele><time>2026-04-11T08:00:07.465Z</time></trkpt><trkpt lat="46.0777483" lon="13.1845367"><ele>116.0</ele><time>2026-04-11T08:00:08.464Z</time></trkpt><trkpt lat="46.07788" lon="13.184385"><ele>116.0</ele><time>2026-04-11T08:00:09.465Z</time></trkpt><trkpt lat="46.078005" lon="13.1842117"><ele>116.0</ele><time>2026-04-11T08:00:10.465Z</time></trkpt><trkpt lat="46.0781467" lon="13.1840217"><ele>116.33333333333333</ele><time>2026-04-11T08:00:11.465Z</time></trkpt><trkpt lat="46.078285" lon="13.1838283"><ele>116.66666666666666</ele><time>2026-04-11T08:00:12.465Z</time></trkpt><trkpt lat="46.0784067" lon="13.1836233"><ele>117.0</ele><time>2026-04-11T08:00:13.465Z</time></trkpt><trkpt lat="46.0785167" lon="13.1834017"><ele>117.0</ele><time>2026-04-11T08:00:14.465Z</time></trkpt><trkpt lat="46.0786033" lon="13.1832"><ele>117.0</ele><time>2026-04-11T08:00:15.465Z</time></trkpt><trkpt lat="46.0786667" lon="13.182985"><ele>117.0</ele><time>2026-04-11T08:00:16.464Z</time></trkpt><trkpt lat="46.078735" lon="13.1827667"><ele>117.0</ele><time>2026-04-11T08:00:17.464Z</time></trkpt><trkpt lat="46.07879" lon="13.182535"><ele>117.0</ele><time>2026-04-11T08:00:18.465Z</time></trkpt><trkpt lat="46.0788567" lon="13.1823133"><ele>117.0</ele><time>2026-04-11T08:00:19.464Z</time></trkpt><trkpt lat="46.0789333" lon="13.1820967"><ele>117.0</ele><time>2026-04-11T08:00:20.465Z</time></trkpt><trkpt lat="46.079015" lon="13.18188"><ele>117.0</ele><time>2026-04-11T08:00:21.465Z</time></trkpt><trkpt lat="46.0790967" lon="13.1816617"><ele>117.0</ele><time>2026-04-11T08:00:22.465Z</time></trkpt><trkpt lat="46.0791717" lon="13.181435"><ele>117.33333333333334</ele><time>2026-04-11T08:00:23.465Z</time></trkpt><trkpt lat="46.07924" lon="13.181215"><ele>117.66666666666667</ele><time>2026-04-11T08:00:24.465Z</time></trkpt><trkpt lat="46.0793117" lon="13.1809917"><ele>118.0</ele><time>2026-04-11T08:00:25.465Z</time></trkpt><trkpt lat="46.07939" lon="13.1807783"><ele>118.0</ele><time>2026-04-11T08:00:26.465Z</time></trkpt><trkpt lat="46.0794833" lon="13.18057"><ele>118.0</ele><time>2026-04-11T08:00:27.464Z</time></trkpt><trkpt lat="46.0795733" lon="13.18035"><ele>118.0</ele><time>2026-04-11T08:00:28.465Z</time></trkpt><trkpt lat="46.079665" lon="13.1801333"><ele>118.0</ele><time>2026-04-11T08:00:29.465Z</time></trkpt><trkpt lat="46.0797517" lon="13.1799167"><ele>118.0</ele><time>2026-04-11T08:00:30.464Z</time></trkpt><trkpt lat="46.0798367" lon="13.1797017"><ele>118.0</ele><time>2026-04-11T08:00:31.465Z</time></trkpt><trkpt lat="46.079925" lon="13.1794833"><ele>118.0</ele><time>2026-04-11T08:00:32.465Z</time></trkpt><trkpt lat="46.0800083" lon="13.1792817"><ele>118.0</ele><time>2026-04-11T08:00:33.465Z</time></trkpt><trkpt lat="46.0800933" lon="13.17908"><ele>118.0</ele><time>2026-04-11T08:00:34.465Z</time></trkpt><trkpt lat="46.0801767" lon="13.1788867"><ele>118.33333333333334</ele><time>2026-04-11T08:00:35.465Z</time></trkpt><trkpt lat="46.0802517" lon="13.1786983"><ele>118.66666666666666</ele><time>2026-04-11T08:00:36.465Z</time></trkpt><trkpt lat="46.0803283" lon="13.17851"><ele>119.0</ele><time>2026-04-11T08:00:37.465Z</time></trkpt><trkpt lat="46.0804117" lon="13.17831"><ele>119.0</ele><time>2026-04-11T08:00:38.465Z</time></trkpt><trkpt lat="46.08049" lon="13.178115"><ele>119.0</ele><time>2026-04-11T08:00:39.465Z</time></trkpt><trkpt lat="46.0805717" lon="13.1779167"><ele>119.0</ele><time>2026-04-11T08:00:40.465Z</time></trkpt><trkpt lat="46.080655" lon="13.1777283"><ele>119.0</ele><time>2026-04-11T08:00:41.464Z</time></trkpt><trkpt lat="46.0807367" lon="13.177535"><ele>119.0</ele><time>2026-04-11T08:00:42.465Z</time></trkpt><trkpt lat="46.0808183" lon="13.17734"><ele>119.0</ele><time>2026-04-11T08:00:43.465Z</time></trkpt><trkpt lat="46.0809" lon="13.1771433"><ele>120.0</ele><time>2026-04-11T08:00:44.464Z</time></trkpt><trkpt lat="46.0809817" lon="13.1769433"><ele>121.0</ele><time>2026-04-11T08:00:45.465Z</time></trkpt><trkpt lat="46.0810567" lon="13.1767517"><ele>122.0</ele><time>2026-04-11T08:00:46.465Z</time></trkpt><trkpt lat="46.0811217" lon="13.1765717"><ele>121.8</ele><time>2026-04-11T08:00:47.465Z</time></trkpt><trkpt lat="46.0811783" lon="13.1764033"><ele>121.6</ele><time>2026-04-11T08:00:48.465Z</time></trkpt><trkpt lat="46.0812233" lon="13.1762733"><ele>121.39999999999999</ele><time>2026-04-11T08:00:49.465Z</time></trkpt><trkpt lat="46.0812617" lon="13.1761717"><ele>121.19999999999999</ele><time>2026-04-11T08:00:50.464Z</time></trkpt><trkpt lat="46.0813117" lon="13.1760667"><ele>121.0</ele><time>2026-04-11T08:00:52.465Z</time></trkpt><trkpt lat="46.0813783" lon="13.1760717"><ele>121.00000000000001</ele><time>2026-04-11T08:00:57.465Z</time></trkpt><trkpt lat="46.0814567" lon="13.1761283"><ele>121.0</ele><time>2026-04-11T08:00:59.465Z</time></trkpt><trkpt lat="46.081555" lon="13.17618"><ele>121.0</ele><time>2026-04-11T08:01:01.465Z</time></trkpt><trkpt lat="46.081615" lon="13.1762233"><ele>121.0</ele><time>2026-04-11T08:01:04.465Z</time></trkpt><trkpt lat="46.081675" lon="13.176265"><ele>121.00000000000001</ele><time>2026-04-11T08:01:06.464Z</time></trkpt><trkpt lat="46.081755" lon="13.1763117"><ele>121.0</ele><time>2026-04-11T08:01:08.464Z</time></trkpt><trkpt lat="46.0818533" lon="13.1763433"><ele>121.0</ele><time>2026-04-11T08:01:10.465Z</time></trkpt><trkpt lat="46.08195" lon="13.1763633"><ele>121.0</ele><time>2026-04-11T08:01:12.465Z</time></trkpt><trkpt lat="46.0820483" lon="13.1763783"><ele>121.0</ele><time>2026-04-11T08:01:14.465Z</time></trkpt><trkpt lat="46.0821467" lon="13.1763917"><ele>121.0</ele><time>2026-04-11T08:01:16.465Z</time></trkpt><trkpt lat="46.0822417" lon="13.1764367"><ele>121.0</ele><time>2026-04-11T08:01:18.464Z</time></trkpt><trkpt lat="46.08232" lon="13.17651"><ele>121.0</ele><time>2026-04-11T08:01:20.464Z</time></trkpt><trkpt lat="46.0824" lon="13.176565"><ele>121.0</ele><time>2026-04-11T08:01:22.465Z</time></trkpt><trkpt lat="46.0824983" lon="13.1766033"><ele>121.0</ele><time>2026-04-11T08:01:24.465Z</time></trkpt><trkpt lat="46.08256" lon="13.1766267"><ele>121.0</ele><time>2026-04-11T08:01:25.464Z</time></trkpt><trkpt lat="46.0826683" lon="13.17665"><ele>121.0</ele><time>2026-04-11T08:01:27.464Z</time></trkpt><trkpt lat="46.082765" lon="13.1766733"><ele>121.0</ele><time>2026-04-11T08:01:29.464Z</time></trkpt><trkpt lat="46.082855" lon="13.1766917"><ele>121.0</ele><time>2026-04-11T08:01:31.465Z</time></trkpt><trkpt lat="46.0829517" lon="13.1767033"><ele>121.0</ele><time>2026-04-11T08:01:33.465Z</time></trkpt><trkpt lat="46.0830433" lon="13.1766967"><ele>121.0</ele><time>2026-04-11T08:01:35.465Z</time></trkpt><trkpt lat="46.0831383" lon="13.17668"><ele>121.0</ele><time>2026-04-11T08:01:37.465Z</time></trkpt><trkpt lat="46.0832417" lon="13.1766317"><ele>121.00000000000001</ele><time>2026-04-11T08:01:39.465Z</time></trkpt><trkpt lat="46.0833017" lon="13.1765883"><ele>121.0</ele><time>2026-04-11T08:01:40.465Z</time></trkpt><trkpt lat="46.083375" lon="13.1765567"><ele>121.0</ele><time>2026-04-11T08:01:41.465Z</time></trkpt><trkpt lat="46.083455" lon="13.1765267"><ele>121.0</ele><time>2026-04-11T08:01:42.465Z</time></trkpt><trkpt lat="46.0835233" lon="13.1764867"><ele>121.00000000000001</ele><time>2026-04-11T08:01:43.465Z</time></trkpt><trkpt lat="46.0836133" lon="13.1763783"><ele>121.0</ele><time>2026-04-11T08:01:45.464Z</time></trkpt><trkpt lat="46.0836667" lon="13.1763217"><ele>120.83333333333334</ele><time>2026-04-11T08:01:46.465Z</time></trkpt><trkpt lat="46.0837283" lon="13.1762717"><ele>120.66666666666667</ele><time>2026-04-11T08:01:47.464Z</time></trkpt><trkpt lat="46.0837933" lon="13.17623"><ele>120.5</ele><time>2026-04-11T08:01:48.464Z</time></trkpt><trkpt lat="46.0838533" lon="13.1761833"><ele>120.33333333333334</ele><time>2026-04-11T08:01:49.465Z</time></trkpt><trkpt lat="46.08395" lon="13.1761017"><ele>120.16666666666667</ele><time>2026-04-11T08:01:51.465Z</time></trkpt><trkpt lat="46.0840067" lon="13.1760533"><ele>120.0</ele><time>2026-04-11T08:01:52.465Z</time></trkpt><trkpt lat="46.08406" lon="13.1760033"><ele>120.0</ele><time>2026-04-11T08:01:53.464Z</time></trkpt><trkpt lat="46.0841167" lon="13.1759517"><ele>120.0</ele><time>2026-04-11T08:01:54.464Z</time></trkpt><trkpt lat="46.0842067" lon="13.17585"><ele>120.0</ele><time>2026-04-11T08:01:56.465Z</time></trkpt><trkpt lat="46.0843033" lon="13.1757267"><ele>120.0</ele><time>2026-04-11T08:01:58.465Z</time></trkpt><trkpt lat="46.084395" lon="13.175625"><ele>120.0</ele><time>2026-04-11T08:02:00.464Z</time></trkpt><trkpt lat="46.0844383" lon="13.1755583"><ele>120.0</ele><time>2026-04-11T08:02:01.464Z</time></trkpt><trkpt lat="46.0844883" lon="13.1754833"><ele>120.0</ele><time>2026-04-11T08:02:02.465Z</time></trkpt><trkpt lat="46.0845383" lon="13.1754167"><ele>120.0</ele><time>2026-04-11T08:02:03.464Z</time></trkpt><trkpt lat="46.0845883" lon="13.17535"><ele>120.0</ele><time>2026-04-11T08:02:04.464Z</time></trkpt><trkpt lat="46.084635" lon="13.1752733"><ele>120.0</ele><time>2026-04-11T08:02:05.465Z</time></trkpt><trkpt lat="46.084695" lon="13.175215"><ele>120.0</ele><time>2026-04-11T08:02:06.465Z</time></trkpt><trkpt lat="46.084745" lon="13.175145"><ele>120.0</ele><time>2026-04-11T08:02:07.465Z</time></trkpt><trkpt lat="46.084795" lon="13.17508"><ele>120.0</ele><time>2026-04-11T08:02:08.464Z</time></trkpt><trkpt lat="46.0848467" lon="13.17501"><ele>120.0</ele><time>2026-04-11T08:02:09.464Z</time></trkpt><trkpt lat="46.0848967" lon="13.1749417"><ele>120.0</ele><time>2026-04-11T08:02:10.465Z</time></trkpt><trkpt lat="46.0849467" lon="13.174875"><ele>120.0</ele><time>2026-04-11T08:02:11.464Z</time></trkpt><trkpt lat="46.0849967" lon="13.1748083"><ele>120.0</ele><time>2026-04-11T08:02:12.465Z</time></trkpt><trkpt lat="46.0850767" lon="13.1747317"><ele>120.0</ele><time>2026-04-11T08:02:13.465Z</time></trkpt><trkpt lat="46.08514" lon="13.1746483"><ele>120.5</ele><time>2026-04-11T08:02:14.465Z</time></trkpt><trkpt lat="46.0851833" lon="13.1745533"><ele>121.0</ele><time>2026-04-11T08:02:15.465Z</time></trkpt><trkpt lat="46.0852183" lon="13.1744133"><ele>121.5</ele><time>2026-04-11T08:02:16.465Z</time></trkpt><trkpt lat="46.0852783" lon="13.174335"><ele>122.0</ele><time>2026-04-11T08:02:17.465Z</time></trkpt><trkpt lat="46.0853267" lon="13.17425"><ele>122.5</ele><time>2026-04-11T08:02:18.465Z</time></trkpt><trkpt lat="46.085385" lon="13.1741717"><ele>123.0</ele><time>2026-04-11T08:02:19.465Z</time></trkpt><trkpt lat="46.0854367" lon="13.1740867"><ele>123.16666666666667</ele><time>2026-04-11T08:02:20.465Z</time></trkpt><trkpt lat="46.0854933" lon="13.1740067"><ele>123.33333333333334</ele><time>2026-04-11T08:02:21.465Z</time></trkpt><trkpt lat="46.0855517" lon="13.1739583"><ele>123.5</ele><time>2026-04-11T08:02:22.465Z</time></trkpt><trkpt lat="46.085595" lon="13.1738833"><ele>123.66666666666667</ele><time>2026-04-11T08:02:23.465Z</time></trkpt><trkpt lat="46.085635" lon="13.1738117"><ele>123.83333333333334</ele><time>2026-04-11T08:02:24.465Z</time></trkpt><trkpt lat="46.0857183" lon="13.1736833"><ele>124.0</ele><time>2026-04-11T08:02:26.465Z</time></trkpt><trkpt lat="46.08577" lon="13.1736017"><ele>123.83333333333334</ele><time>2026-04-11T08:02:27.465Z</time></trkpt><trkpt lat="46.0858283" lon="13.17351"><ele>123.66666666666667</ele><time>2026-04-11T08:02:28.465Z</time></trkpt><trkpt lat="46.0858733" lon="13.1734333"><ele>123.5</ele><time>2026-04-11T08:02:29.465Z</time></trkpt><trkpt lat="46.08592" lon="13.1733533"><ele>123.33333333333334</ele><time>2026-04-11T08:02:30.465Z</time></trkpt><trkpt lat="46.0859683" lon="13.1732683"><ele>123.16666666666667</ele><time>2026-04-11T08:02:31.465Z</time></trkpt><trkpt lat="46.0860133" lon="13.1731817"><ele>123.0</ele><time>2026-04-11T08:02:32.465Z</time></trkpt><trkpt lat="46.0860667" lon="13.1730967"><ele>123.00000000000001</ele><time>2026-04-11T08:02:33.465Z</time></trkpt><trkpt lat="46.0861117" lon="13.173015"><ele>123.0</ele><time>2026-04-11T08:02:34.465Z</time></trkpt><trkpt lat="46.08616" lon="13.1729367"><ele>123.00000000000001</ele><time>2026-04-11T08:02:35.465Z</time></trkpt><trkpt lat="46.0862183" lon="13.1728733"><ele>123.00000000000001</ele><time>2026-04-11T08:02:36.464Z</time></trkpt><trkpt lat="46.0862783" lon="13.172815"><ele>123.0</ele><time>2026-04-11T08:02:37.465Z</time></trkpt><trkpt lat="46.0863333" lon="13.17277"><ele>123.00000000000001</ele><time>2026-04-11T08:02:38.465Z</time></trkpt><trkpt lat="46.086395" lon="13.1727417"><ele>123.00000000000001</ele><time>2026-04-11T08:02:39.464Z</time></trkpt><trkpt lat="46.08646" lon="13.1727033"><ele>123.0</ele><time>2026-04-11T08:02:40.464Z</time></trkpt><trkpt lat="46.0865317" lon="13.172675"><ele>123.0</ele><time>2026-04-11T08:02:41.465Z</time></trkpt><trkpt lat="46.086605" lon="13.1726383"><ele>123.0</ele><time>2026-04-11T08:02:42.465Z</time></trkpt><trkpt lat="46.0866817" lon="13.17261"><ele>123.0</ele><time>2026-04-11T08:02:43.464Z</time></trkpt><trkpt lat="46.0867617" lon="13.1725867"><ele>123.0</ele><time>2026-04-11T08:02:44.465Z</time></trkpt><trkpt lat="46.08685" lon="13.1725717"><ele>123.0</ele><time>2026-04-11T08:02:45.465Z</time></trkpt><trkpt lat="46.0869433" lon="13.17258"><ele>123.5</ele><time>2026-04-11T08:02:46.465Z</time></trkpt><trkpt lat="46.0870383" lon="13.17259"><ele>124.0</ele><time>2026-04-11T08:02:47.465Z</time></trkpt><trkpt lat="46.08712" lon="13.17259"><ele>124.5</ele><time>2026-04-11T08:02:48.465Z</time></trkpt><trkpt lat="46.087195" lon="13.172575"><ele>125.0</ele><time>2026-04-11T08:02:49.465Z</time></trkpt><trkpt lat="46.087265" lon="13.1725433"><ele>125.5</ele><time>2026-04-11T08:02:50.465Z</time></trkpt><trkpt lat="46.0873217" lon="13.1724883"><ele>126.0</ele><time>2026-04-11T08:02:51.465Z</time></trkpt><trkpt lat="46.0873733" lon="13.1724067"><ele>125.33333333333333</ele><time>2026-04-11T08:02:52.465Z</time></trkpt><trkpt lat="46.087425" lon="13.1723117"><ele>124.66666666666666</ele><time>2026-04-11T08:02:53.465Z</time></trkpt><trkpt lat="46.087475" lon="13.17223"><ele>124.0</ele><time>2026-04-11T08:02:54.465Z</time></trkpt><trkpt lat="46.0875317" lon="13.1721733"><ele>123.33333333333333</ele><time>2026-04-11T08:02:55.465Z</time></trkpt><trkpt lat="46.0875817" lon="13.1720917"><ele>122.66666666666666</ele><time>2026-04-11T08:02:56.465Z</time></trkpt><trkpt lat="46.0876217" lon="13.171985"><ele>122.0</ele><time>2026-04-11T08:02:57.465Z</time></trkpt><trkpt lat="46.0876533" lon="13.1718767"><ele>121.99999999999999</ele><time>2026-04-11T08:02:58.465Z</time></trkpt><trkpt lat="46.0876833" lon="13.17177"><ele>122.0</ele><time>2026-04-11T08:02:59.465Z</time></trkpt><trkpt lat="46.087715" lon="13.1716567"><ele>122.0</ele><time>2026-04-11T08:03:00.464Z</time></trkpt><trkpt lat="46.0877283" lon="13.1715367"><ele>122.0</ele><time>2026-04-11T08:03:01.465Z</time></trkpt><trkpt lat="46.0877683" lon="13.17138"><ele>121.99999999999999</ele><time>2026-04-11T08:03:03.465Z</time></trkpt><trkpt lat="46.087815" lon="13.1713017"><ele>122.0</ele><time>2026-04-11T08:03:05.465Z</time></trkpt><trkpt lat="46.0878683" lon="13.171215"><ele>121.99999999999999</ele><time>2026-04-11T08:03:08.465Z</time></trkpt><trkpt lat="46.08791" lon="13.171145"><ele>122.0</ele><time>2026-04-11T08:03:10.465Z</time></trkpt><trkpt lat="46.0879767" lon="13.1711383"><ele>121.99999999999999</ele><time>2026-04-11T08:03:12.464Z</time></trkpt><trkpt lat="46.0880583" lon="13.1711233"><ele>121.99999999999999</ele><time>2026-04-11T08:03:14.465Z</time></trkpt><trkpt lat="46.0881117" lon="13.1710517"><ele>122.0</ele><time>2026-04-11T08:03:17.465Z</time></trkpt><trkpt lat="46.0881167" lon="13.1709133"><ele>121.99999999999999</ele><time>2026-04-11T08:03:19.464Z</time></trkpt><trkpt lat="46.08812" lon="13.1708167"><ele>121.99999999999999</ele><time>2026-04-11T08:03:20.465Z</time></trkpt><trkpt lat="46.0881233" lon="13.1707133"><ele>122.16666666666666</ele><time>2026-04-11T08:03:21.465Z</time></trkpt><trkpt lat="46.0881317" lon="13.1706067"><ele>122.33333333333333</ele><time>2026-04-11T08:03:22.465Z</time></trkpt><trkpt lat="46.0881367" lon="13.1704967"><ele>122.5</ele><time>2026-04-11T08:03:23.464Z</time></trkpt><trkpt lat="46.0881367" lon="13.170375"><ele>122.66666666666666</ele><time>2026-04-11T08:03:24.465Z</time></trkpt><trkpt lat="46.0881417" lon="13.1702583"><ele>122.83333333333333</ele><time>2026-04-11T08:03:25.465Z</time></trkpt><trkpt lat="46.0881417" lon="13.17015"><ele>123.0</ele><time>2026-04-11T08:03:26.464Z</time></trkpt><trkpt lat="46.0881433" lon="13.17004"><ele>123.0</ele><time>2026-04-11T08:03:27.465Z</time></trkpt><trkpt lat="46.0881483" lon="13.1699233"><ele>123.0</ele><time>2026-04-11T08:03:28.465Z</time></trkpt><trkpt lat="46.088155" lon="13.1698117"><ele>123.0</ele><time>2026-04-11T08:03:29.465Z</time></trkpt><trkpt lat="46.0881567" lon="13.1697017"><ele>123.0</ele><time>2026-04-11T08:03:30.465Z</time></trkpt><trkpt lat="46.0881617" lon="13.1695933"><ele>123.0</ele><time>2026-04-11T08:03:31.464Z</time></trkpt><trkpt lat="46.0881633" lon="13.169485"><ele>123.0</ele><time>2026-04-11T08:03:32.465Z</time></trkpt><trkpt lat="46.088165" lon="13.1693783"><ele>123.14285714285717</ele><time>2026-04-11T08:03:33.465Z</time></trkpt><trkpt lat="46.0881733" lon="13.1692733"><ele>123.28571428571429</ele><time>2026-04-11T08:03:34.465Z</time></trkpt><trkpt lat="46.0881817" lon="13.169165"><ele>123.42857142857144</ele><time>2026-04-11T08:03:35.464Z</time></trkpt><trkpt lat="46.088185" lon="13.1690617"><ele>123.57142857142858</ele><time>2026-04-11T08:03:36.465Z</time></trkpt><trkpt lat="46.0881933" lon="13.1689567"><ele>123.71428571428572</ele><time>2026-04-11T08:03:37.465Z</time></trkpt><trkpt lat="46.0882033" lon="13.1688517"><ele>123.85714285714286</ele><time>2026-04-11T08:03:38.465Z</time></trkpt><trkpt lat="46.0882067" lon="13.1687517"><ele>124.0</ele><time>2026-04-11T08:03:39.464Z</time></trkpt><trkpt lat="46.08821" lon="13.16866"><ele>123.83333333333334</ele><time>2026-04-11T08:03:40.465Z</time></trkpt><trkpt lat="46.0882133" lon="13.16847"><ele>123.66666666666667</ele><time>2026-04-11T08:03:42.465Z</time></trkpt><trkpt lat="46.0882167" lon="13.1683667"><ele>123.5</ele><time>2026-04-11T08:03:43.464Z</time></trkpt><trkpt lat="46.0882167" lon="13.168265"><ele>123.33333333333334</ele><time>2026-04-11T08:03:44.465Z</time></trkpt><trkpt lat="46.088225" lon="13.168155"><ele>123.16666666666667</ele><time>2026-04-11T08:03:45.465Z</time></trkpt><trkpt lat="46.0882267" lon="13.1680417"><ele>123.0</ele><time>2026-04-11T08:03:46.464Z</time></trkpt><trkpt lat="46.0882317" lon="13.16793"><ele>123.0</ele><time>2026-04-11T08:03:47.465Z</time></trkpt><trkpt lat="46.088235" lon="13.16781"><ele>123.0</ele><time>2026-04-11T08:03:48.465Z</time></trkpt><trkpt lat="46.08824" lon="13.1676967"><ele>123.0</ele><time>2026-04-11T08:03:49.465Z</time></trkpt><trkpt lat="46.08825" lon="13.1675833"><ele>123.0</ele><time>2026-04-11T08:03:50.464Z</time></trkpt><trkpt lat="46.0882567" lon="13.1674717"><ele>123.0</ele><time>2026-04-11T08:03:51.465Z</time></trkpt><trkpt lat="46.088265" lon="13.1673567"><ele>123.0</ele><time>2026-04-11T08:03:52.465Z</time></trkpt><trkpt lat="46.0882683" lon="13.1672433"><ele>123.0</ele><time>2026-04-11T08:03:53.465Z</time></trkpt><trkpt lat="46.0882733" lon="13.1671267"><ele>123.0</ele><time>2026-04-11T08:03:54.465Z</time></trkpt><trkpt lat="46.08828" lon="13.1670117"><ele>123.0</ele><time>2026-04-11T08:03:55.465Z</time></trkpt><trkpt lat="46.0882883" lon="13.1668883"><ele>123.0</ele><time>2026-04-11T08:03:56.465Z</time></trkpt><trkpt lat="46.0882967" lon="13.1667617"><ele>123.0</ele><time>2026-04-11T08:03:57.464Z</time></trkpt><trkpt lat="46.088305" lon="13.1666317"><ele>123.0</ele><time>2026-04-11T08:03:58.465Z</time></trkpt><trkpt lat="46.0883083" lon="13.1665183"><ele>123.0</ele><time>2026-04-11T08:03:59.465Z</time></trkpt><trkpt lat="46.0883117" lon="13.1664067"><ele>123.0</ele><time>2026-04-11T08:04:00.465Z</time></trkpt><trkpt lat="46.08832" lon="13.1662983"><ele>123.0</ele><time>2026-04-11T08:04:01.464Z</time></trkpt><trkpt lat="46.088325" lon="13.166205"><ele>123.0</ele><time>2026-04-11T08:04:02.465Z</time></trkpt><trkpt lat="46.0883383" lon="13.1660333"><ele>123.0</ele><time>2026-04-11T08:04:04.465Z</time></trkpt><trkpt lat="46.0883433" lon="13.1659283"><ele>123.0</ele><time>2026-04-11T08:04:05.464Z</time></trkpt><trkpt lat="46.0883483" lon="13.1658217"><ele>123.00000000000001</ele><time>2026-04-11T08:04:06.465Z</time></trkpt><trkpt lat="46.08835" lon="13.1657183"><ele>123.0</ele><time>2026-04-11T08:04:07.464Z</time></trkpt><trkpt lat="46.0883517" lon="13.1656033"><ele>123.00000000000001</ele><time>2026-04-11T08:04:08.465Z</time></trkpt><trkpt lat="46.0883583" lon="13.1654983"><ele>123.00000000000001</ele><time>2026-04-11T08:04:09.465Z</time></trkpt><trkpt lat="46.088365" lon="13.1653917"><ele>123.0</ele><time>2026-04-11T08:04:10.465Z</time></trkpt><trkpt lat="46.088375" lon="13.16529"><ele>123.00000000000001</ele><time>2026-04-11T08:04:11.465Z</time></trkpt><trkpt lat="46.08838" lon="13.165185"><ele>123.00000000000001</ele><time>2026-04-11T08:04:12.465Z</time></trkpt><trkpt lat="46.088385" lon="13.1650667"><ele>123.0</ele><time>2026-04-11T08:04:13.465Z</time></trkpt><trkpt lat="46.0883883" lon="13.164955"><ele>123.0</ele><time>2026-04-11T08:04:14.465Z</time></trkpt><trkpt lat="46.0883917" lon="13.1648333"><ele>123.0</ele><time>2026-04-11T08:04:15.464Z</time></trkpt><trkpt lat="46.0884" lon="13.1647183"><ele>123.0</ele><time>2026-04-11T08:04:16.464Z</time></trkpt><trkpt lat="46.0884067" lon="13.1645983"><ele>123.0</ele><time>2026-04-11T08:04:17.465Z</time></trkpt><trkpt lat="46.088415" lon="13.1644733"><ele>123.0</ele><time>2026-04-11T08:04:18.465Z</time></trkpt><trkpt lat="46.088425" lon="13.1643417"><ele>123.0</ele><time>2026-04-11T08:04:19.464Z</time></trkpt><trkpt lat="46.0884333" lon="13.1641983"><ele>123.00000000000001</ele><time>2026-04-11T08:04:20.465Z</time></trkpt><trkpt lat="46.0884417" lon="13.1640583"><ele>123.00000000000001</ele><time>2026-04-11T08:04:21.464Z</time></trkpt><trkpt lat="46.0884483" lon="13.1639283"><ele>123.0</ele><time>2026-04-11T08:04:22.465Z</time></trkpt><trkpt lat="46.0884517" lon="13.1638083"><ele>123.0</ele><time>2026-04-11T08:04:23.465Z</time></trkpt><trkpt lat="46.0884567" lon="13.1636933"><ele>123.0</ele><time>2026-04-11T08:04:24.465Z</time></trkpt><trkpt lat="46.0884583" lon="13.16358"><ele>123.0</ele><time>2026-04-11T08:04:25.464Z</time></trkpt><trkpt lat="46.088465" lon="13.1634717"><ele>123.0</ele><time>2026-04-11T08:04:26.465Z</time></trkpt><trkpt lat="46.088475" lon="13.163375"><ele>123.0</ele><time>2026-04-11T08:04:27.465Z</time></trkpt><trkpt lat="46.0884867" lon="13.1632217"><ele>123.0</ele><time>2026-04-11T08:04:29.465Z</time></trkpt><trkpt lat="46.0885" lon="13.1631067"><ele>123.0</ele><time>2026-04-11T08:04:31.465Z</time></trkpt><trkpt lat="46.0885833" lon="13.163035"><ele>123.0</ele><time>2026-04-11T08:04:34.464Z</time></trkpt><trkpt lat="46.0887033" lon="13.1629733"><ele>123.0</ele><time>2026-04-11T08:04:36.464Z</time></trkpt><trkpt lat="46.0887717" lon="13.1629317"><ele>123.0</ele><time>2026-04-11T08:04:37.465Z</time></trkpt><trkpt lat="46.0888483" lon="13.1628917"><ele>123.0</ele><time>2026-04-11T08:04:38.465Z</time></trkpt><trkpt lat="46.08892" lon="13.1628617"><ele>123.0</ele><time>2026-04-11T08:04:39.464Z</time></trkpt><trkpt lat="46.088995" lon="13.1628283"><ele>123.0</ele><time>2026-04-11T08:04:40.465Z</time></trkpt><trkpt lat="46.0890767" lon="13.1627967"><ele>123.33333333333333</ele><time>2026-04-11T08:04:41.465Z</time></trkpt><trkpt lat="46.0891567" lon="13.1627617"><ele>123.66666666666666</ele><time>2026-04-11T08:04:42.464Z</time></trkpt><trkpt lat="46.0892333" lon="13.1627267"><ele>124.0</ele><time>2026-04-11T08:04:43.465Z</time></trkpt><trkpt lat="46.0893167" lon="13.1627"><ele>124.33333333333333</ele><time>2026-04-11T08:04:44.465Z</time></trkpt><trkpt lat="46.0893967" lon="13.1626683"><ele>124.66666666666666</ele><time>2026-04-11T08:04:45.465Z</time></trkpt><trkpt lat="46.0894783" lon="13.1626433"><ele>125.0</ele><time>2026-04-11T08:04:46.465Z</time></trkpt><trkpt lat="46.0895667" lon="13.162625"><ele>124.99999999999999</ele><time>2026-04-11T08:04:47.465Z</time></trkpt><trkpt lat="46.0896517" lon="13.1626"><ele>125.0</ele><time>2026-04-11T08:04:48.465Z</time></trkpt><trkpt lat="46.08973" lon="13.1625683"><ele>125.0</ele><time>2026-04-11T08:04:49.464Z</time></trkpt><trkpt lat="46.0898067" lon="13.1625417"><ele>125.0</ele><time>2026-04-11T08:04:50.464Z</time></trkpt><trkpt lat="46.0898933" lon="13.1625117"><ele>124.99999999999999</ele><time>2026-04-11T08:04:51.465Z</time></trkpt><trkpt lat="46.0899783" lon="13.16249"><ele>125.0</ele><time>2026-04-11T08:04:52.464Z</time></trkpt><trkpt lat="46.09006" lon="13.1624683"><ele>124.99999999999999</ele><time>2026-04-11T08:04:53.465Z</time></trkpt><trkpt lat="46.09014" lon="13.1624467"><ele>125.0</ele><time>2026-04-11T08:04:54.465Z</time></trkpt><trkpt lat="46.09022" lon="13.1624183"><ele>125.0</ele><time>2026-04-11T08:04:55.465Z</time></trkpt><trkpt lat="46.0903017" lon="13.1623867"><ele>125.0</ele><time>2026-04-11T08:04:56.465Z</time></trkpt><trkpt lat="46.0903817" lon="13.1623483"><ele>124.99999999999999</ele><time>2026-04-11T08:04:57.465Z</time></trkpt><trkpt lat="46.0904617" lon="13.1623133"><ele>125.0</ele><time>2026-04-11T08:04:58.464Z</time></trkpt><trkpt lat="46.0905383" lon="13.1622833"><ele>124.99999999999999</ele><time>2026-04-11T08:04:59.465Z</time></trkpt><trkpt lat="46.0906183" lon="13.162255"><ele>125.0</ele><time>2026-04-11T08:05:00.465Z</time></trkpt><trkpt lat="46.090695" lon="13.1622233"><ele>125.0</ele><time>2026-04-11T08:05:01.465Z</time></trkpt><trkpt lat="46.0907617" lon="13.162195"><ele>125.0</ele><time>2026-04-11T08:05:02.464Z</time></trkpt><trkpt lat="46.0908333" lon="13.16216"><ele>124.99999999999999</ele><time>2026-04-11T08:05:03.465Z</time></trkpt><trkpt lat="46.0909033" lon="13.1621317"><ele>125.0</ele><time>2026-04-11T08:05:04.465Z</time></trkpt><trkpt lat="46.0909767" lon="13.1621083"><ele>125.33333333333333</ele><time>2026-04-11T08:05:05.465Z</time></trkpt><trkpt lat="46.091055" lon="13.1620717"><ele>125.66666666666666</ele><time>2026-04-11T08:05:06.465Z</time></trkpt><trkpt lat="46.0911317" lon="13.1620267"><ele>126.0</ele><time>2026-04-11T08:05:07.464Z</time></trkpt><trkpt lat="46.0912133" lon="13.161985"><ele>126.33333333333334</ele><time>2026-04-11T08:05:08.464Z</time></trkpt><trkpt lat="46.09128" lon="13.1619267"><ele>126.66666666666667</ele><time>2026-04-11T08:05:09.464Z</time></trkpt><trkpt lat="46.0913417" lon="13.1618533"><ele>127.0</ele><time>2026-04-11T08:05:10.463Z</time></trkpt><trkpt lat="46.09139" lon="13.1617733"><ele>127.00000000000001</ele><time>2026-04-11T08:05:11.463Z</time></trkpt><trkpt lat="46.0914333" lon="13.1616733"><ele>127.0</ele><time>2026-04-11T08:05:12.463Z</time></trkpt><trkpt lat="46.0914683" lon="13.1615667"><ele>127.0</ele><time>2026-04-11T08:05:13.464Z</time></trkpt><trkpt lat="46.091505" lon="13.1614683"><ele>127.0</ele><time>2026-04-11T08:05:14.463Z</time></trkpt><trkpt lat="46.0915483" lon="13.1613833"><ele>127.00000000000001</ele><time>2026-04-11T08:05:15.464Z</time></trkpt><trkpt lat="46.091605" lon="13.16129"><ele>127.0</ele><time>2026-04-11T08:05:16.463Z</time></trkpt><trkpt lat="46.091665" lon="13.1612017"><ele>127.00000000000001</ele><time>2026-04-11T08:05:17.463Z</time></trkpt><trkpt lat="46.0917283" lon="13.1611183"><ele>127.0</ele><time>2026-04-11T08:05:18.464Z</time></trkpt><trkpt lat="46.0917867" lon="13.1610467"><ele>127.0</ele><time>2026-04-11T08:05:19.464Z</time></trkpt><trkpt lat="46.0918517" lon="13.16097"><ele>127.0</ele><time>2026-04-11T08:05:20.463Z</time></trkpt><trkpt lat="46.0919167" lon="13.1609017"><ele>127.00000000000001</ele><time>2026-04-11T08:05:21.463Z</time></trkpt><trkpt lat="46.09199" lon="13.1608383"><ele>127.0</ele><time>2026-04-11T08:05:22.463Z</time></trkpt><trkpt lat="46.0920683" lon="13.1607717"><ele>127.00000000000001</ele><time>2026-04-11T08:05:23.464Z</time></trkpt><trkpt lat="46.0921417" lon="13.160705"><ele>127.0</ele><time>2026-04-11T08:05:24.464Z</time></trkpt><trkpt lat="46.0922183" lon="13.1606367"><ele>127.0</ele><time>2026-04-11T08:05:25.464Z</time></trkpt><trkpt lat="46.0922933" lon="13.1605767"><ele>127.0</ele><time>2026-04-11T08:05:26.464Z</time></trkpt><trkpt lat="46.092375" lon="13.1605133"><ele>127.00000000000001</ele><time>2026-04-11T08:05:27.464Z</time></trkpt><trkpt lat="46.09245" lon="13.1604433"><ele>127.0</ele><time>2026-04-11T08:05:28.464Z</time></trkpt><trkpt lat="46.0925217" lon="13.1603817"><ele>127.00000000000001</ele><time>2026-04-11T08:05:29.464Z</time></trkpt><trkpt lat="46.0925967" lon="13.1603217"><ele>127.0</ele><time>2026-04-11T08:05:30.464Z</time></trkpt><trkpt lat="46.09267" lon="13.1602617"><ele>127.0</ele><time>2026-04-11T08:05:31.464Z</time></trkpt><trkpt lat="46.0927433" lon="13.1602017"><ele>127.0</ele><time>2026-04-11T08:05:32.464Z</time></trkpt><trkpt lat="46.09282" lon="13.1601333"><ele>127.00000000000001</ele><time>2026-04-11T08:05:33.464Z</time></trkpt><trkpt lat="46.09291" lon="13.1600667"><ele>127.0</ele><time>2026-04-11T08:05:34.464Z</time></trkpt><trkpt lat="46.0929933" lon="13.16001"><ele>127.0</ele><time>2026-04-11T08:05:35.464Z</time></trkpt><trkpt lat="46.0930783" lon="13.1599367"><ele>126.99999999999999</ele><time>2026-04-11T08:05:36.464Z</time></trkpt><trkpt lat="46.0931517" lon="13.1598717"><ele>126.99999999999999</ele><time>2026-04-11T08:05:37.464Z</time></trkpt><trkpt lat="46.0932317" lon="13.1598017"><ele>127.0</ele><time>2026-04-11T08:05:38.464Z</time></trkpt><trkpt lat="46.09331" lon="13.1597417"><ele>127.0</ele><time>2026-04-11T08:05:39.464Z</time></trkpt><trkpt lat="46.09338" lon="13.1596733"><ele>127.16666666666667</ele><time>2026-04-11T08:05:40.464Z</time></trkpt><trkpt lat="46.09345" lon="13.1596133"><ele>127.33333333333334</ele><time>2026-04-11T08:05:41.463Z</time></trkpt><trkpt lat="46.0935167" lon="13.15955"><ele>127.5</ele><time>2026-04-11T08:05:42.464Z</time></trkpt><trkpt lat="46.093585" lon="13.159465"><ele>127.66666666666666</ele><time>2026-04-11T08:05:43.464Z</time></trkpt><trkpt lat="46.09365" lon="13.159365"><ele>127.83333333333333</ele><time>2026-04-11T08:05:44.463Z</time></trkpt><trkpt lat="46.0937133" lon="13.1592733"><ele>128.0</ele><time>2026-04-11T08:05:45.464Z</time></trkpt><trkpt lat="46.0937733" lon="13.159165"><ele>127.99999999999999</ele><time>2026-04-11T08:05:46.464Z</time></trkpt><trkpt lat="46.0938317" lon="13.1590617"><ele>128.0</ele><time>2026-04-11T08:05:47.464Z</time></trkpt><trkpt lat="46.0939" lon="13.158955"><ele>128.0</ele><time>2026-04-11T08:05:48.464Z</time></trkpt><trkpt lat="46.0939567" lon="13.15887"><ele>128.0</ele><time>2026-04-11T08:05:49.463Z</time></trkpt><trkpt lat="46.0940183" lon="13.1587867"><ele>127.99999999999999</ele><time>2026-04-11T08:05:50.463Z</time></trkpt><trkpt lat="46.0940783" lon="13.1587017"><ele>128.0</ele><time>2026-04-11T08:05:51.464Z</time></trkpt><trkpt lat="46.094135" lon="13.1586167"><ele>127.99999999999999</ele><time>2026-04-11T08:05:52.464Z</time></trkpt><trkpt lat="46.0941917" lon="13.1585283"><ele>128.0</ele><time>2026-04-11T08:05:53.464Z</time></trkpt><trkpt lat="46.0942467" lon="13.1584483"><ele>128.0</ele><time>2026-04-11T08:05:54.463Z</time></trkpt><trkpt lat="46.0943033" lon="13.1583667"><ele>128.0</ele><time>2026-04-11T08:05:55.464Z</time></trkpt><trkpt lat="46.09436" lon="13.15829"><ele>127.99999999999999</ele><time>2026-04-11T08:05:56.464Z</time></trkpt><trkpt lat="46.09443" lon="13.1581967"><ele>128.0</ele><time>2026-04-11T08:05:57.463Z</time></trkpt><trkpt lat="46.0944967" lon="13.15812"><ele>127.99999999999999</ele><time>2026-04-11T08:05:58.464Z</time></trkpt><trkpt lat="46.0945617" lon="13.1580383"><ele>128.0</ele><time>2026-04-11T08:05:59.464Z</time></trkpt><trkpt lat="46.094625" lon="13.1579567"><ele>128.0</ele><time>2026-04-11T08:06:00.464Z</time></trkpt><trkpt lat="46.0946933" lon="13.157885"><ele>128.0</ele><time>2026-04-11T08:06:01.464Z</time></trkpt><trkpt lat="46.0947717" lon="13.1578067"><ele>127.99999999999999</ele><time>2026-04-11T08:06:02.464Z</time></trkpt><trkpt lat="46.0948467" lon="13.15774"><ele>128.0</ele><time>2026-04-11T08:06:03.464Z</time></trkpt><trkpt lat="46.094925" lon="13.1576817"><ele>127.83333333333333</ele><time>2026-04-11T08:06:04.464Z</time></trkpt><trkpt lat="46.0950033" lon="13.1576217"><ele>127.66666666666666</ele><time>2026-04-11T08:06:05.464Z</time></trkpt><trkpt lat="46.0950783" lon="13.1575567"><ele>127.5</ele><time>2026-04-11T08:06:06.464Z</time></trkpt><trkpt lat="46.0951517" lon="13.157495"><ele>127.33333333333334</ele><time>2026-04-11T08:06:07.463Z</time></trkpt><trkpt lat="46.0952133" lon="13.1574133"><ele>127.16666666666667</ele><time>2026-04-11T08:06:08.463Z</time></trkpt><trkpt lat="46.0952833" lon="13.157345"><ele>127.0</ele><time>2026-04-11T08:06:09.464Z</time></trkpt><trkpt lat="46.0953467" lon="13.15727"><ele>127.33333333333334</ele><time>2026-04-11T08:06:10.464Z</time></trkpt><trkpt lat="46.09541" lon="13.157195"><ele>127.66666666666667</ele><time>2026-04-11T08:06:11.463Z</time></trkpt><trkpt lat="46.0954717" lon="13.157125"><ele>128.0</ele><time>2026-04-11T08:06:12.463Z</time></trkpt><trkpt lat="46.0955267" lon="13.1570517"><ele>128.33333333333334</ele><time>2026-04-11T08:06:13.464Z</time></trkpt><trkpt lat="46.0955717" lon="13.1569733"><ele>128.66666666666666</ele><time>2026-04-11T08:06:14.464Z</time></trkpt><trkpt lat="46.0956267" lon="13.15688"><ele>129.0</ele><time>2026-04-11T08:06:15.464Z</time></trkpt><trkpt lat="46.095685" lon="13.1568017"><ele>129.0</ele><time>2026-04-11T08:06:16.464Z</time></trkpt><trkpt lat="46.09574" lon="13.1567083"><ele>129.0</ele><time>2026-04-11T08:06:17.464Z</time></trkpt><trkpt lat="46.0957933" lon="13.1566117"><ele>129.0</ele><time>2026-04-11T08:06:18.464Z</time></trkpt><trkpt lat="46.0958433" lon="13.1565167"><ele>129.0</ele><time>2026-04-11T08:06:19.464Z</time></trkpt><trkpt lat="46.0958867" lon="13.1564167"><ele>129.0</ele><time>2026-04-11T08:06:20.464Z</time></trkpt><trkpt lat="46.0959183" lon="13.1563117"><ele>129.0</ele><time>2026-04-11T08:06:21.464Z</time></trkpt><trkpt lat="46.09597" lon="13.1561867"><ele>129.0</ele><time>2026-04-11T08:06:22.464Z</time></trkpt><trkpt lat="46.096015" lon="13.15608"><ele>129.0</ele><time>2026-04-11T08:06:23.463Z</time></trkpt><trkpt lat="46.096065" lon="13.1559717"><ele>129.0</ele><time>2026-04-11T08:06:24.464Z</time></trkpt><trkpt lat="46.09611" lon="13.15586"><ele>129.0</ele><time>2026-04-11T08:06:25.464Z</time></trkpt><trkpt lat="46.0961533" lon="13.15575"><ele>129.0</ele><time>2026-04-11T08:06:26.463Z</time></trkpt><trkpt lat="46.0961967" lon="13.1556417"><ele>129.0</ele><time>2026-04-11T08:06:27.463Z</time></trkpt><trkpt lat="46.0962383" lon="13.1555417"><ele>129.16666666666666</ele><time>2026-04-11T08:06:28.463Z</time></trkpt><trkpt lat="46.096295" lon="13.155455"><ele>129.33333333333334</ele><time>2026-04-11T08:06:29.464Z</time></trkpt><trkpt lat="46.0963517" lon="13.1553817"><ele>129.5</ele><time>2026-04-11T08:06:30.464Z</time></trkpt><trkpt lat="46.0964167" lon="13.1553167"><ele>129.66666666666669</ele><time>2026-04-11T08:06:31.464Z</time></trkpt><trkpt lat="46.0964883" lon="13.1552617"><ele>129.83333333333334</ele><time>2026-04-11T08:06:32.464Z</time></trkpt><trkpt lat="46.0965667" lon="13.1552017"><ele>130.0</ele><time>2026-04-11T08:06:33.464Z</time></trkpt><trkpt lat="46.0966517" lon="13.1551483"><ele>130.0</ele><time>2026-04-11T08:06:34.463Z</time></trkpt><trkpt lat="46.0967317" lon="13.1551083"><ele>130.0</ele><time>2026-04-11T08:06:35.464Z</time></trkpt><trkpt lat="46.0968133" lon="13.1550767"><ele>130.0</ele><time>2026-04-11T08:06:36.463Z</time></trkpt><trkpt lat="46.0968933" lon="13.1550367"><ele>130.0</ele><time>2026-04-11T08:06:37.464Z</time></trkpt><trkpt lat="46.0969717" lon="13.1550017"><ele>130.0</ele><time>2026-04-11T08:06:38.463Z</time></trkpt><trkpt lat="46.0970533" lon="13.1549733"><ele>130.0</ele><time>2026-04-11T08:06:39.464Z</time></trkpt><trkpt lat="46.09713" lon="13.154945"><ele>130.0</ele><time>2026-04-11T08:06:40.464Z</time></trkpt><trkpt lat="46.0972067" lon="13.1549133"><ele>130.0</ele><time>2026-04-11T08:06:41.464Z</time></trkpt><trkpt lat="46.0972833" lon="13.15489"><ele>130.0</ele><time>2026-04-11T08:06:42.463Z</time></trkpt><trkpt lat="46.0973617" lon="13.1548633"><ele>130.0</ele><time>2026-04-11T08:06:43.463Z</time></trkpt><trkpt lat="46.09744" lon="13.1548317"><ele>130.0</ele><time>2026-04-11T08:06:44.464Z</time></trkpt><trkpt lat="46.0975167" lon="13.1547917"><ele>130.0</ele><time>2026-04-11T08:06:45.463Z</time></trkpt><trkpt lat="46.097595" lon="13.1547667"><ele>130.0</ele><time>2026-04-11T08:06:46.464Z</time></trkpt><trkpt lat="46.09767" lon="13.154725"><ele>130.0</ele><time>2026-04-11T08:06:47.464Z</time></trkpt><trkpt lat="46.0977383" lon="13.1546867"><ele>130.0</ele><time>2026-04-11T08:06:48.464Z</time></trkpt><trkpt lat="46.0978033" lon="13.15465"><ele>130.0</ele><time>2026-04-11T08:06:49.464Z</time></trkpt><trkpt lat="46.0978717" lon="13.154615"><ele>130.0</ele><time>2026-04-11T08:06:50.463Z</time></trkpt><trkpt lat="46.09795" lon="13.1546"><ele>130.0</ele><time>2026-04-11T08:06:51.464Z</time></trkpt><trkpt lat="46.098025" lon="13.1545733"><ele>130.0</ele><time>2026-04-11T08:06:52.464Z</time></trkpt><trkpt lat="46.0981033" lon="13.1545417"><ele>130.0</ele><time>2026-04-11T08:06:53.464Z</time></trkpt><trkpt lat="46.0981783" lon="13.1545183"><ele>130.0</ele><time>2026-04-11T08:06:54.464Z</time></trkpt><trkpt lat="46.098255" lon="13.1545017"><ele>130.0</ele><time>2026-04-11T08:06:55.464Z</time></trkpt><trkpt lat="46.0983383" lon="13.1544833"><ele>130.0</ele><time>2026-04-11T08:06:56.464Z</time></trkpt><trkpt lat="46.0984133" lon="13.15446"><ele>130.0</ele><time>2026-04-11T08:06:57.464Z</time></trkpt><trkpt lat="46.0984817" lon="13.1544383"><ele>130.5</ele><time>2026-04-11T08:06:58.464Z</time></trkpt><trkpt lat="46.0985483" lon="13.1544117"><ele>131.0</ele><time>2026-04-11T08:06:59.463Z</time></trkpt><trkpt lat="46.0986133" lon="13.1543867"><ele>131.5</ele><time>2026-04-11T08:07:00.464Z</time></trkpt><trkpt lat="46.0986783" lon="13.1543733"><ele>132.0</ele><time>2026-04-11T08:07:01.463Z</time></trkpt><trkpt lat="46.0988017" lon="13.154325"><ele>132.5</ele><time>2026-04-11T08:07:03.464Z</time></trkpt><trkpt lat="46.09887" lon="13.1543117"><ele>133.0</ele><time>2026-04-11T08:07:04.464Z</time></trkpt><trkpt lat="46.0989383" lon="13.1542717"><ele>133.0</ele><time>2026-04-11T08:07:05.464Z</time></trkpt><trkpt lat="46.0990083" lon="13.154255"><ele>133.0</ele><time>2026-04-11T08:07:06.463Z</time></trkpt><trkpt lat="46.0990683" lon="13.1542233"><ele>133.0</ele><time>2026-04-11T08:07:07.464Z</time></trkpt><trkpt lat="46.0991667" lon="13.154165"><ele>133.0</ele><time>2026-04-11T08:07:09.464Z</time></trkpt><trkpt lat="46.09924" lon="13.1541383"><ele>133.0</ele><time>2026-04-11T08:07:11.464Z</time></trkpt><trkpt lat="46.0993017" lon="13.15409"><ele>133.0</ele><time>2026-04-11T08:07:14.464Z</time></trkpt><trkpt lat="46.0992833" lon="13.1539567"><ele>133.20000000000002</ele><time>2026-04-11T08:07:17.464Z</time></trkpt><trkpt lat="46.0992333" lon="13.1538283"><ele>133.4</ele><time>2026-04-11T08:07:19.464Z</time></trkpt><trkpt lat="46.099155" lon="13.1536817"><ele>133.60000000000002</ele><time>2026-04-11T08:07:21.464Z</time></trkpt><trkpt lat="46.0991117" lon="13.1536017"><ele>133.8</ele><time>2026-04-11T08:07:22.464Z</time></trkpt><trkpt lat="46.0990367" lon="13.153455"><ele>134.0</ele><time>2026-04-11T08:07:24.464Z</time></trkpt><trkpt lat="46.0989833" lon="13.1533067"><ele>133.6</ele><time>2026-04-11T08:07:26.464Z</time></trkpt><trkpt lat="46.098955" lon="13.1531533"><ele>133.2</ele><time>2026-04-11T08:07:28.464Z</time></trkpt><trkpt lat="46.0989533" lon="13.1529917"><ele>132.79999999999998</ele><time>2026-04-11T08:07:30.463Z</time></trkpt><trkpt lat="46.0989567" lon="13.1528467"><ele>132.4</ele><time>2026-04-11T08:07:32.464Z</time></trkpt><trkpt lat="46.0989683" lon="13.1526983"><ele>132.0</ele><time>2026-04-11T08:07:34.464Z</time></trkpt><trkpt lat="46.0989617" lon="13.1525333"><ele>132.4</ele><time>2026-04-11T08:07:36.464Z</time></trkpt><trkpt lat="46.0989483" lon="13.1523483"><ele>132.79999999999998</ele><time>2026-04-11T08:07:38.464Z</time></trkpt><trkpt lat="46.0989367" lon="13.1522583"><ele>133.2</ele><time>2026-04-11T08:07:39.464Z</time></trkpt><trkpt lat="46.0989217" lon="13.1521033"><ele>133.6</ele><time>2026-04-11T08:07:41.464Z</time></trkpt><trkpt lat="46.098875" lon="13.1519417"><ele>134.0</ele><time>2026-04-11T08:07:43.464Z</time></trkpt><trkpt lat="46.0988417" lon="13.1517833"><ele>134.0</ele><time>2026-04-11T08:07:45.463Z</time></trkpt><trkpt lat="46.0988417" lon="13.1516867"><ele>134.0</ele><time>2026-04-11T08:07:46.464Z</time></trkpt><trkpt lat="46.09884" lon="13.1515917"><ele>134.0</ele><time>2026-04-11T08:07:47.464Z</time></trkpt><trkpt lat="46.0988367" lon="13.1514933"><ele>134.0</ele><time>2026-04-11T08:07:48.463Z</time></trkpt><trkpt lat="46.0988433" lon="13.1513333"><ele>134.0</ele><time>2026-04-11T08:07:50.464Z</time></trkpt><trkpt lat="46.0988517" lon="13.1511733"><ele>134.0</ele><time>2026-04-11T08:07:52.464Z</time></trkpt><trkpt lat="46.0988583" lon="13.1510183"><ele>134.0</ele><time>2026-04-11T08:07:54.463Z</time></trkpt><trkpt lat="46.0988533" lon="13.1508533"><ele>134.0</ele><time>2026-04-11T08:07:56.464Z</time></trkpt><trkpt lat="46.0988567" lon="13.150685"><ele>134.0</ele><time>2026-04-11T08:07:58.464Z</time></trkpt><trkpt lat="46.09885" lon="13.1505333"><ele>134.0</ele><time>2026-04-11T08:08:00.464Z</time></trkpt><trkpt lat="46.0988683" lon="13.1504367"><ele>134.0</ele><time>2026-04-11T08:08:02.464Z</time></trkpt><trkpt lat="46.0989233" lon="13.15037"><ele>134.0</ele><time>2026-04-11T08:08:04.464Z</time></trkpt><trkpt lat="46.099005" lon="13.15033"><ele>134.0</ele><time>2026-04-11T08:08:06.464Z</time></trkpt><trkpt lat="46.0990983" lon="13.1503033"><ele>134.0</ele><time>2026-04-11T08:08:08.464Z</time></trkpt><trkpt lat="46.0991967" lon="13.1502733"><ele>134.0</ele><time>2026-04-11T08:08:10.464Z</time></trkpt><trkpt lat="46.0992867" lon="13.1502717"><ele>134.0</ele><time>2026-04-11T08:08:12.464Z</time></trkpt><trkpt lat="46.0993983" lon="13.1502667"><ele>134.0</ele><time>2026-04-11T08:08:14.464Z</time></trkpt><trkpt lat="46.0994917" lon="13.1502417"><ele>134.0</ele><time>2026-04-11T08:08:16.464Z</time></trkpt><trkpt lat="46.09957" lon="13.1502"><ele>134.0</ele><time>2026-04-11T08:08:18.464Z</time></trkpt><trkpt lat="46.0996633" lon="13.1501367"><ele>134.0</ele><time>2026-04-11T08:08:20.464Z</time></trkpt><trkpt lat="46.0997517" lon="13.1500817"><ele>134.0</ele><time>2026-04-11T08:08:22.464Z</time></trkpt><trkpt lat="46.0998617" lon="13.1500167"><ele>134.66666666666666</ele><time>2026-04-11T08:08:24.463Z</time></trkpt><trkpt lat="46.0999683" lon="13.1499717"><ele>135.33333333333331</ele><time>2026-04-11T08:08:26.464Z</time></trkpt><trkpt lat="46.100025" lon="13.14993"><ele>136.0</ele><time>2026-04-11T08:08:27.464Z</time></trkpt><trkpt lat="46.1000867" lon="13.1499017"><ele>136.66666666666666</ele><time>2026-04-11T08:08:28.464Z</time></trkpt><trkpt lat="46.100155" lon="13.1498917"><ele>137.33333333333334</ele><time>2026-04-11T08:08:29.464Z</time></trkpt><trkpt lat="46.10022" lon="13.1498783"><ele>138.0</ele><time>2026-04-11T08:08:30.464Z</time></trkpt><trkpt lat="46.1003383" lon="13.1498417"><ele>138.20000000000002</ele><time>2026-04-11T08:08:32.464Z</time></trkpt><trkpt lat="46.1004017" lon="13.1498383"><ele>138.4</ele><time>2026-04-11T08:08:33.464Z</time></trkpt><trkpt lat="46.1005267" lon="13.1497967"><ele>138.60000000000002</ele><time>2026-04-11T08:08:35.464Z</time></trkpt><trkpt lat="46.1006367" lon="13.1497517"><ele>138.8</ele><time>2026-04-11T08:08:37.463Z</time></trkpt><trkpt lat="46.1007367" lon="13.149705"><ele>139.0</ele><time>2026-04-11T08:08:39.464Z</time></trkpt><trkpt lat="46.1008267" lon="13.149675"><ele>139.0</ele><time>2026-04-11T08:08:42.464Z</time></trkpt><trkpt lat="46.1009667" lon="13.1496367"><ele>139.0</ele><time>2026-04-11T08:09:06.464Z</time></trkpt><trkpt lat="46.1010467" lon="13.149595"><ele>139.0</ele><time>2026-04-11T08:09:07.464Z</time></trkpt><trkpt lat="46.1011433" lon="13.1495483"><ele>139.0</ele><time>2026-04-11T08:09:08.464Z</time></trkpt><trkpt lat="46.1012333" lon="13.1495067"><ele>139.0</ele><time>2026-04-11T08:09:09.463Z</time></trkpt><trkpt lat="46.1013367" lon="13.1494683"><ele>139.0</ele><time>2026-04-11T08:09:10.464Z</time></trkpt><trkpt lat="46.10144" lon="13.14944"><ele>139.0</ele><time>2026-04-11T08:09:11.464Z</time></trkpt><trkpt lat="46.101535" lon="13.1494067"><ele>139.0</ele><time>2026-04-11T08:09:12.464Z</time></trkpt><trkpt lat="46.10163" lon="13.149365"><ele>139.0</ele><time>2026-04-11T08:09:13.463Z</time></trkpt><trkpt lat="46.1017183" lon="13.149335"><ele>139.0</ele><time>2026-04-11T08:09:14.463Z</time></trkpt><trkpt lat="46.1018033" lon="13.1493"><ele>139.16666666666669</ele><time>2026-04-11T08:09:15.464Z</time></trkpt><trkpt lat="46.101875" lon="13.14927"><ele>139.33333333333334</ele><time>2026-04-11T08:09:16.464Z</time></trkpt><trkpt lat="46.1019733" lon="13.149235"><ele>139.5</ele><time>2026-04-11T08:09:18.463Z</time></trkpt><trkpt lat="46.1020733" lon="13.1491367"><ele>139.66666666666666</ele><time>2026-04-11T08:09:20.464Z</time></trkpt><trkpt lat="46.1021233" lon="13.149075"><ele>139.83333333333331</ele><time>2026-04-11T08:09:21.464Z</time></trkpt><trkpt lat="46.1021733" lon="13.1489917"><ele>140.0</ele><time>2026-04-11T08:09:22.464Z</time></trkpt><trkpt lat="46.1022367" lon="13.1489"><ele>140.16666666666666</ele><time>2026-04-11T08:09:23.464Z</time></trkpt><trkpt lat="46.1022983" lon="13.1487967"><ele>140.33333333333331</ele><time>2026-04-11T08:09:24.464Z</time></trkpt><trkpt lat="46.1023683" lon="13.1487033"><ele>140.5</ele><time>2026-04-11T08:09:25.464Z</time></trkpt><trkpt lat="46.1024367" lon="13.1486517"><ele>140.66666666666666</ele><time>2026-04-11T08:09:26.464Z</time></trkpt><trkpt lat="46.10251" lon="13.1485833"><ele>140.83333333333334</ele><time>2026-04-11T08:09:27.464Z</time></trkpt><trkpt lat="46.1025767" lon="13.14851"><ele>141.0</ele><time>2026-04-11T08:09:28.463Z</time></trkpt><trkpt lat="46.1026483" lon="13.148455"><ele>141.83333333333334</ele><time>2026-04-11T08:09:29.463Z</time></trkpt><trkpt lat="46.1027283" lon="13.14843"><ele>142.66666666666666</ele><time>2026-04-11T08:09:30.463Z</time></trkpt><trkpt lat="46.1028117" lon="13.14843"><ele>143.5</ele><time>2026-04-11T08:09:31.464Z</time></trkpt><trkpt lat="46.1028933" lon="13.1484433"><ele>144.33333333333331</ele><time>2026-04-11T08:09:32.464Z</time></trkpt><trkpt lat="46.1029667" lon="13.14851"><ele>145.16666666666666</ele><time>2026-04-11T08:09:33.464Z</time></trkpt><trkpt lat="46.1030333" lon="13.1485917"><ele>146.0</ele><time>2026-04-11T08:09:34.464Z</time></trkpt><trkpt lat="46.103105" lon="13.1486483"><ele>146.0</ele><time>2026-04-11T08:09:35.464Z</time></trkpt><trkpt lat="46.1031717" lon="13.148695"><ele>146.0</ele><time>2026-04-11T08:09:36.464Z</time></trkpt><trkpt lat="46.103275" lon="13.1487683"><ele>146.0</ele><time>2026-04-11T08:09:38.464Z</time></trkpt><trkpt lat="46.1033783" lon="13.1487933"><ele>146.0</ele><time>2026-04-11T08:09:40.464Z</time></trkpt><trkpt lat="46.1035" lon="13.1488317"><ele>146.0</ele><time>2026-04-11T08:09:42.464Z</time></trkpt><trkpt lat="46.1035683" lon="13.1488267"><ele>147.2</ele><time>2026-04-11T08:09:43.463Z</time></trkpt><trkpt lat="46.103675" lon="13.1488417"><ele>148.39999999999998</ele><time>2026-04-11T08:09:45.464Z</time></trkpt><trkpt lat="46.1037717" lon="13.1488267"><ele>149.6</ele><time>2026-04-11T08:09:47.464Z</time></trkpt><trkpt lat="46.103895" lon="13.148835"><ele>150.79999999999998</ele><time>2026-04-11T08:09:49.464Z</time></trkpt><trkpt lat="46.1039667" lon="13.148845"><ele>152.0</ele><time>2026-04-11T08:09:50.464Z</time></trkpt><trkpt lat="46.1040333" lon="13.1488633"><ele>152.66666666666666</ele><time>2026-04-11T08:09:51.463Z</time></trkpt><trkpt lat="46.1041367" lon="13.1488867"><ele>153.33333333333331</ele><time>2026-04-11T08:09:53.463Z</time></trkpt><trkpt lat="46.1041967" lon="13.1487767"><ele>154.0</ele><time>2026-04-11T08:09:56.464Z</time></trkpt><trkpt lat="46.1042433" lon="13.14871"><ele>154.66666666666666</ele><time>2026-04-11T08:09:58.464Z</time></trkpt><trkpt lat="46.104315" lon="13.1487117"><ele>155.33333333333334</ele><time>2026-04-11T08:10:00.464Z</time></trkpt><trkpt lat="46.1044133" lon="13.148725"><ele>156.0</ele><time>2026-04-11T08:10:02.464Z</time></trkpt><trkpt lat="46.1045" lon="13.1486867"><ele>156.0</ele><time>2026-04-11T08:10:04.464Z</time></trkpt><trkpt lat="46.10461" lon="13.148665"><ele>156.0</ele><time>2026-04-11T08:10:06.464Z</time></trkpt><trkpt lat="46.10472" lon="13.1486517"><ele>156.0</ele><time>2026-04-11T08:10:08.464Z</time></trkpt><trkpt lat="46.10484" lon="13.14863"><ele>156.0</ele><time>2026-04-11T08:10:10.464Z</time></trkpt><trkpt lat="46.1049033" lon="13.148615"><ele>156.0</ele><time>2026-04-11T08:10:11.464Z</time></trkpt><trkpt lat="46.1050167" lon="13.1485933"><ele>157.0</ele><time>2026-04-11T08:10:13.464Z</time></trkpt><trkpt lat="46.1051167" lon="13.1485383"><ele>158.0</ele><time>2026-04-11T08:10:15.464Z</time></trkpt><trkpt lat="46.10522" lon="13.1484917"><ele>159.0</ele><time>2026-04-11T08:10:17.464Z</time></trkpt><trkpt lat="46.105335" lon="13.1484267"><ele>160.0</ele><time>2026-04-11T08:10:19.464Z</time></trkpt><trkpt lat="46.105395" lon="13.14839"><ele>161.0</ele><time>2026-04-11T08:10:20.464Z</time></trkpt><trkpt lat="46.105465" lon="13.1483533"><ele>161.0</ele><time>2026-04-11T08:10:21.463Z</time></trkpt><trkpt lat="46.1055417" lon="13.1483167"><ele>161.0</ele><time>2026-04-11T08:10:22.464Z</time></trkpt><trkpt lat="46.1056233" lon="13.14827"><ele>161.0</ele><time>2026-04-11T08:10:23.464Z</time></trkpt><trkpt lat="46.1057183" lon="13.14821"><ele>161.0</ele><time>2026-04-11T08:10:24.464Z</time></trkpt><trkpt lat="46.10584" lon="13.148145"><ele>161.0</ele><time>2026-04-11T08:10:25.464Z</time></trkpt><trkpt lat="46.1059567" lon="13.148085"><ele>162.20000000000002</ele><time>2026-04-11T08:10:26.464Z</time></trkpt><trkpt lat="46.1060433" lon="13.14804"><ele>163.4</ele><time>2026-04-11T08:10:27.464Z</time></trkpt><trkpt lat="46.106115" lon="13.1480017"><ele>164.6</ele><time>2026-04-11T08:10:28.464Z</time></trkpt><trkpt lat="46.1061783" lon="13.14796"><ele>165.8</ele><time>2026-04-11T08:10:29.464Z</time></trkpt><trkpt lat="46.1062833" lon="13.147915"><ele>167.0</ele><time>2026-04-11T08:10:31.464Z</time></trkpt><trkpt lat="46.1063833" lon="13.1478633"><ele>167.0</ele><time>2026-04-11T08:10:33.464Z</time></trkpt><trkpt lat="46.1064817" lon="13.1478017"><ele>167.0</ele><time>2026-04-11T08:10:35.464Z</time></trkpt><trkpt lat="46.1065783" lon="13.1477483"><ele>167.0</ele><time>2026-04-11T08:10:37.464Z</time></trkpt><trkpt lat="46.1066733" lon="13.14769"><ele>167.0</ele><time>2026-04-11T08:10:39.464Z</time></trkpt><trkpt lat="46.1067767" lon="13.1476367"><ele>167.0</ele><time>2026-04-11T08:10:41.463Z</time></trkpt><trkpt lat="46.1068817" lon="13.14759"><ele>167.83333333333331</ele><time>2026-04-11T08:10:43.464Z</time></trkpt><trkpt lat="46.1069633" lon="13.1475467"><ele>168.66666666666666</ele><time>2026-04-11T08:10:45.464Z</time></trkpt><trkpt lat="46.1070483" lon="13.1475017"><ele>169.5</ele><time>2026-04-11T08:10:47.464Z</time></trkpt><trkpt lat="46.1071267" lon="13.1474533"><ele>170.33333333333334</ele><time>2026-04-11T08:10:49.463Z</time></trkpt><trkpt lat="46.1072083" lon="13.1474017"><ele>171.16666666666669</ele><time>2026-04-11T08:10:51.463Z</time></trkpt><trkpt lat="46.1072917" lon="13.14736"><ele>172.0</ele><time>2026-04-11T08:10:53.464Z</time></trkpt><trkpt lat="46.107405" lon="13.1473233"><ele>173.0</ele><time>2026-04-11T08:10:55.464Z</time></trkpt><trkpt lat="46.1074717" lon="13.147305"><ele>174.0</ele><time>2026-04-11T08:10:56.464Z</time></trkpt><trkpt lat="46.107535" lon="13.1472817"><ele>175.0</ele><time>2026-04-11T08:10:57.464Z</time></trkpt><trkpt lat="46.1076" lon="13.147255"><ele>176.0</ele><time>2026-04-11T08:10:58.464Z</time></trkpt><trkpt lat="46.1076667" lon="13.147215"><ele>177.0</ele><time>2026-04-11T08:10:59.464Z</time></trkpt><trkpt lat="46.1077317" lon="13.1471767"><ele>178.0</ele><time>2026-04-11T08:11:00.463Z</time></trkpt><trkpt lat="46.10783" lon="13.1471117"><ele>178.0</ele><time>2026-04-11T08:11:02.463Z</time></trkpt><trkpt lat="46.1079433" lon="13.1470833"><ele>178.0</ele><time>2026-04-11T08:11:04.463Z</time></trkpt><trkpt lat="46.1080133" lon="13.14705"><ele>178.0</ele><time>2026-04-11T08:11:06.464Z</time></trkpt><trkpt lat="46.10807" lon="13.1469917"><ele>178.0</ele><time>2026-04-11T08:11:08.464Z</time></trkpt><trkpt lat="46.1081167" lon="13.146905"><ele>178.0</ele><time>2026-04-11T08:11:10.463Z</time></trkpt><trkpt lat="46.1081617" lon="13.1467533"><ele>178.0</ele><time>2026-04-11T08:11:12.464Z</time></trkpt><trkpt lat="46.1081733" lon="13.1465683"><ele>178.16666666666669</ele><time>2026-04-11T08:11:14.464Z</time></trkpt><trkpt lat="46.1081833" lon="13.1464017"><ele>178.33333333333334</ele><time>2026-04-11T08:11:16.464Z</time></trkpt><trkpt lat="46.1081933" lon="13.14629"><ele>178.5</ele><time>2026-04-11T08:11:18.463Z</time></trkpt><trkpt lat="46.1082183" lon="13.1461717"><ele>178.66666666666666</ele><time>2026-04-11T08:11:20.464Z</time></trkpt><trkpt lat="46.1082433" lon="13.1460367"><ele>178.83333333333331</ele><time>2026-04-11T08:11:22.464Z</time></trkpt><trkpt lat="46.1082517" lon="13.1459417"><ele>179.0</ele><time>2026-04-11T08:11:23.464Z</time></trkpt><trkpt lat="46.1082617" lon="13.1458383"><ele>181.0</ele><time>2026-04-11T08:11:24.464Z</time></trkpt><trkpt lat="46.10828" lon="13.1457367"><ele>183.0</ele><time>2026-04-11T08:11:25.464Z</time></trkpt><trkpt lat="46.1082983" lon="13.1456283"><ele>185.0</ele><time>2026-04-11T08:11:26.464Z</time></trkpt><trkpt lat="46.1083133" lon="13.1455167"><ele>187.0</ele><time>2026-04-11T08:11:27.464Z</time></trkpt><trkpt lat="46.1083367" lon="13.1453867"><ele>189.0</ele><time>2026-04-11T08:11:28.464Z</time></trkpt><trkpt lat="46.10837" lon="13.1452483"><ele>191.0</ele><time>2026-04-11T08:11:29.464Z</time></trkpt><trkpt lat="46.108395" lon="13.1451233"><ele>191.0</ele><time>2026-04-11T08:11:30.464Z</time></trkpt><trkpt lat="46.1084283" lon="13.145"><ele>191.0</ele><time>2026-04-11T08:11:31.463Z</time></trkpt><trkpt lat="46.10846" lon="13.1448667"><ele>191.0</ele><time>2026-04-11T08:11:32.463Z</time></trkpt><trkpt lat="46.1085017" lon="13.144705"><ele>191.0</ele><time>2026-04-11T08:11:33.464Z</time></trkpt><trkpt lat="46.1085367" lon="13.14453"><ele>191.0</ele><time>2026-04-11T08:11:34.464Z</time></trkpt><trkpt lat="46.1085733" lon="13.1443633"><ele>189.20000000000002</ele><time>2026-04-11T08:11:35.464Z</time></trkpt><trkpt lat="46.1085933" lon="13.1442167"><ele>187.4</ele><time>2026-04-11T08:11:36.464Z</time></trkpt><trkpt lat="46.108615" lon="13.1440767"><ele>185.6</ele><time>2026-04-11T08:11:37.464Z</time></trkpt><trkpt lat="46.1086417" lon="13.1439383"><ele>183.8</ele><time>2026-04-11T08:11:38.464Z</time></trkpt><trkpt lat="46.1086633" lon="13.1438083"><ele>182.0</ele><time>2026-04-11T08:11:39.463Z</time></trkpt><trkpt lat="46.1086867" lon="13.1436783"><ele>180.8</ele><time>2026-04-11T08:11:40.464Z</time></trkpt><trkpt lat="46.1087417" lon="13.1435617"><ele>179.6</ele><time>2026-04-11T08:11:41.464Z</time></trkpt><trkpt lat="46.10876" lon="13.14341"><ele>178.4</ele><time>2026-04-11T08:11:42.464Z</time></trkpt><trkpt lat="46.1087733" lon="13.14326"><ele>177.20000000000002</ele><time>2026-04-11T08:11:43.464Z</time></trkpt><trkpt lat="46.10879" lon="13.1431117"><ele>176.0</ele><time>2026-04-11T08:11:44.464Z</time></trkpt><trkpt lat="46.10881" lon="13.1429633"><ele>175.5</ele><time>2026-04-11T08:11:45.464Z</time></trkpt><trkpt lat="46.108835" lon="13.1428233"><ele>175.0</ele><time>2026-04-11T08:11:46.464Z</time></trkpt><trkpt lat="46.1088483" lon="13.1426917"><ele>174.5</ele><time>2026-04-11T08:11:47.463Z</time></trkpt><trkpt lat="46.1088533" lon="13.142565"><ele>174.0</ele><time>2026-04-11T08:11:48.464Z</time></trkpt><trkpt lat="46.10886" lon="13.1424383"><ele>173.5</ele><time>2026-04-11T08:11:49.464Z</time></trkpt><trkpt lat="46.1088583" lon="13.142325"><ele>173.0</ele><time>2026-04-11T08:11:50.464Z</time></trkpt><trkpt lat="46.1088533" lon="13.142195"><ele>172.2</ele><time>2026-04-11T08:11:51.464Z</time></trkpt><trkpt lat="46.1088467" lon="13.1420617"><ele>171.4</ele><time>2026-04-11T08:11:52.464Z</time></trkpt><trkpt lat="46.10884" lon="13.141915"><ele>170.6</ele><time>2026-04-11T08:11:53.463Z</time></trkpt><trkpt lat="46.108835" lon="13.1417667"><ele>169.79999999999998</ele><time>2026-04-11T08:11:54.464Z</time></trkpt><trkpt lat="46.1088267" lon="13.1416117"><ele>169.0</ele><time>2026-04-11T08:11:55.464Z</time></trkpt><trkpt lat="46.10882" lon="13.141475"><ele>168.6</ele><time>2026-04-11T08:11:56.464Z</time></trkpt><trkpt lat="46.108825" lon="13.1413467"><ele>168.2</ele><time>2026-04-11T08:11:57.463Z</time></trkpt><trkpt lat="46.1088483" lon="13.1412217"><ele>167.79999999999998</ele><time>2026-04-11T08:11:58.464Z</time></trkpt><trkpt lat="46.1089233" lon="13.1410767"><ele>167.39999999999998</ele><time>2026-04-11T08:12:00.463Z</time></trkpt><trkpt lat="46.1090183" lon="13.141055"><ele>167.0</ele><time>2026-04-11T08:12:02.464Z</time></trkpt><trkpt lat="46.1091167" lon="13.1411817"><ele>166.39999999999998</ele><time>2026-04-11T08:12:04.464Z</time></trkpt><trkpt lat="46.109165" lon="13.1412683"><ele>165.79999999999998</ele><time>2026-04-11T08:12:05.464Z</time></trkpt><trkpt lat="46.109255" lon="13.1413933"><ele>165.2</ele><time>2026-04-11T08:12:07.464Z</time></trkpt><trkpt lat="46.109315" lon="13.1414217"><ele>164.6</ele><time>2026-04-11T08:12:08.464Z</time></trkpt><trkpt lat="46.1094283" lon="13.1414283"><ele>164.0</ele><time>2026-04-11T08:12:10.463Z</time></trkpt><trkpt lat="46.1094967" lon="13.1413883"><ele>164.0</ele><time>2026-04-11T08:12:12.464Z</time></trkpt><trkpt lat="46.1095567" lon="13.1412917"><ele>164.0</ele><time>2026-04-11T08:12:15.464Z</time></trkpt><trkpt lat="46.1095083" lon="13.1411383"><ele>164.0</ele><time>2026-04-11T08:12:17.464Z</time></trkpt><trkpt lat="46.10947" lon="13.1410533"><ele>164.0</ele><time>2026-04-11T08:12:18.464Z</time></trkpt><trkpt lat="46.109425" lon="13.1409617"><ele>164.0</ele><time>2026-04-11T08:12:19.464Z</time></trkpt><trkpt lat="46.1093767" lon="13.1408567"><ele>164.0</ele><time>2026-04-11T08:12:20.464Z</time></trkpt><trkpt lat="46.1093267" lon="13.1407233"><ele>163.75</ele><time>2026-04-11T08:12:21.464Z</time></trkpt><trkpt lat="46.1092483" lon="13.1405633"><ele>163.5</ele><time>2026-04-11T08:12:22.464Z</time></trkpt><trkpt lat="46.1091717" lon="13.1404267"><ele>163.25</ele><time>2026-04-11T08:12:23.464Z</time></trkpt><trkpt lat="46.1090883" lon="13.1402717"><ele>163.0</ele><time>2026-04-11T08:12:24.464Z</time></trkpt><trkpt lat="46.1090233" lon="13.1401217"><ele>163.0</ele><time>2026-04-11T08:12:25.464Z</time></trkpt><trkpt lat="46.108965" lon="13.13998"><ele>163.0</ele><time>2026-04-11T08:12:26.464Z</time></trkpt><trkpt lat="46.1089017" lon="13.1398433"><ele>163.0</ele><time>2026-04-11T08:12:27.464Z</time></trkpt><trkpt lat="46.1088433" lon="13.13971"><ele>163.0</ele><time>2026-04-11T08:12:28.464Z</time></trkpt><trkpt lat="46.108785" lon="13.1395817"><ele>163.0</ele><time>2026-04-11T08:12:29.464Z</time></trkpt><trkpt lat="46.108725" lon="13.1394833"><ele>163.2</ele><time>2026-04-11T08:12:30.464Z</time></trkpt><trkpt lat="46.1086483" lon="13.139385"><ele>163.4</ele><time>2026-04-11T08:12:31.464Z</time></trkpt><trkpt lat="46.10856" lon="13.1393017"><ele>163.6</ele><time>2026-04-11T08:12:32.464Z</time></trkpt><trkpt lat="46.1084817" lon="13.1392467"><ele>163.79999999999998</ele><time>2026-04-11T08:12:33.464Z</time></trkpt><trkpt lat="46.1083983" lon="13.1392217"><ele>164.0</ele><time>2026-04-11T08:12:34.464Z</time></trkpt><trkpt lat="46.1083217" lon="13.1392267"><ele>164.0</ele><time>2026-04-11T08:12:35.463Z</time></trkpt><trkpt lat="46.1082483" lon="13.139255"><ele>164.0</ele><time>2026-04-11T08:12:36.463Z</time></trkpt><trkpt lat="46.1081683" lon="13.1392967"><ele>164.0</ele><time>2026-04-11T08:12:37.464Z</time></trkpt><trkpt lat="46.1080883" lon="13.13935"><ele>164.0</ele><time>2026-04-11T08:12:38.463Z</time></trkpt><trkpt lat="46.108015" lon="13.1393967"><ele>164.0</ele><time>2026-04-11T08:12:39.464Z</time></trkpt><trkpt lat="46.1079383" lon="13.139445"><ele>164.0</ele><time>2026-04-11T08:12:40.463Z</time></trkpt><trkpt lat="46.1078717" lon="13.1394817"><ele>163.99999999999997</ele><time>2026-04-11T08:12:41.463Z</time></trkpt><trkpt lat="46.1078117" lon="13.1395133"><ele>164.0</ele><time>2026-04-11T08:12:42.464Z</time></trkpt><trkpt lat="46.1077517" lon="13.1395667"><ele>164.0</ele><time>2026-04-11T08:12:44.464Z</time></trkpt><trkpt lat="46.10769" lon="13.139595"><ele>164.0</ele><time>2026-04-11T08:12:47.464Z</time></trkpt><trkpt lat="46.1077667" lon="13.13955"><ele>164.0</ele><time>2026-04-11T08:13:00.464Z</time></trkpt><trkpt lat="46.1078333" lon="13.1394883"><ele>163.99999999999997</ele><time>2026-04-11T08:13:02.464Z</time></trkpt><trkpt lat="46.10782" lon="13.1393983"><ele>164.0</ele><time>2026-04-11T08:13:07.464Z</time></trkpt><trkpt lat="46.107775" lon="13.1393283"><ele>164.0</ele><time>2026-04-11T08:13:13.464Z</time></trkpt><trkpt lat="46.1076967" lon="13.1392283"><ele>164.0</ele><time>2026-04-11T08:13:16.464Z</time></trkpt><trkpt lat="46.1076333" lon="13.1391417"><ele>164.0</ele><time>2026-04-11T08:13:18.463Z</time></trkpt><trkpt lat="46.1075267" lon="13.1390583"><ele>164.0</ele><time>2026-04-11T08:13:20.464Z</time></trkpt><trkpt lat="46.10742" lon="13.1389617"><ele>164.0</ele><time>2026-04-11T08:13:22.464Z</time></trkpt><trkpt lat="46.1073067" lon="13.138865"><ele>163.83333333333331</ele><time>2026-04-11T08:13:24.464Z</time></trkpt><trkpt lat="46.1072467" lon="13.13881"><ele>163.66666666666666</ele><time>2026-04-11T08:13:25.464Z</time></trkpt><trkpt lat="46.1071867" lon="13.138755"><ele>163.5</ele><time>2026-04-11T08:13:26.463Z</time></trkpt><trkpt lat="46.1070767" lon="13.138665"><ele>163.33333333333334</ele><time>2026-04-11T08:13:28.462Z</time></trkpt><trkpt lat="46.107015" lon="13.1386333"><ele>163.16666666666669</ele><time>2026-04-11T08:13:29.463Z</time></trkpt><trkpt lat="46.1069183" lon="13.138545"><ele>163.0</ele><time>2026-04-11T08:13:31.463Z</time></trkpt><trkpt lat="46.1068517" lon="13.13842"><ele>163.0</ele><time>2026-04-11T08:13:33.462Z</time></trkpt><trkpt lat="46.1068083" lon="13.1382533"><ele>163.0</ele><time>2026-04-11T08:13:35.462Z</time></trkpt><trkpt lat="46.1068117" lon="13.138105"><ele>163.0</ele><time>2026-04-11T08:13:37.463Z</time></trkpt><trkpt lat="46.1068383" lon="13.137955"><ele>163.0</ele><time>2026-04-11T08:13:39.463Z</time></trkpt><trkpt lat="46.106845" lon="13.1378167"><ele>163.0</ele><time>2026-04-11T08:13:41.462Z</time></trkpt><trkpt lat="46.10682" lon="13.1376683"><ele>163.33333333333334</ele><time>2026-04-11T08:13:43.463Z</time></trkpt><trkpt lat="46.1067867" lon="13.1374867"><ele>163.66666666666669</ele><time>2026-04-11T08:13:45.462Z</time></trkpt><trkpt lat="46.1067717" lon="13.1373833"><ele>164.0</ele><time>2026-04-11T08:13:46.463Z</time></trkpt><trkpt lat="46.106745" lon="13.1372767"><ele>164.33333333333334</ele><time>2026-04-11T08:13:47.463Z</time></trkpt><trkpt lat="46.1067167" lon="13.1371833"><ele>164.66666666666666</ele><time>2026-04-11T08:13:48.463Z</time></trkpt><trkpt lat="46.1066867" lon="13.1370983"><ele>165.0</ele><time>2026-04-11T08:13:49.463Z</time></trkpt><trkpt lat="46.1066533" lon="13.1369283"><ele>164.8</ele><time>2026-04-11T08:13:51.463Z</time></trkpt><trkpt lat="46.1066117" lon="13.1367633"><ele>164.6</ele><time>2026-04-11T08:13:53.463Z</time></trkpt><trkpt lat="46.1065717" lon="13.136665"><ele>164.39999999999998</ele><time>2026-04-11T08:13:54.463Z</time></trkpt><trkpt lat="46.1065483" lon="13.136575"><ele>164.2</ele><time>2026-04-11T08:13:55.463Z</time></trkpt><trkpt lat="46.1064967" lon="13.1364267"><ele>164.0</ele><time>2026-04-11T08:13:57.462Z</time></trkpt><trkpt lat="46.10647" lon="13.1362883"><ele>164.75</ele><time>2026-04-11T08:13:59.462Z</time></trkpt><trkpt lat="46.1064867" lon="13.136135"><ele>165.5</ele><time>2026-04-11T08:14:01.463Z</time></trkpt><trkpt lat="46.1065267" lon="13.1359633"><ele>166.25</ele><time>2026-04-11T08:14:03.463Z</time></trkpt><trkpt lat="46.1065933" lon="13.135815"><ele>167.0</ele><time>2026-04-11T08:14:05.463Z</time></trkpt><trkpt lat="46.1066717" lon="13.135675"><ele>167.8</ele><time>2026-04-11T08:14:07.463Z</time></trkpt><trkpt lat="46.1067317" lon="13.13554"><ele>168.6</ele><time>2026-04-11T08:14:09.463Z</time></trkpt><trkpt lat="46.10682" lon="13.1353983"><ele>169.4</ele><time>2026-04-11T08:14:11.463Z</time></trkpt><trkpt lat="46.1068733" lon="13.1352683"><ele>170.20000000000002</ele><time>2026-04-11T08:14:13.463Z</time></trkpt><trkpt lat="46.1069133" lon="13.135155"><ele>171.0</ele><time>2026-04-11T08:14:15.462Z</time></trkpt><trkpt lat="46.1069217" lon="13.135055"><ele>171.0</ele><time>2026-04-11T08:14:17.463Z</time></trkpt><trkpt lat="46.1069333" lon="13.13493"><ele>171.0</ele><time>2026-04-11T08:14:19.463Z</time></trkpt><trkpt lat="46.1069233" lon="13.1347317"><ele>171.0</ele><time>2026-04-11T08:14:21.463Z</time></trkpt><trkpt lat="46.1069117" lon="13.1346067"><ele>171.0</ele><time>2026-04-11T08:14:22.463Z</time></trkpt><trkpt lat="46.1068967" lon="13.1344667"><ele>171.0</ele><time>2026-04-11T08:14:23.463Z</time></trkpt><trkpt lat="46.1068867" lon="13.134345"><ele>171.20000000000002</ele><time>2026-04-11T08:14:24.462Z</time></trkpt><trkpt lat="46.1068667" lon="13.1341467"><ele>171.4</ele><time>2026-04-11T08:14:25.462Z</time></trkpt><trkpt lat="46.1068167" lon="13.134005"><ele>171.6</ele><time>2026-04-11T08:14:26.462Z</time></trkpt><trkpt lat="46.1067817" lon="13.1338717"><ele>171.8</ele><time>2026-04-11T08:14:27.463Z</time></trkpt><trkpt lat="46.106725" lon="13.1337517"><ele>172.0</ele><time>2026-04-11T08:14:28.463Z</time></trkpt><trkpt lat="46.10668" lon="13.1336317"><ele>171.71428571428572</ele><time>2026-04-11T08:14:29.462Z</time></trkpt><trkpt lat="46.10664" lon="13.13353"><ele>171.42857142857144</ele><time>2026-04-11T08:14:30.463Z</time></trkpt><trkpt lat="46.1065983" lon="13.13344"><ele>171.14285714285717</ele><time>2026-04-11T08:14:31.463Z</time></trkpt><trkpt lat="46.10656" lon="13.1333467"><ele>170.85714285714286</ele><time>2026-04-11T08:14:32.463Z</time></trkpt><trkpt lat="46.10653" lon="13.1332583"><ele>170.57142857142856</ele><time>2026-04-11T08:14:33.463Z</time></trkpt><trkpt lat="46.1064933" lon="13.1331667"><ele>170.2857142857143</ele><time>2026-04-11T08:14:34.463Z</time></trkpt><trkpt lat="46.1064817" lon="13.1330683"><ele>170.0</ele><time>2026-04-11T08:14:35.462Z</time></trkpt><trkpt lat="46.1064217" lon="13.13296"><ele>167.6</ele><time>2026-04-11T08:14:36.463Z</time></trkpt><trkpt lat="46.106355" lon="13.1328417"><ele>165.2</ele><time>2026-04-11T08:14:37.463Z</time></trkpt><trkpt lat="46.10629" lon="13.1327333"><ele>162.8</ele><time>2026-04-11T08:14:38.462Z</time></trkpt><trkpt lat="46.1062367" lon="13.1326133"><ele>160.4</ele><time>2026-04-11T08:14:39.463Z</time></trkpt><trkpt lat="46.10618" lon="13.1324783"><ele>158.0</ele><time>2026-04-11T08:14:40.463Z</time></trkpt><trkpt lat="46.10612" lon="13.1323383"><ele>157.6</ele><time>2026-04-11T08:14:41.463Z</time></trkpt><trkpt lat="46.1060617" lon="13.1321933"><ele>157.20000000000002</ele><time>2026-04-11T08:14:42.463Z</time></trkpt><trkpt lat="46.1060167" lon="13.13204"><ele>156.8</ele><time>2026-04-11T08:14:43.463Z</time></trkpt><trkpt lat="46.1059717" lon="13.1319"><ele>156.4</ele><time>2026-04-11T08:14:44.463Z</time></trkpt><trkpt lat="46.1059433" lon="13.1317567"><ele>156.0</ele><time>2026-04-11T08:14:45.463Z</time></trkpt><trkpt lat="46.1059217" lon="13.13161"><ele>156.2</ele><time>2026-04-11T08:14:46.463Z</time></trkpt><trkpt lat="46.105895" lon="13.1314667"><ele>156.39999999999998</ele><time>2026-04-11T08:14:47.463Z</time></trkpt><trkpt lat="46.105865" lon="13.13134"><ele>156.6</ele><time>2026-04-11T08:14:48.463Z</time></trkpt><trkpt lat="46.1058333" lon="13.13124"><ele>156.79999999999998</ele><time>2026-04-11T08:14:49.463Z</time></trkpt><trkpt lat="46.1057833" lon="13.1310967"><ele>157.0</ele><time>2026-04-11T08:14:51.463Z</time></trkpt><trkpt lat="46.1057433" lon="13.13092"><ele>156.0</ele><time>2026-04-11T08:14:53.463Z</time></trkpt><trkpt lat="46.1057233" lon="13.1308083"><ele>155.0</ele><time>2026-04-11T08:14:54.463Z</time></trkpt><trkpt lat="46.1057083" lon="13.13067"><ele>154.0</ele><time>2026-04-11T08:14:55.463Z</time></trkpt><trkpt lat="46.105685" lon="13.1305033"><ele>153.0</ele><time>2026-04-11T08:14:56.463Z</time></trkpt><trkpt lat="46.10566" lon="13.1302967"><ele>152.0</ele><time>2026-04-11T08:14:57.463Z</time></trkpt><trkpt lat="46.1056567" lon="13.13009"><ele>153.33333333333331</ele><time>2026-04-11T08:14:58.463Z</time></trkpt><trkpt lat="46.1056217" lon="13.1298667"><ele>154.66666666666666</ele><time>2026-04-11T08:14:59.462Z</time></trkpt><trkpt lat="46.1055767" lon="13.129665"><ele>156.0</ele><time>2026-04-11T08:15:00.463Z</time></trkpt><trkpt lat="46.1055467" lon="13.12946"><ele>156.0</ele><time>2026-04-11T08:15:01.462Z</time></trkpt><trkpt lat="46.1055267" lon="13.1292683"><ele>156.0</ele><time>2026-04-11T08:15:02.463Z</time></trkpt><trkpt lat="46.1055033" lon="13.12908"><ele>156.0</ele><time>2026-04-11T08:15:03.463Z</time></trkpt><trkpt lat="46.1054883" lon="13.128905"><ele>156.0</ele><time>2026-04-11T08:15:04.463Z</time></trkpt><trkpt lat="46.1054783" lon="13.12874"><ele>157.0</ele><time>2026-04-11T08:15:05.463Z</time></trkpt><trkpt lat="46.1054917" lon="13.12859"><ele>158.0</ele><time>2026-04-11T08:15:06.463Z</time></trkpt><trkpt lat="46.105505" lon="13.1284417"><ele>159.0</ele><time>2026-04-11T08:15:07.463Z</time></trkpt><trkpt lat="46.1055117" lon="13.1282883"><ele>160.0</ele><time>2026-04-11T08:15:08.463Z</time></trkpt><trkpt lat="46.1055133" lon="13.128115"><ele>161.0</ele><time>2026-04-11T08:15:09.462Z</time></trkpt><trkpt lat="46.105525" lon="13.1279483"><ele>161.16666666666666</ele><time>2026-04-11T08:15:10.463Z</time></trkpt><trkpt lat="46.1055417" lon="13.12779"><ele>161.33333333333331</ele><time>2026-04-11T08:15:11.463Z</time></trkpt><trkpt lat="46.10555" lon="13.1276517"><ele>161.5</ele><time>2026-04-11T08:15:12.462Z</time></trkpt><trkpt lat="46.1055617" lon="13.127545"><ele>161.66666666666666</ele><time>2026-04-11T08:15:13.462Z</time></trkpt><trkpt lat="46.1055817" lon="13.1274467"><ele>161.83333333333334</ele><time>2026-04-11T08:15:14.463Z</time></trkpt><trkpt lat="46.10563" lon="13.1273533"><ele>162.0</ele><time>2026-04-11T08:15:15.462Z</time></trkpt><trkpt lat="46.105685" lon="13.1272117"><ele>162.0</ele><time>2026-04-11T08:15:17.462Z</time></trkpt><trkpt lat="46.1056683" lon="13.127085"><ele>162.0</ele><time>2026-04-11T08:15:19.463Z</time></trkpt><trkpt lat="46.10565" lon="13.1269517"><ele>162.0</ele><time>2026-04-11T08:15:21.463Z</time></trkpt><trkpt lat="46.1056283" lon="13.1268067"><ele>162.0</ele><time>2026-04-11T08:15:23.463Z</time></trkpt><trkpt lat="46.1056367" lon="13.126715"><ele>162.0</ele><time>2026-04-11T08:15:24.463Z</time></trkpt><trkpt lat="46.10566" lon="13.1265483"><ele>162.0</ele><time>2026-04-11T08:15:26.463Z</time></trkpt><trkpt lat="46.105665" lon="13.1264517"><ele>162.0</ele><time>2026-04-11T08:15:27.462Z</time></trkpt><trkpt lat="46.105665" lon="13.1263567"><ele>162.0</ele><time>2026-04-11T08:15:28.462Z</time></trkpt><trkpt lat="46.1056667" lon="13.1262617"><ele>162.0</ele><time>2026-04-11T08:15:29.463Z</time></trkpt><trkpt lat="46.1056717" lon="13.1261667"><ele>162.0</ele><time>2026-04-11T08:15:30.462Z</time></trkpt><trkpt lat="46.1056783" lon="13.12607"><ele>162.0</ele><time>2026-04-11T08:15:31.463Z</time></trkpt><trkpt lat="46.1056767" lon="13.12597"><ele>162.0</ele><time>2026-04-11T08:15:32.462Z</time></trkpt><trkpt lat="46.1056633" lon="13.12581"><ele>162.0</ele><time>2026-04-11T08:15:34.463Z</time></trkpt><trkpt lat="46.1056233" lon="13.1257183"><ele>162.0</ele><time>2026-04-11T08:15:36.463Z</time></trkpt><trkpt lat="46.1055583" lon="13.1256917"><ele>162.0</ele><time>2026-04-11T08:15:38.463Z</time></trkpt><trkpt lat="46.105475" lon="13.1257367"><ele>162.0</ele><time>2026-04-11T08:15:40.463Z</time></trkpt><trkpt lat="46.1053783" lon="13.125795"><ele>162.0</ele><time>2026-04-11T08:15:42.463Z</time></trkpt><trkpt lat="46.1052833" lon="13.1258317"><ele>162.0</ele><time>2026-04-11T08:15:44.463Z</time></trkpt><trkpt lat="46.105185" lon="13.1258533"><ele>162.0</ele><time>2026-04-11T08:15:46.462Z</time></trkpt><trkpt lat="46.105075" lon="13.12586"><ele>162.0</ele><time>2026-04-11T08:15:48.463Z</time></trkpt><trkpt lat="46.104955" lon="13.125875"><ele>162.0</ele><time>2026-04-11T08:15:50.463Z</time></trkpt><trkpt lat="46.1048567" lon="13.1258867"><ele>162.0</ele><time>2026-04-11T08:15:52.463Z</time></trkpt><trkpt lat="46.104775" lon="13.1258733"><ele>162.0</ele><time>2026-04-11T08:15:54.463Z</time></trkpt><trkpt lat="46.1047017" lon="13.12586"><ele>162.16666666666666</ele><time>2026-04-11T08:16:17.463Z</time></trkpt><trkpt lat="46.10464" lon="13.1258417"><ele>162.33333333333334</ele><time>2026-04-11T08:16:19.463Z</time></trkpt><trkpt lat="46.10457" lon="13.1258167"><ele>162.5</ele><time>2026-04-11T08:16:21.463Z</time></trkpt><trkpt lat="46.1044833" lon="13.1258017"><ele>162.66666666666669</ele><time>2026-04-11T08:16:23.462Z</time></trkpt><trkpt lat="46.1044117" lon="13.1257633"><ele>162.83333333333334</ele><time>2026-04-11T08:16:25.462Z</time></trkpt><trkpt lat="46.104345" lon="13.125705"><ele>163.0</ele><time>2026-04-11T08:16:27.463Z</time></trkpt><trkpt lat="46.104285" lon="13.1256133"><ele>163.0</ele><time>2026-04-11T08:16:29.463Z</time></trkpt><trkpt lat="46.1042133" lon="13.125475"><ele>163.0</ele><time>2026-04-11T08:16:31.463Z</time></trkpt><trkpt lat="46.10418" lon="13.1253867"><ele>163.0</ele><time>2026-04-11T08:16:32.463Z</time></trkpt><trkpt lat="46.1041467" lon="13.1253"><ele>163.0</ele><time>2026-04-11T08:16:33.463Z</time></trkpt><trkpt lat="46.104115" lon="13.125215"><ele>163.0</ele><time>2026-04-11T08:16:34.462Z</time></trkpt><trkpt lat="46.1040867" lon="13.125125"><ele>163.0</ele><time>2026-04-11T08:16:35.462Z</time></trkpt><trkpt lat="46.1040583" lon="13.1250433"><ele>162.57142857142858</ele><time>2026-04-11T08:16:36.463Z</time></trkpt><trkpt lat="46.1040367" lon="13.1249533"><ele>162.14285714285714</ele><time>2026-04-11T08:16:37.463Z</time></trkpt><trkpt lat="46.1040017" lon="13.124865"><ele>161.71428571428572</ele><time>2026-04-11T08:16:38.463Z</time></trkpt><trkpt lat="46.1039667" lon="13.1247833"><ele>161.28571428571428</ele><time>2026-04-11T08:16:39.463Z</time></trkpt><trkpt lat="46.10393" lon="13.1246967"><ele>160.85714285714286</ele><time>2026-04-11T08:16:40.462Z</time></trkpt><trkpt lat="46.103895" lon="13.1246117"><ele>160.42857142857142</ele><time>2026-04-11T08:16:41.463Z</time></trkpt><trkpt lat="46.10385" lon="13.1245133"><ele>160.0</ele><time>2026-04-11T08:16:42.463Z</time></trkpt><trkpt lat="46.1038083" lon="13.1244183"><ele>159.5</ele><time>2026-04-11T08:16:43.463Z</time></trkpt><trkpt lat="46.1037717" lon="13.1243183"><ele>159.0</ele><time>2026-04-11T08:16:44.463Z</time></trkpt><trkpt lat="46.1037317" lon="13.12423"><ele>158.5</ele><time>2026-04-11T08:16:45.463Z</time></trkpt><trkpt lat="46.103695" lon="13.12414"><ele>158.0</ele><time>2026-04-11T08:16:46.463Z</time></trkpt><trkpt lat="46.1036383" lon="13.1239867"><ele>157.5</ele><time>2026-04-11T08:16:48.463Z</time></trkpt><trkpt lat="46.103605" lon="13.1239033"><ele>157.0</ele><time>2026-04-11T08:16:49.463Z</time></trkpt><trkpt lat="46.1035667" lon="13.12381"><ele>157.0</ele><time>2026-04-11T08:16:50.463Z</time></trkpt><trkpt lat="46.1035333" lon="13.123715"><ele>157.0</ele><time>2026-04-11T08:16:51.463Z</time></trkpt><trkpt lat="46.103495" lon="13.1236267"><ele>157.0</ele><time>2026-04-11T08:16:52.463Z</time></trkpt><trkpt lat="46.1034567" lon="13.123535"><ele>157.0</ele><time>2026-04-11T08:16:53.463Z</time></trkpt><trkpt lat="46.1034183" lon="13.12345"><ele>157.0</ele><time>2026-04-11T08:16:54.462Z</time></trkpt><trkpt lat="46.1033517" lon="13.1233133"><ele>157.0</ele><time>2026-04-11T08:16:56.463Z</time></trkpt><trkpt lat="46.1033017" lon="13.1231717"><ele>156.79999999999998</ele><time>2026-04-11T08:16:58.463Z</time></trkpt><trkpt lat="46.1032667" lon="13.1230417"><ele>156.6</ele><time>2026-04-11T08:17:00.463Z</time></trkpt><trkpt lat="46.1032317" lon="13.122905"><ele>156.39999999999998</ele><time>2026-04-11T08:17:02.463Z</time></trkpt><trkpt lat="46.1032167" lon="13.122775"><ele>156.2</ele><time>2026-04-11T08:17:04.463Z</time></trkpt><trkpt lat="46.103235" lon="13.1226317"><ele>156.0</ele><time>2026-04-11T08:17:06.463Z</time></trkpt><trkpt lat="46.103225" lon="13.1224817"><ele>155.5</ele><time>2026-04-11T08:17:08.463Z</time></trkpt><trkpt lat="46.1032033" lon="13.1223133"><ele>155.0</ele><time>2026-04-11T08:17:10.462Z</time></trkpt><trkpt lat="46.1031783" lon="13.1222183"><ele>154.5</ele><time>2026-04-11T08:17:11.463Z</time></trkpt><trkpt lat="46.1031533" lon="13.1221167"><ele>154.0</ele><time>2026-04-11T08:17:12.463Z</time></trkpt><trkpt lat="46.1031117" lon="13.1220217"><ele>153.5</ele><time>2026-04-11T08:17:13.463Z</time></trkpt><trkpt lat="46.1030733" lon="13.1219267"><ele>153.0</ele><time>2026-04-11T08:17:14.463Z</time></trkpt><trkpt lat="46.103045" lon="13.1218233"><ele>153.0</ele><time>2026-04-11T08:17:15.463Z</time></trkpt><trkpt lat="46.10302" lon="13.1217167"><ele>153.0</ele><time>2026-04-11T08:17:16.463Z</time></trkpt><trkpt lat="46.1029783" lon="13.1216417"><ele>153.0</ele><time>2026-04-11T08:17:17.463Z</time></trkpt><trkpt lat="46.1029367" lon="13.1215733"><ele>153.0</ele><time>2026-04-11T08:17:18.462Z</time></trkpt><trkpt lat="46.1028933" lon="13.1214233"><ele>153.0</ele><time>2026-04-11T08:17:20.462Z</time></trkpt><trkpt lat="46.1028733" lon="13.1213133"><ele>153.0</ele><time>2026-04-11T08:17:22.463Z</time></trkpt><trkpt lat="46.1029067" lon="13.12116"><ele>152.66666666666666</ele><time>2026-04-11T08:17:24.462Z</time></trkpt><trkpt lat="46.1029067" lon="13.12106"><ele>152.33333333333334</ele><time>2026-04-11T08:17:25.463Z</time></trkpt><trkpt lat="46.1029017" lon="13.1209367"><ele>152.0</ele><time>2026-04-11T08:17:26.463Z</time></trkpt><trkpt lat="46.10289" lon="13.1208067"><ele>151.66666666666669</ele><time>2026-04-11T08:17:27.463Z</time></trkpt><trkpt lat="46.1028817" lon="13.120675"><ele>151.33333333333334</ele><time>2026-04-11T08:17:28.463Z</time></trkpt><trkpt lat="46.1028667" lon="13.1205367"><ele>151.0</ele><time>2026-04-11T08:17:29.463Z</time></trkpt><trkpt lat="46.10286" lon="13.12037"><ele>150.75</ele><time>2026-04-11T08:17:30.463Z</time></trkpt><trkpt lat="46.1028467" lon="13.1202033"><ele>150.5</ele><time>2026-04-11T08:17:31.463Z</time></trkpt><trkpt lat="46.1028267" lon="13.1200433"><ele>150.25</ele><time>2026-04-11T08:17:32.463Z</time></trkpt><trkpt lat="46.102815" lon="13.1198833"><ele>150.0</ele><time>2026-04-11T08:17:33.462Z</time></trkpt><trkpt lat="46.1028067" lon="13.1197117"><ele>150.4</ele><time>2026-04-11T08:17:34.463Z</time></trkpt><trkpt lat="46.1027983" lon="13.1195433"><ele>150.8</ele><time>2026-04-11T08:17:35.463Z</time></trkpt><trkpt lat="46.1027917" lon="13.1193867"><ele>151.2</ele><time>2026-04-11T08:17:36.463Z</time></trkpt><trkpt lat="46.102785" lon="13.11923"><ele>151.6</ele><time>2026-04-11T08:17:37.463Z</time></trkpt><trkpt lat="46.10278" lon="13.119085"><ele>152.0</ele><time>2026-04-11T08:17:38.463Z</time></trkpt><trkpt lat="46.102775" lon="13.1189483"><ele>152.4</ele><time>2026-04-11T08:17:39.463Z</time></trkpt><trkpt lat="46.1027733" lon="13.1188133"><ele>152.79999999999998</ele><time>2026-04-11T08:17:40.463Z</time></trkpt><trkpt lat="46.10277" lon="13.1186817"><ele>153.2</ele><time>2026-04-11T08:17:41.463Z</time></trkpt><trkpt lat="46.1027583" lon="13.1185483"><ele>153.6</ele><time>2026-04-11T08:17:42.463Z</time></trkpt><trkpt lat="46.1027467" lon="13.11841"><ele>154.0</ele><time>2026-04-11T08:17:43.463Z</time></trkpt><trkpt lat="46.1027267" lon="13.1182667"><ele>154.0</ele><time>2026-04-11T08:17:44.462Z</time></trkpt><trkpt lat="46.10269" lon="13.1181167"><ele>154.0</ele><time>2026-04-11T08:17:45.463Z</time></trkpt><trkpt lat="46.10266" lon="13.1179717"><ele>154.0</ele><time>2026-04-11T08:17:46.463Z</time></trkpt><trkpt lat="46.1026183" lon="13.1178333"><ele>154.0</ele><time>2026-04-11T08:17:47.463Z</time></trkpt><trkpt lat="46.102585" lon="13.1176967"><ele>154.0</ele><time>2026-04-11T08:17:48.462Z</time></trkpt><trkpt lat="46.1025533" lon="13.1175683"><ele>154.0</ele><time>2026-04-11T08:17:49.463Z</time></trkpt><trkpt lat="46.1025317" lon="13.117455"><ele>154.0</ele><time>2026-04-11T08:17:50.463Z</time></trkpt><trkpt lat="46.1025183" lon="13.1173583"><ele>154.0</ele><time>2026-04-11T08:17:51.463Z</time></trkpt><trkpt lat="46.1025117" lon="13.11726"><ele>154.0</ele><time>2026-04-11T08:17:52.463Z</time></trkpt><trkpt lat="46.1025083" lon="13.1171517"><ele>154.0</ele><time>2026-04-11T08:17:53.463Z</time></trkpt><trkpt lat="46.1025183" lon="13.11704"><ele>154.0</ele><time>2026-04-11T08:17:54.463Z</time></trkpt><trkpt lat="46.1025283" lon="13.1169183"><ele>154.4</ele><time>2026-04-11T08:17:55.463Z</time></trkpt><trkpt lat="46.1025417" lon="13.1167817"><ele>154.8</ele><time>2026-04-11T08:17:56.463Z</time></trkpt><trkpt lat="46.102565" lon="13.1166417"><ele>155.2</ele><time>2026-04-11T08:17:57.463Z</time></trkpt><trkpt lat="46.1025833" lon="13.1165"><ele>155.6</ele><time>2026-04-11T08:17:58.463Z</time></trkpt><trkpt lat="46.1025967" lon="13.1163583"><ele>156.0</ele><time>2026-04-11T08:17:59.463Z</time></trkpt><trkpt lat="46.1026067" lon="13.1162233"><ele>156.0</ele><time>2026-04-11T08:18:00.463Z</time></trkpt><trkpt lat="46.1026233" lon="13.116105"><ele>156.0</ele><time>2026-04-11T08:18:01.463Z</time></trkpt><trkpt lat="46.10264" lon="13.1159833"><ele>156.0</ele><time>2026-04-11T08:18:02.463Z</time></trkpt><trkpt lat="46.10265" lon="13.1158667"><ele>156.0</ele><time>2026-04-11T08:18:03.462Z</time></trkpt><trkpt lat="46.1026517" lon="13.1157683"><ele>156.0</ele><time>2026-04-11T08:18:04.463Z</time></trkpt><trkpt lat="46.1026483" lon="13.1156733"><ele>156.0</ele><time>2026-04-11T08:18:05.463Z</time></trkpt><trkpt lat="46.1026383" lon="13.1155767"><ele>156.0</ele><time>2026-04-11T08:18:06.463Z</time></trkpt><trkpt lat="46.1026217" lon="13.115455"><ele>156.0</ele><time>2026-04-11T08:18:08.462Z</time></trkpt><trkpt lat="46.102595" lon="13.1153283"><ele>156.0</ele><time>2026-04-11T08:18:11.463Z</time></trkpt><trkpt lat="46.1025317" lon="13.1151617"><ele>156.0</ele><time>2026-04-11T08:18:13.462Z</time></trkpt><trkpt lat="46.1024767" lon="13.115045"><ele>156.0</ele><time>2026-04-11T08:18:14.463Z</time></trkpt><trkpt lat="46.102415" lon="13.1149167"><ele>155.2</ele><time>2026-04-11T08:18:15.463Z</time></trkpt><trkpt lat="46.1023617" lon="13.1147933"><ele>154.39999999999998</ele><time>2026-04-11T08:18:16.463Z</time></trkpt><trkpt lat="46.1023233" lon="13.1146833"><ele>153.6</ele><time>2026-04-11T08:18:17.462Z</time></trkpt><trkpt lat="46.102285" lon="13.11458"><ele>152.79999999999998</ele><time>2026-04-11T08:18:18.463Z</time></trkpt><trkpt lat="46.1022433" lon="13.114465"><ele>152.0</ele><time>2026-04-11T08:18:19.463Z</time></trkpt><trkpt lat="46.1022067" lon="13.1143417"><ele>152.0</ele><time>2026-04-11T08:18:20.463Z</time></trkpt><trkpt lat="46.10217" lon="13.11421"><ele>152.0</ele><time>2026-04-11T08:18:21.463Z</time></trkpt><trkpt lat="46.1021267" lon="13.1140733"><ele>152.0</ele><time>2026-04-11T08:18:22.463Z</time></trkpt><trkpt lat="46.102075" lon="13.1139817"><ele>152.0</ele><time>2026-04-11T08:18:23.463Z</time></trkpt><trkpt lat="46.1020283" lon="13.1139083"><ele>152.0</ele><time>2026-04-11T08:18:24.463Z</time></trkpt><trkpt lat="46.1019667" lon="13.1138033"><ele>152.0</ele><time>2026-04-11T08:18:26.463Z</time></trkpt><trkpt lat="46.1019133" lon="13.113755"><ele>152.2</ele><time>2026-04-11T08:18:30.463Z</time></trkpt><trkpt lat="46.101855" lon="13.1136483"><ele>152.39999999999998</ele><time>2026-04-11T08:18:33.462Z</time></trkpt><trkpt lat="46.1017917" lon="13.113535"><ele>152.60000000000002</ele><time>2026-04-11T08:18:35.463Z</time></trkpt><trkpt lat="46.10174" lon="13.1134633"><ele>152.8</ele><time>2026-04-11T08:18:36.463Z</time></trkpt><trkpt lat="46.1016567" lon="13.1133433"><ele>153.0</ele><time>2026-04-11T08:18:38.462Z</time></trkpt><trkpt lat="46.10161" lon="13.113275"><ele>152.33333333333334</ele><time>2026-04-11T08:18:39.463Z</time></trkpt><trkpt lat="46.101575" lon="13.1131833"><ele>151.66666666666666</ele><time>2026-04-11T08:18:40.462Z</time></trkpt><trkpt lat="46.10154" lon="13.113085"><ele>151.0</ele><time>2026-04-11T08:18:41.463Z</time></trkpt><trkpt lat="46.1014983" lon="13.11297"><ele>150.33333333333331</ele><time>2026-04-11T08:18:42.463Z</time></trkpt><trkpt lat="46.1014433" lon="13.1128517"><ele>149.66666666666666</ele><time>2026-04-11T08:18:43.463Z</time></trkpt><trkpt lat="46.1013833" lon="13.1127417"><ele>149.0</ele><time>2026-04-11T08:18:44.463Z</time></trkpt><trkpt lat="46.1013267" lon="13.112635"><ele>149.0</ele><time>2026-04-11T08:18:45.462Z</time></trkpt><trkpt lat="46.101255" lon="13.1125217"><ele>149.0</ele><time>2026-04-11T08:18:46.463Z</time></trkpt><trkpt lat="46.101185" lon="13.112405"><ele>149.0</ele><time>2026-04-11T08:18:47.463Z</time></trkpt><trkpt lat="46.1011183" lon="13.112285"><ele>149.0</ele><time>2026-04-11T08:18:48.463Z</time></trkpt><trkpt lat="46.1010533" lon="13.1121583"><ele>149.0</ele><time>2026-04-11T08:18:49.463Z</time></trkpt><trkpt lat="46.1009883" lon="13.1120333"><ele>149.25</ele><time>2026-04-11T08:18:50.462Z</time></trkpt><trkpt lat="46.1009133" lon="13.1119017"><ele>149.5</ele><time>2026-04-11T08:18:51.463Z</time></trkpt><trkpt lat="46.1008433" lon="13.11177"><ele>149.75</ele><time>2026-04-11T08:18:52.463Z</time></trkpt><trkpt lat="46.10077" lon="13.1116367"><ele>150.0</ele><time>2026-04-11T08:18:53.463Z</time></trkpt><trkpt lat="46.1006983" lon="13.111505"><ele>149.2</ele><time>2026-04-11T08:18:54.463Z</time></trkpt><trkpt lat="46.1006217" lon="13.1113867"><ele>148.4</ele><time>2026-04-11T08:18:55.462Z</time></trkpt><trkpt lat="46.1005483" lon="13.1112733"><ele>147.6</ele><time>2026-04-11T08:18:56.463Z</time></trkpt><trkpt lat="46.1004833" lon="13.11115"><ele>146.8</ele><time>2026-04-11T08:18:57.463Z</time></trkpt><trkpt lat="46.10044" lon="13.1110367"><ele>146.0</ele><time>2026-04-11T08:18:58.463Z</time></trkpt><trkpt lat="46.10042" lon="13.1109083"><ele>146.0</ele><time>2026-04-11T08:18:59.462Z</time></trkpt><trkpt lat="46.1004133" lon="13.11076"><ele>146.0</ele><time>2026-04-11T08:19:00.463Z</time></trkpt><trkpt lat="46.1004117" lon="13.1106017"><ele>146.0</ele><time>2026-04-11T08:19:01.463Z</time></trkpt><trkpt lat="46.1004317" lon="13.1104517"><ele>146.0</ele><time>2026-04-11T08:19:02.462Z</time></trkpt><trkpt lat="46.1004433" lon="13.1102967"><ele>146.0</ele><time>2026-04-11T08:19:03.462Z</time></trkpt><trkpt lat="46.1004567" lon="13.1101483"><ele>145.0</ele><time>2026-04-11T08:19:04.463Z</time></trkpt><trkpt lat="46.10047" lon="13.1099917"><ele>144.0</ele><time>2026-04-11T08:19:05.463Z</time></trkpt><trkpt lat="46.1004933" lon="13.109825"><ele>143.0</ele><time>2026-04-11T08:19:06.463Z</time></trkpt><trkpt lat="46.1005167" lon="13.1096667"><ele>142.0</ele><time>2026-04-11T08:19:07.463Z</time></trkpt><trkpt lat="46.1005467" lon="13.1095033"><ele>142.0</ele><time>2026-04-11T08:19:08.463Z</time></trkpt><trkpt lat="46.1005683" lon="13.1093883"><ele>142.0</ele><time>2026-04-11T08:19:09.463Z</time></trkpt><trkpt lat="46.1006" lon="13.1092233"><ele>142.0</ele><time>2026-04-11T08:19:10.463Z</time></trkpt><trkpt lat="46.1006467" lon="13.1090433"><ele>142.0</ele><time>2026-04-11T08:19:11.462Z</time></trkpt><trkpt lat="46.1006933" lon="13.1088717"><ele>142.0</ele><time>2026-04-11T08:19:12.463Z</time></trkpt><trkpt lat="46.1007417" lon="13.1087183"><ele>142.0</ele><time>2026-04-11T08:19:13.463Z</time></trkpt><trkpt lat="46.1007833" lon="13.1085883"><ele>142.0</ele><time>2026-04-11T08:19:14.463Z</time></trkpt><trkpt lat="46.1008167" lon="13.1084817"><ele>142.0</ele><time>2026-04-11T08:19:15.463Z</time></trkpt><trkpt lat="46.1008483" lon="13.1083933"><ele>142.0</ele><time>2026-04-11T08:19:16.463Z</time></trkpt><trkpt lat="46.1008733" lon="13.1083"><ele>142.0</ele><time>2026-04-11T08:19:17.463Z</time></trkpt><trkpt lat="46.1009" lon="13.1081967"><ele>142.79999999999998</ele><time>2026-04-11T08:19:18.463Z</time></trkpt><trkpt lat="46.1009283" lon="13.1080533"><ele>143.6</ele><time>2026-04-11T08:19:19.463Z</time></trkpt><trkpt lat="46.1009517" lon="13.1078933"><ele>144.39999999999998</ele><time>2026-04-11T08:19:20.463Z</time></trkpt><trkpt lat="46.100965" lon="13.1077467"><ele>145.2</ele><time>2026-04-11T08:19:21.462Z</time></trkpt><trkpt lat="46.10098" lon="13.1076183"><ele>146.0</ele><time>2026-04-11T08:19:22.463Z</time></trkpt><trkpt lat="46.1009933" lon="13.1075117"><ele>145.66666666666666</ele><time>2026-04-11T08:19:23.463Z</time></trkpt><trkpt lat="46.1010167" lon="13.1073433"><ele>145.33333333333331</ele><time>2026-04-11T08:19:25.463Z</time></trkpt><trkpt lat="46.1010267" lon="13.10725"><ele>145.0</ele><time>2026-04-11T08:19:26.462Z</time></trkpt><trkpt lat="46.101035" lon="13.10715"><ele>144.66666666666666</ele><time>2026-04-11T08:19:27.463Z</time></trkpt><trkpt lat="46.1010433" lon="13.1070367"><ele>144.33333333333334</ele><time>2026-04-11T08:19:28.462Z</time></trkpt><trkpt lat="46.1010583" lon="13.1069217"><ele>144.0</ele><time>2026-04-11T08:19:29.463Z</time></trkpt><trkpt lat="46.1010683" lon="13.1067933"><ele>144.0</ele><time>2026-04-11T08:19:30.463Z</time></trkpt><trkpt lat="46.1010733" lon="13.1066617"><ele>144.0</ele><time>2026-04-11T08:19:31.463Z</time></trkpt><trkpt lat="46.101085" lon="13.1065267"><ele>144.0</ele><time>2026-04-11T08:19:32.463Z</time></trkpt><trkpt lat="46.10109" lon="13.1064067"><ele>144.0</ele><time>2026-04-11T08:19:33.462Z</time></trkpt><trkpt lat="46.10109" lon="13.1063117"><ele>144.0</ele><time>2026-04-11T08:19:34.463Z</time></trkpt><trkpt lat="46.1011183" lon="13.10623"><ele>144.0</ele><time>2026-04-11T08:19:35.463Z</time></trkpt><trkpt lat="46.1012033" lon="13.1060867"><ele>144.0</ele><time>2026-04-11T08:19:37.463Z</time></trkpt><trkpt lat="46.101265" lon="13.1060267"><ele>144.0</ele><time>2026-04-11T08:19:38.463Z</time></trkpt><trkpt lat="46.1013217" lon="13.1059667"><ele>144.0</ele><time>2026-04-11T08:19:39.462Z</time></trkpt><trkpt lat="46.1014067" lon="13.105915"><ele>144.0</ele><time>2026-04-11T08:19:40.463Z</time></trkpt><trkpt lat="46.1014983" lon="13.1058517"><ele>144.0</ele><time>2026-04-11T08:19:41.463Z</time></trkpt><trkpt lat="46.101595" lon="13.1058167"><ele>144.0</ele><time>2026-04-11T08:19:42.463Z</time></trkpt><trkpt lat="46.10169" lon="13.105805"><ele>145.0</ele><time>2026-04-11T08:19:43.462Z</time></trkpt><trkpt lat="46.1017767" lon="13.1057917"><ele>146.0</ele><time>2026-04-11T08:19:44.463Z</time></trkpt><trkpt lat="46.1018667" lon="13.10575"><ele>147.0</ele><time>2026-04-11T08:19:45.462Z</time></trkpt><trkpt lat="46.1019567" lon="13.1057033"><ele>148.0</ele><time>2026-04-11T08:19:46.463Z</time></trkpt><trkpt lat="46.10204" lon="13.1056383"><ele>149.0</ele><time>2026-04-11T08:19:47.463Z</time></trkpt><trkpt lat="46.1021217" lon="13.1055683"><ele>149.0</ele><time>2026-04-11T08:19:48.462Z</time></trkpt><trkpt lat="46.102205" lon="13.1054817"><ele>149.0</ele><time>2026-04-11T08:19:49.463Z</time></trkpt><trkpt lat="46.1022767" lon="13.105405"><ele>149.0</ele><time>2026-04-11T08:19:50.463Z</time></trkpt><trkpt lat="46.1023533" lon="13.1053383"><ele>149.0</ele><time>2026-04-11T08:19:51.463Z</time></trkpt><trkpt lat="46.1024283" lon="13.1052767"><ele>149.0</ele><time>2026-04-11T08:19:52.462Z</time></trkpt><trkpt lat="46.1024967" lon="13.10522"><ele>149.0</ele><time>2026-04-11T08:19:53.463Z</time></trkpt><trkpt lat="46.1025483" lon="13.1051633"><ele>149.33333333333331</ele><time>2026-04-11T08:19:54.463Z</time></trkpt><trkpt lat="46.1026317" lon="13.105075"><ele>149.66666666666666</ele><time>2026-04-11T08:19:56.463Z</time></trkpt><trkpt lat="46.1026383" lon="13.1049683"><ele>150.0</ele><time>2026-04-11T08:20:01.463Z</time></trkpt><trkpt lat="46.1026533" lon="13.1048783"><ele>150.33333333333334</ele><time>2026-04-11T08:20:03.463Z</time></trkpt><trkpt lat="46.1026417" lon="13.1046817"><ele>150.66666666666669</ele><time>2026-04-11T08:20:05.463Z</time></trkpt><trkpt lat="46.1026333" lon="13.1045817"><ele>151.0</ele><time>2026-04-11T08:20:06.463Z</time></trkpt><trkpt lat="46.1026267" lon="13.1044833"><ele>151.66666666666669</ele><time>2026-04-11T08:20:07.463Z</time></trkpt><trkpt lat="46.1026317" lon="13.1043883"><ele>152.33333333333334</ele><time>2026-04-11T08:20:08.463Z</time></trkpt><trkpt lat="46.1026817" lon="13.1042783"><ele>153.0</ele><time>2026-04-11T08:20:10.462Z</time></trkpt><trkpt lat="46.1027867" lon="13.1042267"><ele>153.66666666666666</ele><time>2026-04-11T08:20:12.462Z</time></trkpt><trkpt lat="46.1028517" lon="13.1042083"><ele>154.33333333333331</ele><time>2026-04-11T08:20:13.463Z</time></trkpt><trkpt lat="46.1029233" lon="13.10422"><ele>155.0</ele><time>2026-04-11T08:20:14.463Z</time></trkpt><trkpt lat="46.102995" lon="13.1042367"><ele>155.0</ele><time>2026-04-11T08:20:15.463Z</time></trkpt><trkpt lat="46.1030717" lon="13.104255"><ele>155.0</ele><time>2026-04-11T08:20:16.463Z</time></trkpt><trkpt lat="46.1031383" lon="13.1042483"><ele>155.0</ele><time>2026-04-11T08:20:17.463Z</time></trkpt><trkpt lat="46.1032133" lon="13.1042317"><ele>155.0</ele><time>2026-04-11T08:20:18.463Z</time></trkpt><trkpt lat="46.103295" lon="13.104215"><ele>155.0</ele><time>2026-04-11T08:20:19.463Z</time></trkpt><trkpt lat="46.1033717" lon="13.1041767"><ele>155.0</ele><time>2026-04-11T08:20:20.463Z</time></trkpt><trkpt lat="46.1034533" lon="13.1041133"><ele>156.0</ele><time>2026-04-11T08:20:21.463Z</time></trkpt><trkpt lat="46.1035433" lon="13.10402"><ele>157.0</ele><time>2026-04-11T08:20:22.462Z</time></trkpt><trkpt lat="46.1036283" lon="13.10393"><ele>158.0</ele><time>2026-04-11T08:20:23.463Z</time></trkpt><trkpt lat="46.10371" lon="13.103835"><ele>159.0</ele><time>2026-04-11T08:20:24.463Z</time></trkpt><trkpt lat="46.1037917" lon="13.1037417"><ele>160.0</ele><time>2026-04-11T08:20:25.463Z</time></trkpt><trkpt lat="46.1038717" lon="13.103675"><ele>160.0</ele><time>2026-04-11T08:20:26.463Z</time></trkpt><trkpt lat="46.10397" lon="13.1036083"><ele>160.0</ele><time>2026-04-11T08:20:27.463Z</time></trkpt><trkpt lat="46.104085" lon="13.1035417"><ele>160.0</ele><time>2026-04-11T08:20:28.463Z</time></trkpt><trkpt lat="46.1042" lon="13.1035"><ele>160.0</ele><time>2026-04-11T08:20:29.463Z</time></trkpt><trkpt lat="46.104295" lon="13.1034617"><ele>161.0</ele><time>2026-04-11T08:20:30.463Z</time></trkpt><trkpt lat="46.104375" lon="13.1033867"><ele>162.0</ele><time>2026-04-11T08:20:31.463Z</time></trkpt><trkpt lat="46.1044567" lon="13.1033"><ele>163.0</ele><time>2026-04-11T08:20:32.463Z</time></trkpt><trkpt lat="46.1045283" lon="13.103175"><ele>164.0</ele><time>2026-04-11T08:20:33.463Z</time></trkpt><trkpt lat="46.104595" lon="13.1030767"><ele>165.0</ele><time>2026-04-11T08:20:34.463Z</time></trkpt><trkpt lat="46.1046583" lon="13.1029617"><ele>165.0</ele><time>2026-04-11T08:20:35.463Z</time></trkpt><trkpt lat="46.1047217" lon="13.1028483"><ele>165.0</ele><time>2026-04-11T08:20:36.463Z</time></trkpt><trkpt lat="46.1047867" lon="13.1027333"><ele>165.0</ele><time>2026-04-11T08:20:37.463Z</time></trkpt><trkpt lat="46.104835" lon="13.1026167"><ele>165.0</ele><time>2026-04-11T08:20:38.463Z</time></trkpt><trkpt lat="46.1048967" lon="13.1024917"><ele>165.0</ele><time>2026-04-11T08:20:39.463Z</time></trkpt><trkpt lat="46.1049567" lon="13.10237"><ele>167.2</ele><time>2026-04-11T08:20:40.462Z</time></trkpt><trkpt lat="46.1050233" lon="13.1022567"><ele>169.4</ele><time>2026-04-11T08:20:41.463Z</time></trkpt><trkpt lat="46.10509" lon="13.102145"><ele>171.60000000000002</ele><time>2026-04-11T08:20:42.463Z</time></trkpt><trkpt lat="46.1051517" lon="13.1020183"><ele>173.8</ele><time>2026-04-11T08:20:43.462Z</time></trkpt><trkpt lat="46.105235" lon="13.1019"><ele>176.0</ele><time>2026-04-11T08:20:44.462Z</time></trkpt><trkpt lat="46.1053167" lon="13.1017567"><ele>176.0</ele><time>2026-04-11T08:20:45.463Z</time></trkpt><trkpt lat="46.1053833" lon="13.10163"><ele>176.0</ele><time>2026-04-11T08:20:46.463Z</time></trkpt><trkpt lat="46.1054417" lon="13.1015183"><ele>176.0</ele><time>2026-04-11T08:20:47.463Z</time></trkpt><trkpt lat="46.1054867" lon="13.1014367"><ele>176.0</ele><time>2026-04-11T08:20:48.462Z</time></trkpt><trkpt lat="46.10555" lon="13.1012867"><ele>176.0</ele><time>2026-04-11T08:20:50.463Z</time></trkpt><trkpt lat="46.1055817" lon="13.1012033"><ele>175.83333333333331</ele><time>2026-04-11T08:20:51.463Z</time></trkpt><trkpt lat="46.10562" lon="13.10113"><ele>175.66666666666666</ele><time>2026-04-11T08:20:52.463Z</time></trkpt><trkpt lat="46.10567" lon="13.1010067"><ele>175.5</ele><time>2026-04-11T08:20:54.463Z</time></trkpt><trkpt lat="46.1056983" lon="13.1008817"><ele>175.33333333333334</ele><time>2026-04-11T08:20:56.463Z</time></trkpt><trkpt lat="46.10568" lon="13.1007583"><ele>175.16666666666669</ele><time>2026-04-11T08:20:58.463Z</time></trkpt><trkpt lat="46.1056633" lon="13.1006367"><ele>175.0</ele><time>2026-04-11T08:21:00.463Z</time></trkpt><trkpt lat="46.1056417" lon="13.1005333"><ele>174.66666666666669</ele><time>2026-04-11T08:21:02.463Z</time></trkpt><trkpt lat="46.105605" lon="13.1003917"><ele>174.33333333333334</ele><time>2026-04-11T08:21:04.463Z</time></trkpt><trkpt lat="46.1056" lon="13.1002867"><ele>174.0</ele><time>2026-04-11T08:21:05.463Z</time></trkpt><trkpt lat="46.105585" lon="13.1001783"><ele>173.66666666666666</ele><time>2026-04-11T08:21:06.463Z</time></trkpt><trkpt lat="46.10557" lon="13.100065"><ele>173.33333333333331</ele><time>2026-04-11T08:21:07.462Z</time></trkpt><trkpt lat="46.1055567" lon="13.0999583"><ele>173.0</ele><time>2026-04-11T08:21:08.462Z</time></trkpt><trkpt lat="46.105555" lon="13.0997983"><ele>172.60000000000002</ele><time>2026-04-11T08:21:10.461Z</time></trkpt><trkpt lat="46.10554" lon="13.0996267"><ele>172.20000000000002</ele><time>2026-04-11T08:21:12.462Z</time></trkpt><trkpt lat="46.1055367" lon="13.099535"><ele>171.8</ele><time>2026-04-11T08:21:13.462Z</time></trkpt><trkpt lat="46.1055333" lon="13.099375"><ele>171.4</ele><time>2026-04-11T08:21:15.461Z</time></trkpt><trkpt lat="46.105525" lon="13.0992317"><ele>171.0</ele><time>2026-04-11T08:21:17.461Z</time></trkpt><trkpt lat="46.1055433" lon="13.0991417"><ele>171.0</ele><time>2026-04-11T08:21:19.462Z</time></trkpt><trkpt lat="46.10555" lon="13.099035"><ele>171.0</ele><time>2026-04-11T08:21:22.461Z</time></trkpt><trkpt lat="46.1054817" lon="13.0990067"><ele>171.0</ele><time>2026-04-11T08:21:27.462Z</time></trkpt><trkpt lat="46.10553" lon="13.0990933"><ele>171.0</ele><time>2026-04-11T08:21:33.462Z</time></trkpt><trkpt lat="46.10563" lon="13.0990833"><ele>171.0</ele><time>2026-04-11T08:21:36.461Z</time></trkpt><trkpt lat="46.105705" lon="13.0990683"><ele>171.0</ele><time>2026-04-11T08:21:38.462Z</time></trkpt><trkpt lat="46.1057983" lon="13.0990033"><ele>171.66666666666666</ele><time>2026-04-11T08:21:40.462Z</time></trkpt><trkpt lat="46.105905" lon="13.0989083"><ele>172.33333333333334</ele><time>2026-04-11T08:21:42.462Z</time></trkpt><trkpt lat="46.105965" lon="13.0988533"><ele>173.0</ele><time>2026-04-11T08:21:43.461Z</time></trkpt><trkpt lat="46.1060283" lon="13.09879"><ele>173.66666666666669</ele><time>2026-04-11T08:21:44.462Z</time></trkpt><trkpt lat="46.1060917" lon="13.0987267"><ele>174.33333333333334</ele><time>2026-04-11T08:21:45.461Z</time></trkpt><trkpt lat="46.1061583" lon="13.0986733"><ele>175.0</ele><time>2026-04-11T08:21:46.462Z</time></trkpt><trkpt lat="46.106225" lon="13.0986417"><ele>175.0</ele><time>2026-04-11T08:21:47.462Z</time></trkpt><trkpt lat="46.10629" lon="13.0986167"><ele>175.0</ele><time>2026-04-11T08:21:48.461Z</time></trkpt><trkpt lat="46.1064067" lon="13.0985817"><ele>175.0</ele><time>2026-04-11T08:21:50.461Z</time></trkpt><trkpt lat="46.10652" lon="13.0985"><ele>175.0</ele><time>2026-04-11T08:21:52.461Z</time></trkpt><trkpt lat="46.1066083" lon="13.09837"><ele>175.0</ele><time>2026-04-11T08:21:54.462Z</time></trkpt><trkpt lat="46.1066867" lon="13.0982417"><ele>173.6</ele><time>2026-04-11T08:21:56.461Z</time></trkpt><trkpt lat="46.1067533" lon="13.0981067"><ele>172.2</ele><time>2026-04-11T08:21:58.462Z</time></trkpt><trkpt lat="46.10683" lon="13.097995"><ele>170.8</ele><time>2026-04-11T08:22:00.462Z</time></trkpt><trkpt lat="46.1069067" lon="13.0978717"><ele>169.4</ele><time>2026-04-11T08:22:02.462Z</time></trkpt><trkpt lat="46.1069683" lon="13.0977733"><ele>168.0</ele><time>2026-04-11T08:22:04.462Z</time></trkpt><trkpt lat="46.1070583" lon="13.0976683"><ele>168.0</ele><time>2026-04-11T08:22:06.462Z</time></trkpt><trkpt lat="46.107135" lon="13.097605"><ele>168.0</ele><time>2026-04-11T08:22:07.462Z</time></trkpt><trkpt lat="46.1072117" lon="13.097535"><ele>168.0</ele><time>2026-04-11T08:22:08.462Z</time></trkpt><trkpt lat="46.10729" lon="13.0974767"><ele>168.0</ele><time>2026-04-11T08:22:09.462Z</time></trkpt><trkpt lat="46.1073633" lon="13.0974117"><ele>168.0</ele><time>2026-04-11T08:22:10.462Z</time></trkpt><trkpt lat="46.10744" lon="13.0973467"><ele>168.0</ele><time>2026-04-11T08:22:11.462Z</time></trkpt><trkpt lat="46.1075083" lon="13.0972833"><ele>167.71428571428572</ele><time>2026-04-11T08:22:12.462Z</time></trkpt><trkpt lat="46.1075767" lon="13.0972183"><ele>167.42857142857144</ele><time>2026-04-11T08:22:13.461Z</time></trkpt><trkpt lat="46.1076467" lon="13.0971567"><ele>167.14285714285714</ele><time>2026-04-11T08:22:14.461Z</time></trkpt><trkpt lat="46.1077" lon="13.09709"><ele>166.85714285714286</ele><time>2026-04-11T08:22:15.461Z</time></trkpt><trkpt lat="46.107755" lon="13.0970317"><ele>166.57142857142858</ele><time>2026-04-11T08:22:16.462Z</time></trkpt><trkpt lat="46.1078083" lon="13.0969617"><ele>166.28571428571428</ele><time>2026-04-11T08:22:17.462Z</time></trkpt><trkpt lat="46.1078583" lon="13.0968883"><ele>166.0</ele><time>2026-04-11T08:22:18.461Z</time></trkpt><trkpt lat="46.10793" lon="13.09674"><ele>166.0</ele><time>2026-04-11T08:22:20.461Z</time></trkpt><trkpt lat="46.1079767" lon="13.0966183"><ele>166.0</ele><time>2026-04-11T08:22:22.461Z</time></trkpt><trkpt lat="46.1080333" lon="13.0965117"><ele>166.0</ele><time>2026-04-11T08:22:24.462Z</time></trkpt><trkpt lat="46.1080917" lon="13.0964117"><ele>166.0</ele><time>2026-04-11T08:22:26.462Z</time></trkpt><trkpt lat="46.1081367" lon="13.09627"><ele>166.0</ele><time>2026-04-11T08:22:28.461Z</time></trkpt><trkpt lat="46.10817" lon="13.09617"><ele>165.5</ele><time>2026-04-11T08:22:29.462Z</time></trkpt><trkpt lat="46.1082117" lon="13.0960333"><ele>165.0</ele><time>2026-04-11T08:22:30.462Z</time></trkpt><trkpt lat="46.108255" lon="13.0958583"><ele>164.5</ele><time>2026-04-11T08:22:31.462Z</time></trkpt><trkpt lat="46.108315" lon="13.0956583"><ele>164.0</ele><time>2026-04-11T08:22:32.462Z</time></trkpt><trkpt lat="46.108385" lon="13.0954467"><ele>164.0</ele><time>2026-04-11T08:22:33.462Z</time></trkpt><trkpt lat="46.1084383" lon="13.09529"><ele>164.0</ele><time>2026-04-11T08:22:34.462Z</time></trkpt><trkpt lat="46.1084867" lon="13.0951417"><ele>164.0</ele><time>2026-04-11T08:22:35.462Z</time></trkpt><trkpt lat="46.108535" lon="13.0949917"><ele>164.0</ele><time>2026-04-11T08:22:36.462Z</time></trkpt><trkpt lat="46.1085767" lon="13.0948"><ele>164.0</ele><time>2026-04-11T08:22:37.462Z</time></trkpt><trkpt lat="46.1086117" lon="13.0945817"><ele>164.0</ele><time>2026-04-11T08:22:38.462Z</time></trkpt><trkpt lat="46.1086483" lon="13.0944067"><ele>164.0</ele><time>2026-04-11T08:22:39.462Z</time></trkpt><trkpt lat="46.1086733" lon="13.0942567"><ele>164.0</ele><time>2026-04-11T08:22:40.462Z</time></trkpt><trkpt lat="46.1086983" lon="13.09413"><ele>164.16666666666666</ele><time>2026-04-11T08:22:41.462Z</time></trkpt><trkpt lat="46.1087217" lon="13.0940217"><ele>164.33333333333331</ele><time>2026-04-11T08:22:42.462Z</time></trkpt><trkpt lat="46.1087667" lon="13.0939517"><ele>164.5</ele><time>2026-04-11T08:22:43.462Z</time></trkpt><trkpt lat="46.1088683" lon="13.0938533"><ele>164.66666666666666</ele><time>2026-04-11T08:22:45.462Z</time></trkpt><trkpt lat="46.1089333" lon="13.0938083"><ele>164.83333333333334</ele><time>2026-04-11T08:22:46.462Z</time></trkpt><trkpt lat="46.1089967" lon="13.0937767"><ele>165.0</ele><time>2026-04-11T08:22:47.462Z</time></trkpt><trkpt lat="46.1090767" lon="13.0937583"><ele>165.5</ele><time>2026-04-11T08:22:48.462Z</time></trkpt><trkpt lat="46.10916" lon="13.09375"><ele>166.0</ele><time>2026-04-11T08:22:49.461Z</time></trkpt><trkpt lat="46.109245" lon="13.0937433"><ele>166.5</ele><time>2026-04-11T08:22:50.462Z</time></trkpt><trkpt lat="46.1093367" lon="13.09373"><ele>167.0</ele><time>2026-04-11T08:22:51.461Z</time></trkpt><trkpt lat="46.1094333" lon="13.0937133"><ele>167.5</ele><time>2026-04-11T08:22:52.462Z</time></trkpt><trkpt lat="46.1095183" lon="13.093685"><ele>168.0</ele><time>2026-04-11T08:22:53.462Z</time></trkpt><trkpt lat="46.1096033" lon="13.0936583"><ele>168.0</ele><time>2026-04-11T08:22:54.462Z</time></trkpt><trkpt lat="46.10969" lon="13.0936517"><ele>168.0</ele><time>2026-04-11T08:22:55.461Z</time></trkpt><trkpt lat="46.10978" lon="13.0936467"><ele>168.0</ele><time>2026-04-11T08:22:56.462Z</time></trkpt><trkpt lat="46.1098667" lon="13.0936433"><ele>168.0</ele><time>2026-04-11T08:22:57.461Z</time></trkpt><trkpt lat="46.1099517" lon="13.0936367"><ele>168.0</ele><time>2026-04-11T08:22:58.462Z</time></trkpt><trkpt lat="46.1100367" lon="13.0936433"><ele>168.0</ele><time>2026-04-11T08:22:59.462Z</time></trkpt><trkpt lat="46.1101167" lon="13.0936417"><ele>168.83333333333334</ele><time>2026-04-11T08:23:00.461Z</time></trkpt><trkpt lat="46.1101983" lon="13.0936517"><ele>169.66666666666666</ele><time>2026-04-11T08:23:01.462Z</time></trkpt><trkpt lat="46.1102783" lon="13.09368"><ele>170.5</ele><time>2026-04-11T08:23:02.461Z</time></trkpt><trkpt lat="46.110365" lon="13.0936967"><ele>171.33333333333331</ele><time>2026-04-11T08:23:03.461Z</time></trkpt><trkpt lat="46.11045" lon="13.0937067"><ele>172.16666666666666</ele><time>2026-04-11T08:23:04.462Z</time></trkpt><trkpt lat="46.110535" lon="13.0937267"><ele>173.0</ele><time>2026-04-11T08:23:05.462Z</time></trkpt><trkpt lat="46.1106167" lon="13.0937367"><ele>173.0</ele><time>2026-04-11T08:23:06.462Z</time></trkpt><trkpt lat="46.1106883" lon="13.0937417"><ele>173.0</ele><time>2026-04-11T08:23:07.462Z</time></trkpt><trkpt lat="46.1107967" lon="13.0937717"><ele>173.0</ele><time>2026-04-11T08:23:09.461Z</time></trkpt><trkpt lat="46.11089" lon="13.0938133"><ele>173.0</ele><time>2026-04-11T08:23:11.462Z</time></trkpt><trkpt lat="46.1109983" lon="13.093865"><ele>173.0</ele><time>2026-04-11T08:23:13.462Z</time></trkpt><trkpt lat="46.11106" lon="13.093895"><ele>173.42857142857142</ele><time>2026-04-11T08:23:14.462Z</time></trkpt><trkpt lat="46.11112" lon="13.0939333"><ele>173.85714285714286</ele><time>2026-04-11T08:23:15.462Z</time></trkpt><trkpt lat="46.1111983" lon="13.0939767"><ele>174.28571428571428</ele><time>2026-04-11T08:23:16.462Z</time></trkpt><trkpt lat="46.11127" lon="13.0940283"><ele>174.71428571428572</ele><time>2026-04-11T08:23:17.462Z</time></trkpt><trkpt lat="46.1113417" lon="13.09407"><ele>175.14285714285714</ele><time>2026-04-11T08:23:18.462Z</time></trkpt><trkpt lat="46.1114083" lon="13.0941117"><ele>175.57142857142858</ele><time>2026-04-11T08:23:19.462Z</time></trkpt><trkpt lat="46.111465" lon="13.0941567"><ele>176.0</ele><time>2026-04-11T08:23:20.461Z</time></trkpt><trkpt lat="46.111525" lon="13.0942017"><ele>176.60000000000002</ele><time>2026-04-11T08:23:21.462Z</time></trkpt><trkpt lat="46.1115983" lon="13.09423"><ele>177.2</ele><time>2026-04-11T08:23:22.462Z</time></trkpt><trkpt lat="46.1116683" lon="13.0942317"><ele>177.8</ele><time>2026-04-11T08:23:23.462Z</time></trkpt><trkpt lat="46.1117817" lon="13.0942"><ele>178.39999999999998</ele><time>2026-04-11T08:23:25.461Z</time></trkpt><trkpt lat="46.1118883" lon="13.0941483"><ele>179.0</ele><time>2026-04-11T08:23:27.462Z</time></trkpt><trkpt lat="46.1119933" lon="13.0940583"><ele>179.0</ele><time>2026-04-11T08:23:29.462Z</time></trkpt><trkpt lat="46.1120533" lon="13.0939933"><ele>179.0</ele><time>2026-04-11T08:23:30.461Z</time></trkpt><trkpt lat="46.1121033" lon="13.093935"><ele>179.0</ele><time>2026-04-11T08:23:31.461Z</time></trkpt><trkpt lat="46.112145" lon="13.0938433"><ele>179.0</ele><time>2026-04-11T08:23:32.462Z</time></trkpt><trkpt lat="46.1122067" lon="13.0937367"><ele>179.0</ele><time>2026-04-11T08:23:34.462Z</time></trkpt><trkpt lat="46.1122067" lon="13.09364"><ele>179.0</ele><time>2026-04-11T08:23:36.462Z</time></trkpt><trkpt lat="46.1121717" lon="13.0934633"><ele>179.00000000000003</ele><time>2026-04-11T08:23:38.461Z</time></trkpt><trkpt lat="46.112165" lon="13.0933633"><ele>179.0</ele><time>2026-04-11T08:23:39.461Z</time></trkpt><trkpt lat="46.1121583" lon="13.09326"><ele>179.0</ele><time>2026-04-11T08:23:40.462Z</time></trkpt><trkpt lat="46.112155" lon="13.0931633"><ele>179.0</ele><time>2026-04-11T08:23:41.462Z</time></trkpt><trkpt lat="46.1121583" lon="13.0930617"><ele>179.0</ele><time>2026-04-11T08:23:42.462Z</time></trkpt><trkpt lat="46.11217" lon="13.092955"><ele>179.00000000000003</ele><time>2026-04-11T08:23:43.462Z</time></trkpt><trkpt lat="46.112185" lon="13.09284"><ele>179.0</ele><time>2026-04-11T08:23:44.461Z</time></trkpt><trkpt lat="46.1122167" lon="13.0927133"><ele>178.6</ele><time>2026-04-11T08:23:45.462Z</time></trkpt><trkpt lat="46.1122467" lon="13.0925817"><ele>178.2</ele><time>2026-04-11T08:23:46.461Z</time></trkpt><trkpt lat="46.1122633" lon="13.0924467"><ele>177.79999999999998</ele><time>2026-04-11T08:23:47.462Z</time></trkpt><trkpt lat="46.1122783" lon="13.0923017"><ele>177.39999999999998</ele><time>2026-04-11T08:23:48.461Z</time></trkpt><trkpt lat="46.1122867" lon="13.092175"><ele>177.0</ele><time>2026-04-11T08:23:49.462Z</time></trkpt><trkpt lat="46.1122917" lon="13.092055"><ele>177.0</ele><time>2026-04-11T08:23:50.461Z</time></trkpt><trkpt lat="46.112285" lon="13.0919383"><ele>177.0</ele><time>2026-04-11T08:23:51.462Z</time></trkpt><trkpt lat="46.11227" lon="13.091825"><ele>177.0</ele><time>2026-04-11T08:23:52.462Z</time></trkpt><trkpt lat="46.1122483" lon="13.0916983"><ele>177.0</ele><time>2026-04-11T08:23:53.462Z</time></trkpt><trkpt lat="46.1122217" lon="13.0915867"><ele>177.0</ele><time>2026-04-11T08:23:54.461Z</time></trkpt><trkpt lat="46.11217" lon="13.0914883"><ele>177.0</ele><time>2026-04-11T08:23:55.462Z</time></trkpt><trkpt lat="46.11213" lon="13.09139"><ele>177.0</ele><time>2026-04-11T08:23:56.461Z</time></trkpt><trkpt lat="46.1121017" lon="13.0912767"><ele>177.0</ele><time>2026-04-11T08:23:57.462Z</time></trkpt><trkpt lat="46.1120883" lon="13.0911733"><ele>177.0</ele><time>2026-04-11T08:23:58.462Z</time></trkpt><trkpt lat="46.112095" lon="13.09106"><ele>177.0</ele><time>2026-04-11T08:23:59.462Z</time></trkpt><trkpt lat="46.11212" lon="13.0909417"><ele>177.0</ele><time>2026-04-11T08:24:00.462Z</time></trkpt><trkpt lat="46.1121667" lon="13.0908133"><ele>177.0</ele><time>2026-04-11T08:24:01.462Z</time></trkpt><trkpt lat="46.1122083" lon="13.090685"><ele>177.16666666666666</ele><time>2026-04-11T08:24:02.462Z</time></trkpt><trkpt lat="46.11225" lon="13.0905783"><ele>177.33333333333334</ele><time>2026-04-11T08:24:03.461Z</time></trkpt><trkpt lat="46.1122967" lon="13.0904783"><ele>177.5</ele><time>2026-04-11T08:24:04.461Z</time></trkpt><trkpt lat="46.112345" lon="13.0903867"><ele>177.66666666666669</ele><time>2026-04-11T08:24:05.462Z</time></trkpt><trkpt lat="46.1123733" lon="13.0903033"><ele>177.83333333333334</ele><time>2026-04-11T08:24:06.461Z</time></trkpt><trkpt lat="46.1124217" lon="13.0901833"><ele>178.0</ele><time>2026-04-11T08:24:08.461Z</time></trkpt><trkpt lat="46.11244" lon="13.0900783"><ele>178.0</ele><time>2026-04-11T08:24:10.462Z</time></trkpt><trkpt lat="46.1124717" lon="13.089985"><ele>178.0</ele><time>2026-04-11T08:24:13.462Z</time></trkpt><trkpt lat="46.1124283" lon="13.0899033"><ele>178.0</ele><time>2026-04-11T08:24:22.462Z</time></trkpt><trkpt lat="46.1124133" lon="13.089785"><ele>178.0</ele><time>2026-04-11T08:24:23.461Z</time></trkpt><trkpt lat="46.1123817" lon="13.0896233"><ele>178.0</ele><time>2026-04-11T08:24:24.461Z</time></trkpt><trkpt lat="46.1123633" lon="13.0894633"><ele>177.0</ele><time>2026-04-11T08:24:25.461Z</time></trkpt><trkpt lat="46.1123583" lon="13.089295"><ele>176.0</ele><time>2026-04-11T08:24:26.461Z</time></trkpt><trkpt lat="46.1123483" lon="13.0891533"><ele>175.0</ele><time>2026-04-11T08:24:27.462Z</time></trkpt><trkpt lat="46.1123433" lon="13.0890117"><ele>174.0</ele><time>2026-04-11T08:24:28.462Z</time></trkpt><trkpt lat="46.1123567" lon="13.0888583"><ele>173.0</ele><time>2026-04-11T08:24:29.462Z</time></trkpt><trkpt lat="46.1123517" lon="13.0887267"><ele>173.0</ele><time>2026-04-11T08:24:30.461Z</time></trkpt><trkpt lat="46.11235" lon="13.0885833"><ele>173.0</ele><time>2026-04-11T08:24:31.461Z</time></trkpt><trkpt lat="46.1123433" lon="13.08844"><ele>173.0</ele><time>2026-04-11T08:24:32.462Z</time></trkpt><trkpt lat="46.1123467" lon="13.0882967"><ele>173.0</ele><time>2026-04-11T08:24:33.462Z</time></trkpt><trkpt lat="46.1123467" lon="13.0881683"><ele>173.0</ele><time>2026-04-11T08:24:34.461Z</time></trkpt><trkpt lat="46.1123333" lon="13.08806"><ele>172.33333333333331</ele><time>2026-04-11T08:24:35.462Z</time></trkpt><trkpt lat="46.1123233" lon="13.0879583"><ele>171.66666666666666</ele><time>2026-04-11T08:24:36.462Z</time></trkpt><trkpt lat="46.1123183" lon="13.087845"><ele>171.0</ele><time>2026-04-11T08:24:37.462Z</time></trkpt><trkpt lat="46.112305" lon="13.08774"><ele>170.33333333333334</ele><time>2026-04-11T08:24:38.462Z</time></trkpt><trkpt lat="46.1122967" lon="13.087615"><ele>169.66666666666669</ele><time>2026-04-11T08:24:39.462Z</time></trkpt><trkpt lat="46.1122917" lon="13.087495"><ele>169.0</ele><time>2026-04-11T08:24:40.462Z</time></trkpt><trkpt lat="46.1122717" lon="13.0873767"><ele>169.0</ele><time>2026-04-11T08:24:41.462Z</time></trkpt><trkpt lat="46.1122667" lon="13.0872633"><ele>169.0</ele><time>2026-04-11T08:24:42.462Z</time></trkpt><trkpt lat="46.1122583" lon="13.0871617"><ele>169.0</ele><time>2026-04-11T08:24:43.462Z</time></trkpt><trkpt lat="46.11226" lon="13.0870583"><ele>169.0</ele><time>2026-04-11T08:24:44.462Z</time></trkpt><trkpt lat="46.1122683" lon="13.0869483"><ele>169.0</ele><time>2026-04-11T08:24:45.462Z</time></trkpt><trkpt lat="46.1122333" lon="13.0868617"><ele>169.0</ele><time>2026-04-11T08:24:46.462Z</time></trkpt><trkpt lat="46.11224" lon="13.0867583"><ele>169.0</ele><time>2026-04-11T08:24:47.462Z</time></trkpt><trkpt lat="46.1122517" lon="13.0866683"><ele>169.0</ele><time>2026-04-11T08:24:48.462Z</time></trkpt><trkpt lat="46.1122783" lon="13.0865033"><ele>169.0</ele><time>2026-04-11T08:24:50.462Z</time></trkpt><trkpt lat="46.1122717" lon="13.086335"><ele>169.0</ele><time>2026-04-11T08:24:52.462Z</time></trkpt><trkpt lat="46.1122583" lon="13.0862333"><ele>169.0</ele><time>2026-04-11T08:24:54.462Z</time></trkpt><trkpt lat="46.1123033" lon="13.0861133"><ele>169.0</ele><time>2026-04-11T08:24:58.462Z</time></trkpt><trkpt lat="46.1123467" lon="13.0859967"><ele>169.0</ele><time>2026-04-11T08:25:08.462Z</time></trkpt><trkpt lat="46.1123783" lon="13.0859167"><ele>169.0</ele><time>2026-04-11T08:25:09.462Z</time></trkpt><trkpt lat="46.1124183" lon="13.0858217"><ele>169.0</ele><time>2026-04-11T08:25:10.462Z</time></trkpt><trkpt lat="46.1124467" lon="13.0857167"><ele>169.0</ele><time>2026-04-11T08:25:11.462Z</time></trkpt><trkpt lat="46.1124967" lon="13.085605"><ele>169.0</ele><time>2026-04-11T08:25:12.462Z</time></trkpt><trkpt lat="46.1125633" lon="13.0855133"><ele>169.0</ele><time>2026-04-11T08:25:13.462Z</time></trkpt><trkpt lat="46.1126167" lon="13.0854117"><ele>170.0</ele><time>2026-04-11T08:25:14.462Z</time></trkpt><trkpt lat="46.11266" lon="13.0853083"><ele>171.0</ele><time>2026-04-11T08:25:15.462Z</time></trkpt><trkpt lat="46.1127017" lon="13.085235"><ele>172.0</ele><time>2026-04-11T08:25:16.462Z</time></trkpt><trkpt lat="46.1127633" lon="13.085065"><ele>173.0</ele><time>2026-04-11T08:25:18.462Z</time></trkpt><trkpt lat="46.112795" lon="13.0849067"><ele>174.0</ele><time>2026-04-11T08:25:20.462Z</time></trkpt><trkpt lat="46.1128467" lon="13.08478"><ele>174.0</ele><time>2026-04-11T08:25:22.462Z</time></trkpt><trkpt lat="46.1129183" lon="13.084685"><ele>174.0</ele><time>2026-04-11T08:25:24.462Z</time></trkpt><trkpt lat="46.1129617" lon="13.084595"><ele>174.0</ele><time>2026-04-11T08:25:26.462Z</time></trkpt><trkpt lat="46.1130283" lon="13.0845383"><ele>174.0</ele><time>2026-04-11T08:25:28.462Z</time></trkpt><trkpt lat="46.11311" lon="13.0845483"><ele>174.0</ele><time>2026-04-11T08:25:31.461Z</time></trkpt><trkpt lat="46.1131883" lon="13.0847167"><ele>174.0</ele><time>2026-04-11T08:25:33.461Z</time></trkpt><trkpt lat="46.1132267" lon="13.0848283"><ele>174.0</ele><time>2026-04-11T08:25:34.461Z</time></trkpt><trkpt lat="46.113265" lon="13.0849633"><ele>174.0</ele><time>2026-04-11T08:25:35.462Z</time></trkpt><trkpt lat="46.1132833" lon="13.085105"><ele>174.0</ele><time>2026-04-11T08:25:36.461Z</time></trkpt><trkpt lat="46.1133217" lon="13.0852717"><ele>174.0</ele><time>2026-04-11T08:25:37.461Z</time></trkpt><trkpt lat="46.1133483" lon="13.085395"><ele>174.16666666666666</ele><time>2026-04-11T08:25:38.461Z</time></trkpt><trkpt lat="46.1134083" lon="13.0855117"><ele>174.33333333333334</ele><time>2026-04-11T08:25:39.462Z</time></trkpt><trkpt lat="46.11347" lon="13.0856"><ele>174.5</ele><time>2026-04-11T08:25:40.462Z</time></trkpt><trkpt lat="46.1135317" lon="13.0856583"><ele>174.66666666666669</ele><time>2026-04-11T08:25:41.462Z</time></trkpt><trkpt lat="46.1135983" lon="13.0856867"><ele>174.83333333333334</ele><time>2026-04-11T08:25:42.462Z</time></trkpt><trkpt lat="46.11368" lon="13.0856917"><ele>175.0</ele><time>2026-04-11T08:25:43.461Z</time></trkpt><trkpt lat="46.11378" lon="13.0856467"><ele>175.0</ele><time>2026-04-11T08:25:44.462Z</time></trkpt><trkpt lat="46.113845" lon="13.08564"><ele>175.0</ele><time>2026-04-11T08:25:45.462Z</time></trkpt><trkpt lat="46.1139417" lon="13.0856183"><ele>175.0</ele><time>2026-04-11T08:25:47.462Z</time></trkpt><trkpt lat="46.1140483" lon="13.085585"><ele>175.0</ele><time>2026-04-11T08:25:49.462Z</time></trkpt><trkpt lat="46.1141583" lon="13.0856033"><ele>175.0</ele><time>2026-04-11T08:25:51.462Z</time></trkpt><trkpt lat="46.11421" lon="13.0857"><ele>175.4</ele><time>2026-04-11T08:25:53.462Z</time></trkpt><trkpt lat="46.1141867" lon="13.0858433"><ele>175.8</ele><time>2026-04-11T08:25:55.462Z</time></trkpt><trkpt lat="46.114135" lon="13.0859283"><ele>176.2</ele><time>2026-04-11T08:25:56.462Z</time></trkpt><trkpt lat="46.1140633" lon="13.08602"><ele>176.6</ele><time>2026-04-11T08:25:57.462Z</time></trkpt><trkpt lat="46.1139533" lon="13.086115"><ele>177.0</ele><time>2026-04-11T08:25:58.462Z</time></trkpt><trkpt lat="46.113845" lon="13.08621"><ele>177.0</ele><time>2026-04-11T08:25:59.462Z</time></trkpt><trkpt lat="46.1137683" lon="13.0862933"><ele>177.0</ele><time>2026-04-11T08:26:00.461Z</time></trkpt><trkpt lat="46.113695" lon="13.0863983"><ele>177.0</ele><time>2026-04-11T08:26:01.462Z</time></trkpt><trkpt lat="46.113645" lon="13.0865117"><ele>177.0</ele><time>2026-04-11T08:26:02.462Z</time></trkpt><trkpt lat="46.1136017" lon="13.086635"><ele>177.0</ele><time>2026-04-11T08:26:03.462Z</time></trkpt><trkpt lat="46.1135917" lon="13.0867633"><ele>178.2</ele><time>2026-04-11T08:26:04.462Z</time></trkpt><trkpt lat="46.1135867" lon="13.0869017"><ele>179.39999999999998</ele><time>2026-04-11T08:26:05.462Z</time></trkpt><trkpt lat="46.113615" lon="13.0870467"><ele>180.60000000000002</ele><time>2026-04-11T08:26:06.462Z</time></trkpt><trkpt lat="46.113645" lon="13.08719"><ele>181.8</ele><time>2026-04-11T08:26:07.461Z</time></trkpt><trkpt lat="46.1136667" lon="13.087325"><ele>183.0</ele><time>2026-04-11T08:26:08.462Z</time></trkpt><trkpt lat="46.1136867" lon="13.0874533"><ele>184.4</ele><time>2026-04-11T08:26:09.462Z</time></trkpt><trkpt lat="46.113705" lon="13.087575"><ele>185.8</ele><time>2026-04-11T08:26:10.461Z</time></trkpt><trkpt lat="46.1137233" lon="13.0877017"><ele>187.2</ele><time>2026-04-11T08:26:11.461Z</time></trkpt><trkpt lat="46.113745" lon="13.0878383"><ele>188.6</ele><time>2026-04-11T08:26:12.462Z</time></trkpt><trkpt lat="46.1137617" lon="13.0879867"><ele>190.0</ele><time>2026-04-11T08:26:13.462Z</time></trkpt><trkpt lat="46.113775" lon="13.088145"><ele>190.4</ele><time>2026-04-11T08:26:14.462Z</time></trkpt><trkpt lat="46.1137833" lon="13.0882983"><ele>190.8</ele><time>2026-04-11T08:26:15.462Z</time></trkpt><trkpt lat="46.1137917" lon="13.08844"><ele>191.2</ele><time>2026-04-11T08:26:16.462Z</time></trkpt><trkpt lat="46.1138033" lon="13.0885767"><ele>191.6</ele><time>2026-04-11T08:26:17.462Z</time></trkpt><trkpt lat="46.1138283" lon="13.0886933"><ele>192.0</ele><time>2026-04-11T08:26:18.461Z</time></trkpt><trkpt lat="46.1138333" lon="13.0888333"><ele>192.0</ele><time>2026-04-11T08:26:19.462Z</time></trkpt><trkpt lat="46.1138383" lon="13.0889717"><ele>192.0</ele><time>2026-04-11T08:26:20.461Z</time></trkpt><trkpt lat="46.1138417" lon="13.089105"><ele>192.0</ele><time>2026-04-11T08:26:21.462Z</time></trkpt><trkpt lat="46.1138483" lon="13.089215"><ele>192.0</ele><time>2026-04-11T08:26:22.462Z</time></trkpt><trkpt lat="46.11385" lon="13.0893267"><ele>192.0</ele><time>2026-04-11T08:26:23.462Z</time></trkpt><trkpt lat="46.11386" lon="13.0894417"><ele>192.0</ele><time>2026-04-11T08:26:24.462Z</time></trkpt><trkpt lat="46.1138567" lon="13.0895633"><ele>191.5</ele><time>2026-04-11T08:26:25.462Z</time></trkpt><trkpt lat="46.11387" lon="13.0896967"><ele>191.0</ele><time>2026-04-11T08:26:26.461Z</time></trkpt><trkpt lat="46.113885" lon="13.0898283"><ele>190.5</ele><time>2026-04-11T08:26:27.462Z</time></trkpt><trkpt lat="46.113905" lon="13.0899483"><ele>190.0</ele><time>2026-04-11T08:26:28.462Z</time></trkpt><trkpt lat="46.1139183" lon="13.090055"><ele>189.5</ele><time>2026-04-11T08:26:29.462Z</time></trkpt><trkpt lat="46.1139267" lon="13.0901483"><ele>189.0</ele><time>2026-04-11T08:26:30.462Z</time></trkpt><trkpt lat="46.1139567" lon="13.09025"><ele>189.0</ele><time>2026-04-11T08:26:32.462Z</time></trkpt><trkpt lat="46.113985" lon="13.090115"><ele>189.0</ele><time>2026-04-11T08:26:36.462Z</time></trkpt><trkpt lat="46.113965" lon="13.09"><ele>189.0</ele><time>2026-04-11T08:26:37.462Z</time></trkpt><trkpt lat="46.1139383" lon="13.0898533"><ele>189.0</ele><time>2026-04-11T08:26:38.462Z</time></trkpt><trkpt lat="46.11391" lon="13.08968"><ele>189.0</ele><time>2026-04-11T08:26:39.462Z</time></trkpt><trkpt lat="46.1138917" lon="13.0894867"><ele>189.0</ele><time>2026-04-11T08:26:40.462Z</time></trkpt><trkpt lat="46.113885" lon="13.08931"><ele>189.0</ele><time>2026-04-11T08:26:41.461Z</time></trkpt><trkpt lat="46.1138833" lon="13.089155"><ele>189.0</ele><time>2026-04-11T08:26:42.462Z</time></trkpt><trkpt lat="46.1138783" lon="13.0890183"><ele>189.0</ele><time>2026-04-11T08:26:43.462Z</time></trkpt><trkpt lat="46.1138783" lon="13.08889"><ele>189.0</ele><time>2026-04-11T08:26:44.462Z</time></trkpt><trkpt lat="46.1138717" lon="13.08875"><ele>189.25</ele><time>2026-04-11T08:26:45.462Z</time></trkpt><trkpt lat="46.113865" lon="13.0886083"><ele>189.5</ele><time>2026-04-11T08:26:46.461Z</time></trkpt><trkpt lat="46.1138667" lon="13.08844"><ele>189.75</ele><time>2026-04-11T08:26:47.461Z</time></trkpt><trkpt lat="46.1138517" lon="13.088265"><ele>190.0</ele><time>2026-04-11T08:26:48.462Z</time></trkpt><trkpt lat="46.1138283" lon="13.088095"><ele>190.0</ele><time>2026-04-11T08:26:49.462Z</time></trkpt><trkpt lat="46.113825" lon="13.0879117"><ele>190.0</ele><time>2026-04-11T08:26:50.462Z</time></trkpt><trkpt lat="46.1138217" lon="13.0877533"><ele>190.0</ele><time>2026-04-11T08:26:51.461Z</time></trkpt><trkpt lat="46.11381" lon="13.08761"><ele>190.0</ele><time>2026-04-11T08:26:52.462Z</time></trkpt><trkpt lat="46.1138067" lon="13.0874967"><ele>190.0</ele><time>2026-04-11T08:26:53.462Z</time></trkpt><trkpt lat="46.113795" lon="13.0873717"><ele>188.6</ele><time>2026-04-11T08:26:54.462Z</time></trkpt><trkpt lat="46.1137617" lon="13.0872117"><ele>187.2</ele><time>2026-04-11T08:26:55.462Z</time></trkpt><trkpt lat="46.1137283" lon="13.08705"><ele>185.8</ele><time>2026-04-11T08:26:56.461Z</time></trkpt><trkpt lat="46.1136967" lon="13.0869083"><ele>184.4</ele><time>2026-04-11T08:26:57.461Z</time></trkpt><trkpt lat="46.1136717" lon="13.0867667"><ele>183.0</ele><time>2026-04-11T08:26:58.462Z</time></trkpt><trkpt lat="46.11365" lon="13.0866367"><ele>181.8</ele><time>2026-04-11T08:26:59.462Z</time></trkpt><trkpt lat="46.113655" lon="13.0865217"><ele>180.60000000000002</ele><time>2026-04-11T08:27:00.462Z</time></trkpt><trkpt lat="46.1136917" lon="13.0864017"><ele>179.39999999999998</ele><time>2026-04-11T08:27:01.462Z</time></trkpt><trkpt lat="46.1137567" lon="13.0862967"><ele>178.2</ele><time>2026-04-11T08:27:02.462Z</time></trkpt><trkpt lat="46.1138417" lon="13.0861967"><ele>177.0</ele><time>2026-04-11T08:27:03.462Z</time></trkpt><trkpt lat="46.11394" lon="13.0861033"><ele>177.0</ele><time>2026-04-11T08:27:04.462Z</time></trkpt><trkpt lat="46.1140267" lon="13.086035"><ele>177.0</ele><time>2026-04-11T08:27:05.462Z</time></trkpt><trkpt lat="46.114115" lon="13.0859717"><ele>177.0</ele><time>2026-04-11T08:27:06.462Z</time></trkpt><trkpt lat="46.114195" lon="13.08589"><ele>177.0</ele><time>2026-04-11T08:27:07.462Z</time></trkpt><trkpt lat="46.1142617" lon="13.085805"><ele>177.0</ele><time>2026-04-11T08:27:08.461Z</time></trkpt><trkpt lat="46.1143167" lon="13.0857067"><ele>176.66666666666666</ele><time>2026-04-11T08:27:09.462Z</time></trkpt><trkpt lat="46.11436" lon="13.0856133"><ele>176.33333333333334</ele><time>2026-04-11T08:27:10.462Z</time></trkpt><trkpt lat="46.114365" lon="13.08551"><ele>176.0</ele><time>2026-04-11T08:27:11.462Z</time></trkpt><trkpt lat="46.114335" lon="13.0854217"><ele>175.66666666666669</ele><time>2026-04-11T08:27:12.462Z</time></trkpt><trkpt lat="46.1142683" lon="13.0853617"><ele>175.33333333333334</ele><time>2026-04-11T08:27:13.462Z</time></trkpt><trkpt lat="46.1141717" lon="13.08533"><ele>175.0</ele><time>2026-04-11T08:27:14.462Z</time></trkpt><trkpt lat="46.1140483" lon="13.085345"><ele>175.0</ele><time>2026-04-11T08:27:15.462Z</time></trkpt><trkpt lat="46.1139133" lon="13.0853917"><ele>175.0</ele><time>2026-04-11T08:27:16.462Z</time></trkpt><trkpt lat="46.11379" lon="13.0854383"><ele>175.0</ele><time>2026-04-11T08:27:17.461Z</time></trkpt><trkpt lat="46.1137067" lon="13.085445"><ele>175.0</ele><time>2026-04-11T08:27:18.462Z</time></trkpt><trkpt lat="46.1136167" lon="13.0854367"><ele>175.0</ele><time>2026-04-11T08:27:19.461Z</time></trkpt><trkpt lat="46.1135333" lon="13.0854167"><ele>175.0</ele><time>2026-04-11T08:27:20.462Z</time></trkpt><trkpt lat="46.1134367" lon="13.0853883"><ele>175.0</ele><time>2026-04-11T08:27:21.462Z</time></trkpt><trkpt lat="46.1133667" lon="13.085325"><ele>175.0</ele><time>2026-04-11T08:27:22.462Z</time></trkpt><trkpt lat="46.113325" lon="13.0852483"><ele>175.0</ele><time>2026-04-11T08:27:23.462Z</time></trkpt><trkpt lat="46.1132817" lon="13.085145"><ele>175.0</ele><time>2026-04-11T08:27:24.462Z</time></trkpt><trkpt lat="46.1132533" lon="13.0850217"><ele>175.0</ele><time>2026-04-11T08:27:25.461Z</time></trkpt><trkpt lat="46.1132183" lon="13.084905"><ele>174.83333333333334</ele><time>2026-04-11T08:27:26.462Z</time></trkpt><trkpt lat="46.1131833" lon="13.0847967"><ele>174.66666666666669</ele><time>2026-04-11T08:27:27.462Z</time></trkpt><trkpt lat="46.1131467" lon="13.0847033"><ele>174.5</ele><time>2026-04-11T08:27:28.462Z</time></trkpt><trkpt lat="46.1131383" lon="13.08461"><ele>174.33333333333334</ele><time>2026-04-11T08:27:29.462Z</time></trkpt><trkpt lat="46.11312" lon="13.0845083"><ele>174.16666666666666</ele><time>2026-04-11T08:27:31.462Z</time></trkpt><trkpt lat="46.1130917" lon="13.0843817"><ele>174.0</ele><time>2026-04-11T08:27:41.462Z</time></trkpt><trkpt lat="46.1130533" lon="13.0842533"><ele>174.0</ele><time>2026-04-11T08:27:43.462Z</time></trkpt><trkpt lat="46.11298" lon="13.0840867"><ele>174.0</ele><time>2026-04-11T08:27:45.462Z</time></trkpt><trkpt lat="46.1129433" lon="13.0839867"><ele>174.0</ele><time>2026-04-11T08:27:46.462Z</time></trkpt><trkpt lat="46.1129117" lon="13.0838933"><ele>174.0</ele><time>2026-04-11T08:27:47.461Z</time></trkpt><trkpt lat="46.1128933" lon="13.0838017"><ele>174.0</ele><time>2026-04-11T08:27:48.462Z</time></trkpt><trkpt lat="46.1128633" lon="13.0836517"><ele>174.0</ele><time>2026-04-11T08:27:50.462Z</time></trkpt><trkpt lat="46.112845" lon="13.083525"><ele>174.0</ele><time>2026-04-11T08:27:52.461Z</time></trkpt><trkpt lat="46.1128467" lon="13.08342"><ele>174.0</ele><time>2026-04-11T08:27:55.461Z</time></trkpt><trkpt lat="46.1128267" lon="13.08331"><ele>174.0</ele><time>2026-04-11T08:28:06.461Z</time></trkpt><trkpt lat="46.1127817" lon="13.0831517"><ele>174.0</ele><time>2026-04-11T08:28:08.461Z</time></trkpt><trkpt lat="46.1127483" lon="13.0830467"><ele>174.0</ele><time>2026-04-11T08:28:09.461Z</time></trkpt><trkpt lat="46.1127267" lon="13.0829083"><ele>174.2</ele><time>2026-04-11T08:28:10.461Z</time></trkpt><trkpt lat="46.1126933" lon="13.0827517"><ele>174.39999999999998</ele><time>2026-04-11T08:28:11.46Z</time></trkpt><trkpt lat="46.1126717" lon="13.0826083"><ele>174.6</ele><time>2026-04-11T08:28:12.461Z</time></trkpt><trkpt lat="46.1126617" lon="13.0824767"><ele>174.8</ele><time>2026-04-11T08:28:13.46Z</time></trkpt><trkpt lat="46.1126417" lon="13.0823633"><ele>175.0</ele><time>2026-04-11T08:28:14.461Z</time></trkpt><trkpt lat="46.112635" lon="13.0822667"><ele>174.6</ele><time>2026-04-11T08:28:15.461Z</time></trkpt><trkpt lat="46.1125933" lon="13.0821217"><ele>174.2</ele><time>2026-04-11T08:28:17.461Z</time></trkpt><trkpt lat="46.112625" lon="13.0820267"><ele>173.8</ele><time>2026-04-11T08:28:19.461Z</time></trkpt><trkpt lat="46.11269" lon="13.0819883"><ele>173.4</ele><time>2026-04-11T08:28:21.461Z</time></trkpt><trkpt lat="46.1128217" lon="13.082025"><ele>173.0</ele><time>2026-04-11T08:28:23.46Z</time></trkpt><trkpt lat="46.1129033" lon="13.08206"><ele>173.0</ele><time>2026-04-11T08:28:24.461Z</time></trkpt><trkpt lat="46.1129967" lon="13.08211"><ele>173.0</ele><time>2026-04-11T08:28:25.46Z</time></trkpt><trkpt lat="46.1130967" lon="13.0821533"><ele>173.0</ele><time>2026-04-11T08:28:26.461Z</time></trkpt><trkpt lat="46.113205" lon="13.0821817"><ele>173.0</ele><time>2026-04-11T08:28:27.46Z</time></trkpt><trkpt lat="46.11331" lon="13.0822117"><ele>173.0</ele><time>2026-04-11T08:28:28.461Z</time></trkpt><trkpt lat="46.1134283" lon="13.082235"><ele>173.0</ele><time>2026-04-11T08:28:29.461Z</time></trkpt><trkpt lat="46.1135333" lon="13.0822283"><ele>173.0</ele><time>2026-04-11T08:28:30.461Z</time></trkpt><trkpt lat="46.1136217" lon="13.0822217"><ele>173.0</ele><time>2026-04-11T08:28:31.46Z</time></trkpt><trkpt lat="46.1136983" lon="13.08222"><ele>173.0</ele><time>2026-04-11T08:28:32.461Z</time></trkpt><trkpt lat="46.1137667" lon="13.0822167"><ele>173.0</ele><time>2026-04-11T08:28:33.461Z</time></trkpt><trkpt lat="46.1138767" lon="13.0822133"><ele>173.0</ele><time>2026-04-11T08:28:35.46Z</time></trkpt><trkpt lat="46.1139517" lon="13.0822417"><ele>173.0</ele><time>2026-04-11T08:28:37.46Z</time></trkpt><trkpt lat="46.114005" lon="13.082165"><ele>173.0</ele><time>2026-04-11T08:28:39.461Z</time></trkpt><trkpt lat="46.11405" lon="13.082015"><ele>173.0</ele><time>2026-04-11T08:28:41.46Z</time></trkpt><trkpt lat="46.1140583" lon="13.08188"><ele>173.0</ele><time>2026-04-11T08:28:42.461Z</time></trkpt><trkpt lat="46.1140717" lon="13.081725"><ele>173.0</ele><time>2026-04-11T08:28:43.461Z</time></trkpt><trkpt lat="46.1141033" lon="13.0815917"><ele>173.66666666666666</ele><time>2026-04-11T08:28:44.461Z</time></trkpt><trkpt lat="46.11412" lon="13.081485"><ele>174.33333333333331</ele><time>2026-04-11T08:28:45.46Z</time></trkpt><trkpt lat="46.114165" lon="13.08138"><ele>175.0</ele><time>2026-04-11T08:28:46.461Z</time></trkpt><trkpt lat="46.114225" lon="13.0812917"><ele>175.66666666666666</ele><time>2026-04-11T08:28:47.461Z</time></trkpt><trkpt lat="46.1142917" lon="13.0812183"><ele>176.33333333333334</ele><time>2026-04-11T08:28:48.46Z</time></trkpt><trkpt lat="46.1143667" lon="13.08114"><ele>177.0</ele><time>2026-04-11T08:28:49.461Z</time></trkpt><trkpt lat="46.1144483" lon="13.0810833"><ele>177.0</ele><time>2026-04-11T08:28:50.46Z</time></trkpt><trkpt lat="46.1145733" lon="13.08108"><ele>177.0</ele><time>2026-04-11T08:28:51.461Z</time></trkpt><trkpt lat="46.1147117" lon="13.0810967"><ele>177.0</ele><time>2026-04-11T08:28:52.461Z</time></trkpt><trkpt lat="46.1148383" lon="13.0811167"><ele>177.0</ele><time>2026-04-11T08:28:53.461Z</time></trkpt><trkpt lat="46.114945" lon="13.0811417"><ele>177.39999999999998</ele><time>2026-04-11T08:28:54.46Z</time></trkpt><trkpt lat="46.1150533" lon="13.0811517"><ele>177.79999999999998</ele><time>2026-04-11T08:28:55.461Z</time></trkpt><trkpt lat="46.1151667" lon="13.0811717"><ele>178.2</ele><time>2026-04-11T08:28:56.461Z</time></trkpt><trkpt lat="46.1152817" lon="13.0811983"><ele>178.6</ele><time>2026-04-11T08:28:57.461Z</time></trkpt><trkpt lat="46.1153883" lon="13.0812183"><ele>179.0</ele><time>2026-04-11T08:28:58.461Z</time></trkpt><trkpt lat="46.1154767" lon="13.0812417"><ele>179.0</ele><time>2026-04-11T08:28:59.461Z</time></trkpt><trkpt lat="46.1155467" lon="13.081255"><ele>179.0</ele><time>2026-04-11T08:29:00.46Z</time></trkpt><trkpt lat="46.11561" lon="13.0812833"><ele>179.0</ele><time>2026-04-11T08:29:01.461Z</time></trkpt><trkpt lat="46.1156883" lon="13.081205"><ele>179.0</ele><time>2026-04-11T08:29:09.461Z</time></trkpt><trkpt lat="46.1157017" lon="13.0811133"><ele>179.0</ele><time>2026-04-11T08:29:10.461Z</time></trkpt><trkpt lat="46.1157117" lon="13.0809817"><ele>179.0</ele><time>2026-04-11T08:29:11.461Z</time></trkpt><trkpt lat="46.11572" lon="13.080815"><ele>179.66666666666666</ele><time>2026-04-11T08:29:12.461Z</time></trkpt><trkpt lat="46.11572" lon="13.0806033"><ele>180.33333333333334</ele><time>2026-04-11T08:29:13.461Z</time></trkpt><trkpt lat="46.1157333" lon="13.0803383"><ele>181.0</ele><time>2026-04-11T08:29:14.461Z</time></trkpt><trkpt lat="46.1157633" lon="13.080075"><ele>180.0</ele><time>2026-04-11T08:29:15.46Z</time></trkpt><trkpt lat="46.115795" lon="13.0798333"><ele>179.0</ele><time>2026-04-11T08:29:16.46Z</time></trkpt><trkpt lat="46.1158183" lon="13.0795833"><ele>178.0</ele><time>2026-04-11T08:29:17.461Z</time></trkpt><trkpt lat="46.1158317" lon="13.079375"><ele>178.0</ele><time>2026-04-11T08:29:18.461Z</time></trkpt><trkpt lat="46.1158567" lon="13.0791883"><ele>178.0</ele><time>2026-04-11T08:29:19.461Z</time></trkpt><trkpt lat="46.115875" lon="13.0790183"><ele>178.0</ele><time>2026-04-11T08:29:20.461Z</time></trkpt><trkpt lat="46.1158917" lon="13.07887"><ele>178.0</ele><time>2026-04-11T08:29:21.461Z</time></trkpt><trkpt lat="46.11591" lon="13.0787467"><ele>178.0</ele><time>2026-04-11T08:29:22.461Z</time></trkpt><trkpt lat="46.1159417" lon="13.0786183"><ele>177.66666666666669</ele><time>2026-04-11T08:29:23.461Z</time></trkpt><trkpt lat="46.1159817" lon="13.07851"><ele>177.33333333333334</ele><time>2026-04-11T08:29:24.46Z</time></trkpt><trkpt lat="46.1160267" lon="13.078405"><ele>177.0</ele><time>2026-04-11T08:29:25.461Z</time></trkpt><trkpt lat="46.1160633" lon="13.0783017"><ele>176.66666666666666</ele><time>2026-04-11T08:29:26.461Z</time></trkpt><trkpt lat="46.1160817" lon="13.0781867"><ele>176.33333333333331</ele><time>2026-04-11T08:29:27.461Z</time></trkpt><trkpt lat="46.1160767" lon="13.07807"><ele>176.0</ele><time>2026-04-11T08:29:28.461Z</time></trkpt><trkpt lat="46.1160533" lon="13.077925"><ele>176.0</ele><time>2026-04-11T08:29:29.46Z</time></trkpt><trkpt lat="46.1160483" lon="13.0777817"><ele>176.0</ele><time>2026-04-11T08:29:30.461Z</time></trkpt><trkpt lat="46.1160567" lon="13.0776217"><ele>176.0</ele><time>2026-04-11T08:29:31.461Z</time></trkpt><trkpt lat="46.1160733" lon="13.077425"><ele>176.0</ele><time>2026-04-11T08:29:32.461Z</time></trkpt><trkpt lat="46.1160917" lon="13.0772233"><ele>176.0</ele><time>2026-04-11T08:29:33.46Z</time></trkpt><trkpt lat="46.1161067" lon="13.0770217"><ele>176.0</ele><time>2026-04-11T08:29:34.461Z</time></trkpt><trkpt lat="46.1161183" lon="13.076825"><ele>176.0</ele><time>2026-04-11T08:29:35.461Z</time></trkpt><trkpt lat="46.1161283" lon="13.07663"><ele>176.0</ele><time>2026-04-11T08:29:36.461Z</time></trkpt><trkpt lat="46.11614" lon="13.0764533"><ele>176.0</ele><time>2026-04-11T08:29:37.461Z</time></trkpt><trkpt lat="46.1161517" lon="13.0762967"><ele>176.0</ele><time>2026-04-11T08:29:38.461Z</time></trkpt><trkpt lat="46.1161667" lon="13.0761733"><ele>176.0</ele><time>2026-04-11T08:29:39.461Z</time></trkpt><trkpt lat="46.116175" lon="13.0760733"><ele>176.0</ele><time>2026-04-11T08:29:40.461Z</time></trkpt><trkpt lat="46.1161433" lon="13.0759183"><ele>176.0</ele><time>2026-04-11T08:29:42.461Z</time></trkpt><trkpt lat="46.1161017" lon="13.0758367"><ele>176.0</ele><time>2026-04-11T08:29:43.461Z</time></trkpt><trkpt lat="46.1160483" lon="13.0757283"><ele>176.4</ele><time>2026-04-11T08:29:44.461Z</time></trkpt><trkpt lat="46.1159967" lon="13.0756067"><ele>176.8</ele><time>2026-04-11T08:29:45.461Z</time></trkpt><trkpt lat="46.115945" lon="13.07547"><ele>177.20000000000002</ele><time>2026-04-11T08:29:46.461Z</time></trkpt><trkpt lat="46.1158867" lon="13.07534"><ele>177.60000000000002</ele><time>2026-04-11T08:29:47.46Z</time></trkpt><trkpt lat="46.1158333" lon="13.07521"><ele>178.0</ele><time>2026-04-11T08:29:48.46Z</time></trkpt><trkpt lat="46.115785" lon="13.0750767"><ele>177.33333333333334</ele><time>2026-04-11T08:29:49.461Z</time></trkpt><trkpt lat="46.115735" lon="13.0749567"><ele>176.66666666666669</ele><time>2026-04-11T08:29:50.461Z</time></trkpt><trkpt lat="46.1156967" lon="13.0748333"><ele>176.0</ele><time>2026-04-11T08:29:51.461Z</time></trkpt><trkpt lat="46.115665" lon="13.0747183"><ele>175.33333333333334</ele><time>2026-04-11T08:29:52.46Z</time></trkpt><trkpt lat="46.1156283" lon="13.0746283"><ele>174.66666666666666</ele><time>2026-04-11T08:29:53.461Z</time></trkpt><trkpt lat="46.1156" lon="13.0745367"><ele>174.0</ele><time>2026-04-11T08:29:54.461Z</time></trkpt><trkpt lat="46.1155783" lon="13.0744383"><ele>174.0</ele><time>2026-04-11T08:29:55.461Z</time></trkpt><trkpt lat="46.1155517" lon="13.074345"><ele>174.0</ele><time>2026-04-11T08:29:56.461Z</time></trkpt><trkpt lat="46.1155317" lon="13.0742383"><ele>174.0</ele><time>2026-04-11T08:29:57.461Z</time></trkpt><trkpt lat="46.115515" lon="13.07413"><ele>174.0</ele><time>2026-04-11T08:29:58.461Z</time></trkpt><trkpt lat="46.1154917" lon="13.074015"><ele>174.0</ele><time>2026-04-11T08:29:59.461Z</time></trkpt><trkpt lat="46.1154717" lon="13.0739"><ele>174.0</ele><time>2026-04-11T08:30:00.461Z</time></trkpt><trkpt lat="46.11546" lon="13.0737783"><ele>174.2</ele><time>2026-04-11T08:30:01.461Z</time></trkpt><trkpt lat="46.115445" lon="13.0736417"><ele>174.39999999999998</ele><time>2026-04-11T08:30:02.461Z</time></trkpt><trkpt lat="46.1154433" lon="13.0735"><ele>174.6</ele><time>2026-04-11T08:30:03.461Z</time></trkpt><trkpt lat="46.1154467" lon="13.0733583"><ele>174.8</ele><time>2026-04-11T08:30:04.46Z</time></trkpt><trkpt lat="46.1154383" lon="13.073215"><ele>175.0</ele><time>2026-04-11T08:30:05.46Z</time></trkpt><trkpt lat="46.1154233" lon="13.0730767"><ele>175.0</ele><time>2026-04-11T08:30:06.461Z</time></trkpt><trkpt lat="46.11541" lon="13.0729433"><ele>175.0</ele><time>2026-04-11T08:30:07.46Z</time></trkpt><trkpt lat="46.1153983" lon="13.072815"><ele>175.0</ele><time>2026-04-11T08:30:08.461Z</time></trkpt><trkpt lat="46.1153883" lon="13.072695"><ele>175.0</ele><time>2026-04-11T08:30:09.461Z</time></trkpt><trkpt lat="46.11538" lon="13.0725867"><ele>175.0</ele><time>2026-04-11T08:30:10.461Z</time></trkpt><trkpt lat="46.1153667" lon="13.0724817"><ele>175.0</ele><time>2026-04-11T08:30:11.461Z</time></trkpt><trkpt lat="46.1153483" lon="13.0723667"><ele>174.6</ele><time>2026-04-11T08:30:12.461Z</time></trkpt><trkpt lat="46.1153583" lon="13.0722067"><ele>174.2</ele><time>2026-04-11T08:30:13.46Z</time></trkpt><trkpt lat="46.11535" lon="13.0720817"><ele>173.8</ele><time>2026-04-11T08:30:14.461Z</time></trkpt><trkpt lat="46.1153383" lon="13.0719683"><ele>173.4</ele><time>2026-04-11T08:30:15.461Z</time></trkpt><trkpt lat="46.1153383" lon="13.0718733"><ele>173.0</ele><time>2026-04-11T08:30:16.461Z</time></trkpt><trkpt lat="46.1153067" lon="13.0717133"><ele>172.4</ele><time>2026-04-11T08:30:18.46Z</time></trkpt><trkpt lat="46.1152783" lon="13.071595"><ele>171.8</ele><time>2026-04-11T08:30:20.461Z</time></trkpt><trkpt lat="46.1152433" lon="13.0714667"><ele>171.2</ele><time>2026-04-11T08:30:22.461Z</time></trkpt><trkpt lat="46.1152017" lon="13.0713233"><ele>170.6</ele><time>2026-04-11T08:30:24.46Z</time></trkpt><trkpt lat="46.11519" lon="13.07116"><ele>170.0</ele><time>2026-04-11T08:30:26.461Z</time></trkpt><trkpt lat="46.1151733" lon="13.0709783"><ele>170.0</ele><time>2026-04-11T08:30:28.461Z</time></trkpt><trkpt lat="46.1151483" lon="13.0708867"><ele>170.0</ele><time>2026-04-11T08:30:29.461Z</time></trkpt><trkpt lat="46.1151183" lon="13.0707883"><ele>170.0</ele><time>2026-04-11T08:30:30.461Z</time></trkpt><trkpt lat="46.1150883" lon="13.0706917"><ele>170.0</ele><time>2026-04-11T08:30:31.461Z</time></trkpt><trkpt lat="46.1150633" lon="13.0705983"><ele>170.0</ele><time>2026-04-11T08:30:32.461Z</time></trkpt><trkpt lat="46.1150283" lon="13.07051"><ele>170.0</ele><time>2026-04-11T08:30:33.461Z</time></trkpt><trkpt lat="46.11499" lon="13.0704233"><ele>170.0</ele><time>2026-04-11T08:30:34.461Z</time></trkpt><trkpt lat="46.1149467" lon="13.0703483"><ele>170.5</ele><time>2026-04-11T08:30:35.46Z</time></trkpt><trkpt lat="46.114895" lon="13.0702783"><ele>171.0</ele><time>2026-04-11T08:30:36.461Z</time></trkpt><trkpt lat="46.1148417" lon="13.0702133"><ele>171.5</ele><time>2026-04-11T08:30:37.461Z</time></trkpt><trkpt lat="46.1147867" lon="13.070165"><ele>172.0</ele><time>2026-04-11T08:30:38.461Z</time></trkpt><trkpt lat="46.11473" lon="13.0701183"><ele>172.5</ele><time>2026-04-11T08:30:39.461Z</time></trkpt><trkpt lat="46.1146267" lon="13.0700383"><ele>173.0</ele><time>2026-04-11T08:30:41.46Z</time></trkpt><trkpt lat="46.1145383" lon="13.0699717"><ele>172.4</ele><time>2026-04-11T08:30:43.461Z</time></trkpt><trkpt lat="46.1144633" lon="13.0698833"><ele>171.8</ele><time>2026-04-11T08:30:45.461Z</time></trkpt><trkpt lat="46.1143933" lon="13.06977"><ele>171.2</ele><time>2026-04-11T08:30:47.461Z</time></trkpt><trkpt lat="46.1143117" lon="13.0696933"><ele>170.6</ele><time>2026-04-11T08:30:49.46Z</time></trkpt><trkpt lat="46.1142317" lon="13.0696467"><ele>170.0</ele><time>2026-04-11T08:30:51.461Z</time></trkpt><trkpt lat="46.1142067" lon="13.0695417"><ele>170.0</ele><time>2026-04-11T08:30:53.461Z</time></trkpt><trkpt lat="46.114185" lon="13.0694167"><ele>170.0</ele><time>2026-04-11T08:30:55.461Z</time></trkpt><trkpt lat="46.11417" lon="13.06931"><ele>170.0</ele><time>2026-04-11T08:30:57.46Z</time></trkpt><trkpt lat="46.1141233" lon="13.0691783"><ele>170.0</ele><time>2026-04-11T08:30:59.461Z</time></trkpt><trkpt lat="46.1140617" lon="13.0690367"><ele>170.0</ele><time>2026-04-11T08:31:01.461Z</time></trkpt><trkpt lat="46.1140167" lon="13.06891"><ele>169.66666666666666</ele><time>2026-04-11T08:31:03.461Z</time></trkpt><trkpt lat="46.1139517" lon="13.0688033"><ele>169.33333333333331</ele><time>2026-04-11T08:31:05.461Z</time></trkpt><trkpt lat="46.1138883" lon="13.0687683"><ele>169.0</ele><time>2026-04-11T08:31:07.46Z</time></trkpt><trkpt lat="46.1138017" lon="13.0687533"><ele>168.66666666666666</ele><time>2026-04-11T08:31:09.461Z</time></trkpt><trkpt lat="46.11371" lon="13.0687667"><ele>168.33333333333334</ele><time>2026-04-11T08:31:11.461Z</time></trkpt><trkpt lat="46.1136267" lon="13.0687817"><ele>168.0</ele><time>2026-04-11T08:31:13.461Z</time></trkpt><trkpt lat="46.11355" lon="13.0687667"><ele>168.0</ele><time>2026-04-11T08:31:15.461Z</time></trkpt><trkpt lat="46.113495" lon="13.0686983"><ele>168.0</ele><time>2026-04-11T08:31:17.461Z</time></trkpt><trkpt lat="46.113455" lon="13.068585"><ele>168.0</ele><time>2026-04-11T08:31:19.461Z</time></trkpt><trkpt lat="46.1134283" lon="13.068455"><ele>168.0</ele><time>2026-04-11T08:31:21.461Z</time></trkpt><trkpt lat="46.1133983" lon="13.0683367"><ele>168.0</ele><time>2026-04-11T08:31:23.461Z</time></trkpt><trkpt lat="46.1133867" lon="13.0681983"><ele>168.0</ele><time>2026-04-11T08:31:25.461Z</time></trkpt><trkpt lat="46.1133683" lon="13.068075"><ele>167.83333333333334</ele><time>2026-04-11T08:31:27.46Z</time></trkpt><trkpt lat="46.1133467" lon="13.06796"><ele>167.66666666666666</ele><time>2026-04-11T08:31:29.461Z</time></trkpt><trkpt lat="46.1133367" lon="13.0678517"><ele>167.5</ele><time>2026-04-11T08:31:31.46Z</time></trkpt><trkpt lat="46.1133233" lon="13.0677217"><ele>167.33333333333331</ele><time>2026-04-11T08:31:33.461Z</time></trkpt><trkpt lat="46.1133133" lon="13.067585"><ele>167.16666666666666</ele><time>2026-04-11T08:31:35.461Z</time></trkpt><trkpt lat="46.113285" lon="13.0674933"><ele>167.0</ele><time>2026-04-11T08:31:37.461Z</time></trkpt><trkpt lat="46.1132567" lon="13.067405"><ele>166.5</ele><time>2026-04-11T08:31:39.461Z</time></trkpt><trkpt lat="46.1132133" lon="13.0672967"><ele>166.0</ele><time>2026-04-11T08:31:41.461Z</time></trkpt><trkpt lat="46.1131683" lon="13.0672"><ele>165.5</ele><time>2026-04-11T08:31:43.461Z</time></trkpt><trkpt lat="46.1131233" lon="13.067125"><ele>165.0</ele><time>2026-04-11T08:31:45.46Z</time></trkpt><trkpt lat="46.1130517" lon="13.0670717"><ele>164.5</ele><time>2026-04-11T08:31:47.461Z</time></trkpt><trkpt lat="46.11294" lon="13.067095"><ele>164.0</ele><time>2026-04-11T08:31:49.461Z</time></trkpt><trkpt lat="46.1128417" lon="13.06714"><ele>164.0</ele><time>2026-04-11T08:31:51.461Z</time></trkpt><trkpt lat="46.1127733" lon="13.06715"><ele>164.0</ele><time>2026-04-11T08:31:53.46Z</time></trkpt><trkpt lat="46.1126833" lon="13.0671317"><ele>164.0</ele><time>2026-04-11T08:31:55.461Z</time></trkpt><trkpt lat="46.1126133" lon="13.0670833"><ele>164.0</ele><time>2026-04-11T08:31:57.461Z</time></trkpt><trkpt lat="46.1125633" lon="13.0669767"><ele>164.0</ele><time>2026-04-11T08:31:59.461Z</time></trkpt><trkpt lat="46.1125267" lon="13.0668783"><ele>164.0</ele><time>2026-04-11T08:32:01.461Z</time></trkpt><trkpt lat="46.1125067" lon="13.0667883"><ele>164.0</ele><time>2026-04-11T08:32:03.46Z</time></trkpt><trkpt lat="46.1125117" lon="13.0666483"><ele>164.0</ele><time>2026-04-11T08:32:06.461Z</time></trkpt><trkpt lat="46.112535" lon="13.0665117"><ele>164.0</ele><time>2026-04-11T08:32:09.461Z</time></trkpt><trkpt lat="46.112585" lon="13.06638"><ele>164.0</ele><time>2026-04-11T08:32:11.46Z</time></trkpt><trkpt lat="46.1126083" lon="13.0662883"><ele>164.0</ele><time>2026-04-11T08:32:13.461Z</time></trkpt><trkpt lat="46.1126183" lon="13.066175"><ele>164.0</ele><time>2026-04-11T08:32:15.461Z</time></trkpt><trkpt lat="46.112615" lon="13.0660433"><ele>163.79999999999998</ele><time>2026-04-11T08:32:17.461Z</time></trkpt><trkpt lat="46.1126133" lon="13.0659033"><ele>163.6</ele><time>2026-04-11T08:32:19.461Z</time></trkpt><trkpt lat="46.1126133" lon="13.0657517"><ele>163.4</ele><time>2026-04-11T08:32:21.461Z</time></trkpt><trkpt lat="46.112635" lon="13.065605"><ele>163.2</ele><time>2026-04-11T08:32:23.461Z</time></trkpt><trkpt lat="46.1126733" lon="13.0654517"><ele>163.0</ele><time>2026-04-11T08:32:25.46Z</time></trkpt><trkpt lat="46.112725" lon="13.0653267"><ele>162.60000000000002</ele><time>2026-04-11T08:32:27.461Z</time></trkpt><trkpt lat="46.1127867" lon="13.06521"><ele>162.20000000000002</ele><time>2026-04-11T08:32:29.461Z</time></trkpt><trkpt lat="46.112855" lon="13.0650983"><ele>161.8</ele><time>2026-04-11T08:32:31.461Z</time></trkpt><trkpt lat="46.1129217" lon="13.0649933"><ele>161.4</ele><time>2026-04-11T08:32:33.461Z</time></trkpt><trkpt lat="46.1129867" lon="13.0649017"><ele>161.0</ele><time>2026-04-11T08:32:35.46Z</time></trkpt><trkpt lat="46.1130417" lon="13.0648033"><ele>160.83333333333331</ele><time>2026-04-11T08:32:37.461Z</time></trkpt><trkpt lat="46.1130933" lon="13.0647017"><ele>160.66666666666666</ele><time>2026-04-11T08:32:39.46Z</time></trkpt><trkpt lat="46.113125" lon="13.0646117"><ele>160.5</ele><time>2026-04-11T08:32:41.461Z</time></trkpt><trkpt lat="46.1131633" lon="13.0645"><ele>160.33333333333334</ele><time>2026-04-11T08:32:43.461Z</time></trkpt><trkpt lat="46.1132017" lon="13.0643883"><ele>160.16666666666669</ele><time>2026-04-11T08:32:45.46Z</time></trkpt><trkpt lat="46.1132567" lon="13.0642883"><ele>160.0</ele><time>2026-04-11T08:32:47.461Z</time></trkpt><trkpt lat="46.1133117" lon="13.0642117"><ele>160.83333333333334</ele><time>2026-04-11T08:32:49.461Z</time></trkpt><trkpt lat="46.1133767" lon="13.0641467"><ele>161.66666666666669</ele><time>2026-04-11T08:32:51.461Z</time></trkpt><trkpt lat="46.11347" lon="13.0641167"><ele>162.5</ele><time>2026-04-11T08:32:53.461Z</time></trkpt><trkpt lat="46.1135333" lon="13.0641267"><ele>163.33333333333334</ele><time>2026-04-11T08:32:54.461Z</time></trkpt><trkpt lat="46.1136117" lon="13.06415"><ele>164.16666666666666</ele><time>2026-04-11T08:32:55.461Z</time></trkpt><trkpt lat="46.113695" lon="13.0641833"><ele>165.0</ele><time>2026-04-11T08:32:56.461Z</time></trkpt><trkpt lat="46.1137867" lon="13.0642217"><ele>165.0</ele><time>2026-04-11T08:32:57.461Z</time></trkpt><trkpt lat="46.1138717" lon="13.0642533"><ele>165.0</ele><time>2026-04-11T08:32:58.46Z</time></trkpt><trkpt lat="46.1139533" lon="13.0642933"><ele>165.0</ele><time>2026-04-11T08:32:59.461Z</time></trkpt><trkpt lat="46.1140367" lon="13.0643217"><ele>165.0</ele><time>2026-04-11T08:33:00.46Z</time></trkpt><trkpt lat="46.1141217" lon="13.06435"><ele>165.0</ele><time>2026-04-11T08:33:01.461Z</time></trkpt><trkpt lat="46.114215" lon="13.0643667"><ele>165.0</ele><time>2026-04-11T08:33:02.461Z</time></trkpt><trkpt lat="46.1143083" lon="13.0643883"><ele>165.4</ele><time>2026-04-11T08:33:03.461Z</time></trkpt><trkpt lat="46.1144017" lon="13.0644117"><ele>165.8</ele><time>2026-04-11T08:33:04.461Z</time></trkpt><trkpt lat="46.114495" lon="13.0644267"><ele>166.2</ele><time>2026-04-11T08:33:05.461Z</time></trkpt><trkpt lat="46.1145867" lon="13.06443"><ele>166.6</ele><time>2026-04-11T08:33:06.461Z</time></trkpt><trkpt lat="46.11468" lon="13.0644283"><ele>167.0</ele><time>2026-04-11T08:33:07.46Z</time></trkpt><trkpt lat="46.1147667" lon="13.0644217"><ele>167.0</ele><time>2026-04-11T08:33:08.461Z</time></trkpt><trkpt lat="46.1148533" lon="13.0644117"><ele>167.0</ele><time>2026-04-11T08:33:09.461Z</time></trkpt><trkpt lat="46.1149483" lon="13.0643817"><ele>167.0</ele><time>2026-04-11T08:33:10.46Z</time></trkpt><trkpt lat="46.1150467" lon="13.0643767"><ele>167.0</ele><time>2026-04-11T08:33:11.461Z</time></trkpt><trkpt lat="46.1151383" lon="13.0643667"><ele>167.0</ele><time>2026-04-11T08:33:12.461Z</time></trkpt><trkpt lat="46.1152367" lon="13.064365"><ele>167.83333333333331</ele><time>2026-04-11T08:33:13.461Z</time></trkpt><trkpt lat="46.11532" lon="13.0643567"><ele>168.66666666666666</ele><time>2026-04-11T08:33:14.46Z</time></trkpt><trkpt lat="46.1154033" lon="13.064335"><ele>169.5</ele><time>2026-04-11T08:33:15.46Z</time></trkpt><trkpt lat="46.1154767" lon="13.064335"><ele>170.33333333333334</ele><time>2026-04-11T08:33:16.46Z</time></trkpt><trkpt lat="46.1155567" lon="13.0643317"><ele>171.16666666666669</ele><time>2026-04-11T08:33:17.46Z</time></trkpt><trkpt lat="46.11563" lon="13.0643267"><ele>172.0</ele><time>2026-04-11T08:33:18.461Z</time></trkpt><trkpt lat="46.1157483" lon="13.0643067"><ele>172.2</ele><time>2026-04-11T08:33:20.461Z</time></trkpt><trkpt lat="46.115815" lon="13.064245"><ele>172.39999999999998</ele><time>2026-04-11T08:33:22.461Z</time></trkpt><trkpt lat="46.1158367" lon="13.0641017"><ele>172.60000000000002</ele><time>2026-04-11T08:33:24.461Z</time></trkpt><trkpt lat="46.11582" lon="13.0639933"><ele>172.8</ele><time>2026-04-11T08:33:25.46Z</time></trkpt><trkpt lat="46.1157867" lon="13.0638467"><ele>173.0</ele><time>2026-04-11T08:33:26.461Z</time></trkpt><trkpt lat="46.1157333" lon="13.0636517"><ele>173.0</ele><time>2026-04-11T08:33:27.461Z</time></trkpt><trkpt lat="46.1156567" lon="13.0633883"><ele>173.0</ele><time>2026-04-11T08:33:28.461Z</time></trkpt><trkpt lat="46.1155533" lon="13.06311"><ele>173.0</ele><time>2026-04-11T08:33:29.46Z</time></trkpt><trkpt lat="46.11544" lon="13.0628483"><ele>173.5</ele><time>2026-04-11T08:33:30.461Z</time></trkpt><trkpt lat="46.1153783" lon="13.0626567"><ele>174.0</ele><time>2026-04-11T08:33:31.461Z</time></trkpt><trkpt lat="46.1153183" lon="13.0625117"><ele>174.5</ele><time>2026-04-11T08:33:32.461Z</time></trkpt><trkpt lat="46.115255" lon="13.0624"><ele>175.0</ele><time>2026-04-11T08:33:33.46Z</time></trkpt><trkpt lat="46.1152117" lon="13.0622917"><ele>174.33333333333334</ele><time>2026-04-11T08:33:34.46Z</time></trkpt><trkpt lat="46.1151817" lon="13.0621783"><ele>173.66666666666669</ele><time>2026-04-11T08:33:35.461Z</time></trkpt><trkpt lat="46.1151467" lon="13.0620683"><ele>173.0</ele><time>2026-04-11T08:33:36.461Z</time></trkpt><trkpt lat="46.1151117" lon="13.06195"><ele>172.33333333333334</ele><time>2026-04-11T08:33:37.461Z</time></trkpt><trkpt lat="46.11509" lon="13.06183"><ele>171.66666666666666</ele><time>2026-04-11T08:33:38.461Z</time></trkpt><trkpt lat="46.1150583" lon="13.06171"><ele>171.0</ele><time>2026-04-11T08:33:39.461Z</time></trkpt><trkpt lat="46.1150317" lon="13.061595"><ele>170.8</ele><time>2026-04-11T08:33:40.461Z</time></trkpt><trkpt lat="46.1150117" lon="13.0614783"><ele>170.60000000000002</ele><time>2026-04-11T08:33:41.461Z</time></trkpt><trkpt lat="46.1149933" lon="13.0613633"><ele>170.4</ele><time>2026-04-11T08:33:42.461Z</time></trkpt><trkpt lat="46.1149733" lon="13.0612217"><ele>170.2</ele><time>2026-04-11T08:33:43.461Z</time></trkpt><trkpt lat="46.1149717" lon="13.0610733"><ele>170.0</ele><time>2026-04-11T08:33:44.46Z</time></trkpt><trkpt lat="46.1149733" lon="13.0609117"><ele>169.0</ele><time>2026-04-11T08:33:45.46Z</time></trkpt><trkpt lat="46.1149717" lon="13.06075"><ele>168.0</ele><time>2026-04-11T08:33:46.461Z</time></trkpt><trkpt lat="46.1149733" lon="13.06056"><ele>167.0</ele><time>2026-04-11T08:33:47.461Z</time></trkpt><trkpt lat="46.114965" lon="13.0603717"><ele>166.0</ele><time>2026-04-11T08:33:48.46Z</time></trkpt><trkpt lat="46.1149567" lon="13.0601933"><ele>166.0</ele><time>2026-04-11T08:33:49.461Z</time></trkpt><trkpt lat="46.114945" lon="13.0600133"><ele>166.0</ele><time>2026-04-11T08:33:50.461Z</time></trkpt><trkpt lat="46.1149083" lon="13.0598017"><ele>166.0</ele><time>2026-04-11T08:33:51.461Z</time></trkpt><trkpt lat="46.114835" lon="13.0595633"><ele>164.0</ele><time>2026-04-11T08:33:52.46Z</time></trkpt><trkpt lat="46.114735" lon="13.059315"><ele>162.0</ele><time>2026-04-11T08:33:53.461Z</time></trkpt><trkpt lat="46.1146533" lon="13.0590917"><ele>160.0</ele><time>2026-04-11T08:33:54.46Z</time></trkpt><trkpt lat="46.1145883" lon="13.0588767"><ele>160.0</ele><time>2026-04-11T08:33:55.461Z</time></trkpt><trkpt lat="46.1145183" lon="13.05869"><ele>160.0</ele><time>2026-04-11T08:33:56.46Z</time></trkpt><trkpt lat="46.11445" lon="13.05853"><ele>160.0</ele><time>2026-04-11T08:33:57.461Z</time></trkpt><trkpt lat="46.1144" lon="13.0583617"><ele>160.0</ele><time>2026-04-11T08:33:58.46Z</time></trkpt><trkpt lat="46.1143683" lon="13.05816"><ele>160.0</ele><time>2026-04-11T08:33:59.461Z</time></trkpt><trkpt lat="46.1143467" lon="13.0579617"><ele>160.0</ele><time>2026-04-11T08:34:00.461Z</time></trkpt><trkpt lat="46.1143217" lon="13.0577767"><ele>160.0</ele><time>2026-04-11T08:34:01.461Z</time></trkpt><trkpt lat="46.1143017" lon="13.057615"><ele>160.0</ele><time>2026-04-11T08:34:02.46Z</time></trkpt><trkpt lat="46.11428" lon="13.057455"><ele>159.6</ele><time>2026-04-11T08:34:03.46Z</time></trkpt><trkpt lat="46.1142567" lon="13.0573167"><ele>159.2</ele><time>2026-04-11T08:34:04.461Z</time></trkpt><trkpt lat="46.1142383" lon="13.05717"><ele>158.8</ele><time>2026-04-11T08:34:05.46Z</time></trkpt><trkpt lat="46.114225" lon="13.05705"><ele>158.4</ele><time>2026-04-11T08:34:06.461Z</time></trkpt><trkpt lat="46.1142083" lon="13.0568867"><ele>158.0</ele><time>2026-04-11T08:34:08.461Z</time></trkpt><trkpt lat="46.1142" lon="13.0567767"><ele>158.0</ele><time>2026-04-11T08:34:10.461Z</time></trkpt><trkpt lat="46.1142483" lon="13.056705"><ele>158.0</ele><time>2026-04-11T08:34:15.459Z</time></trkpt><trkpt lat="46.1143383" lon="13.0566167"><ele>158.0</ele><time>2026-04-11T08:34:18.46Z</time></trkpt><trkpt lat="46.1144283" lon="13.0565567"><ele>158.0</ele><time>2026-04-11T08:34:20.459Z</time></trkpt><trkpt lat="46.1144967" lon="13.056525"><ele>158.0</ele><time>2026-04-11T08:34:21.46Z</time></trkpt><trkpt lat="46.1145633" lon="13.0564867"><ele>158.0</ele><time>2026-04-11T08:34:22.46Z</time></trkpt><trkpt lat="46.11463" lon="13.056455"><ele>158.16666666666666</ele><time>2026-04-11T08:34:23.46Z</time></trkpt><trkpt lat="46.1146933" lon="13.0564133"><ele>158.33333333333331</ele><time>2026-04-11T08:34:24.46Z</time></trkpt><trkpt lat="46.114805" lon="13.0563417"><ele>158.5</ele><time>2026-04-11T08:34:26.46Z</time></trkpt><trkpt lat="46.1148683" lon="13.0563033"><ele>158.66666666666666</ele><time>2026-04-11T08:34:27.46Z</time></trkpt><trkpt lat="46.114935" lon="13.0562567"><ele>158.83333333333334</ele><time>2026-04-11T08:34:28.46Z</time></trkpt><trkpt lat="46.115005" lon="13.0562083"><ele>159.0</ele><time>2026-04-11T08:34:29.459Z</time></trkpt><trkpt lat="46.1150733" lon="13.056155"><ele>159.0</ele><time>2026-04-11T08:34:30.46Z</time></trkpt><trkpt lat="46.115145" lon="13.056095"><ele>159.0</ele><time>2026-04-11T08:34:31.46Z</time></trkpt><trkpt lat="46.11523" lon="13.0560383"><ele>159.0</ele><time>2026-04-11T08:34:32.46Z</time></trkpt><trkpt lat="46.11531" lon="13.05597"><ele>159.0</ele><time>2026-04-11T08:34:33.46Z</time></trkpt><trkpt lat="46.1153917" lon="13.0559017"><ele>159.0</ele><time>2026-04-11T08:34:34.46Z</time></trkpt><trkpt lat="46.115455" lon="13.0558367"><ele>159.0</ele><time>2026-04-11T08:34:35.46Z</time></trkpt><trkpt lat="46.1155117" lon="13.0557783"><ele>159.0</ele><time>2026-04-11T08:34:36.459Z</time></trkpt><trkpt lat="46.11557" lon="13.0557233"><ele>159.0</ele><time>2026-04-11T08:34:37.46Z</time></trkpt><trkpt lat="46.11564" lon="13.055665"><ele>159.0</ele><time>2026-04-11T08:34:39.46Z</time></trkpt><trkpt lat="46.11556" lon="13.0556683"><ele>159.0</ele><time>2026-04-11T08:34:44.46Z</time></trkpt><trkpt lat="46.1154967" lon="13.05575"><ele>159.0</ele><time>2026-04-11T08:34:46.46Z</time></trkpt><trkpt lat="46.115445" lon="13.055815"><ele>159.0</ele><time>2026-04-11T08:34:47.46Z</time></trkpt><trkpt lat="46.1153833" lon="13.0558967"><ele>159.0</ele><time>2026-04-11T08:34:48.46Z</time></trkpt><trkpt lat="46.1153117" lon="13.0559867"><ele>159.0</ele><time>2026-04-11T08:34:49.459Z</time></trkpt><trkpt lat="46.1152217" lon="13.0560883"><ele>159.0</ele><time>2026-04-11T08:34:50.459Z</time></trkpt><trkpt lat="46.1150983" lon="13.0561983"><ele>159.0</ele><time>2026-04-11T08:34:51.46Z</time></trkpt><trkpt lat="46.1149483" lon="13.0562983"><ele>158.25</ele><time>2026-04-11T08:34:52.46Z</time></trkpt><trkpt lat="46.1148067" lon="13.0563767"><ele>157.5</ele><time>2026-04-11T08:34:53.46Z</time></trkpt><trkpt lat="46.1146767" lon="13.0564483"><ele>156.75</ele><time>2026-04-11T08:34:54.459Z</time></trkpt><trkpt lat="46.1145667" lon="13.05651"><ele>156.0</ele><time>2026-04-11T08:34:55.46Z</time></trkpt><trkpt lat="46.1144717" lon="13.05655"><ele>156.0</ele><time>2026-04-11T08:34:56.46Z</time></trkpt><trkpt lat="46.1143933" lon="13.0565983"><ele>156.0</ele><time>2026-04-11T08:34:57.46Z</time></trkpt><trkpt lat="46.1143267" lon="13.0566333"><ele>156.0</ele><time>2026-04-11T08:34:58.46Z</time></trkpt><trkpt lat="46.11422" lon="13.0566283"><ele>156.0</ele><time>2026-04-11T08:35:00.46Z</time></trkpt><trkpt lat="46.11415" lon="13.0564883"><ele>156.0</ele><time>2026-04-11T08:35:02.46Z</time></trkpt><trkpt lat="46.114125" lon="13.056375"><ele>156.0</ele><time>2026-04-11T08:35:03.459Z</time></trkpt><trkpt lat="46.1140967" lon="13.0562417"><ele>156.0</ele><time>2026-04-11T08:35:04.459Z</time></trkpt><trkpt lat="46.1140667" lon="13.056125"><ele>156.0</ele><time>2026-04-11T08:35:05.46Z</time></trkpt><trkpt lat="46.114035" lon="13.0560117"><ele>156.0</ele><time>2026-04-11T08:35:06.46Z</time></trkpt><trkpt lat="46.1140167" lon="13.0559017"><ele>156.0</ele><time>2026-04-11T08:35:07.46Z</time></trkpt><trkpt lat="46.1140033" lon="13.0557933"><ele>156.0</ele><time>2026-04-11T08:35:08.46Z</time></trkpt><trkpt lat="46.113985" lon="13.05568"><ele>156.2</ele><time>2026-04-11T08:35:09.46Z</time></trkpt><trkpt lat="46.11396" lon="13.055565"><ele>156.39999999999998</ele><time>2026-04-11T08:35:10.459Z</time></trkpt><trkpt lat="46.1139117" lon="13.0554333"><ele>156.6</ele><time>2026-04-11T08:35:11.46Z</time></trkpt><trkpt lat="46.1138583" lon="13.055295"><ele>156.79999999999998</ele><time>2026-04-11T08:35:12.46Z</time></trkpt><trkpt lat="46.1138033" lon="13.0551517"><ele>157.0</ele><time>2026-04-11T08:35:13.46Z</time></trkpt><trkpt lat="46.1137567" lon="13.054995"><ele>157.0</ele><time>2026-04-11T08:35:14.459Z</time></trkpt><trkpt lat="46.1137183" lon="13.0548267"><ele>157.0</ele><time>2026-04-11T08:35:15.459Z</time></trkpt><trkpt lat="46.1136717" lon="13.05467"><ele>157.0</ele><time>2026-04-11T08:35:16.46Z</time></trkpt><trkpt lat="46.1136417" lon="13.0545233"><ele>157.0</ele><time>2026-04-11T08:35:17.46Z</time></trkpt><trkpt lat="46.1135983" lon="13.0543683"><ele>157.0</ele><time>2026-04-11T08:35:18.46Z</time></trkpt><trkpt lat="46.11355" lon="13.0541967"><ele>157.0</ele><time>2026-04-11T08:35:19.46Z</time></trkpt><trkpt lat="46.1135067" lon="13.0540033"><ele>157.0</ele><time>2026-04-11T08:35:20.46Z</time></trkpt><trkpt lat="46.1134683" lon="13.0538167"><ele>157.0</ele><time>2026-04-11T08:35:21.46Z</time></trkpt><trkpt lat="46.1134283" lon="13.0536167"><ele>156.79999999999998</ele><time>2026-04-11T08:35:22.46Z</time></trkpt><trkpt lat="46.1133867" lon="13.0534367"><ele>156.6</ele><time>2026-04-11T08:35:23.459Z</time></trkpt><trkpt lat="46.1133667" lon="13.053275"><ele>156.39999999999998</ele><time>2026-04-11T08:35:24.459Z</time></trkpt><trkpt lat="46.1133583" lon="13.0531333"><ele>156.2</ele><time>2026-04-11T08:35:25.46Z</time></trkpt><trkpt lat="46.1133667" lon="13.052995"><ele>156.0</ele><time>2026-04-11T08:35:26.46Z</time></trkpt><trkpt lat="46.1133867" lon="13.0528417"><ele>155.75</ele><time>2026-04-11T08:35:27.46Z</time></trkpt><trkpt lat="46.1134183" lon="13.052675"><ele>155.5</ele><time>2026-04-11T08:35:28.46Z</time></trkpt><trkpt lat="46.113445" lon="13.0525183"><ele>155.25</ele><time>2026-04-11T08:35:29.46Z</time></trkpt><trkpt lat="46.1134767" lon="13.05236"><ele>155.0</ele><time>2026-04-11T08:35:30.46Z</time></trkpt><trkpt lat="46.1135283" lon="13.0521933"><ele>155.0</ele><time>2026-04-11T08:35:31.459Z</time></trkpt><trkpt lat="46.1135867" lon="13.0520233"><ele>155.0</ele><time>2026-04-11T08:35:32.459Z</time></trkpt><trkpt lat="46.113645" lon="13.051895"><ele>155.0</ele><time>2026-04-11T08:35:33.46Z</time></trkpt><trkpt lat="46.113695" lon="13.051795"><ele>155.0</ele><time>2026-04-11T08:35:34.46Z</time></trkpt><trkpt lat="46.1137517" lon="13.0517033"><ele>155.0</ele><time>2026-04-11T08:35:35.46Z</time></trkpt><trkpt lat="46.11382" lon="13.051605"><ele>155.0</ele><time>2026-04-11T08:35:36.46Z</time></trkpt><trkpt lat="46.1138767" lon="13.0515383"><ele>155.0</ele><time>2026-04-11T08:35:37.459Z</time></trkpt><trkpt lat="46.1139417" lon="13.0514767"><ele>155.0</ele><time>2026-04-11T08:35:38.46Z</time></trkpt><trkpt lat="46.11401" lon="13.0514367"><ele>155.0</ele><time>2026-04-11T08:35:39.46Z</time></trkpt><trkpt lat="46.11408" lon="13.0514017"><ele>155.0</ele><time>2026-04-11T08:35:40.46Z</time></trkpt><trkpt lat="46.11414" lon="13.0513683"><ele>155.0</ele><time>2026-04-11T08:35:41.459Z</time></trkpt><trkpt lat="46.1142217" lon="13.0513267"><ele>155.6</ele><time>2026-04-11T08:35:43.459Z</time></trkpt><trkpt lat="46.114305" lon="13.051275"><ele>156.2</ele><time>2026-04-11T08:35:46.46Z</time></trkpt><trkpt lat="46.114375" lon="13.0512317"><ele>156.8</ele><time>2026-04-11T08:35:47.46Z</time></trkpt><trkpt lat="46.1144633" lon="13.0511767"><ele>157.4</ele><time>2026-04-11T08:35:48.46Z</time></trkpt><trkpt lat="46.11457" lon="13.0511"><ele>158.0</ele><time>2026-04-11T08:35:49.459Z</time></trkpt><trkpt lat="46.1147117" lon="13.0510233"><ele>158.0</ele><time>2026-04-11T08:35:50.46Z</time></trkpt><trkpt lat="46.1148583" lon="13.0509483"><ele>158.0</ele><time>2026-04-11T08:35:51.46Z</time></trkpt><trkpt lat="46.1149883" lon="13.0508817"><ele>158.0</ele><time>2026-04-11T08:35:52.46Z</time></trkpt><trkpt lat="46.11511" lon="13.05083"><ele>158.0</ele><time>2026-04-11T08:35:53.46Z</time></trkpt><trkpt lat="46.1152" lon="13.0507833"><ele>158.0</ele><time>2026-04-11T08:35:54.459Z</time></trkpt><trkpt lat="46.1152717" lon="13.0507417"><ele>158.0</ele><time>2026-04-11T08:35:55.459Z</time></trkpt><trkpt lat="46.1153367" lon="13.050705"><ele>158.0</ele><time>2026-04-11T08:35:56.46Z</time></trkpt><trkpt lat="46.1154583" lon="13.05065"><ele>158.0</ele><time>2026-04-11T08:35:58.46Z</time></trkpt><trkpt lat="46.1155233" lon="13.0506117"><ele>158.0</ele><time>2026-04-11T08:35:59.46Z</time></trkpt><trkpt lat="46.1156117" lon="13.0505617"><ele>158.0</ele><time>2026-04-11T08:36:00.46Z</time></trkpt><trkpt lat="46.1157133" lon="13.0505117"><ele>159.0</ele><time>2026-04-11T08:36:01.46Z</time></trkpt><trkpt lat="46.1158417" lon="13.050435"><ele>160.0</ele><time>2026-04-11T08:36:02.46Z</time></trkpt><trkpt lat="46.1159883" lon="13.050345"><ele>161.0</ele><time>2026-04-11T08:36:03.46Z</time></trkpt><trkpt lat="46.116165" lon="13.050245"><ele>161.0</ele><time>2026-04-11T08:36:04.46Z</time></trkpt><trkpt lat="46.1163567" lon="13.0501667"><ele>161.0</ele><time>2026-04-11T08:36:05.46Z</time></trkpt><trkpt lat="46.1165167" lon="13.0501233"><ele>161.0</ele><time>2026-04-11T08:36:06.459Z</time></trkpt><trkpt lat="46.1166683" lon="13.0500867"><ele>161.5</ele><time>2026-04-11T08:36:07.46Z</time></trkpt><trkpt lat="46.1168083" lon="13.0500683"><ele>162.0</ele><time>2026-04-11T08:36:08.46Z</time></trkpt><trkpt lat="46.11697" lon="13.050065"><ele>162.5</ele><time>2026-04-11T08:36:09.46Z</time></trkpt><trkpt lat="46.11711" lon="13.0500683"><ele>163.0</ele><time>2026-04-11T08:36:10.46Z</time></trkpt><trkpt lat="46.1172267" lon="13.050055"><ele>163.0</ele><time>2026-04-11T08:36:11.46Z</time></trkpt><trkpt lat="46.11732" lon="13.05003"><ele>163.0</ele><time>2026-04-11T08:36:12.459Z</time></trkpt><trkpt lat="46.11741" lon="13.049995"><ele>163.0</ele><time>2026-04-11T08:36:13.459Z</time></trkpt><trkpt lat="46.11749" lon="13.0499533"><ele>163.0</ele><time>2026-04-11T08:36:14.46Z</time></trkpt><trkpt lat="46.1175583" lon="13.04991"><ele>163.0</ele><time>2026-04-11T08:36:15.46Z</time></trkpt><trkpt lat="46.1176233" lon="13.0498467"><ele>163.0</ele><time>2026-04-11T08:36:16.46Z</time></trkpt><trkpt lat="46.1177017" lon="13.0497983"><ele>163.4</ele><time>2026-04-11T08:36:17.46Z</time></trkpt><trkpt lat="46.1177867" lon="13.049745"><ele>163.8</ele><time>2026-04-11T08:36:18.46Z</time></trkpt><trkpt lat="46.1178833" lon="13.0496783"><ele>164.2</ele><time>2026-04-11T08:36:19.46Z</time></trkpt><trkpt lat="46.1179933" lon="13.04961"><ele>164.6</ele><time>2026-04-11T08:36:20.46Z</time></trkpt><trkpt lat="46.1181067" lon="13.0495417"><ele>165.0</ele><time>2026-04-11T08:36:21.46Z</time></trkpt><trkpt lat="46.1182233" lon="13.0495017"><ele>165.75</ele><time>2026-04-11T08:36:22.46Z</time></trkpt><trkpt lat="46.118335" lon="13.0494367"><ele>166.5</ele><time>2026-04-11T08:36:23.46Z</time></trkpt><trkpt lat="46.118455" lon="13.0493783"><ele>167.25</ele><time>2026-04-11T08:36:24.46Z</time></trkpt><trkpt lat="46.1185783" lon="13.0493267"><ele>168.0</ele><time>2026-04-11T08:36:25.459Z</time></trkpt><trkpt lat="46.118725" lon="13.049305"><ele>168.0</ele><time>2026-04-11T08:36:26.46Z</time></trkpt><trkpt lat="46.1188617" lon="13.0492817"><ele>168.0</ele><time>2026-04-11T08:36:27.46Z</time></trkpt><trkpt lat="46.1189783" lon="13.0492733"><ele>168.0</ele><time>2026-04-11T08:36:28.46Z</time></trkpt><trkpt lat="46.1190833" lon="13.049275"><ele>168.0</ele><time>2026-04-11T08:36:29.46Z</time></trkpt><trkpt lat="46.1191733" lon="13.049305"><ele>168.4</ele><time>2026-04-11T08:36:30.46Z</time></trkpt><trkpt lat="46.11925" lon="13.0493733"><ele>168.8</ele><time>2026-04-11T08:36:31.46Z</time></trkpt><trkpt lat="46.1193183" lon="13.0494633"><ele>169.2</ele><time>2026-04-11T08:36:32.46Z</time></trkpt><trkpt lat="46.1193733" lon="13.0495983"><ele>169.6</ele><time>2026-04-11T08:36:33.46Z</time></trkpt><trkpt lat="46.1194317" lon="13.0497633"><ele>170.0</ele><time>2026-04-11T08:36:34.459Z</time></trkpt><trkpt lat="46.1194883" lon="13.0499267"><ele>170.0</ele><time>2026-04-11T08:36:35.46Z</time></trkpt><trkpt lat="46.1195517" lon="13.05009"><ele>170.0</ele><time>2026-04-11T08:36:36.46Z</time></trkpt><trkpt lat="46.1196283" lon="13.0502433"><ele>170.0</ele><time>2026-04-11T08:36:37.46Z</time></trkpt><trkpt lat="46.1197233" lon="13.050355"><ele>170.0</ele><time>2026-04-11T08:36:38.46Z</time></trkpt><trkpt lat="46.11982" lon="13.05044"><ele>170.8</ele><time>2026-04-11T08:36:39.46Z</time></trkpt><trkpt lat="46.11993" lon="13.0504917"><ele>171.6</ele><time>2026-04-11T08:36:40.459Z</time></trkpt><trkpt lat="46.120035" lon="13.0504967"><ele>172.39999999999998</ele><time>2026-04-11T08:36:41.46Z</time></trkpt><trkpt lat="46.1201383" lon="13.050475"><ele>173.2</ele><time>2026-04-11T08:36:42.459Z</time></trkpt><trkpt lat="46.12024" lon="13.0504317"><ele>174.0</ele><time>2026-04-11T08:36:43.46Z</time></trkpt><trkpt lat="46.1203333" lon="13.050355"><ele>174.0</ele><time>2026-04-11T08:36:44.46Z</time></trkpt><trkpt lat="46.1204067" lon="13.050265"><ele>174.0</ele><time>2026-04-11T08:36:45.46Z</time></trkpt><trkpt lat="46.120465" lon="13.0501767"><ele>174.0</ele><time>2026-04-11T08:36:46.459Z</time></trkpt><trkpt lat="46.1205217" lon="13.050115"><ele>174.0</ele><time>2026-04-11T08:36:47.46Z</time></trkpt><trkpt lat="46.1205967" lon="13.0500367"><ele>174.0</ele><time>2026-04-11T08:36:49.46Z</time></trkpt><trkpt lat="46.1206683" lon="13.0499433"><ele>174.0</ele><time>2026-04-11T08:36:51.46Z</time></trkpt><trkpt lat="46.1207233" lon="13.049885"><ele>174.6</ele><time>2026-04-11T08:36:52.46Z</time></trkpt><trkpt lat="46.1207867" lon="13.04982"><ele>175.2</ele><time>2026-04-11T08:36:53.46Z</time></trkpt><trkpt lat="46.120875" lon="13.04974"><ele>175.79999999999998</ele><time>2026-04-11T08:36:54.46Z</time></trkpt><trkpt lat="46.1209683" lon="13.04967"><ele>176.39999999999998</ele><time>2026-04-11T08:36:55.459Z</time></trkpt><trkpt lat="46.1210817" lon="13.04961"><ele>177.0</ele><time>2026-04-11T08:36:56.46Z</time></trkpt><trkpt lat="46.1212067" lon="13.0495417"><ele>177.0</ele><time>2026-04-11T08:36:57.46Z</time></trkpt><trkpt lat="46.1213433" lon="13.0494967"><ele>177.0</ele><time>2026-04-11T08:36:58.46Z</time></trkpt><trkpt lat="46.1214733" lon="13.0494217"><ele>177.0</ele><time>2026-04-11T08:36:59.46Z</time></trkpt><trkpt lat="46.1216183" lon="13.04932"><ele>177.0</ele><time>2026-04-11T08:37:00.459Z</time></trkpt><trkpt lat="46.1217633" lon="13.0492183"><ele>177.5</ele><time>2026-04-11T08:37:01.46Z</time></trkpt><trkpt lat="46.1219" lon="13.049125"><ele>178.0</ele><time>2026-04-11T08:37:02.459Z</time></trkpt><trkpt lat="46.12203" lon="13.04906"><ele>178.5</ele><time>2026-04-11T08:37:03.459Z</time></trkpt><trkpt lat="46.1221233" lon="13.0490317"><ele>179.0</ele><time>2026-04-11T08:37:04.46Z</time></trkpt><trkpt lat="46.1222017" lon="13.048975"><ele>179.0</ele><time>2026-04-11T08:37:05.459Z</time></trkpt><trkpt lat="46.1223033" lon="13.0489167"><ele>179.0</ele><time>2026-04-11T08:37:06.46Z</time></trkpt><trkpt lat="46.1224167" lon="13.048845"><ele>179.0</ele><time>2026-04-11T08:37:07.46Z</time></trkpt><trkpt lat="46.1225233" lon="13.0487617"><ele>179.0</ele><time>2026-04-11T08:37:08.459Z</time></trkpt><trkpt lat="46.1226333" lon="13.0486567"><ele>180.25</ele><time>2026-04-11T08:37:09.46Z</time></trkpt><trkpt lat="46.1227317" lon="13.0485517"><ele>181.5</ele><time>2026-04-11T08:37:10.46Z</time></trkpt><trkpt lat="46.1228217" lon="13.0484767"><ele>182.75</ele><time>2026-04-11T08:37:11.46Z</time></trkpt><trkpt lat="46.1229217" lon="13.0483983"><ele>184.0</ele><time>2026-04-11T08:37:12.46Z</time></trkpt><trkpt lat="46.1230167" lon="13.048305"><ele>184.5</ele><time>2026-04-11T08:37:13.46Z</time></trkpt><trkpt lat="46.1231233" lon="13.048215"><ele>185.0</ele><time>2026-04-11T08:37:14.46Z</time></trkpt><trkpt lat="46.1232433" lon="13.048115"><ele>185.5</ele><time>2026-04-11T08:37:15.46Z</time></trkpt><trkpt lat="46.1233583" lon="13.0480283"><ele>186.0</ele><time>2026-04-11T08:37:16.46Z</time></trkpt><trkpt lat="46.123475" lon="13.0479367"><ele>186.0</ele><time>2026-04-11T08:37:17.46Z</time></trkpt><trkpt lat="46.1235883" lon="13.0478317"><ele>186.0</ele><time>2026-04-11T08:37:18.46Z</time></trkpt><trkpt lat="46.12371" lon="13.04772"><ele>186.0</ele><time>2026-04-11T08:37:19.46Z</time></trkpt><trkpt lat="46.1238133" lon="13.04762"><ele>186.0</ele><time>2026-04-11T08:37:20.459Z</time></trkpt><trkpt lat="46.1239067" lon="13.0475583"><ele>186.0</ele><time>2026-04-11T08:37:21.459Z</time></trkpt><trkpt lat="46.1239883" lon="13.0474933"><ele>186.0</ele><time>2026-04-11T08:37:22.46Z</time></trkpt><trkpt lat="46.1240867" lon="13.0473867"><ele>186.0</ele><time>2026-04-11T08:37:23.46Z</time></trkpt><trkpt lat="46.124145" lon="13.047285"><ele>186.0</ele><time>2026-04-11T08:37:24.46Z</time></trkpt><trkpt lat="46.1241967" lon="13.0471617"><ele>186.0</ele><time>2026-04-11T08:37:25.46Z</time></trkpt><trkpt lat="46.1242683" lon="13.0470433"><ele>186.0</ele><time>2026-04-11T08:37:26.46Z</time></trkpt><trkpt lat="46.1243433" lon="13.0469267"><ele>186.0</ele><time>2026-04-11T08:37:27.46Z</time></trkpt><trkpt lat="46.1244017" lon="13.046815"><ele>186.0</ele><time>2026-04-11T08:37:28.46Z</time></trkpt><trkpt lat="46.1244733" lon="13.0466933"><ele>186.0</ele><time>2026-04-11T08:37:29.46Z</time></trkpt><trkpt lat="46.1245583" lon="13.0465767"><ele>186.0</ele><time>2026-04-11T08:37:30.46Z</time></trkpt><trkpt lat="46.12464" lon="13.0464667"><ele>186.0</ele><time>2026-04-11T08:37:31.46Z</time></trkpt><trkpt lat="46.1247133" lon="13.0463783"><ele>186.0</ele><time>2026-04-11T08:37:32.46Z</time></trkpt><trkpt lat="46.1247667" lon="13.046315"><ele>186.0</ele><time>2026-04-11T08:37:33.46Z</time></trkpt><trkpt lat="46.124855" lon="13.0462167"><ele>186.0</ele><time>2026-04-11T08:37:35.459Z</time></trkpt><trkpt lat="46.1249167" lon="13.046065"><ele>186.0</ele><time>2026-04-11T08:37:37.46Z</time></trkpt><trkpt lat="46.1249183" lon="13.045955"><ele>186.0</ele><time>2026-04-11T08:37:38.459Z</time></trkpt><trkpt lat="46.12488" lon="13.0458"><ele>186.0</ele><time>2026-04-11T08:37:39.46Z</time></trkpt><trkpt lat="46.1247933" lon="13.0456233"><ele>186.0</ele><time>2026-04-11T08:37:40.459Z</time></trkpt><trkpt lat="46.1246933" lon="13.0454067"><ele>186.0</ele><time>2026-04-11T08:37:41.459Z</time></trkpt><trkpt lat="46.124625" lon="13.045205"><ele>185.75</ele><time>2026-04-11T08:37:42.459Z</time></trkpt><trkpt lat="46.1245717" lon="13.0450167"><ele>185.5</ele><time>2026-04-11T08:37:43.46Z</time></trkpt><trkpt lat="46.1245167" lon="13.0448417"><ele>185.25</ele><time>2026-04-11T08:37:44.46Z</time></trkpt><trkpt lat="46.1244633" lon="13.04465"><ele>185.0</ele><time>2026-04-11T08:37:45.46Z</time></trkpt><trkpt lat="46.1244283" lon="13.04449"><ele>184.75</ele><time>2026-04-11T08:37:46.459Z</time></trkpt><trkpt lat="46.1243883" lon="13.04433"><ele>184.5</ele><time>2026-04-11T08:37:47.46Z</time></trkpt><trkpt lat="46.1243517" lon="13.0441633"><ele>184.25</ele><time>2026-04-11T08:37:48.46Z</time></trkpt><trkpt lat="46.1243083" lon="13.04399"><ele>184.0</ele><time>2026-04-11T08:37:49.46Z</time></trkpt><trkpt lat="46.1242617" lon="13.04382"><ele>183.75</ele><time>2026-04-11T08:37:50.46Z</time></trkpt><trkpt lat="46.124205" lon="13.0436483"><ele>183.5</ele><time>2026-04-11T08:37:51.459Z</time></trkpt><trkpt lat="46.1241633" lon="13.0434717"><ele>183.25</ele><time>2026-04-11T08:37:52.459Z</time></trkpt><trkpt lat="46.1241233" lon="13.0432983"><ele>183.0</ele><time>2026-04-11T08:37:53.46Z</time></trkpt><trkpt lat="46.1240767" lon="13.043115"><ele>181.75</ele><time>2026-04-11T08:37:54.459Z</time></trkpt><trkpt lat="46.1240383" lon="13.0429283"><ele>180.5</ele><time>2026-04-11T08:37:55.46Z</time></trkpt><trkpt lat="46.1239933" lon="13.0427467"><ele>179.25</ele><time>2026-04-11T08:37:56.459Z</time></trkpt><trkpt lat="46.12395" lon="13.0425883"><ele>178.0</ele><time>2026-04-11T08:37:57.459Z</time></trkpt><trkpt lat="46.123905" lon="13.04243"><ele>177.5</ele><time>2026-04-11T08:37:58.46Z</time></trkpt><trkpt lat="46.12386" lon="13.0422817"><ele>177.0</ele><time>2026-04-11T08:37:59.46Z</time></trkpt><trkpt lat="46.1238133" lon="13.04214"><ele>176.5</ele><time>2026-04-11T08:38:00.46Z</time></trkpt><trkpt lat="46.123765" lon="13.0419983"><ele>176.0</ele><time>2026-04-11T08:38:01.46Z</time></trkpt><trkpt lat="46.1237167" lon="13.0418217"><ele>176.0</ele><time>2026-04-11T08:38:02.46Z</time></trkpt><trkpt lat="46.1236983" lon="13.041655"><ele>176.0</ele><time>2026-04-11T08:38:03.46Z</time></trkpt><trkpt lat="46.1236817" lon="13.04149"><ele>176.0</ele><time>2026-04-11T08:38:04.46Z</time></trkpt><trkpt lat="46.1236717" lon="13.0413033"><ele>176.0</ele><time>2026-04-11T08:38:05.46Z</time></trkpt><trkpt lat="46.123665" lon="13.041105"><ele>175.33333333333331</ele><time>2026-04-11T08:38:06.459Z</time></trkpt><trkpt lat="46.123665" lon="13.0409"><ele>174.66666666666666</ele><time>2026-04-11T08:38:07.46Z</time></trkpt><trkpt lat="46.1236667" lon="13.04067"><ele>174.0</ele><time>2026-04-11T08:38:08.459Z</time></trkpt><trkpt lat="46.123635" lon="13.0404383"><ele>173.0</ele><time>2026-04-11T08:38:09.46Z</time></trkpt><trkpt lat="46.1236383" lon="13.0402067"><ele>172.0</ele><time>2026-04-11T08:38:10.46Z</time></trkpt><trkpt lat="46.12364" lon="13.039965"><ele>171.0</ele><time>2026-04-11T08:38:11.46Z</time></trkpt><trkpt lat="46.1236467" lon="13.0397267"><ele>170.0</ele><time>2026-04-11T08:38:12.46Z</time></trkpt><trkpt lat="46.123655" lon="13.0395017"><ele>169.0</ele><time>2026-04-11T08:38:13.459Z</time></trkpt><trkpt lat="46.1236817" lon="13.0392967"><ele>168.0</ele><time>2026-04-11T08:38:14.46Z</time></trkpt><trkpt lat="46.1236967" lon="13.0391217"><ele>167.0</ele><time>2026-04-11T08:38:15.46Z</time></trkpt><trkpt lat="46.12372" lon="13.0389333"><ele>167.0</ele><time>2026-04-11T08:38:16.46Z</time></trkpt><trkpt lat="46.123765" lon="13.0387517"><ele>167.0</ele><time>2026-04-11T08:38:17.46Z</time></trkpt><trkpt lat="46.12386" lon="13.0385817"><ele>167.0</ele><time>2026-04-11T08:38:18.46Z</time></trkpt><trkpt lat="46.1239733" lon="13.03841"><ele>167.0</ele><time>2026-04-11T08:38:19.46Z</time></trkpt><trkpt lat="46.1241217" lon="13.038275"><ele>168.0</ele><time>2026-04-11T08:38:20.46Z</time></trkpt><trkpt lat="46.1242583" lon="13.0381183"><ele>169.0</ele><time>2026-04-11T08:38:21.459Z</time></trkpt><trkpt lat="46.1243867" lon="13.037975"><ele>170.0</ele><time>2026-04-11T08:38:22.46Z</time></trkpt><trkpt lat="46.1245067" lon="13.0378367"><ele>170.0</ele><time>2026-04-11T08:38:23.46Z</time></trkpt><trkpt lat="46.1246117" lon="13.0377083"><ele>170.0</ele><time>2026-04-11T08:38:24.46Z</time></trkpt><trkpt lat="46.1247033" lon="13.03759"><ele>170.0</ele><time>2026-04-11T08:38:25.46Z</time></trkpt><trkpt lat="46.1247867" lon="13.0374883"><ele>170.0</ele><time>2026-04-11T08:38:26.46Z</time></trkpt><trkpt lat="46.124865" lon="13.0374067"><ele>170.33333333333331</ele><time>2026-04-11T08:38:27.46Z</time></trkpt><trkpt lat="46.1249217" lon="13.03734"><ele>170.66666666666666</ele><time>2026-04-11T08:38:28.46Z</time></trkpt><trkpt lat="46.1249733" lon="13.037285"><ele>171.0</ele><time>2026-04-11T08:38:29.459Z</time></trkpt><trkpt lat="46.12502" lon="13.0371783"><ele>171.33333333333334</ele><time>2026-04-11T08:38:31.46Z</time></trkpt><trkpt lat="46.1249783" lon="13.037025"><ele>171.66666666666669</ele><time>2026-04-11T08:38:33.459Z</time></trkpt><trkpt lat="46.1249183" lon="13.036935"><ele>172.0</ele><time>2026-04-11T08:38:34.46Z</time></trkpt><trkpt lat="46.1248467" lon="13.0368033"><ele>169.66666666666669</ele><time>2026-04-11T08:38:35.46Z</time></trkpt><trkpt lat="46.1247633" lon="13.0366317"><ele>167.33333333333334</ele><time>2026-04-11T08:38:36.459Z</time></trkpt><trkpt lat="46.1246717" lon="13.0364283"><ele>165.0</ele><time>2026-04-11T08:38:37.46Z</time></trkpt><trkpt lat="46.1245833" lon="13.03619"><ele>165.0</ele><time>2026-04-11T08:38:38.46Z</time></trkpt><trkpt lat="46.12447" lon="13.0359033"><ele>165.0</ele><time>2026-04-11T08:38:39.46Z</time></trkpt><trkpt lat="46.1243767" lon="13.0356383"><ele>165.0</ele><time>2026-04-11T08:38:40.459Z</time></trkpt><trkpt lat="46.1242883" lon="13.0353983"><ele>164.66666666666666</ele><time>2026-04-11T08:38:41.46Z</time></trkpt><trkpt lat="46.1242167" lon="13.035185"><ele>164.33333333333331</ele><time>2026-04-11T08:38:42.46Z</time></trkpt><trkpt lat="46.1241683" lon="13.0349617"><ele>164.0</ele><time>2026-04-11T08:38:43.46Z</time></trkpt><trkpt lat="46.1241217" lon="13.0347517"><ele>163.66666666666666</ele><time>2026-04-11T08:38:44.46Z</time></trkpt><trkpt lat="46.1240817" lon="13.0345267"><ele>163.33333333333334</ele><time>2026-04-11T08:38:45.459Z</time></trkpt><trkpt lat="46.12404" lon="13.03431"><ele>163.0</ele><time>2026-04-11T08:38:46.46Z</time></trkpt><trkpt lat="46.12401" lon="13.0340833"><ele>163.0</ele><time>2026-04-11T08:38:47.46Z</time></trkpt><trkpt lat="46.1239667" lon="13.0339017"><ele>163.0</ele><time>2026-04-11T08:38:48.46Z</time></trkpt><trkpt lat="46.12394" lon="13.033725"><ele>163.0</ele><time>2026-04-11T08:38:49.46Z</time></trkpt><trkpt lat="46.12392" lon="13.03356"><ele>163.0</ele><time>2026-04-11T08:38:50.46Z</time></trkpt><trkpt lat="46.1238967" lon="13.0334033"><ele>162.66666666666669</ele><time>2026-04-11T08:38:51.46Z</time></trkpt><trkpt lat="46.12387" lon="13.03326"><ele>162.33333333333334</ele><time>2026-04-11T08:38:52.459Z</time></trkpt><trkpt lat="46.123845" lon="13.03313"><ele>162.0</ele><time>2026-04-11T08:38:53.46Z</time></trkpt><trkpt lat="46.12382" lon="13.03302"><ele>161.66666666666666</ele><time>2026-04-11T08:38:54.46Z</time></trkpt><trkpt lat="46.1238017" lon="13.0329283"><ele>161.33333333333331</ele><time>2026-04-11T08:38:55.459Z</time></trkpt><trkpt lat="46.123795" lon="13.032785"><ele>161.0</ele><time>2026-04-11T08:38:57.46Z</time></trkpt><trkpt lat="46.123765" lon="13.0326933"><ele>161.0</ele><time>2026-04-11T08:39:03.46Z</time></trkpt><trkpt lat="46.123755" lon="13.0326"><ele>161.0</ele><time>2026-04-11T08:39:05.46Z</time></trkpt><trkpt lat="46.123725" lon="13.0323983"><ele>161.0</ele><time>2026-04-11T08:39:07.46Z</time></trkpt><trkpt lat="46.123695" lon="13.0322733"><ele>161.0</ele><time>2026-04-11T08:39:08.46Z</time></trkpt><trkpt lat="46.1236617" lon="13.0321533"><ele>161.0</ele><time>2026-04-11T08:39:09.46Z</time></trkpt><trkpt lat="46.1236267" lon="13.0320367"><ele>160.83333333333331</ele><time>2026-04-11T08:39:10.46Z</time></trkpt><trkpt lat="46.1235983" lon="13.031935"><ele>160.66666666666666</ele><time>2026-04-11T08:39:11.459Z</time></trkpt><trkpt lat="46.12355" lon="13.03178"><ele>160.5</ele><time>2026-04-11T08:39:13.459Z</time></trkpt><trkpt lat="46.12353" lon="13.0316917"><ele>160.33333333333334</ele><time>2026-04-11T08:39:14.46Z</time></trkpt><trkpt lat="46.123505" lon="13.0315917"><ele>160.16666666666669</ele><time>2026-04-11T08:39:15.46Z</time></trkpt><trkpt lat="46.12349" lon="13.031475"><ele>160.0</ele><time>2026-04-11T08:39:16.459Z</time></trkpt><trkpt lat="46.1234783" lon="13.0313583"><ele>159.8</ele><time>2026-04-11T08:39:17.46Z</time></trkpt><trkpt lat="46.1234683" lon="13.0312283"><ele>159.6</ele><time>2026-04-11T08:39:18.46Z</time></trkpt><trkpt lat="46.1234667" lon="13.0310933"><ele>159.4</ele><time>2026-04-11T08:39:19.46Z</time></trkpt><trkpt lat="46.1234733" lon="13.0309467"><ele>159.2</ele><time>2026-04-11T08:39:20.46Z</time></trkpt><trkpt lat="46.1234817" lon="13.03079"><ele>159.0</ele><time>2026-04-11T08:39:21.46Z</time></trkpt><trkpt lat="46.1234917" lon="13.0306267"><ele>158.75</ele><time>2026-04-11T08:39:22.459Z</time></trkpt><trkpt lat="46.1235117" lon="13.0304383"><ele>158.5</ele><time>2026-04-11T08:39:23.459Z</time></trkpt><trkpt lat="46.1235217" lon="13.0302533"><ele>158.25</ele><time>2026-04-11T08:39:24.46Z</time></trkpt><trkpt lat="46.1235417" lon="13.03008"><ele>158.0</ele><time>2026-04-11T08:39:25.46Z</time></trkpt><trkpt lat="46.123565" lon="13.0299067"><ele>157.8</ele><time>2026-04-11T08:39:26.46Z</time></trkpt><trkpt lat="46.123595" lon="13.0297283"><ele>157.60000000000002</ele><time>2026-04-11T08:39:27.46Z</time></trkpt><trkpt lat="46.12361" lon="13.0295767"><ele>157.39999999999998</ele><time>2026-04-11T08:39:28.46Z</time></trkpt><trkpt lat="46.1236317" lon="13.0294233"><ele>157.2</ele><time>2026-04-11T08:39:29.459Z</time></trkpt><trkpt lat="46.1236417" lon="13.0293067"><ele>157.0</ele><time>2026-04-11T08:39:30.46Z</time></trkpt><trkpt lat="46.1236517" lon="13.0292017"><ele>156.16666666666669</ele><time>2026-04-11T08:39:31.46Z</time></trkpt><trkpt lat="46.12366" lon="13.0291033"><ele>155.33333333333334</ele><time>2026-04-11T08:39:32.46Z</time></trkpt><trkpt lat="46.123665" lon="13.0289967"><ele>154.5</ele><time>2026-04-11T08:39:33.46Z</time></trkpt><trkpt lat="46.123675" lon="13.0288817"><ele>153.66666666666666</ele><time>2026-04-11T08:39:34.46Z</time></trkpt><trkpt lat="46.1236917" lon="13.0287667"><ele>152.83333333333331</ele><time>2026-04-11T08:39:35.459Z</time></trkpt><trkpt lat="46.1237083" lon="13.028675"><ele>152.0</ele><time>2026-04-11T08:39:36.46Z</time></trkpt><trkpt lat="46.1237233" lon="13.02855"><ele>152.0</ele><time>2026-04-11T08:39:38.46Z</time></trkpt><trkpt lat="46.1237617" lon="13.0284533"><ele>152.0</ele><time>2026-04-11T08:39:41.46Z</time></trkpt><trkpt lat="46.1238267" lon="13.028385"><ele>152.0</ele><time>2026-04-11T08:39:43.459Z</time></trkpt><trkpt lat="46.12395" lon="13.0283383"><ele>152.0</ele><time>2026-04-11T08:39:45.46Z</time></trkpt><trkpt lat="46.12402" lon="13.02831"><ele>152.0</ele><time>2026-04-11T08:39:46.459Z</time></trkpt><trkpt lat="46.1241017" lon="13.0282817"><ele>152.0</ele><time>2026-04-11T08:39:47.46Z</time></trkpt><trkpt lat="46.1242233" lon="13.0282467"><ele>150.4</ele><time>2026-04-11T08:39:48.46Z</time></trkpt><trkpt lat="46.12434" lon="13.028205"><ele>148.79999999999998</ele><time>2026-04-11T08:39:49.46Z</time></trkpt><trkpt lat="46.1244583" lon="13.0281683"><ele>147.2</ele><time>2026-04-11T08:39:50.459Z</time></trkpt><trkpt lat="46.1245633" lon="13.0281567"><ele>145.6</ele><time>2026-04-11T08:39:51.46Z</time></trkpt><trkpt lat="46.124665" lon="13.0281467"><ele>144.0</ele><time>2026-04-11T08:39:52.46Z</time></trkpt><trkpt lat="46.124755" lon="13.0281517"><ele>144.0</ele><time>2026-04-11T08:39:53.46Z</time></trkpt><trkpt lat="46.1248517" lon="13.028155"><ele>144.0</ele><time>2026-04-11T08:39:54.46Z</time></trkpt><trkpt lat="46.1249433" lon="13.0281733"><ele>144.0</ele><time>2026-04-11T08:39:55.46Z</time></trkpt><trkpt lat="46.1250183" lon="13.0281983"><ele>144.0</ele><time>2026-04-11T08:39:56.46Z</time></trkpt><trkpt lat="46.1250933" lon="13.02822"><ele>144.0</ele><time>2026-04-11T08:39:57.46Z</time></trkpt><trkpt lat="46.125165" lon="13.0282533"><ele>144.0</ele><time>2026-04-11T08:39:58.46Z</time></trkpt><trkpt lat="46.1252383" lon="13.0283317"><ele>146.6</ele><time>2026-04-11T08:39:59.459Z</time></trkpt><trkpt lat="46.1253017" lon="13.0284383"><ele>149.2</ele><time>2026-04-11T08:40:00.459Z</time></trkpt><trkpt lat="46.125345" lon="13.0285417"><ele>151.79999999999998</ele><time>2026-04-11T08:40:01.46Z</time></trkpt><trkpt lat="46.125365" lon="13.0286683"><ele>154.4</ele><time>2026-04-11T08:40:02.46Z</time></trkpt><trkpt lat="46.1253867" lon="13.02882"><ele>157.0</ele><time>2026-04-11T08:40:03.459Z</time></trkpt><trkpt lat="46.1254083" lon="13.0289517"><ele>157.0</ele><time>2026-04-11T08:40:04.46Z</time></trkpt><trkpt lat="46.1254267" lon="13.0290783"><ele>157.0</ele><time>2026-04-11T08:40:05.46Z</time></trkpt><trkpt lat="46.1254383" lon="13.02921"><ele>157.0</ele><time>2026-04-11T08:40:06.459Z</time></trkpt><trkpt lat="46.12547" lon="13.0293183"><ele>157.0</ele><time>2026-04-11T08:40:07.46Z</time></trkpt><trkpt lat="46.1254967" lon="13.0294167"><ele>157.0</ele><time>2026-04-11T08:40:08.46Z</time></trkpt><trkpt lat="46.1255117" lon="13.0295167"><ele>157.0</ele><time>2026-04-11T08:40:09.46Z</time></trkpt><trkpt lat="46.12553" lon="13.02964"><ele>157.0</ele><time>2026-04-11T08:40:11.46Z</time></trkpt><trkpt lat="46.1255217" lon="13.02951"><ele>157.0</ele><time>2026-04-11T08:40:18.46Z</time></trkpt><trkpt lat="46.1254967" lon="13.029375"><ele>157.0</ele><time>2026-04-11T08:40:19.46Z</time></trkpt><trkpt lat="46.1254583" lon="13.0291717"><ele>157.0</ele><time>2026-04-11T08:40:21.459Z</time></trkpt><trkpt lat="46.1254467" lon="13.0289867"><ele>157.0</ele><time>2026-04-11T08:40:22.46Z</time></trkpt><trkpt lat="46.1254117" lon="13.028795"><ele>157.0</ele><time>2026-04-11T08:40:23.459Z</time></trkpt><trkpt lat="46.1253783" lon="13.0286083"><ele>157.0</ele><time>2026-04-11T08:40:24.46Z</time></trkpt><trkpt lat="46.1253433" lon="13.02844"><ele>157.0</ele><time>2026-04-11T08:40:25.459Z</time></trkpt><trkpt lat="46.1253067" lon="13.0282667"><ele>154.75</ele><time>2026-04-11T08:40:26.459Z</time></trkpt><trkpt lat="46.1252783" lon="13.028075"><ele>152.5</ele><time>2026-04-11T08:40:27.46Z</time></trkpt><trkpt lat="46.12527" lon="13.0278867"><ele>150.25</ele><time>2026-04-11T08:40:28.46Z</time></trkpt><trkpt lat="46.1252567" lon="13.02771"><ele>148.0</ele><time>2026-04-11T08:40:29.46Z</time></trkpt><trkpt lat="46.1252567" lon="13.0275517"><ele>147.25</ele><time>2026-04-11T08:40:30.46Z</time></trkpt><trkpt lat="46.125245" lon="13.0273883"><ele>146.5</ele><time>2026-04-11T08:40:31.46Z</time></trkpt><trkpt lat="46.1252333" lon="13.0272183"><ele>145.75</ele><time>2026-04-11T08:40:32.459Z</time></trkpt><trkpt lat="46.125215" lon="13.0270467"><ele>145.0</ele><time>2026-04-11T08:40:33.46Z</time></trkpt><trkpt lat="46.1252033" lon="13.02688"><ele>145.0</ele><time>2026-04-11T08:40:34.459Z</time></trkpt><trkpt lat="46.1251783" lon="13.02673"><ele>145.0</ele><time>2026-04-11T08:40:35.46Z</time></trkpt><trkpt lat="46.12515" lon="13.026595"><ele>145.0</ele><time>2026-04-11T08:40:36.46Z</time></trkpt><trkpt lat="46.1251367" lon="13.0264783"><ele>145.0</ele><time>2026-04-11T08:40:37.459Z</time></trkpt><trkpt lat="46.12512" lon="13.0263717"><ele>145.0</ele><time>2026-04-11T08:40:38.46Z</time></trkpt><trkpt lat="46.1250967" lon="13.0262533"><ele>145.0</ele><time>2026-04-11T08:40:39.46Z</time></trkpt><trkpt lat="46.12507" lon="13.0261217"><ele>144.2</ele><time>2026-04-11T08:40:40.46Z</time></trkpt><trkpt lat="46.12505" lon="13.025985"><ele>143.4</ele><time>2026-04-11T08:40:41.46Z</time></trkpt><trkpt lat="46.125035" lon="13.0258483"><ele>142.6</ele><time>2026-04-11T08:40:42.46Z</time></trkpt><trkpt lat="46.125045" lon="13.0257233"><ele>141.8</ele><time>2026-04-11T08:40:43.459Z</time></trkpt><trkpt lat="46.125085" lon="13.0256083"><ele>141.0</ele><time>2026-04-11T08:40:44.459Z</time></trkpt><trkpt lat="46.1251433" lon="13.02548"><ele>140.2</ele><time>2026-04-11T08:40:45.458Z</time></trkpt><trkpt lat="46.125205" lon="13.0253567"><ele>139.39999999999998</ele><time>2026-04-11T08:40:46.458Z</time></trkpt><trkpt lat="46.1252683" lon="13.025235"><ele>138.6</ele><time>2026-04-11T08:40:47.458Z</time></trkpt><trkpt lat="46.1253317" lon="13.02513"><ele>137.79999999999998</ele><time>2026-04-11T08:40:48.459Z</time></trkpt><trkpt lat="46.1253917" lon="13.0250267"><ele>137.0</ele><time>2026-04-11T08:40:49.459Z</time></trkpt><trkpt lat="46.12544" lon="13.0249317"><ele>137.0</ele><time>2026-04-11T08:40:50.459Z</time></trkpt><trkpt lat="46.1254783" lon="13.0248417"><ele>137.0</ele><time>2026-04-11T08:40:51.459Z</time></trkpt><trkpt lat="46.1255033" lon="13.0246917"><ele>137.0</ele><time>2026-04-11T08:40:53.459Z</time></trkpt><trkpt lat="46.1254767" lon="13.0246067"><ele>137.0</ele><time>2026-04-11T08:40:54.458Z</time></trkpt><trkpt lat="46.125435" lon="13.02452"><ele>137.0</ele><time>2026-04-11T08:40:55.459Z</time></trkpt><trkpt lat="46.1254" lon="13.0244183"><ele>137.0</ele><time>2026-04-11T08:40:56.459Z</time></trkpt><trkpt lat="46.12537" lon="13.0243017"><ele>137.0</ele><time>2026-04-11T08:40:57.459Z</time></trkpt><trkpt lat="46.1253383" lon="13.024175"><ele>137.0</ele><time>2026-04-11T08:40:58.459Z</time></trkpt><trkpt lat="46.1253117" lon="13.0240467"><ele>137.0</ele><time>2026-04-11T08:40:59.459Z</time></trkpt><trkpt lat="46.12528" lon="13.02393"><ele>137.0</ele><time>2026-04-11T08:41:00.459Z</time></trkpt><trkpt lat="46.12525" lon="13.02383"><ele>137.0</ele><time>2026-04-11T08:41:01.459Z</time></trkpt><trkpt lat="46.1252267" lon="13.02373"><ele>137.0</ele><time>2026-04-11T08:41:02.459Z</time></trkpt><trkpt lat="46.125205" lon="13.0236267"><ele>136.66666666666666</ele><time>2026-04-11T08:41:03.459Z</time></trkpt><trkpt lat="46.1251883" lon="13.02352"><ele>136.33333333333331</ele><time>2026-04-11T08:41:04.459Z</time></trkpt><trkpt lat="46.1251767" lon="13.0234267"><ele>136.0</ele><time>2026-04-11T08:41:05.458Z</time></trkpt><trkpt lat="46.1251617" lon="13.023295"><ele>135.66666666666666</ele><time>2026-04-11T08:41:07.458Z</time></trkpt><trkpt lat="46.125135" lon="13.02313"><ele>135.33333333333334</ele><time>2026-04-11T08:41:09.459Z</time></trkpt><trkpt lat="46.1251217" lon="13.0230183"><ele>135.0</ele><time>2026-04-11T08:41:10.459Z</time></trkpt><trkpt lat="46.125105" lon="13.0229"><ele>135.0</ele><time>2026-04-11T08:41:11.459Z</time></trkpt><trkpt lat="46.1250817" lon="13.0227883"><ele>135.0</ele><time>2026-04-11T08:41:12.458Z</time></trkpt><trkpt lat="46.1250617" lon="13.022675"><ele>135.0</ele><time>2026-04-11T08:41:13.459Z</time></trkpt><trkpt lat="46.1250483" lon="13.0225817"><ele>135.0</ele><time>2026-04-11T08:41:14.458Z</time></trkpt><trkpt lat="46.1250433" lon="13.022485"><ele>135.0</ele><time>2026-04-11T08:41:15.459Z</time></trkpt><trkpt lat="46.12504" lon="13.0223867"><ele>135.0</ele><time>2026-04-11T08:41:16.459Z</time></trkpt><trkpt lat="46.1250483" lon="13.0222767"><ele>135.0</ele><time>2026-04-11T08:41:17.459Z</time></trkpt><trkpt lat="46.1250583" lon="13.02218"><ele>135.0</ele><time>2026-04-11T08:41:18.459Z</time></trkpt><trkpt lat="46.1250767" lon="13.022025"><ele>135.0</ele><time>2026-04-11T08:41:20.459Z</time></trkpt><trkpt lat="46.1250817" lon="13.021895"><ele>135.0</ele><time>2026-04-11T08:41:22.459Z</time></trkpt><trkpt lat="46.12508" lon="13.0217517"><ele>135.0</ele><time>2026-04-11T08:41:24.458Z</time></trkpt><trkpt lat="46.12507" lon="13.0216167"><ele>135.0</ele><time>2026-04-11T08:41:26.458Z</time></trkpt><trkpt lat="46.125055" lon="13.02146"><ele>135.0</ele><time>2026-04-11T08:41:29.458Z</time></trkpt><trkpt lat="46.1250467" lon="13.0213683"><ele>135.0</ele><time>2026-04-11T08:41:31.458Z</time></trkpt><trkpt lat="46.1250217" lon="13.0212367"><ele>135.0</ele><time>2026-04-11T08:41:33.459Z</time></trkpt><trkpt lat="46.1250017" lon="13.02108"><ele>135.0</ele><time>2026-04-11T08:41:35.459Z</time></trkpt><trkpt lat="46.1249833" lon="13.020985"><ele>135.0</ele><time>2026-04-11T08:41:36.458Z</time></trkpt><trkpt lat="46.1249717" lon="13.0208767"><ele>135.0</ele><time>2026-04-11T08:41:37.459Z</time></trkpt><trkpt lat="46.1249517" lon="13.02075"><ele>134.5</ele><time>2026-04-11T08:41:38.459Z</time></trkpt><trkpt lat="46.124915" lon="13.0206017"><ele>134.0</ele><time>2026-04-11T08:41:39.459Z</time></trkpt><trkpt lat="46.124865" lon="13.0204617"><ele>133.5</ele><time>2026-04-11T08:41:40.459Z</time></trkpt><trkpt lat="46.12484" lon="13.020345"><ele>133.0</ele><time>2026-04-11T08:41:41.459Z</time></trkpt><trkpt lat="46.1248017" lon="13.0202617"><ele>132.5</ele><time>2026-04-11T08:41:42.459Z</time></trkpt><trkpt lat="46.12477" lon="13.020175"><ele>132.0</ele><time>2026-04-11T08:41:43.458Z</time></trkpt><trkpt lat="46.1247483" lon="13.020075"><ele>132.16666666666666</ele><time>2026-04-11T08:41:44.459Z</time></trkpt><trkpt lat="46.1247333" lon="13.019975"><ele>132.33333333333334</ele><time>2026-04-11T08:41:45.459Z</time></trkpt><trkpt lat="46.1247117" lon="13.0198517"><ele>132.5</ele><time>2026-04-11T08:41:46.459Z</time></trkpt><trkpt lat="46.1246967" lon="13.01972"><ele>132.66666666666669</ele><time>2026-04-11T08:41:47.459Z</time></trkpt><trkpt lat="46.124675" lon="13.0195767"><ele>132.83333333333334</ele><time>2026-04-11T08:41:48.459Z</time></trkpt><trkpt lat="46.124655" lon="13.01945"><ele>133.0</ele><time>2026-04-11T08:41:49.459Z</time></trkpt><trkpt lat="46.1246367" lon="13.0193233"><ele>133.0</ele><time>2026-04-11T08:41:50.459Z</time></trkpt><trkpt lat="46.1246317" lon="13.0192183"><ele>133.0</ele><time>2026-04-11T08:41:51.459Z</time></trkpt><trkpt lat="46.1246833" lon="13.01909"><ele>133.0</ele><time>2026-04-11T08:41:53.459Z</time></trkpt><trkpt lat="46.1247383" lon="13.0190067"><ele>133.0</ele><time>2026-04-11T08:41:54.458Z</time></trkpt><trkpt lat="46.1247933" lon="13.018935"><ele>133.0</ele><time>2026-04-11T08:41:55.459Z</time></trkpt><trkpt lat="46.12487" lon="13.0188733"><ele>133.0</ele><time>2026-04-11T08:41:56.458Z</time></trkpt><trkpt lat="46.1249383" lon="13.018825"><ele>133.0</ele><time>2026-04-11T08:41:57.459Z</time></trkpt><trkpt lat="46.1251083" lon="13.0187117"><ele>133.0</ele><time>2026-04-11T08:41:58.459Z</time></trkpt><trkpt lat="46.1253733" lon="13.0185517"><ele>133.0</ele><time>2026-04-11T08:41:59.459Z</time></trkpt><trkpt lat="46.125665" lon="13.0184033"><ele>133.0</ele><time>2026-04-11T08:42:00.459Z</time></trkpt><trkpt lat="46.1259667" lon="13.01825"><ele>132.5</ele><time>2026-04-11T08:42:01.458Z</time></trkpt><trkpt lat="46.1262167" lon="13.0181083"><ele>132.0</ele><time>2026-04-11T08:42:02.459Z</time></trkpt><trkpt lat="46.12645" lon="13.017975"><ele>132.66666666666666</ele><time>2026-04-11T08:42:03.459Z</time></trkpt><trkpt lat="46.126655" lon="13.0178567"><ele>133.33333333333331</ele><time>2026-04-11T08:42:04.459Z</time></trkpt><trkpt lat="46.12683" lon="13.0177567"><ele>134.0</ele><time>2026-04-11T08:42:05.459Z</time></trkpt><trkpt lat="46.127" lon="13.0176683"><ele>134.0</ele><time>2026-04-11T08:42:06.459Z</time></trkpt><trkpt lat="46.12719" lon="13.0176067"><ele>134.0</ele><time>2026-04-11T08:42:07.459Z</time></trkpt><trkpt lat="46.1273917" lon="13.0175667"><ele>134.0</ele><time>2026-04-11T08:42:08.459Z</time></trkpt><trkpt lat="46.1276117" lon="13.01752"><ele>134.66666666666666</ele><time>2026-04-11T08:42:09.459Z</time></trkpt><trkpt lat="46.1277983" lon="13.01748"><ele>135.33333333333334</ele><time>2026-04-11T08:42:10.459Z</time></trkpt><trkpt lat="46.1279783" lon="13.017435"><ele>136.0</ele><time>2026-04-11T08:42:11.459Z</time></trkpt><trkpt lat="46.1281433" lon="13.0173933"><ele>136.0</ele><time>2026-04-11T08:42:12.458Z</time></trkpt><trkpt lat="46.1282833" lon="13.0173483"><ele>136.0</ele><time>2026-04-11T08:42:13.459Z</time></trkpt><trkpt lat="46.1283917" lon="13.017315"><ele>136.0</ele><time>2026-04-11T08:42:14.459Z</time></trkpt><trkpt lat="46.128485" lon="13.0173017"><ele>136.0</ele><time>2026-04-11T08:42:15.459Z</time></trkpt><trkpt lat="46.1285717" lon="13.01729"><ele>136.0</ele><time>2026-04-11T08:42:16.458Z</time></trkpt><trkpt lat="46.128635" lon="13.017265"><ele>136.0</ele><time>2026-04-11T08:42:17.458Z</time></trkpt><trkpt lat="46.12869" lon="13.0171667"><ele>136.0</ele><time>2026-04-11T08:42:19.459Z</time></trkpt><trkpt lat="46.1286767" lon="13.0170467"><ele>136.0</ele><time>2026-04-11T08:42:21.459Z</time></trkpt><trkpt lat="46.1286083" lon="13.01692"><ele>136.0</ele><time>2026-04-11T08:42:23.459Z</time></trkpt><trkpt lat="46.128555" lon="13.0168017"><ele>136.0</ele><time>2026-04-11T08:42:25.459Z</time></trkpt><trkpt lat="46.1285167" lon="13.0166517"><ele>136.2</ele><time>2026-04-11T08:42:27.459Z</time></trkpt><trkpt lat="46.12851" lon="13.0165367"><ele>136.39999999999998</ele><time>2026-04-11T08:42:29.458Z</time></trkpt><trkpt lat="46.1285583" lon="13.0164267"><ele>136.6</ele><time>2026-04-11T08:42:32.459Z</time></trkpt><trkpt lat="46.1286567" lon="13.016425"><ele>136.79999999999998</ele><time>2026-04-11T08:42:34.458Z</time></trkpt><trkpt lat="46.1287833" lon="13.0164317"><ele>137.0</ele><time>2026-04-11T08:42:36.459Z</time></trkpt><trkpt lat="46.1288533" lon="13.0164533"><ele>137.00000000000003</ele><time>2026-04-11T08:42:37.459Z</time></trkpt><trkpt lat="46.12893" lon="13.0164567"><ele>137.0</ele><time>2026-04-11T08:42:38.459Z</time></trkpt><trkpt lat="46.1290033" lon="13.0164833"><ele>137.0</ele><time>2026-04-11T08:42:39.459Z</time></trkpt><trkpt lat="46.1290717" lon="13.0165017"><ele>137.0</ele><time>2026-04-11T08:42:40.459Z</time></trkpt><trkpt lat="46.1291367" lon="13.0165167"><ele>137.0</ele><time>2026-04-11T08:42:41.459Z</time></trkpt><trkpt lat="46.1292" lon="13.016535"><ele>137.00000000000003</ele><time>2026-04-11T08:42:42.458Z</time></trkpt><trkpt lat="46.129265" lon="13.0165333"><ele>137.0</ele><time>2026-04-11T08:42:43.459Z</time></trkpt><trkpt lat="46.1293333" lon="13.016535"><ele>137.57142857142858</ele><time>2026-04-11T08:42:44.459Z</time></trkpt><trkpt lat="46.1294" lon="13.0165367"><ele>138.14285714285714</ele><time>2026-04-11T08:42:45.459Z</time></trkpt><trkpt lat="46.1294667" lon="13.01654"><ele>138.71428571428572</ele><time>2026-04-11T08:42:46.459Z</time></trkpt><trkpt lat="46.1295333" lon="13.01654"><ele>139.28571428571428</ele><time>2026-04-11T08:42:47.458Z</time></trkpt><trkpt lat="46.1295983" lon="13.0165383"><ele>139.85714285714286</ele><time>2026-04-11T08:42:48.458Z</time></trkpt><trkpt lat="46.129665" lon="13.0165283"><ele>140.42857142857144</ele><time>2026-04-11T08:42:49.459Z</time></trkpt><trkpt lat="46.1297317" lon="13.016515"><ele>141.0</ele><time>2026-04-11T08:42:50.459Z</time></trkpt><trkpt lat="46.1297983" lon="13.0164983"><ele>141.0</ele><time>2026-04-11T08:42:51.459Z</time></trkpt><trkpt lat="46.129865" lon="13.01647"><ele>141.0</ele><time>2026-04-11T08:42:52.459Z</time></trkpt><trkpt lat="46.1299283" lon="13.016445"><ele>141.0</ele><time>2026-04-11T08:42:53.458Z</time></trkpt><trkpt lat="46.129995" lon="13.016415"><ele>141.0</ele><time>2026-04-11T08:42:54.459Z</time></trkpt><trkpt lat="46.1300583" lon="13.0163883"><ele>141.0</ele><time>2026-04-11T08:42:55.458Z</time></trkpt><trkpt lat="46.1301783" lon="13.0163133"><ele>141.0</ele><time>2026-04-11T08:42:57.458Z</time></trkpt><trkpt lat="46.1302383" lon="13.0162717"><ele>141.0</ele><time>2026-04-11T08:42:58.459Z</time></trkpt><trkpt lat="46.1303483" lon="13.0161983"><ele>141.0</ele><time>2026-04-11T08:43:00.458Z</time></trkpt><trkpt lat="46.1304117" lon="13.0161583"><ele>141.0</ele><time>2026-04-11T08:43:01.458Z</time></trkpt><trkpt lat="46.13048" lon="13.0161183"><ele>141.0</ele><time>2026-04-11T08:43:02.459Z</time></trkpt><trkpt lat="46.1305417" lon="13.01607"><ele>141.0</ele><time>2026-04-11T08:43:03.459Z</time></trkpt><trkpt lat="46.13059" lon="13.0160067"><ele>141.0</ele><time>2026-04-11T08:43:04.458Z</time></trkpt><trkpt lat="46.1306317" lon="13.01593"><ele>140.6</ele><time>2026-04-11T08:43:05.459Z</time></trkpt><trkpt lat="46.1306633" lon="13.015755"><ele>140.2</ele><time>2026-04-11T08:43:07.459Z</time></trkpt><trkpt lat="46.130675" lon="13.0155667"><ele>139.8</ele><time>2026-04-11T08:43:09.459Z</time></trkpt><trkpt lat="46.1306733" lon="13.0154717"><ele>139.4</ele><time>2026-04-11T08:43:10.459Z</time></trkpt><trkpt lat="46.1306733" lon="13.0153683"><ele>139.0</ele><time>2026-04-11T08:43:11.459Z</time></trkpt><trkpt lat="46.13067" lon="13.0152683"><ele>139.0</ele><time>2026-04-11T08:43:12.459Z</time></trkpt><trkpt lat="46.13068" lon="13.0151083"><ele>139.0</ele><time>2026-04-11T08:43:14.459Z</time></trkpt><trkpt lat="46.1307" lon="13.0149533"><ele>139.0</ele><time>2026-04-11T08:43:16.459Z</time></trkpt><trkpt lat="46.1307183" lon="13.0148633"><ele>139.0</ele><time>2026-04-11T08:43:17.459Z</time></trkpt><trkpt lat="46.13075" lon="13.01469"><ele>139.0</ele><time>2026-04-11T08:43:19.459Z</time></trkpt><trkpt lat="46.1307717" lon="13.0145933"><ele>139.33333333333334</ele><time>2026-04-11T08:43:20.459Z</time></trkpt><trkpt lat="46.1307967" lon="13.0144833"><ele>139.66666666666669</ele><time>2026-04-11T08:43:21.458Z</time></trkpt><trkpt lat="46.1308267" lon="13.0143717"><ele>140.0</ele><time>2026-04-11T08:43:22.459Z</time></trkpt><trkpt lat="46.1308633" lon="13.014265"><ele>140.33333333333334</ele><time>2026-04-11T08:43:23.459Z</time></trkpt><trkpt lat="46.13089" lon="13.0141517"><ele>140.66666666666666</ele><time>2026-04-11T08:43:24.459Z</time></trkpt><trkpt lat="46.1309183" lon="13.01404"><ele>141.0</ele><time>2026-04-11T08:43:25.459Z</time></trkpt><trkpt lat="46.1309533" lon="13.01391"><ele>141.0</ele><time>2026-04-11T08:43:26.458Z</time></trkpt><trkpt lat="46.1309933" lon="13.01377"><ele>141.0</ele><time>2026-04-11T08:43:27.459Z</time></trkpt><trkpt lat="46.131025" lon="13.013635"><ele>141.0</ele><time>2026-04-11T08:43:28.458Z</time></trkpt><trkpt lat="46.1310567" lon="13.013515"><ele>141.0</ele><time>2026-04-11T08:43:29.459Z</time></trkpt><trkpt lat="46.131085" lon="13.0134067"><ele>141.0</ele><time>2026-04-11T08:43:30.459Z</time></trkpt><trkpt lat="46.131115" lon="13.0133083"><ele>141.0</ele><time>2026-04-11T08:43:31.459Z</time></trkpt><trkpt lat="46.1311367" lon="13.0132167"><ele>140.85714285714286</ele><time>2026-04-11T08:43:32.459Z</time></trkpt><trkpt lat="46.1311683" lon="13.0131083"><ele>140.71428571428572</ele><time>2026-04-11T08:43:33.459Z</time></trkpt><trkpt lat="46.1311933" lon="13.0130033"><ele>140.57142857142856</ele><time>2026-04-11T08:43:34.459Z</time></trkpt><trkpt lat="46.1312133" lon="13.0129083"><ele>140.42857142857144</ele><time>2026-04-11T08:43:35.459Z</time></trkpt><trkpt lat="46.13123" lon="13.01281"><ele>140.28571428571428</ele><time>2026-04-11T08:43:36.459Z</time></trkpt><trkpt lat="46.1312533" lon="13.0127017"><ele>140.14285714285714</ele><time>2026-04-11T08:43:37.459Z</time></trkpt><trkpt lat="46.13126" lon="13.0126067"><ele>140.0</ele><time>2026-04-11T08:43:38.459Z</time></trkpt><trkpt lat="46.1312717" lon="13.0125133"><ele>140.14285714285714</ele><time>2026-04-11T08:43:39.459Z</time></trkpt><trkpt lat="46.1312833" lon="13.0124167"><ele>140.28571428571428</ele><time>2026-04-11T08:43:40.458Z</time></trkpt><trkpt lat="46.1313033" lon="13.0123133"><ele>140.42857142857144</ele><time>2026-04-11T08:43:41.459Z</time></trkpt><trkpt lat="46.131315" lon="13.01221"><ele>140.57142857142856</ele><time>2026-04-11T08:43:42.459Z</time></trkpt><trkpt lat="46.1313283" lon="13.0121017"><ele>140.71428571428572</ele><time>2026-04-11T08:43:43.459Z</time></trkpt><trkpt lat="46.131345" lon="13.0119883"><ele>140.85714285714286</ele><time>2026-04-11T08:43:44.459Z</time></trkpt><trkpt lat="46.1313667" lon="13.0118917"><ele>141.0</ele><time>2026-04-11T08:43:45.458Z</time></trkpt><trkpt lat="46.131395" lon="13.01179"><ele>141.0</ele><time>2026-04-11T08:43:46.459Z</time></trkpt><trkpt lat="46.13142" lon="13.011685"><ele>141.0</ele><time>2026-04-11T08:43:47.459Z</time></trkpt><trkpt lat="46.1314367" lon="13.0115883"><ele>141.0</ele><time>2026-04-11T08:43:48.459Z</time></trkpt><trkpt lat="46.131455" lon="13.0114933"><ele>141.0</ele><time>2026-04-11T08:43:49.458Z</time></trkpt><trkpt lat="46.13147" lon="13.0113983"><ele>141.0</ele><time>2026-04-11T08:43:50.458Z</time></trkpt><trkpt lat="46.1314833" lon="13.01129"><ele>141.0</ele><time>2026-04-11T08:43:51.459Z</time></trkpt><trkpt lat="46.1315" lon="13.0111883"><ele>141.0</ele><time>2026-04-11T08:43:52.459Z</time></trkpt><trkpt lat="46.1315183" lon="13.0110983"><ele>141.0</ele><time>2026-04-11T08:43:53.458Z</time></trkpt><trkpt lat="46.13154" lon="13.01101"><ele>141.0</ele><time>2026-04-11T08:43:54.459Z</time></trkpt><trkpt lat="46.1315583" lon="13.0109117"><ele>141.0</ele><time>2026-04-11T08:43:55.459Z</time></trkpt><trkpt lat="46.1315783" lon="13.0108133"><ele>141.0</ele><time>2026-04-11T08:43:56.459Z</time></trkpt><trkpt lat="46.131595" lon="13.01072"><ele>141.0</ele><time>2026-04-11T08:43:57.459Z</time></trkpt><trkpt lat="46.1315967" lon="13.0106233"><ele>141.0</ele><time>2026-04-11T08:43:58.459Z</time></trkpt><trkpt lat="46.1315983" lon="13.01045"><ele>141.0</ele><time>2026-04-11T08:44:00.459Z</time></trkpt><trkpt lat="46.1316033" lon="13.0103033"><ele>141.0</ele><time>2026-04-11T08:44:02.459Z</time></trkpt><trkpt lat="46.1316283" lon="13.0101833"><ele>141.0</ele><time>2026-04-11T08:44:04.459Z</time></trkpt><trkpt lat="46.131645" lon="13.0100733"><ele>141.0</ele><time>2026-04-11T08:44:06.459Z</time></trkpt><trkpt lat="46.1316483" lon="13.00996"><ele>141.0</ele><time>2026-04-11T08:44:08.458Z</time></trkpt><trkpt lat="46.1316433" lon="13.0098417"><ele>141.0</ele><time>2026-04-11T08:44:10.459Z</time></trkpt><trkpt lat="46.1316433" lon="13.009735"><ele>141.0</ele><time>2026-04-11T08:44:12.459Z</time></trkpt><trkpt lat="46.1316417" lon="13.00963"><ele>141.0</ele><time>2026-04-11T08:44:14.459Z</time></trkpt><trkpt lat="46.1316383" lon="13.0095017"><ele>141.0</ele><time>2026-04-11T08:44:17.459Z</time></trkpt><trkpt lat="46.1316633" lon="13.00941"><ele>141.0</ele><time>2026-04-11T08:44:20.459Z</time></trkpt><trkpt lat="46.1317483" lon="13.0094567"><ele>141.0</ele><time>2026-04-11T08:44:23.459Z</time></trkpt><trkpt lat="46.131855" lon="13.00953"><ele>141.0</ele><time>2026-04-11T08:44:25.459Z</time></trkpt><trkpt lat="46.131925" lon="13.0095817"><ele>141.0</ele><time>2026-04-11T08:44:26.459Z</time></trkpt><trkpt lat="46.132005" lon="13.0096217"><ele>141.0</ele><time>2026-04-11T08:44:27.459Z</time></trkpt><trkpt lat="46.132085" lon="13.009665"><ele>141.0</ele><time>2026-04-11T08:44:28.459Z</time></trkpt><trkpt lat="46.1321533" lon="13.0097067"><ele>141.0</ele><time>2026-04-11T08:44:29.459Z</time></trkpt><trkpt lat="46.1322183" lon="13.00974"><ele>141.0</ele><time>2026-04-11T08:44:30.458Z</time></trkpt><trkpt lat="46.1323383" lon="13.0097983"><ele>141.0</ele><time>2026-04-11T08:44:32.459Z</time></trkpt><trkpt lat="46.1323983" lon="13.0098283"><ele>141.2</ele><time>2026-04-11T08:44:33.459Z</time></trkpt><trkpt lat="46.13252" lon="13.0099033"><ele>141.39999999999998</ele><time>2026-04-11T08:44:35.459Z</time></trkpt><trkpt lat="46.132585" lon="13.009945"><ele>141.6</ele><time>2026-04-11T08:44:36.459Z</time></trkpt><trkpt lat="46.132645" lon="13.00999"><ele>141.79999999999998</ele><time>2026-04-11T08:44:37.459Z</time></trkpt><trkpt lat="46.1327517" lon="13.010085"><ele>142.0</ele><time>2026-04-11T08:44:39.459Z</time></trkpt><trkpt lat="46.1328217" lon="13.010215"><ele>142.16666666666669</ele><time>2026-04-11T08:44:41.459Z</time></trkpt><trkpt lat="46.1328883" lon="13.01038"><ele>142.33333333333334</ele><time>2026-04-11T08:44:43.458Z</time></trkpt><trkpt lat="46.1329117" lon="13.01047"><ele>142.5</ele><time>2026-04-11T08:44:44.458Z</time></trkpt><trkpt lat="46.1329333" lon="13.01056"><ele>142.66666666666666</ele><time>2026-04-11T08:44:45.459Z</time></trkpt><trkpt lat="46.1329567" lon="13.0106467"><ele>142.83333333333331</ele><time>2026-04-11T08:44:46.459Z</time></trkpt><trkpt lat="46.13298" lon="13.0107917"><ele>143.0</ele><time>2026-04-11T08:44:48.459Z</time></trkpt><trkpt lat="46.1329933" lon="13.0109067"><ele>143.0</ele><time>2026-04-11T08:44:50.459Z</time></trkpt><trkpt lat="46.1330183" lon="13.0110117"><ele>143.0</ele><time>2026-04-11T08:44:52.459Z</time></trkpt><trkpt lat="46.133055" lon="13.0110883"><ele>143.0</ele><time>2026-04-11T08:44:53.459Z</time></trkpt><trkpt lat="46.1331117" lon="13.0111633"><ele>143.0</ele><time>2026-04-11T08:44:54.459Z</time></trkpt><trkpt lat="46.1331767" lon="13.011235"><ele>143.0</ele><time>2026-04-11T08:44:55.458Z</time></trkpt><trkpt lat="46.133235" lon="13.0113133"><ele>143.0</ele><time>2026-04-11T08:44:56.459Z</time></trkpt><trkpt lat="46.1332967" lon="13.011385"><ele>143.0</ele><time>2026-04-11T08:44:57.459Z</time></trkpt><trkpt lat="46.1333483" lon="13.0114433"><ele>143.0</ele><time>2026-04-11T08:44:58.459Z</time></trkpt><trkpt lat="46.1334417" lon="13.0115217"><ele>143.0</ele><time>2026-04-11T08:45:00.459Z</time></trkpt><trkpt lat="46.1334783" lon="13.0114217"><ele>143.0</ele><time>2026-04-11T08:45:03.458Z</time></trkpt><trkpt lat="46.133475" lon="13.011265"><ele>143.0</ele><time>2026-04-11T08:45:05.459Z</time></trkpt><trkpt lat="46.1334633" lon="13.0111633"><ele>143.0</ele><time>2026-04-11T08:45:06.459Z</time></trkpt><trkpt lat="46.1334633" lon="13.01105"><ele>143.0</ele><time>2026-04-11T08:45:07.459Z</time></trkpt><trkpt lat="46.13347" lon="13.0109267"><ele>143.0</ele><time>2026-04-11T08:45:08.458Z</time></trkpt><trkpt lat="46.1334867" lon="13.0108183"><ele>143.0</ele><time>2026-04-11T08:45:09.459Z</time></trkpt><trkpt lat="46.1334983" lon="13.0107117"><ele>143.0</ele><time>2026-04-11T08:45:10.459Z</time></trkpt><trkpt lat="46.1335067" lon="13.0105967"><ele>143.0</ele><time>2026-04-11T08:45:11.459Z</time></trkpt><trkpt lat="46.1335167" lon="13.0104817"><ele>143.0</ele><time>2026-04-11T08:45:12.459Z</time></trkpt><trkpt lat="46.133535" lon="13.0103767"><ele>143.20000000000002</ele><time>2026-04-11T08:45:13.459Z</time></trkpt><trkpt lat="46.1335533" lon="13.0102817"><ele>143.4</ele><time>2026-04-11T08:45:14.459Z</time></trkpt><trkpt lat="46.13359" lon="13.01011"><ele>143.60000000000002</ele><time>2026-04-11T08:45:16.459Z</time></trkpt><trkpt lat="46.13361" lon="13.01002"><ele>143.8</ele><time>2026-04-11T08:45:17.459Z</time></trkpt><trkpt lat="46.1336317" lon="13.0098583"><ele>144.0</ele><time>2026-04-11T08:45:19.459Z</time></trkpt><trkpt lat="46.1336283" lon="13.0097233"><ele>143.66666666666666</ele><time>2026-04-11T08:45:21.459Z</time></trkpt><trkpt lat="46.1336" lon="13.00958"><ele>143.33333333333334</ele><time>2026-04-11T08:45:23.459Z</time></trkpt><trkpt lat="46.13359" lon="13.0094867"><ele>143.0</ele><time>2026-04-11T08:45:25.459Z</time></trkpt><trkpt lat="46.1335917" lon="13.0093433"><ele>142.66666666666669</ele><time>2026-04-11T08:45:28.458Z</time></trkpt><trkpt lat="46.133575" lon="13.0092367"><ele>142.33333333333334</ele><time>2026-04-11T08:45:30.459Z</time></trkpt><trkpt lat="46.133555" lon="13.009105"><ele>142.0</ele><time>2026-04-11T08:45:32.458Z</time></trkpt><trkpt lat="46.133525" lon="13.0089817"><ele>142.79999999999998</ele><time>2026-04-11T08:45:34.458Z</time></trkpt><trkpt lat="46.1335083" lon="13.0088417"><ele>143.6</ele><time>2026-04-11T08:45:36.459Z</time></trkpt><trkpt lat="46.13349" lon="13.0086983"><ele>144.39999999999998</ele><time>2026-04-11T08:45:38.459Z</time></trkpt><trkpt lat="46.1334733" lon="13.0085533"><ele>145.2</ele><time>2026-04-11T08:45:40.459Z</time></trkpt><trkpt lat="46.133435" lon="13.0083933"><ele>146.0</ele><time>2026-04-11T08:45:42.459Z</time></trkpt><trkpt lat="46.1333933" lon="13.0082583"><ele>146.0</ele><time>2026-04-11T08:45:44.458Z</time></trkpt><trkpt lat="46.1334367" lon="13.0083333"><ele>146.0</ele><time>2026-04-11T08:46:20.459Z</time></trkpt><trkpt lat="46.1334483" lon="13.008435"><ele>146.0</ele><time>2026-04-11T08:46:22.459Z</time></trkpt><trkpt lat="46.1334733" lon="13.0085517"><ele>146.0</ele><time>2026-04-11T08:46:24.459Z</time></trkpt><trkpt lat="46.1334983" lon="13.0087"><ele>146.0</ele><time>2026-04-11T08:46:26.459Z</time></trkpt><trkpt lat="46.1335183" lon="13.008815"><ele>146.0</ele><time>2026-04-11T08:46:28.459Z</time></trkpt><trkpt lat="46.133545" lon="13.0089067"><ele>146.0</ele><time>2026-04-11T08:46:30.459Z</time></trkpt><trkpt lat="46.1335833" lon="13.0090033"><ele>146.0</ele><time>2026-04-11T08:46:32.459Z</time></trkpt><trkpt lat="46.13361" lon="13.0091183"><ele>146.0</ele><time>2026-04-11T08:46:35.459Z</time></trkpt><trkpt lat="46.1336517" lon="13.0092217"><ele>146.0</ele><time>2026-04-11T08:46:38.459Z</time></trkpt><trkpt lat="46.1336533" lon="13.00932"><ele>146.0</ele><time>2026-04-11T08:46:41.459Z</time></trkpt><trkpt lat="46.1337167" lon="13.0093517"><ele>146.0</ele><time>2026-04-11T08:46:52.459Z</time></trkpt><trkpt lat="46.133785" lon="13.0092733"><ele>145.2</ele><time>2026-04-11T08:46:55.459Z</time></trkpt><trkpt lat="46.133875" lon="13.0092383"><ele>144.39999999999998</ele><time>2026-04-11T08:46:57.458Z</time></trkpt><trkpt lat="46.1339767" lon="13.0092033"><ele>143.6</ele><time>2026-04-11T08:46:59.458Z</time></trkpt><trkpt lat="46.1340883" lon="13.0091783"><ele>142.79999999999998</ele><time>2026-04-11T08:47:01.459Z</time></trkpt><trkpt lat="46.1342" lon="13.0091633"><ele>142.0</ele><time>2026-04-11T08:47:03.459Z</time></trkpt><trkpt lat="46.1342933" lon="13.009145"><ele>143.6</ele><time>2026-04-11T08:47:05.458Z</time></trkpt><trkpt lat="46.13436" lon="13.00912"><ele>145.2</ele><time>2026-04-11T08:47:08.457Z</time></trkpt><trkpt lat="46.13441" lon="13.00919"><ele>146.8</ele><time>2026-04-11T08:47:11.458Z</time></trkpt><trkpt lat="46.1344533" lon="13.0093383"><ele>148.4</ele><time>2026-04-11T08:47:13.458Z</time></trkpt><trkpt lat="46.1345033" lon="13.0095367"><ele>150.0</ele><time>2026-04-11T08:47:15.457Z</time></trkpt><trkpt lat="46.1345417" lon="13.0096433"><ele>150.0</ele><time>2026-04-11T08:47:16.457Z</time></trkpt><trkpt lat="46.1345717" lon="13.0097483"><ele>150.0</ele><time>2026-04-11T08:47:17.457Z</time></trkpt><trkpt lat="46.1346117" lon="13.0098633"><ele>150.0</ele><time>2026-04-11T08:47:18.458Z</time></trkpt><trkpt lat="46.1346533" lon="13.0099733"><ele>150.0</ele><time>2026-04-11T08:47:19.458Z</time></trkpt><trkpt lat="46.1346883" lon="13.0100817"><ele>150.0</ele><time>2026-04-11T08:47:20.458Z</time></trkpt><trkpt lat="46.13472" lon="13.01017"><ele>150.0</ele><time>2026-04-11T08:47:21.458Z</time></trkpt><trkpt lat="46.1347467" lon="13.010255"><ele>150.0</ele><time>2026-04-11T08:47:22.457Z</time></trkpt><trkpt lat="46.1347667" lon="13.0103417"><ele>150.0</ele><time>2026-04-11T08:47:23.458Z</time></trkpt><trkpt lat="46.1347983" lon="13.0104383"><ele>150.0</ele><time>2026-04-11T08:47:25.458Z</time></trkpt><trkpt lat="46.1347933" lon="13.0103183"><ele>150.0</ele><time>2026-04-11T08:47:38.457Z</time></trkpt><trkpt lat="46.134765" lon="13.010195"><ele>150.0</ele><time>2026-04-11T08:47:40.457Z</time></trkpt><trkpt lat="46.134715" lon="13.0100217"><ele>150.0</ele><time>2026-04-11T08:47:42.458Z</time></trkpt><trkpt lat="46.1347" lon="13.0099333"><ele>150.0</ele><time>2026-04-11T08:47:43.458Z</time></trkpt><trkpt lat="46.13469" lon="13.0098383"><ele>150.0</ele><time>2026-04-11T08:47:44.458Z</time></trkpt><trkpt lat="46.1346417" lon="13.0096817"><ele>150.0</ele><time>2026-04-11T08:47:46.458Z</time></trkpt><trkpt lat="46.13461" lon="13.0095533"><ele>150.0</ele><time>2026-04-11T08:47:48.458Z</time></trkpt><trkpt lat="46.1345533" lon="13.00941"><ele>150.0</ele><time>2026-04-11T08:47:50.458Z</time></trkpt><trkpt lat="46.1345133" lon="13.0092833"><ele>151.66666666666666</ele><time>2026-04-11T08:47:52.457Z</time></trkpt><trkpt lat="46.1344667" lon="13.0091567"><ele>153.33333333333334</ele><time>2026-04-11T08:47:54.458Z</time></trkpt><trkpt lat="46.134435" lon="13.009075"><ele>155.0</ele><time>2026-04-11T08:47:55.458Z</time></trkpt><trkpt lat="46.1344033" lon="13.008965"><ele>156.66666666666669</ele><time>2026-04-11T08:47:56.458Z</time></trkpt><trkpt lat="46.1343667" lon="13.0088417"><ele>158.33333333333334</ele><time>2026-04-11T08:47:57.458Z</time></trkpt><trkpt lat="46.1343133" lon="13.008705"><ele>160.0</ele><time>2026-04-11T08:47:58.457Z</time></trkpt><trkpt lat="46.1342533" lon="13.00855"><ele>160.0</ele><time>2026-04-11T08:47:59.458Z</time></trkpt><trkpt lat="46.1341967" lon="13.0084017"><ele>160.0</ele><time>2026-04-11T08:48:00.458Z</time></trkpt><trkpt lat="46.1341333" lon="13.0082683"><ele>160.0</ele><time>2026-04-11T08:48:01.458Z</time></trkpt><trkpt lat="46.134085" lon="13.0081467"><ele>160.0</ele><time>2026-04-11T08:48:02.458Z</time></trkpt><trkpt lat="46.1340383" lon="13.008055"><ele>160.0</ele><time>2026-04-11T08:48:03.457Z</time></trkpt><trkpt lat="46.1339983" lon="13.00798"><ele>158.5</ele><time>2026-04-11T08:48:04.458Z</time></trkpt><trkpt lat="46.1339433" lon="13.0078383"><ele>157.0</ele><time>2026-04-11T08:48:06.458Z</time></trkpt><trkpt lat="46.1338917" lon="13.0076983"><ele>155.5</ele><time>2026-04-11T08:48:08.458Z</time></trkpt><trkpt lat="46.13381" lon="13.0075767"><ele>154.0</ele><time>2026-04-11T08:48:10.458Z</time></trkpt><trkpt lat="46.1337283" lon="13.0074367"><ele>154.0</ele><time>2026-04-11T08:48:12.458Z</time></trkpt><trkpt lat="46.1336583" lon="13.0072783"><ele>154.0</ele><time>2026-04-11T08:48:14.458Z</time></trkpt><trkpt lat="46.1335733" lon="13.0071417"><ele>154.0</ele><time>2026-04-11T08:48:16.458Z</time></trkpt><trkpt lat="46.13352" lon="13.0070717"><ele>154.0</ele><time>2026-04-11T08:48:17.458Z</time></trkpt><trkpt lat="46.133465" lon="13.007"><ele>154.0</ele><time>2026-04-11T08:48:18.457Z</time></trkpt><trkpt lat="46.1334167" lon="13.0069233"><ele>154.0</ele><time>2026-04-11T08:48:19.458Z</time></trkpt><trkpt lat="46.13337" lon="13.0068417"><ele>154.0</ele><time>2026-04-11T08:48:20.458Z</time></trkpt><trkpt lat="46.1333133" lon="13.00676"><ele>154.0</ele><time>2026-04-11T08:48:21.458Z</time></trkpt><trkpt lat="46.1332517" lon="13.006675"><ele>154.0</ele><time>2026-04-11T08:48:22.458Z</time></trkpt><trkpt lat="46.1331833" lon="13.0065783"><ele>154.0</ele><time>2026-04-11T08:48:23.457Z</time></trkpt><trkpt lat="46.13311" lon="13.006485"><ele>154.0</ele><time>2026-04-11T08:48:24.458Z</time></trkpt><trkpt lat="46.1330417" lon="13.0063883"><ele>153.8</ele><time>2026-04-11T08:48:25.458Z</time></trkpt><trkpt lat="46.1329767" lon="13.0062767"><ele>153.60000000000002</ele><time>2026-04-11T08:48:26.457Z</time></trkpt><trkpt lat="46.1329067" lon="13.0061817"><ele>153.4</ele><time>2026-04-11T08:48:27.458Z</time></trkpt><trkpt lat="46.13283" lon="13.0060867"><ele>153.20000000000002</ele><time>2026-04-11T08:48:28.457Z</time></trkpt><trkpt lat="46.1327633" lon="13.006"><ele>153.0</ele><time>2026-04-11T08:48:29.457Z</time></trkpt><trkpt lat="46.132695" lon="13.0059183"><ele>153.0</ele><time>2026-04-11T08:48:30.458Z</time></trkpt><trkpt lat="46.132625" lon="13.005845"><ele>153.0</ele><time>2026-04-11T08:48:31.458Z</time></trkpt><trkpt lat="46.13255" lon="13.0057783"><ele>153.0</ele><time>2026-04-11T08:48:32.457Z</time></trkpt><trkpt lat="46.1324733" lon="13.0057117"><ele>153.0</ele><time>2026-04-11T08:48:33.458Z</time></trkpt><trkpt lat="46.132385" lon="13.0056467"><ele>153.0</ele><time>2026-04-11T08:48:34.458Z</time></trkpt><trkpt lat="46.1323133" lon="13.0055633"><ele>152.20000000000002</ele><time>2026-04-11T08:48:35.458Z</time></trkpt><trkpt lat="46.1322467" lon="13.0054733"><ele>151.4</ele><time>2026-04-11T08:48:36.458Z</time></trkpt><trkpt lat="46.1321783" lon="13.0053817"><ele>150.60000000000002</ele><time>2026-04-11T08:48:37.458Z</time></trkpt><trkpt lat="46.13211" lon="13.0052817"><ele>149.8</ele><time>2026-04-11T08:48:38.458Z</time></trkpt><trkpt lat="46.1320517" lon="13.0051633"><ele>149.0</ele><time>2026-04-11T08:48:39.457Z</time></trkpt><trkpt lat="46.1320083" lon="13.00503"><ele>149.4</ele><time>2026-04-11T08:48:40.458Z</time></trkpt><trkpt lat="46.1319817" lon="13.0048867"><ele>149.8</ele><time>2026-04-11T08:48:41.458Z</time></trkpt><trkpt lat="46.1319733" lon="13.00474"><ele>150.2</ele><time>2026-04-11T08:48:42.457Z</time></trkpt><trkpt lat="46.1319633" lon="13.0046017"><ele>150.6</ele><time>2026-04-11T08:48:43.458Z</time></trkpt><trkpt lat="46.1319533" lon="13.00446"><ele>151.0</ele><time>2026-04-11T08:48:44.458Z</time></trkpt><trkpt lat="46.131945" lon="13.0043233"><ele>151.0</ele><time>2026-04-11T08:48:45.458Z</time></trkpt><trkpt lat="46.1319217" lon="13.004185"><ele>151.0</ele><time>2026-04-11T08:48:46.458Z</time></trkpt><trkpt lat="46.1318967" lon="13.004055"><ele>151.0</ele><time>2026-04-11T08:48:47.458Z</time></trkpt><trkpt lat="46.1318683" lon="13.0039367"><ele>151.0</ele><time>2026-04-11T08:48:48.457Z</time></trkpt><trkpt lat="46.1318533" lon="13.0038317"><ele>151.0</ele><time>2026-04-11T08:48:49.457Z</time></trkpt><trkpt lat="46.131845" lon="13.003735"><ele>151.0</ele><time>2026-04-11T08:48:50.458Z</time></trkpt><trkpt lat="46.1318417" lon="13.00363"><ele>151.83333333333334</ele><time>2026-04-11T08:48:51.458Z</time></trkpt><trkpt lat="46.131845" lon="13.0035383"><ele>152.66666666666669</ele><time>2026-04-11T08:48:52.458Z</time></trkpt><trkpt lat="46.1318967" lon="13.0034083"><ele>153.5</ele><time>2026-04-11T08:48:54.458Z</time></trkpt><trkpt lat="46.1319617" lon="13.0034733"><ele>154.33333333333334</ele><time>2026-04-11T08:48:59.457Z</time></trkpt><trkpt lat="46.1319433" lon="13.0035867"><ele>155.16666666666666</ele><time>2026-04-11T08:49:02.458Z</time></trkpt><trkpt lat="46.1319317" lon="13.0037383"><ele>156.0</ele><time>2026-04-11T08:49:05.458Z</time></trkpt><trkpt lat="46.1319167" lon="13.0038867"><ele>156.0</ele><time>2026-04-11T08:49:07.458Z</time></trkpt><trkpt lat="46.1319367" lon="13.004065"><ele>156.0</ele><time>2026-04-11T08:49:09.458Z</time></trkpt><trkpt lat="46.131965" lon="13.0041533"><ele>156.0</ele><time>2026-04-11T08:49:10.458Z</time></trkpt><trkpt lat="46.13204" lon="13.0042933"><ele>156.0</ele><time>2026-04-11T08:49:12.458Z</time></trkpt><trkpt lat="46.132105" lon="13.0043617"><ele>156.0</ele><time>2026-04-11T08:49:13.458Z</time></trkpt><trkpt lat="46.132205" lon="13.0044083"><ele>155.0</ele><time>2026-04-11T08:49:14.458Z</time></trkpt><trkpt lat="46.1323117" lon="13.004455"><ele>154.0</ele><time>2026-04-11T08:49:15.458Z</time></trkpt><trkpt lat="46.1324117" lon="13.004515"><ele>153.0</ele><time>2026-04-11T08:49:16.458Z</time></trkpt><trkpt lat="46.1325033" lon="13.0045583"><ele>152.0</ele><time>2026-04-11T08:49:17.458Z</time></trkpt><trkpt lat="46.1325933" lon="13.0046017"><ele>151.0</ele><time>2026-04-11T08:49:18.458Z</time></trkpt><trkpt lat="46.1326833" lon="13.0046483"><ele>153.6</ele><time>2026-04-11T08:49:19.458Z</time></trkpt><trkpt lat="46.1327733" lon="13.0047"><ele>156.2</ele><time>2026-04-11T08:49:20.458Z</time></trkpt><trkpt lat="46.13287" lon="13.0047517"><ele>158.79999999999998</ele><time>2026-04-11T08:49:21.458Z</time></trkpt><trkpt lat="46.132965" lon="13.00481"><ele>161.39999999999998</ele><time>2026-04-11T08:49:22.458Z</time></trkpt><trkpt lat="46.133055" lon="13.0048583"><ele>164.0</ele><time>2026-04-11T08:49:23.458Z</time></trkpt><trkpt lat="46.1331433" lon="13.00491"><ele>164.0</ele><time>2026-04-11T08:49:24.458Z</time></trkpt><trkpt lat="46.13323" lon="13.0049633"><ele>164.0</ele><time>2026-04-11T08:49:25.458Z</time></trkpt><trkpt lat="46.1333167" lon="13.0050183"><ele>164.0</ele><time>2026-04-11T08:49:26.458Z</time></trkpt><trkpt lat="46.1334033" lon="13.0050767"><ele>164.0</ele><time>2026-04-11T08:49:27.457Z</time></trkpt><trkpt lat="46.133485" lon="13.0051333"><ele>164.0</ele><time>2026-04-11T08:49:28.457Z</time></trkpt><trkpt lat="46.1335683" lon="13.005185"><ele>164.39999999999998</ele><time>2026-04-11T08:49:29.458Z</time></trkpt><trkpt lat="46.1336567" lon="13.005235"><ele>164.8</ele><time>2026-04-11T08:49:30.458Z</time></trkpt><trkpt lat="46.1337383" lon="13.0053"><ele>165.2</ele><time>2026-04-11T08:49:31.458Z</time></trkpt><trkpt lat="46.13382" lon="13.00536"><ele>165.60000000000002</ele><time>2026-04-11T08:49:32.458Z</time></trkpt><trkpt lat="46.1338983" lon="13.0054317"><ele>166.0</ele><time>2026-04-11T08:49:33.458Z</time></trkpt><trkpt lat="46.133985" lon="13.005495"><ele>166.20000000000002</ele><time>2026-04-11T08:49:34.458Z</time></trkpt><trkpt lat="46.1340717" lon="13.0055667"><ele>166.4</ele><time>2026-04-11T08:49:35.457Z</time></trkpt><trkpt lat="46.134155" lon="13.00564"><ele>166.6</ele><time>2026-04-11T08:49:36.458Z</time></trkpt><trkpt lat="46.13424" lon="13.005705"><ele>166.8</ele><time>2026-04-11T08:49:37.458Z</time></trkpt><trkpt lat="46.13432" lon="13.0057633"><ele>167.0</ele><time>2026-04-11T08:49:38.458Z</time></trkpt><trkpt lat="46.1343883" lon="13.00581"><ele>166.8</ele><time>2026-04-11T08:49:39.458Z</time></trkpt><trkpt lat="46.1344583" lon="13.0058583"><ele>166.6</ele><time>2026-04-11T08:49:40.458Z</time></trkpt><trkpt lat="46.1345267" lon="13.0059067"><ele>166.4</ele><time>2026-04-11T08:49:41.458Z</time></trkpt><trkpt lat="46.134625" lon="13.005995"><ele>166.20000000000002</ele><time>2026-04-11T08:49:43.458Z</time></trkpt><trkpt lat="46.1347033" lon="13.0061067"><ele>166.0</ele><time>2026-04-11T08:49:45.458Z</time></trkpt><trkpt lat="46.1347317" lon="13.0062"><ele>166.0</ele><time>2026-04-11T08:49:46.458Z</time></trkpt><trkpt lat="46.13475" lon="13.006295"><ele>166.0</ele><time>2026-04-11T08:49:47.458Z</time></trkpt><trkpt lat="46.1347533" lon="13.0064033"><ele>166.0</ele><time>2026-04-11T08:49:48.458Z</time></trkpt><trkpt lat="46.13475" lon="13.0065167"><ele>166.0</ele><time>2026-04-11T08:49:49.458Z</time></trkpt><trkpt lat="46.1347417" lon="13.006635"><ele>166.0</ele><time>2026-04-11T08:49:50.458Z</time></trkpt><trkpt lat="46.1347417" lon="13.0067483"><ele>166.0</ele><time>2026-04-11T08:49:51.458Z</time></trkpt><trkpt lat="46.1347483" lon="13.0068533"><ele>165.83333333333334</ele><time>2026-04-11T08:49:52.458Z</time></trkpt><trkpt lat="46.1347833" lon="13.007025"><ele>165.66666666666669</ele><time>2026-04-11T08:49:54.457Z</time></trkpt><trkpt lat="46.134825" lon="13.0071117"><ele>165.5</ele><time>2026-04-11T08:49:55.458Z</time></trkpt><trkpt lat="46.134875" lon="13.0071817"><ele>165.33333333333334</ele><time>2026-04-11T08:49:56.458Z</time></trkpt><trkpt lat="46.13493" lon="13.00725"><ele>165.16666666666666</ele><time>2026-04-11T08:49:57.458Z</time></trkpt><trkpt lat="46.1349933" lon="13.0072917"><ele>165.0</ele><time>2026-04-11T08:49:58.457Z</time></trkpt><trkpt lat="46.1350717" lon="13.0073433"><ele>165.5</ele><time>2026-04-11T08:49:59.457Z</time></trkpt><trkpt lat="46.1351517" lon="13.0073933"><ele>166.0</ele><time>2026-04-11T08:50:00.458Z</time></trkpt><trkpt lat="46.1352317" lon="13.00744"><ele>166.5</ele><time>2026-04-11T08:50:01.458Z</time></trkpt><trkpt lat="46.1353133" lon="13.0074767"><ele>167.0</ele><time>2026-04-11T08:50:02.458Z</time></trkpt><trkpt lat="46.135395" lon="13.0075167"><ele>167.5</ele><time>2026-04-11T08:50:03.458Z</time></trkpt><trkpt lat="46.135475" lon="13.0075567"><ele>168.0</ele><time>2026-04-11T08:50:04.457Z</time></trkpt><trkpt lat="46.1355533" lon="13.0075867"><ele>168.0</ele><time>2026-04-11T08:50:05.457Z</time></trkpt><trkpt lat="46.1356317" lon="13.007625"><ele>168.0</ele><time>2026-04-11T08:50:06.458Z</time></trkpt><trkpt lat="46.13571" lon="13.0076617"><ele>168.0</ele><time>2026-04-11T08:50:07.457Z</time></trkpt><trkpt lat="46.1357883" lon="13.007695"><ele>168.0</ele><time>2026-04-11T08:50:08.457Z</time></trkpt><trkpt lat="46.1358617" lon="13.007735"><ele>168.0</ele><time>2026-04-11T08:50:09.458Z</time></trkpt><trkpt lat="46.1359367" lon="13.0077767"><ele>168.0</ele><time>2026-04-11T08:50:10.457Z</time></trkpt><trkpt lat="46.1360167" lon="13.007805"><ele>168.33333333333334</ele><time>2026-04-11T08:50:11.458Z</time></trkpt><trkpt lat="46.1360933" lon="13.00784"><ele>168.66666666666666</ele><time>2026-04-11T08:50:12.458Z</time></trkpt><trkpt lat="46.1361683" lon="13.0078867"><ele>169.0</ele><time>2026-04-11T08:50:13.458Z</time></trkpt><trkpt lat="46.136245" lon="13.0079367"><ele>169.33333333333331</ele><time>2026-04-11T08:50:14.458Z</time></trkpt><trkpt lat="46.1363233" lon="13.0079867"><ele>169.66666666666666</ele><time>2026-04-11T08:50:15.458Z</time></trkpt><trkpt lat="46.1363933" lon="13.0080383"><ele>170.0</ele><time>2026-04-11T08:50:16.458Z</time></trkpt><trkpt lat="46.13647" lon="13.0080867"><ele>170.16666666666666</ele><time>2026-04-11T08:50:17.458Z</time></trkpt><trkpt lat="46.1365533" lon="13.0081217"><ele>170.33333333333331</ele><time>2026-04-11T08:50:18.458Z</time></trkpt><trkpt lat="46.1366317" lon="13.0081733"><ele>170.5</ele><time>2026-04-11T08:50:19.458Z</time></trkpt><trkpt lat="46.136705" lon="13.0082233"><ele>170.66666666666666</ele><time>2026-04-11T08:50:20.458Z</time></trkpt><trkpt lat="46.1367683" lon="13.0082667"><ele>170.83333333333334</ele><time>2026-04-11T08:50:21.458Z</time></trkpt><trkpt lat="46.1368783" lon="13.00834"><ele>171.0</ele><time>2026-04-11T08:50:23.458Z</time></trkpt><trkpt lat="46.136985" lon="13.008405"><ele>171.0</ele><time>2026-04-11T08:50:25.458Z</time></trkpt><trkpt lat="46.1370967" lon="13.00837"><ele>171.0</ele><time>2026-04-11T08:50:27.457Z</time></trkpt><trkpt lat="46.1371933" lon="13.0082717"><ele>171.0</ele><time>2026-04-11T08:50:29.458Z</time></trkpt><trkpt lat="46.1372367" lon="13.0081933"><ele>171.0</ele><time>2026-04-11T08:50:30.458Z</time></trkpt><trkpt lat="46.1372783" lon="13.0080883"><ele>171.0</ele><time>2026-04-11T08:50:31.458Z</time></trkpt><trkpt lat="46.1373233" lon="13.0079567"><ele>171.0</ele><time>2026-04-11T08:50:32.458Z</time></trkpt><trkpt lat="46.1373783" lon="13.007815"><ele>171.0</ele><time>2026-04-11T08:50:33.458Z</time></trkpt><trkpt lat="46.1374417" lon="13.0076733"><ele>171.0</ele><time>2026-04-11T08:50:34.458Z</time></trkpt><trkpt lat="46.13751" lon="13.0075283"><ele>171.0</ele><time>2026-04-11T08:50:35.458Z</time></trkpt><trkpt lat="46.13757" lon="13.0073817"><ele>171.0</ele><time>2026-04-11T08:50:36.458Z</time></trkpt><trkpt lat="46.1376267" lon="13.0072433"><ele>171.0</ele><time>2026-04-11T08:50:37.458Z</time></trkpt><trkpt lat="46.13769" lon="13.007115"><ele>171.0</ele><time>2026-04-11T08:50:38.457Z</time></trkpt><trkpt lat="46.13776" lon="13.007"><ele>171.0</ele><time>2026-04-11T08:50:39.457Z</time></trkpt><trkpt lat="46.1378383" lon="13.0068717"><ele>171.0</ele><time>2026-04-11T08:50:40.458Z</time></trkpt><trkpt lat="46.137905" lon="13.0067367"><ele>170.75</ele><time>2026-04-11T08:50:41.457Z</time></trkpt><trkpt lat="46.1379683" lon="13.0065933"><ele>170.5</ele><time>2026-04-11T08:50:42.458Z</time></trkpt><trkpt lat="46.1380367" lon="13.0064683"><ele>170.25</ele><time>2026-04-11T08:50:43.458Z</time></trkpt><trkpt lat="46.138105" lon="13.0063417"><ele>170.0</ele><time>2026-04-11T08:50:44.458Z</time></trkpt><trkpt lat="46.1381833" lon="13.006215"><ele>170.0</ele><time>2026-04-11T08:50:45.458Z</time></trkpt><trkpt lat="46.1382833" lon="13.006075"><ele>170.0</ele><time>2026-04-11T08:50:46.457Z</time></trkpt><trkpt lat="46.138395" lon="13.0059233"><ele>170.0</ele><time>2026-04-11T08:50:47.458Z</time></trkpt><trkpt lat="46.1385133" lon="13.00579"><ele>170.0</ele><time>2026-04-11T08:50:48.458Z</time></trkpt><trkpt lat="46.1386183" lon="13.0056633"><ele>170.0</ele><time>2026-04-11T08:50:49.458Z</time></trkpt><trkpt lat="46.138725" lon="13.0055367"><ele>170.0</ele><time>2026-04-11T08:50:50.458Z</time></trkpt><trkpt lat="46.1388133" lon="13.0054317"><ele>170.0</ele><time>2026-04-11T08:50:51.458Z</time></trkpt><trkpt lat="46.13891" lon="13.0053217"><ele>170.0</ele><time>2026-04-11T08:50:52.457Z</time></trkpt><trkpt lat="46.1389933" lon="13.00521"><ele>169.6</ele><time>2026-04-11T08:50:53.457Z</time></trkpt><trkpt lat="46.1390633" lon="13.0051083"><ele>169.2</ele><time>2026-04-11T08:50:54.458Z</time></trkpt><trkpt lat="46.1391467" lon="13.0049983"><ele>168.8</ele><time>2026-04-11T08:50:55.458Z</time></trkpt><trkpt lat="46.139225" lon="13.0048817"><ele>168.4</ele><time>2026-04-11T08:50:56.458Z</time></trkpt><trkpt lat="46.1392983" lon="13.0047617"><ele>168.0</ele><time>2026-04-11T08:50:57.458Z</time></trkpt><trkpt lat="46.1393633" lon="13.004635"><ele>167.75</ele><time>2026-04-11T08:50:58.458Z</time></trkpt><trkpt lat="46.1394317" lon="13.00451"><ele>167.5</ele><time>2026-04-11T08:50:59.457Z</time></trkpt><trkpt lat="46.1395017" lon="13.0043683"><ele>167.25</ele><time>2026-04-11T08:51:00.458Z</time></trkpt><trkpt lat="46.1395867" lon="13.0042117"><ele>167.0</ele><time>2026-04-11T08:51:01.457Z</time></trkpt><trkpt lat="46.13967" lon="13.00406"><ele>167.0</ele><time>2026-04-11T08:51:02.458Z</time></trkpt><trkpt lat="46.139745" lon="13.0039317"><ele>167.0</ele><time>2026-04-11T08:51:03.457Z</time></trkpt><trkpt lat="46.1398167" lon="13.00381"><ele>167.0</ele><time>2026-04-11T08:51:04.458Z</time></trkpt><trkpt lat="46.1398767" lon="13.00369"><ele>167.0</ele><time>2026-04-11T08:51:05.458Z</time></trkpt><trkpt lat="46.1399283" lon="13.00358"><ele>167.0</ele><time>2026-04-11T08:51:06.458Z</time></trkpt><trkpt lat="46.1399933" lon="13.0034783"><ele>167.2</ele><time>2026-04-11T08:51:07.458Z</time></trkpt><trkpt lat="46.1400583" lon="13.0033817"><ele>167.39999999999998</ele><time>2026-04-11T08:51:08.458Z</time></trkpt><trkpt lat="46.1400967" lon="13.0033033"><ele>167.60000000000002</ele><time>2026-04-11T08:51:09.458Z</time></trkpt><trkpt lat="46.1401667" lon="13.0031633"><ele>167.8</ele><time>2026-04-11T08:51:11.458Z</time></trkpt><trkpt lat="46.1402383" lon="13.00302"><ele>168.0</ele><time>2026-04-11T08:51:13.457Z</time></trkpt><trkpt lat="46.1402983" lon="13.0029017"><ele>168.0</ele><time>2026-04-11T08:51:15.458Z</time></trkpt><trkpt lat="46.1403433" lon="13.002835"><ele>168.0</ele><time>2026-04-11T08:51:17.457Z</time></trkpt><trkpt lat="46.1404117" lon="13.0028317"><ele>168.0</ele><time>2026-04-11T08:51:20.458Z</time></trkpt><trkpt lat="46.14043" lon="13.0029817"><ele>168.0</ele><time>2026-04-11T08:51:22.458Z</time></trkpt><trkpt lat="46.1404383" lon="13.0030767"><ele>168.0</ele><time>2026-04-11T08:51:23.458Z</time></trkpt><trkpt lat="46.1404367" lon="13.00319"><ele>168.0</ele><time>2026-04-11T08:51:24.458Z</time></trkpt><trkpt lat="46.1404333" lon="13.0033"><ele>168.16666666666666</ele><time>2026-04-11T08:51:25.458Z</time></trkpt><trkpt lat="46.1404267" lon="13.0033967"><ele>168.33333333333334</ele><time>2026-04-11T08:51:26.458Z</time></trkpt><trkpt lat="46.140425" lon="13.0035167"><ele>168.5</ele><time>2026-04-11T08:51:28.458Z</time></trkpt><trkpt lat="46.1405333" lon="13.003455"><ele>168.66666666666669</ele><time>2026-04-11T08:51:34.457Z</time></trkpt><trkpt lat="46.1405883" lon="13.00341"><ele>168.83333333333334</ele><time>2026-04-11T08:51:35.458Z</time></trkpt><trkpt lat="46.1406733" lon="13.0033617"><ele>169.0</ele><time>2026-04-11T08:51:37.458Z</time></trkpt><trkpt lat="46.1407633" lon="13.00338"><ele>169.33333333333334</ele><time>2026-04-11T08:51:39.458Z</time></trkpt><trkpt lat="46.14085" lon="13.0034083"><ele>169.66666666666669</ele><time>2026-04-11T08:51:41.458Z</time></trkpt><trkpt lat="46.1409317" lon="13.0034533"><ele>170.0</ele><time>2026-04-11T08:51:43.458Z</time></trkpt><trkpt lat="46.1410183" lon="13.0035117"><ele>170.33333333333334</ele><time>2026-04-11T08:51:45.458Z</time></trkpt><trkpt lat="46.1410917" lon="13.003565"><ele>170.66666666666666</ele><time>2026-04-11T08:51:46.458Z</time></trkpt><trkpt lat="46.1411533" lon="13.0036367"><ele>171.0</ele><time>2026-04-11T08:51:47.457Z</time></trkpt><trkpt lat="46.141205" lon="13.0037"><ele>171.0</ele><time>2026-04-11T08:51:48.458Z</time></trkpt><trkpt lat="46.1412767" lon="13.0037933"><ele>171.0</ele><time>2026-04-11T08:51:50.458Z</time></trkpt><trkpt lat="46.1413433" lon="13.0038267"><ele>171.0</ele><time>2026-04-11T08:51:53.458Z</time></trkpt><trkpt lat="46.1413667" lon="13.00372"><ele>171.0</ele><time>2026-04-11T08:52:23.457Z</time></trkpt><trkpt lat="46.14128" lon="13.0035917"><ele>171.0</ele><time>2026-04-11T08:52:25.457Z</time></trkpt><trkpt lat="46.141215" lon="13.003525"><ele>171.0</ele><time>2026-04-11T08:52:26.458Z</time></trkpt><trkpt lat="46.1411333" lon="13.0034433"><ele>171.0</ele><time>2026-04-11T08:52:27.457Z</time></trkpt><trkpt lat="46.1410433" lon="13.0033483"><ele>171.0</ele><time>2026-04-11T08:52:28.458Z</time></trkpt><trkpt lat="46.1409617" lon="13.00325"><ele>171.0</ele><time>2026-04-11T08:52:29.458Z</time></trkpt><trkpt lat="46.14089" lon="13.003165"><ele>171.0</ele><time>2026-04-11T08:52:30.458Z</time></trkpt><trkpt lat="46.1407983" lon="13.00311"><ele>171.0</ele><time>2026-04-11T08:52:31.457Z</time></trkpt><trkpt lat="46.1407167" lon="13.0030633"><ele>170.66666666666666</ele><time>2026-04-11T08:52:32.458Z</time></trkpt><trkpt lat="46.140635" lon="13.00306"><ele>170.33333333333334</ele><time>2026-04-11T08:52:33.458Z</time></trkpt><trkpt lat="46.1405533" lon="13.003095"><ele>170.0</ele><time>2026-04-11T08:52:34.458Z</time></trkpt><trkpt lat="46.14049" lon="13.0031767"><ele>169.66666666666669</ele><time>2026-04-11T08:52:35.457Z</time></trkpt><trkpt lat="46.1404467" lon="13.0032783"><ele>169.33333333333334</ele><time>2026-04-11T08:52:36.457Z</time></trkpt><trkpt lat="46.1404133" lon="13.003425"><ele>169.0</ele><time>2026-04-11T08:52:37.458Z</time></trkpt><trkpt lat="46.140375" lon="13.003575"><ele>169.0</ele><time>2026-04-11T08:52:38.458Z</time></trkpt><trkpt lat="46.1403383" lon="13.0037183"><ele>169.0</ele><time>2026-04-11T08:52:39.457Z</time></trkpt><trkpt lat="46.1403017" lon="13.00385"><ele>169.0</ele><time>2026-04-11T08:52:40.458Z</time></trkpt><trkpt lat="46.140265" lon="13.0039767"><ele>169.0</ele><time>2026-04-11T08:52:41.457Z</time></trkpt><trkpt lat="46.1402383" lon="13.0040867"><ele>169.0</ele><time>2026-04-11T08:52:42.457Z</time></trkpt><trkpt lat="46.1402267" lon="13.0041917"><ele>169.16666666666669</ele><time>2026-04-11T08:52:43.457Z</time></trkpt><trkpt lat="46.1402267" lon="13.0043083"><ele>169.33333333333334</ele><time>2026-04-11T08:52:44.457Z</time></trkpt><trkpt lat="46.1402317" lon="13.0044167"><ele>169.5</ele><time>2026-04-11T08:52:45.457Z</time></trkpt><trkpt lat="46.1402517" lon="13.0045083"><ele>169.66666666666666</ele><time>2026-04-11T08:52:46.456Z</time></trkpt><trkpt lat="46.14029" lon="13.00466"><ele>169.83333333333331</ele><time>2026-04-11T08:52:48.457Z</time></trkpt><trkpt lat="46.14034" lon="13.0047817"><ele>170.0</ele><time>2026-04-11T08:52:50.457Z</time></trkpt><trkpt lat="46.1403983" lon="13.00486"><ele>170.0</ele><time>2026-04-11T08:52:52.457Z</time></trkpt><trkpt lat="46.1404517" lon="13.00492"><ele>170.0</ele><time>2026-04-11T08:52:54.457Z</time></trkpt><trkpt lat="46.1404217" lon="13.00479"><ele>170.0</ele><time>2026-04-11T08:53:00.457Z</time></trkpt><trkpt lat="46.1403683" lon="13.0046683"><ele>170.0</ele><time>2026-04-11T08:53:02.456Z</time></trkpt><trkpt lat="46.1403083" lon="13.00453"><ele>170.0</ele><time>2026-04-11T08:53:04.457Z</time></trkpt><trkpt lat="46.1402783" lon="13.00441"><ele>170.0</ele><time>2026-04-11T08:53:06.457Z</time></trkpt><trkpt lat="46.1402867" lon="13.0043"><ele>170.0</ele><time>2026-04-11T08:53:08.457Z</time></trkpt><trkpt lat="46.1402917" lon="13.0041967"><ele>170.0</ele><time>2026-04-11T08:53:10.457Z</time></trkpt><trkpt lat="46.1402933" lon="13.0040967"><ele>170.0</ele><time>2026-04-11T08:53:12.457Z</time></trkpt><trkpt lat="46.140315" lon="13.0039783"><ele>170.0</ele><time>2026-04-11T08:53:14.456Z</time></trkpt><trkpt lat="46.1403533" lon="13.0038483"><ele>170.0</ele><time>2026-04-11T08:53:16.457Z</time></trkpt><trkpt lat="46.1403967" lon="13.0037033"><ele>169.8</ele><time>2026-04-11T08:53:18.457Z</time></trkpt><trkpt lat="46.14045" lon="13.0035667"><ele>169.6</ele><time>2026-04-11T08:53:20.457Z</time></trkpt><trkpt lat="46.1405183" lon="13.00345"><ele>169.39999999999998</ele><time>2026-04-11T08:53:22.457Z</time></trkpt><trkpt lat="46.1406167" lon="13.00336"><ele>169.2</ele><time>2026-04-11T08:53:24.456Z</time></trkpt><trkpt lat="46.1406783" lon="13.0033217"><ele>169.0</ele><time>2026-04-11T08:53:25.457Z</time></trkpt><trkpt lat="46.1407583" lon="13.0033"><ele>169.5</ele><time>2026-04-11T08:53:26.457Z</time></trkpt><trkpt lat="46.1408433" lon="13.0032917"><ele>170.0</ele><time>2026-04-11T08:53:27.457Z</time></trkpt><trkpt lat="46.1409433" lon="13.00333"><ele>170.5</ele><time>2026-04-11T08:53:28.457Z</time></trkpt><trkpt lat="46.14106" lon="13.0034167"><ele>171.0</ele><time>2026-04-11T08:53:29.457Z</time></trkpt><trkpt lat="46.1411867" lon="13.0035683"><ele>171.0</ele><time>2026-04-11T08:53:30.457Z</time></trkpt><trkpt lat="46.1413483" lon="13.00375"><ele>171.0</ele><time>2026-04-11T08:53:31.457Z</time></trkpt><trkpt lat="46.1415233" lon="13.0039467"><ele>171.0</ele><time>2026-04-11T08:53:32.456Z</time></trkpt><trkpt lat="46.141705" lon="13.00415"><ele>171.33333333333334</ele><time>2026-04-11T08:53:33.457Z</time></trkpt><trkpt lat="46.14188" lon="13.0043467"><ele>171.66666666666669</ele><time>2026-04-11T08:53:34.457Z</time></trkpt><trkpt lat="46.14204" lon="13.0045383"><ele>172.0</ele><time>2026-04-11T08:53:35.456Z</time></trkpt><trkpt lat="46.1421867" lon="13.0046983"><ele>172.0</ele><time>2026-04-11T08:53:36.457Z</time></trkpt><trkpt lat="46.142325" lon="13.0048467"><ele>172.0</ele><time>2026-04-11T08:53:37.457Z</time></trkpt><trkpt lat="46.142455" lon="13.004995"><ele>172.0</ele><time>2026-04-11T08:53:38.457Z</time></trkpt><trkpt lat="46.1425883" lon="13.0051417"><ele>172.33333333333334</ele><time>2026-04-11T08:53:39.457Z</time></trkpt><trkpt lat="46.1427133" lon="13.0052783"><ele>172.66666666666666</ele><time>2026-04-11T08:53:40.457Z</time></trkpt><trkpt lat="46.1428417" lon="13.0054217"><ele>173.0</ele><time>2026-04-11T08:53:41.457Z</time></trkpt><trkpt lat="46.1429817" lon="13.00555"><ele>173.0</ele><time>2026-04-11T08:53:42.456Z</time></trkpt><trkpt lat="46.143115" lon="13.0056667"><ele>173.0</ele><time>2026-04-11T08:53:43.457Z</time></trkpt><trkpt lat="46.143255" lon="13.0057767"><ele>173.0</ele><time>2026-04-11T08:53:44.457Z</time></trkpt><trkpt lat="46.1434033" lon="13.0058767"><ele>174.33333333333331</ele><time>2026-04-11T08:53:45.456Z</time></trkpt><trkpt lat="46.1435567" lon="13.005955"><ele>175.66666666666666</ele><time>2026-04-11T08:53:46.457Z</time></trkpt><trkpt lat="46.1437117" lon="13.0060017"><ele>177.0</ele><time>2026-04-11T08:53:47.457Z</time></trkpt><trkpt lat="46.1438683" lon="13.0060417"><ele>177.0</ele><time>2026-04-11T08:53:48.457Z</time></trkpt><trkpt lat="46.1440083" lon="13.0060683"><ele>177.0</ele><time>2026-04-11T08:53:49.456Z</time></trkpt><trkpt lat="46.144145" lon="13.006085"><ele>177.0</ele><time>2026-04-11T08:53:50.457Z</time></trkpt><trkpt lat="46.14429" lon="13.0061033"><ele>177.0</ele><time>2026-04-11T08:53:51.457Z</time></trkpt><trkpt lat="46.1444167" lon="13.0061317"><ele>177.0</ele><time>2026-04-11T08:53:52.457Z</time></trkpt><trkpt lat="46.1445483" lon="13.0061617"><ele>177.0</ele><time>2026-04-11T08:53:53.456Z</time></trkpt><trkpt lat="46.1446867" lon="13.0061683"><ele>177.0</ele><time>2026-04-11T08:53:54.457Z</time></trkpt><trkpt lat="46.1448267" lon="13.0061817"><ele>177.0</ele><time>2026-04-11T08:53:55.457Z</time></trkpt><trkpt lat="46.1449583" lon="13.0061967"><ele>177.0</ele><time>2026-04-11T08:53:56.457Z</time></trkpt><trkpt lat="46.1450867" lon="13.0062133"><ele>177.0</ele><time>2026-04-11T08:53:57.457Z</time></trkpt><trkpt lat="46.1452083" lon="13.006235"><ele>177.0</ele><time>2026-04-11T08:53:58.457Z</time></trkpt><trkpt lat="46.1453283" lon="13.0062517"><ele>177.0</ele><time>2026-04-11T08:53:59.457Z</time></trkpt><trkpt lat="46.1454417" lon="13.006265"><ele>177.0</ele><time>2026-04-11T08:54:00.457Z</time></trkpt><trkpt lat="46.1455533" lon="13.006275"><ele>177.0</ele><time>2026-04-11T08:54:01.457Z</time></trkpt><trkpt lat="46.145665" lon="13.006285"><ele>177.0</ele><time>2026-04-11T08:54:02.456Z</time></trkpt><trkpt lat="46.1457733" lon="13.006295"><ele>177.0</ele><time>2026-04-11T08:54:03.457Z</time></trkpt><trkpt lat="46.145875" lon="13.0063083"><ele>177.0</ele><time>2026-04-11T08:54:04.456Z</time></trkpt><trkpt lat="46.1459733" lon="13.006315"><ele>177.39999999999998</ele><time>2026-04-11T08:54:05.457Z</time></trkpt><trkpt lat="46.1460567" lon="13.0063217"><ele>177.79999999999998</ele><time>2026-04-11T08:54:06.457Z</time></trkpt><trkpt lat="46.1461233" lon="13.00633"><ele>178.2</ele><time>2026-04-11T08:54:07.457Z</time></trkpt><trkpt lat="46.1462183" lon="13.0063433"><ele>178.6</ele><time>2026-04-11T08:54:09.457Z</time></trkpt><trkpt lat="46.14633" lon="13.00636"><ele>179.0</ele><time>2026-04-11T08:54:17.457Z</time></trkpt><trkpt lat="46.1464267" lon="13.0063467"><ele>179.0</ele><time>2026-04-11T08:54:19.457Z</time></trkpt><trkpt lat="46.14648" lon="13.0062583"><ele>179.0</ele><time>2026-04-11T08:54:21.456Z</time></trkpt><trkpt lat="46.1464517" lon="13.0061367"><ele>179.0</ele><time>2026-04-11T08:54:23.457Z</time></trkpt><trkpt lat="46.146345" lon="13.006115"><ele>179.0</ele><time>2026-04-11T08:54:25.456Z</time></trkpt><trkpt lat="46.1462567" lon="13.00615"><ele>179.0</ele><time>2026-04-11T08:54:26.457Z</time></trkpt><trkpt lat="46.14615" lon="13.006195"><ele>179.0</ele><time>2026-04-11T08:54:27.456Z</time></trkpt><trkpt lat="46.14605" lon="13.0062283"><ele>179.0</ele><time>2026-04-11T08:54:28.457Z</time></trkpt><trkpt lat="46.1459383" lon="13.0062367"><ele>179.0</ele><time>2026-04-11T08:54:29.457Z</time></trkpt><trkpt lat="46.145825" lon="13.0062417"><ele>179.0</ele><time>2026-04-11T08:54:30.457Z</time></trkpt><trkpt lat="46.14572" lon="13.0062417"><ele>179.0</ele><time>2026-04-11T08:54:31.457Z</time></trkpt><trkpt lat="46.145625" lon="13.0062433"><ele>178.66666666666666</ele><time>2026-04-11T08:54:32.457Z</time></trkpt><trkpt lat="46.145545" lon="13.0062383"><ele>178.33333333333331</ele><time>2026-04-11T08:54:33.457Z</time></trkpt><trkpt lat="46.1454817" lon="13.0062333"><ele>178.0</ele><time>2026-04-11T08:54:34.457Z</time></trkpt><trkpt lat="46.14538" lon="13.0062333"><ele>177.66666666666666</ele><time>2026-04-11T08:54:36.457Z</time></trkpt><trkpt lat="46.1453067" lon="13.0062867"><ele>177.33333333333334</ele><time>2026-04-11T08:54:38.457Z</time></trkpt><trkpt lat="46.14532" lon="13.006405"><ele>177.0</ele><time>2026-04-11T08:54:40.457Z</time></trkpt><trkpt lat="46.1453717" lon="13.0064783"><ele>177.0</ele><time>2026-04-11T08:54:41.456Z</time></trkpt><trkpt lat="46.1454433" lon="13.0065417"><ele>177.0</ele><time>2026-04-11T08:54:42.457Z</time></trkpt><trkpt lat="46.145515" lon="13.0065933"><ele>177.0</ele><time>2026-04-11T08:54:43.457Z</time></trkpt><trkpt lat="46.145595" lon="13.0066467"><ele>177.0</ele><time>2026-04-11T08:54:44.457Z</time></trkpt><trkpt lat="46.1456733" lon="13.00671"><ele>177.0</ele><time>2026-04-11T08:54:45.457Z</time></trkpt><trkpt lat="46.1457467" lon="13.0067717"><ele>177.0</ele><time>2026-04-11T08:54:46.457Z</time></trkpt><trkpt lat="46.14582" lon="13.0068367"><ele>177.33333333333334</ele><time>2026-04-11T08:54:47.456Z</time></trkpt><trkpt lat="46.145885" lon="13.0069183"><ele>177.66666666666666</ele><time>2026-04-11T08:54:48.457Z</time></trkpt><trkpt lat="46.1459533" lon="13.0069867"><ele>178.0</ele><time>2026-04-11T08:54:49.457Z</time></trkpt><trkpt lat="46.1460217" lon="13.0070533"><ele>178.33333333333331</ele><time>2026-04-11T08:54:50.457Z</time></trkpt><trkpt lat="46.1460867" lon="13.00712"><ele>178.66666666666666</ele><time>2026-04-11T08:54:51.457Z</time></trkpt><trkpt lat="46.146155" lon="13.007185"><ele>179.0</ele><time>2026-04-11T08:54:52.456Z</time></trkpt><trkpt lat="46.1462183" lon="13.007255"><ele>179.00000000000003</ele><time>2026-04-11T08:54:53.457Z</time></trkpt><trkpt lat="46.1462717" lon="13.0073233"><ele>179.0</ele><time>2026-04-11T08:54:54.457Z</time></trkpt><trkpt lat="46.1463317" lon="13.0073833"><ele>179.0</ele><time>2026-04-11T08:54:55.457Z</time></trkpt><trkpt lat="46.1463933" lon="13.0074417"><ele>179.0</ele><time>2026-04-11T08:54:56.457Z</time></trkpt><trkpt lat="46.14645" lon="13.0074967"><ele>179.0</ele><time>2026-04-11T08:54:57.456Z</time></trkpt><trkpt lat="46.1465017" lon="13.0075567"><ele>179.00000000000003</ele><time>2026-04-11T08:54:58.457Z</time></trkpt><trkpt lat="46.146555" lon="13.007615"><ele>179.0</ele><time>2026-04-11T08:54:59.457Z</time></trkpt><trkpt lat="46.1466117" lon="13.007675"><ele>179.2857142857143</ele><time>2026-04-11T08:55:00.457Z</time></trkpt><trkpt lat="46.1466683" lon="13.0077383"><ele>179.57142857142858</ele><time>2026-04-11T08:55:01.457Z</time></trkpt><trkpt lat="46.146725" lon="13.0078033"><ele>179.85714285714286</ele><time>2026-04-11T08:55:02.457Z</time></trkpt><trkpt lat="46.14678" lon="13.007865"><ele>180.14285714285717</ele><time>2026-04-11T08:55:03.457Z</time></trkpt><trkpt lat="46.14684" lon="13.0079233"><ele>180.42857142857142</ele><time>2026-04-11T08:55:04.457Z</time></trkpt><trkpt lat="46.1469067" lon="13.0079667"><ele>180.71428571428572</ele><time>2026-04-11T08:55:05.457Z</time></trkpt><trkpt lat="46.1469733" lon="13.0080067"><ele>181.0</ele><time>2026-04-11T08:55:06.457Z</time></trkpt><trkpt lat="46.1470267" lon="13.0080567"><ele>181.0</ele><time>2026-04-11T08:55:07.456Z</time></trkpt><trkpt lat="46.1471133" lon="13.0081417"><ele>181.0</ele><time>2026-04-11T08:55:09.456Z</time></trkpt><trkpt lat="46.1471817" lon="13.0082133"><ele>181.0</ele><time>2026-04-11T08:55:11.456Z</time></trkpt><trkpt lat="46.1472417" lon="13.0082517"><ele>181.0</ele><time>2026-04-11T08:55:15.457Z</time></trkpt><trkpt lat="46.1471983" lon="13.0081783"><ele>181.0</ele><time>2026-04-11T08:55:18.457Z</time></trkpt><trkpt lat="46.1471017" lon="13.0080817"><ele>181.0</ele><time>2026-04-11T08:55:20.457Z</time></trkpt><trkpt lat="46.1470317" lon="13.0080067"><ele>181.0</ele><time>2026-04-11T08:55:21.457Z</time></trkpt><trkpt lat="46.1469483" lon="13.0079217"><ele>181.0</ele><time>2026-04-11T08:55:22.456Z</time></trkpt><trkpt lat="46.1468567" lon="13.00783"><ele>181.0</ele><time>2026-04-11T08:55:23.456Z</time></trkpt><trkpt lat="46.1467483" lon="13.00773"><ele>181.0</ele><time>2026-04-11T08:55:24.457Z</time></trkpt><trkpt lat="46.1466267" lon="13.007625"><ele>180.75</ele><time>2026-04-11T08:55:25.456Z</time></trkpt><trkpt lat="46.1465133" lon="13.0075133"><ele>180.5</ele><time>2026-04-11T08:55:26.457Z</time></trkpt><trkpt lat="46.1463967" lon="13.0073983"><ele>180.25</ele><time>2026-04-11T08:55:27.457Z</time></trkpt><trkpt lat="46.146265" lon="13.0072967"><ele>180.0</ele><time>2026-04-11T08:55:28.457Z</time></trkpt><trkpt lat="46.1461417" lon="13.0071883"><ele>179.75</ele><time>2026-04-11T08:55:29.457Z</time></trkpt><trkpt lat="46.1460283" lon="13.00708"><ele>179.5</ele><time>2026-04-11T08:55:30.457Z</time></trkpt><trkpt lat="46.1459283" lon="13.0069617"><ele>179.25</ele><time>2026-04-11T08:55:31.456Z</time></trkpt><trkpt lat="46.1458417" lon="13.0068533"><ele>179.0</ele><time>2026-04-11T08:55:32.456Z</time></trkpt><trkpt lat="46.1457617" lon="13.00676"><ele>178.6</ele><time>2026-04-11T08:55:33.457Z</time></trkpt><trkpt lat="46.1456917" lon="13.00668"><ele>178.2</ele><time>2026-04-11T08:55:34.457Z</time></trkpt><trkpt lat="46.1456183" lon="13.0066117"><ele>177.79999999999998</ele><time>2026-04-11T08:55:35.457Z</time></trkpt><trkpt lat="46.145565" lon="13.0065533"><ele>177.39999999999998</ele><time>2026-04-11T08:55:36.456Z</time></trkpt><trkpt lat="46.1454683" lon="13.0064583"><ele>177.0</ele><time>2026-04-11T08:55:38.457Z</time></trkpt><trkpt lat="46.1453683" lon="13.0064417"><ele>177.0</ele><time>2026-04-11T08:55:40.457Z</time></trkpt><trkpt lat="46.1453033" lon="13.006465"><ele>177.0</ele><time>2026-04-11T08:55:41.457Z</time></trkpt><trkpt lat="46.1452417" lon="13.006525"><ele>177.0</ele><time>2026-04-11T08:55:42.457Z</time></trkpt><trkpt lat="46.14517" lon="13.00665"><ele>177.0</ele><time>2026-04-11T08:55:43.457Z</time></trkpt><trkpt lat="46.145075" lon="13.0068317"><ele>177.0</ele><time>2026-04-11T08:55:44.456Z</time></trkpt><trkpt lat="46.1449767" lon="13.0070167"><ele>177.0</ele><time>2026-04-11T08:55:45.457Z</time></trkpt><trkpt lat="46.144895" lon="13.0071667"><ele>177.0</ele><time>2026-04-11T08:55:46.456Z</time></trkpt><trkpt lat="46.144815" lon="13.0072933"><ele>177.0</ele><time>2026-04-11T08:55:47.456Z</time></trkpt><trkpt lat="46.1447517" lon="13.0074"><ele>177.0</ele><time>2026-04-11T08:55:48.457Z</time></trkpt><trkpt lat="46.14469" lon="13.0074967"><ele>177.0</ele><time>2026-04-11T08:55:49.457Z</time></trkpt><trkpt lat="46.1446333" lon="13.00758"><ele>176.66666666666666</ele><time>2026-04-11T08:55:50.457Z</time></trkpt><trkpt lat="46.1445867" lon="13.007665"><ele>176.33333333333334</ele><time>2026-04-11T08:55:51.457Z</time></trkpt><trkpt lat="46.144535" lon="13.0077433"><ele>176.0</ele><time>2026-04-11T08:55:52.456Z</time></trkpt><trkpt lat="46.1444817" lon="13.0078217"><ele>175.66666666666669</ele><time>2026-04-11T08:55:53.456Z</time></trkpt><trkpt lat="46.144425" lon="13.007915"><ele>175.33333333333334</ele><time>2026-04-11T08:55:54.457Z</time></trkpt><trkpt lat="46.1443683" lon="13.00802"><ele>175.0</ele><time>2026-04-11T08:55:55.456Z</time></trkpt><trkpt lat="46.144315" lon="13.0081267"><ele>175.0</ele><time>2026-04-11T08:55:56.457Z</time></trkpt><trkpt lat="46.14426" lon="13.0082167"><ele>175.0</ele><time>2026-04-11T08:55:57.457Z</time></trkpt><trkpt lat="46.1442167" lon="13.008305"><ele>175.0</ele><time>2026-04-11T08:55:58.456Z</time></trkpt><trkpt lat="46.1441683" lon="13.0083817"><ele>175.0</ele><time>2026-04-11T08:55:59.456Z</time></trkpt><trkpt lat="46.144085" lon="13.0084783"><ele>175.0</ele><time>2026-04-11T08:56:01.457Z</time></trkpt><trkpt lat="46.1439817" lon="13.0084717"><ele>175.0</ele><time>2026-04-11T08:56:03.457Z</time></trkpt><trkpt lat="46.1439233" lon="13.008415"><ele>175.0</ele><time>2026-04-11T08:56:04.457Z</time></trkpt><trkpt lat="46.1438683" lon="13.008315"><ele>175.0</ele><time>2026-04-11T08:56:05.457Z</time></trkpt><trkpt lat="46.1438133" lon="13.00821"><ele>175.0</ele><time>2026-04-11T08:56:06.457Z</time></trkpt><trkpt lat="46.143745" lon="13.0081183"><ele>175.0</ele><time>2026-04-11T08:56:07.456Z</time></trkpt><trkpt lat="46.1436833" lon="13.008015"><ele>175.0</ele><time>2026-04-11T08:56:08.457Z</time></trkpt><trkpt lat="46.143615" lon="13.0079067"><ele>175.0</ele><time>2026-04-11T08:56:09.457Z</time></trkpt><trkpt lat="46.1435417" lon="13.0078"><ele>175.0</ele><time>2026-04-11T08:56:10.457Z</time></trkpt><trkpt lat="46.14347" lon="13.0076967"><ele>175.0</ele><time>2026-04-11T08:56:11.457Z</time></trkpt><trkpt lat="46.1434067" lon="13.0076083"><ele>175.0</ele><time>2026-04-11T08:56:12.456Z</time></trkpt><trkpt lat="46.1433567" lon="13.00753"><ele>175.0</ele><time>2026-04-11T08:56:13.457Z</time></trkpt><trkpt lat="46.1433117" lon="13.00746"><ele>175.0</ele><time>2026-04-11T08:56:14.457Z</time></trkpt><trkpt lat="46.1432667" lon="13.007395"><ele>175.0</ele><time>2026-04-11T08:56:15.457Z</time></trkpt><trkpt lat="46.1431917" lon="13.0072983"><ele>175.0</ele><time>2026-04-11T08:56:17.457Z</time></trkpt><trkpt lat="46.1431183" lon="13.007295"><ele>175.0</ele><time>2026-04-11T08:56:19.457Z</time></trkpt><trkpt lat="46.1430283" lon="13.0073567"><ele>175.0</ele><time>2026-04-11T08:56:21.457Z</time></trkpt><trkpt lat="46.1429733" lon="13.0074133"><ele>175.0</ele><time>2026-04-11T08:56:22.457Z</time></trkpt><trkpt lat="46.1428867" lon="13.0075083"><ele>175.0</ele><time>2026-04-11T08:56:24.456Z</time></trkpt><trkpt lat="46.1428233" lon="13.0076233"><ele>175.0</ele><time>2026-04-11T08:56:26.457Z</time></trkpt><trkpt lat="46.14279" lon="13.0077083"><ele>175.0</ele><time>2026-04-11T08:56:27.457Z</time></trkpt><trkpt lat="46.1427617" lon="13.0077967"><ele>175.0</ele><time>2026-04-11T08:56:28.456Z</time></trkpt><trkpt lat="46.1427167" lon="13.0078867"><ele>175.0</ele><time>2026-04-11T08:56:29.457Z</time></trkpt><trkpt lat="46.142675" lon="13.0079767"><ele>175.0</ele><time>2026-04-11T08:56:30.457Z</time></trkpt><trkpt lat="46.1426233" lon="13.0080467"><ele>175.0</ele><time>2026-04-11T08:56:31.457Z</time></trkpt><trkpt lat="46.14255" lon="13.00816"><ele>175.0</ele><time>2026-04-11T08:56:33.457Z</time></trkpt><trkpt lat="46.1425033" lon="13.008225"><ele>175.0</ele><time>2026-04-11T08:56:35.457Z</time></trkpt><trkpt lat="46.1424583" lon="13.0083017"><ele>175.0</ele><time>2026-04-11T08:56:37.456Z</time></trkpt><trkpt lat="46.1425117" lon="13.0082533"><ele>175.0</ele><time>2026-04-11T08:56:42.457Z</time></trkpt><trkpt lat="46.142585" lon="13.0081017"><ele>175.0</ele><time>2026-04-11T08:56:44.457Z</time></trkpt><trkpt lat="46.14263" lon="13.0080333"><ele>175.0</ele><time>2026-04-11T08:56:45.457Z</time></trkpt><trkpt lat="46.1426817" lon="13.007945"><ele>175.0</ele><time>2026-04-11T08:56:46.457Z</time></trkpt><trkpt lat="46.1427233" lon="13.0078483"><ele>175.0</ele><time>2026-04-11T08:56:47.457Z</time></trkpt><trkpt lat="46.1427583" lon="13.0077383"><ele>175.0</ele><time>2026-04-11T08:56:48.457Z</time></trkpt><trkpt lat="46.1427817" lon="13.0076417"><ele>175.0</ele><time>2026-04-11T08:56:49.457Z</time></trkpt><trkpt lat="46.1427683" lon="13.0074933"><ele>175.0</ele><time>2026-04-11T08:56:51.457Z</time></trkpt><trkpt lat="46.1426867" lon="13.0073583"><ele>174.8</ele><time>2026-04-11T08:56:53.457Z</time></trkpt><trkpt lat="46.14262" lon="13.0072867"><ele>174.6</ele><time>2026-04-11T08:56:54.457Z</time></trkpt><trkpt lat="46.14255" lon="13.007195"><ele>174.39999999999998</ele><time>2026-04-11T08:56:55.456Z</time></trkpt><trkpt lat="46.1424667" lon="13.0071183"><ele>174.2</ele><time>2026-04-11T08:56:56.457Z</time></trkpt><trkpt lat="46.1423833" lon="13.0070467"><ele>174.0</ele><time>2026-04-11T08:56:57.457Z</time></trkpt><trkpt lat="46.1423067" lon="13.0069633"><ele>173.79999999999998</ele><time>2026-04-11T08:56:58.457Z</time></trkpt><trkpt lat="46.14222" lon="13.0068867"><ele>173.6</ele><time>2026-04-11T08:56:59.457Z</time></trkpt><trkpt lat="46.142135" lon="13.0068033"><ele>173.4</ele><time>2026-04-11T08:57:00.457Z</time></trkpt><trkpt lat="46.1420533" lon="13.0067133"><ele>173.2</ele><time>2026-04-11T08:57:01.457Z</time></trkpt><trkpt lat="46.1419683" lon="13.0066183"><ele>173.0</ele><time>2026-04-11T08:57:02.457Z</time></trkpt><trkpt lat="46.141885" lon="13.0065217"><ele>172.60000000000002</ele><time>2026-04-11T08:57:03.457Z</time></trkpt><trkpt lat="46.1418017" lon="13.0064267"><ele>172.20000000000002</ele><time>2026-04-11T08:57:04.457Z</time></trkpt><trkpt lat="46.1417167" lon="13.0063317"><ele>171.8</ele><time>2026-04-11T08:57:05.457Z</time></trkpt><trkpt lat="46.141635" lon="13.0062467"><ele>171.4</ele><time>2026-04-11T08:57:06.457Z</time></trkpt><trkpt lat="46.1415517" lon="13.0061617"><ele>171.0</ele><time>2026-04-11T08:57:07.457Z</time></trkpt><trkpt lat="46.14146" lon="13.0060883"><ele>170.8</ele><time>2026-04-11T08:57:08.457Z</time></trkpt><trkpt lat="46.1413683" lon="13.006005"><ele>170.60000000000002</ele><time>2026-04-11T08:57:09.457Z</time></trkpt><trkpt lat="46.1412817" lon="13.0059133"><ele>170.4</ele><time>2026-04-11T08:57:10.457Z</time></trkpt><trkpt lat="46.14119" lon="13.0058233"><ele>170.2</ele><time>2026-04-11T08:57:11.457Z</time></trkpt><trkpt lat="46.1411083" lon="13.0057167"><ele>170.0</ele><time>2026-04-11T08:57:12.456Z</time></trkpt><trkpt lat="46.1410267" lon="13.005615"><ele>170.0</ele><time>2026-04-11T08:57:13.457Z</time></trkpt><trkpt lat="46.1409433" lon="13.0055017"><ele>170.0</ele><time>2026-04-11T08:57:14.457Z</time></trkpt><trkpt lat="46.1408667" lon="13.0053833"><ele>170.0</ele><time>2026-04-11T08:57:15.457Z</time></trkpt><trkpt lat="46.1407817" lon="13.0052767"><ele>170.0</ele><time>2026-04-11T08:57:16.457Z</time></trkpt><trkpt lat="46.1407" lon="13.0051717"><ele>170.0</ele><time>2026-04-11T08:57:17.457Z</time></trkpt><trkpt lat="46.1406233" lon="13.0050633"><ele>170.0</ele><time>2026-04-11T08:57:18.456Z</time></trkpt><trkpt lat="46.1405433" lon="13.00496"><ele>170.0</ele><time>2026-04-11T08:57:19.457Z</time></trkpt><trkpt lat="46.1404733" lon="13.0048683"><ele>170.0</ele><time>2026-04-11T08:57:20.457Z</time></trkpt><trkpt lat="46.140415" lon="13.00478"><ele>170.0</ele><time>2026-04-11T08:57:21.456Z</time></trkpt><trkpt lat="46.1403633" lon="13.0046767"><ele>170.0</ele><time>2026-04-11T08:57:22.456Z</time></trkpt><trkpt lat="46.140325" lon="13.0045717"><ele>170.0</ele><time>2026-04-11T08:57:23.456Z</time></trkpt><trkpt lat="46.140295" lon="13.0044517"><ele>170.0</ele><time>2026-04-11T08:57:24.457Z</time></trkpt><trkpt lat="46.14028" lon="13.0043217"><ele>170.0</ele><time>2026-04-11T08:57:25.457Z</time></trkpt><trkpt lat="46.140275" lon="13.0041917"><ele>170.0</ele><time>2026-04-11T08:57:26.457Z</time></trkpt><trkpt lat="46.1402733" lon="13.004065"><ele>170.0</ele><time>2026-04-11T08:57:27.457Z</time></trkpt><trkpt lat="46.1402867" lon="13.003965"><ele>170.0</ele><time>2026-04-11T08:57:28.457Z</time></trkpt><trkpt lat="46.1403" lon="13.0038667"><ele>169.83333333333331</ele><time>2026-04-11T08:57:29.457Z</time></trkpt><trkpt lat="46.1403333" lon="13.003765"><ele>169.66666666666666</ele><time>2026-04-11T08:57:30.456Z</time></trkpt><trkpt lat="46.1403667" lon="13.0036533"><ele>169.5</ele><time>2026-04-11T08:57:31.457Z</time></trkpt><trkpt lat="46.1404033" lon="13.003555"><ele>169.33333333333334</ele><time>2026-04-11T08:57:32.457Z</time></trkpt><trkpt lat="46.1404467" lon="13.0034833"><ele>169.16666666666669</ele><time>2026-04-11T08:57:33.456Z</time></trkpt><trkpt lat="46.14051" lon="13.0034183"><ele>169.0</ele><time>2026-04-11T08:57:34.457Z</time></trkpt><trkpt lat="46.1405767" lon="13.003365"><ele>168.79999999999998</ele><time>2026-04-11T08:57:35.457Z</time></trkpt><trkpt lat="46.14063" lon="13.0033133"><ele>168.6</ele><time>2026-04-11T08:57:36.456Z</time></trkpt><trkpt lat="46.1407017" lon="13.00323"><ele>168.4</ele><time>2026-04-11T08:57:38.457Z</time></trkpt><trkpt lat="46.1407267" lon="13.003105"><ele>168.2</ele><time>2026-04-11T08:57:41.457Z</time></trkpt><trkpt lat="46.140665" lon="13.00293"><ele>168.0</ele><time>2026-04-11T08:57:43.457Z</time></trkpt><trkpt lat="46.1406083" lon="13.0028317"><ele>168.0</ele><time>2026-04-11T08:57:44.456Z</time></trkpt><trkpt lat="46.1405433" lon="13.0027533"><ele>168.0</ele><time>2026-04-11T08:57:45.457Z</time></trkpt><trkpt lat="46.1404967" lon="13.002685"><ele>168.0</ele><time>2026-04-11T08:57:46.457Z</time></trkpt><trkpt lat="46.1404433" lon="13.00255"><ele>168.0</ele><time>2026-04-11T08:57:48.457Z</time></trkpt><trkpt lat="46.1404383" lon="13.00245"><ele>168.0</ele><time>2026-04-11T08:57:49.457Z</time></trkpt><trkpt lat="46.1404683" lon="13.002265"><ele>168.0</ele><time>2026-04-11T08:57:51.456Z</time></trkpt><trkpt lat="46.1405167" lon="13.00211"><ele>168.0</ele><time>2026-04-11T08:57:53.456Z</time></trkpt><trkpt lat="46.1405483" lon="13.0020283"><ele>168.0</ele><time>2026-04-11T08:57:54.455Z</time></trkpt><trkpt lat="46.1405833" lon="13.0019367"><ele>168.0</ele><time>2026-04-11T08:57:55.456Z</time></trkpt><trkpt lat="46.140625" lon="13.00184"><ele>168.0</ele><time>2026-04-11T08:57:56.456Z</time></trkpt><trkpt lat="46.140665" lon="13.0017383"><ele>168.0</ele><time>2026-04-11T08:57:57.456Z</time></trkpt><trkpt lat="46.140705" lon="13.0016417"><ele>168.16666666666666</ele><time>2026-04-11T08:57:58.456Z</time></trkpt><trkpt lat="46.14075" lon="13.00154"><ele>168.33333333333334</ele><time>2026-04-11T08:57:59.455Z</time></trkpt><trkpt lat="46.1407967" lon="13.00142"><ele>168.5</ele><time>2026-04-11T08:58:00.456Z</time></trkpt><trkpt lat="46.140845" lon="13.0013167"><ele>168.66666666666669</ele><time>2026-04-11T08:58:01.456Z</time></trkpt><trkpt lat="46.1408933" lon="13.0012067"><ele>168.83333333333334</ele><time>2026-04-11T08:58:02.456Z</time></trkpt><trkpt lat="46.1409417" lon="13.0011067"><ele>169.0</ele><time>2026-04-11T08:58:03.456Z</time></trkpt><trkpt lat="46.140995" lon="13.0010117"><ele>169.0</ele><time>2026-04-11T08:58:04.456Z</time></trkpt><trkpt lat="46.14105" lon="13.000915"><ele>169.0</ele><time>2026-04-11T08:58:05.456Z</time></trkpt><trkpt lat="46.141105" lon="13.000815"><ele>169.0</ele><time>2026-04-11T08:58:06.456Z</time></trkpt><trkpt lat="46.1411667" lon="13.000735"><ele>169.0</ele><time>2026-04-11T08:58:07.456Z</time></trkpt><trkpt lat="46.1412267" lon="13.0006617"><ele>169.0</ele><time>2026-04-11T08:58:08.455Z</time></trkpt><trkpt lat="46.1413" lon="13.0005883"><ele>169.0</ele><time>2026-04-11T08:58:09.455Z</time></trkpt><trkpt lat="46.1413633" lon="13.0005217"><ele>169.14285714285714</ele><time>2026-04-11T08:58:10.456Z</time></trkpt><trkpt lat="46.1414233" lon="13.0004533"><ele>169.28571428571428</ele><time>2026-04-11T08:58:11.456Z</time></trkpt><trkpt lat="46.141475" lon="13.0003833"><ele>169.42857142857144</ele><time>2026-04-11T08:58:12.456Z</time></trkpt><trkpt lat="46.1415233" lon="13.0003167"><ele>169.57142857142856</ele><time>2026-04-11T08:58:13.456Z</time></trkpt><trkpt lat="46.141565" lon="13.0002483"><ele>169.7142857142857</ele><time>2026-04-11T08:58:14.456Z</time></trkpt><trkpt lat="46.14161" lon="13.0001717"><ele>169.85714285714286</ele><time>2026-04-11T08:58:15.456Z</time></trkpt><trkpt lat="46.1416567" lon="13.0000833"><ele>170.0</ele><time>2026-04-11T08:58:16.456Z</time></trkpt><trkpt lat="46.1417033" lon="13.0"><ele>170.0</ele><time>2026-04-11T08:58:17.456Z</time></trkpt><trkpt lat="46.1417683" lon="12.9999483"><ele>170.0</ele><time>2026-04-11T08:58:18.455Z</time></trkpt><trkpt lat="46.1418217" lon="12.9998517"><ele>170.0</ele><time>2026-04-11T08:58:19.456Z</time></trkpt><trkpt lat="46.1418867" lon="12.9997483"><ele>170.0</ele><time>2026-04-11T08:58:20.456Z</time></trkpt><trkpt lat="46.1419483" lon="12.9996233"><ele>170.0</ele><time>2026-04-11T08:58:21.456Z</time></trkpt><trkpt lat="46.1420033" lon="12.9995167"><ele>170.0</ele><time>2026-04-11T08:58:22.456Z</time></trkpt><trkpt lat="46.14208" lon="12.9993617"><ele>170.0</ele><time>2026-04-11T08:58:23.456Z</time></trkpt><trkpt lat="46.1421483" lon="12.99923"><ele>170.0</ele><time>2026-04-11T08:58:24.455Z</time></trkpt><trkpt lat="46.142215" lon="12.999115"><ele>170.0</ele><time>2026-04-11T08:58:25.455Z</time></trkpt><trkpt lat="46.1422667" lon="12.99903"><ele>170.0</ele><time>2026-04-11T08:58:26.456Z</time></trkpt><trkpt lat="46.1423317" lon="12.998905"><ele>170.2</ele><time>2026-04-11T08:58:27.456Z</time></trkpt><trkpt lat="46.1423967" lon="12.9987733"><ele>170.4</ele><time>2026-04-11T08:58:28.456Z</time></trkpt><trkpt lat="46.1424583" lon="12.9986517"><ele>170.60000000000002</ele><time>2026-04-11T08:58:29.456Z</time></trkpt><trkpt lat="46.1425117" lon="12.9985317"><ele>170.8</ele><time>2026-04-11T08:58:30.455Z</time></trkpt><trkpt lat="46.1425633" lon="12.9984133"><ele>171.0</ele><time>2026-04-11T08:58:31.456Z</time></trkpt><trkpt lat="46.1426167" lon="12.9982933"><ele>171.0</ele><time>2026-04-11T08:58:32.456Z</time></trkpt><trkpt lat="46.142675" lon="12.99816"><ele>171.0</ele><time>2026-04-11T08:58:33.455Z</time></trkpt><trkpt lat="46.142745" lon="12.998015"><ele>171.0</ele><time>2026-04-11T08:58:34.456Z</time></trkpt><trkpt lat="46.1428133" lon="12.9978717"><ele>171.0</ele><time>2026-04-11T08:58:35.456Z</time></trkpt><trkpt lat="46.1428883" lon="12.9977283"><ele>171.0</ele><time>2026-04-11T08:58:36.455Z</time></trkpt><trkpt lat="46.1429617" lon="12.9975817"><ele>171.0</ele><time>2026-04-11T08:58:37.456Z</time></trkpt><trkpt lat="46.1430017" lon="12.9974617"><ele>171.0</ele><time>2026-04-11T08:58:38.456Z</time></trkpt><trkpt lat="46.1430467" lon="12.99733"><ele>171.0</ele><time>2026-04-11T08:58:39.456Z</time></trkpt><trkpt lat="46.1430683" lon="12.9972067"><ele>171.0</ele><time>2026-04-11T08:58:40.456Z</time></trkpt><trkpt lat="46.1430933" lon="12.9970683"><ele>170.8</ele><time>2026-04-11T08:58:41.456Z</time></trkpt><trkpt lat="46.1431133" lon="12.9969267"><ele>170.60000000000002</ele><time>2026-04-11T08:58:42.456Z</time></trkpt><trkpt lat="46.1431383" lon="12.9967917"><ele>170.4</ele><time>2026-04-11T08:58:43.456Z</time></trkpt><trkpt lat="46.143175" lon="12.9966583"><ele>170.2</ele><time>2026-04-11T08:58:44.456Z</time></trkpt><trkpt lat="46.1432233" lon="12.9965333"><ele>170.0</ele><time>2026-04-11T08:58:45.456Z</time></trkpt><trkpt lat="46.143285" lon="12.9964133"><ele>170.2</ele><time>2026-04-11T08:58:46.456Z</time></trkpt><trkpt lat="46.143345" lon="12.996285"><ele>170.4</ele><time>2026-04-11T08:58:47.456Z</time></trkpt><trkpt lat="46.1434083" lon="12.9961617"><ele>170.60000000000002</ele><time>2026-04-11T08:58:48.456Z</time></trkpt><trkpt lat="46.1434733" lon="12.99605"><ele>170.8</ele><time>2026-04-11T08:58:49.456Z</time></trkpt><trkpt lat="46.143545" lon="12.9959383"><ele>171.0</ele><time>2026-04-11T08:58:50.455Z</time></trkpt><trkpt lat="46.1436167" lon="12.995815"><ele>171.0</ele><time>2026-04-11T08:58:51.456Z</time></trkpt><trkpt lat="46.1436917" lon="12.9956717"><ele>171.0</ele><time>2026-04-11T08:58:52.456Z</time></trkpt><trkpt lat="46.1437483" lon="12.9955417"><ele>171.0</ele><time>2026-04-11T08:58:53.456Z</time></trkpt><trkpt lat="46.1437967" lon="12.9953917"><ele>171.0</ele><time>2026-04-11T08:58:54.456Z</time></trkpt><trkpt lat="46.1438633" lon="12.9952117"><ele>171.0</ele><time>2026-04-11T08:58:55.456Z</time></trkpt><trkpt lat="46.1439233" lon="12.995035"><ele>171.0</ele><time>2026-04-11T08:58:56.456Z</time></trkpt><trkpt lat="46.1439633" lon="12.99487"><ele>171.0</ele><time>2026-04-11T08:58:57.456Z</time></trkpt><trkpt lat="46.1440117" lon="12.9946917"><ele>171.0</ele><time>2026-04-11T08:58:58.456Z</time></trkpt><trkpt lat="46.144065" lon="12.9945133"><ele>171.25</ele><time>2026-04-11T08:58:59.455Z</time></trkpt><trkpt lat="46.144115" lon="12.9943367"><ele>171.5</ele><time>2026-04-11T08:59:00.456Z</time></trkpt><trkpt lat="46.1441617" lon="12.9941567"><ele>171.75</ele><time>2026-04-11T08:59:01.456Z</time></trkpt><trkpt lat="46.1442033" lon="12.9939833"><ele>172.0</ele><time>2026-04-11T08:59:02.456Z</time></trkpt><trkpt lat="46.1442433" lon="12.993825"><ele>172.0</ele><time>2026-04-11T08:59:03.456Z</time></trkpt><trkpt lat="46.1442867" lon="12.99368"><ele>172.0</ele><time>2026-04-11T08:59:04.456Z</time></trkpt><trkpt lat="46.1443383" lon="12.9935233"><ele>172.0</ele><time>2026-04-11T08:59:05.456Z</time></trkpt><trkpt lat="46.1443967" lon="12.9933633"><ele>172.0</ele><time>2026-04-11T08:59:06.456Z</time></trkpt><trkpt lat="46.1444517" lon="12.9931967"><ele>171.8</ele><time>2026-04-11T08:59:07.456Z</time></trkpt><trkpt lat="46.1445067" lon="12.99305"><ele>171.6</ele><time>2026-04-11T08:59:08.456Z</time></trkpt><trkpt lat="46.1445417" lon="12.9929067"><ele>171.4</ele><time>2026-04-11T08:59:09.455Z</time></trkpt><trkpt lat="46.1445817" lon="12.9927617"><ele>171.20000000000002</ele><time>2026-04-11T08:59:10.456Z</time></trkpt><trkpt lat="46.1446183" lon="12.9926167"><ele>171.0</ele><time>2026-04-11T08:59:11.456Z</time></trkpt><trkpt lat="46.1446467" lon="12.9924833"><ele>171.0</ele><time>2026-04-11T08:59:12.456Z</time></trkpt><trkpt lat="46.1446767" lon="12.992365"><ele>171.0</ele><time>2026-04-11T08:59:13.456Z</time></trkpt><trkpt lat="46.144705" lon="12.9922467"><ele>171.0</ele><time>2026-04-11T08:59:14.456Z</time></trkpt><trkpt lat="46.1447383" lon="12.9921317"><ele>171.0</ele><time>2026-04-11T08:59:15.456Z</time></trkpt><trkpt lat="46.144775" lon="12.9920067"><ele>171.0</ele><time>2026-04-11T08:59:16.455Z</time></trkpt><trkpt lat="46.1448083" lon="12.9918883"><ele>171.0</ele><time>2026-04-11T08:59:17.456Z</time></trkpt><trkpt lat="46.1448417" lon="12.991765"><ele>171.20000000000002</ele><time>2026-04-11T08:59:18.456Z</time></trkpt><trkpt lat="46.1448733" lon="12.9916367"><ele>171.4</ele><time>2026-04-11T08:59:19.456Z</time></trkpt><trkpt lat="46.144905" lon="12.9915"><ele>171.6</ele><time>2026-04-11T08:59:20.456Z</time></trkpt><trkpt lat="46.144935" lon="12.99137"><ele>171.8</ele><time>2026-04-11T08:59:21.456Z</time></trkpt><trkpt lat="46.144975" lon="12.9912283"><ele>172.0</ele><time>2026-04-11T08:59:22.456Z</time></trkpt><trkpt lat="46.14502" lon="12.991085"><ele>172.0</ele><time>2026-04-11T08:59:23.456Z</time></trkpt><trkpt lat="46.14508" lon="12.990945"><ele>172.0</ele><time>2026-04-11T08:59:24.456Z</time></trkpt><trkpt lat="46.14514" lon="12.9908033"><ele>172.0</ele><time>2026-04-11T08:59:25.455Z</time></trkpt><trkpt lat="46.145205" lon="12.9906633"><ele>172.0</ele><time>2026-04-11T08:59:26.455Z</time></trkpt><trkpt lat="46.1452717" lon="12.9905117"><ele>171.5</ele><time>2026-04-11T08:59:27.456Z</time></trkpt><trkpt lat="46.1453383" lon="12.990355"><ele>171.0</ele><time>2026-04-11T08:59:28.456Z</time></trkpt><trkpt lat="46.1453767" lon="12.9902033"><ele>170.5</ele><time>2026-04-11T08:59:29.455Z</time></trkpt><trkpt lat="46.1454233" lon="12.990035"><ele>170.0</ele><time>2026-04-11T08:59:30.455Z</time></trkpt><trkpt lat="46.145475" lon="12.989865"><ele>169.5</ele><time>2026-04-11T08:59:31.455Z</time></trkpt><trkpt lat="46.1455233" lon="12.9896933"><ele>169.0</ele><time>2026-04-11T08:59:32.455Z</time></trkpt><trkpt lat="46.14557" lon="12.9895333"><ele>168.5</ele><time>2026-04-11T08:59:33.456Z</time></trkpt><trkpt lat="46.1456133" lon="12.98939"><ele>168.0</ele><time>2026-04-11T08:59:34.455Z</time></trkpt><trkpt lat="46.1456583" lon="12.9892483"><ele>168.2</ele><time>2026-04-11T08:59:35.455Z</time></trkpt><trkpt lat="46.1457033" lon="12.9891183"><ele>168.4</ele><time>2026-04-11T08:59:36.456Z</time></trkpt><trkpt lat="46.14575" lon="12.9889783"><ele>168.6</ele><time>2026-04-11T08:59:37.456Z</time></trkpt><trkpt lat="46.1458" lon="12.9888417"><ele>168.79999999999998</ele><time>2026-04-11T08:59:38.456Z</time></trkpt><trkpt lat="46.1458517" lon="12.9886983"><ele>169.0</ele><time>2026-04-11T08:59:39.456Z</time></trkpt><trkpt lat="46.1459117" lon="12.9885667"><ele>169.0</ele><time>2026-04-11T08:59:40.456Z</time></trkpt><trkpt lat="46.14598" lon="12.988445"><ele>169.0</ele><time>2026-04-11T08:59:41.456Z</time></trkpt><trkpt lat="46.14603" lon="12.9883267"><ele>169.0</ele><time>2026-04-11T08:59:42.456Z</time></trkpt><trkpt lat="46.1460867" lon="12.9882133"><ele>169.0</ele><time>2026-04-11T08:59:43.456Z</time></trkpt><trkpt lat="46.1461467" lon="12.9881167"><ele>169.0</ele><time>2026-04-11T08:59:44.456Z</time></trkpt><trkpt lat="46.14621" lon="12.9880167"><ele>169.0</ele><time>2026-04-11T08:59:45.456Z</time></trkpt><trkpt lat="46.1462783" lon="12.9879267"><ele>169.0</ele><time>2026-04-11T08:59:46.456Z</time></trkpt><trkpt lat="46.1463567" lon="12.9878483"><ele>169.0</ele><time>2026-04-11T08:59:47.456Z</time></trkpt><trkpt lat="46.146435" lon="12.9877783"><ele>169.0</ele><time>2026-04-11T08:59:48.456Z</time></trkpt><trkpt lat="46.14653" lon="12.9877233"><ele>169.0</ele><time>2026-04-11T08:59:49.456Z</time></trkpt><trkpt lat="46.1466267" lon="12.98768"><ele>169.0</ele><time>2026-04-11T08:59:50.456Z</time></trkpt><trkpt lat="46.146725" lon="12.9876417"><ele>169.0</ele><time>2026-04-11T08:59:51.456Z</time></trkpt><trkpt lat="46.146825" lon="12.9876083"><ele>169.0</ele><time>2026-04-11T08:59:52.456Z</time></trkpt><trkpt lat="46.1469233" lon="12.9875817"><ele>169.0</ele><time>2026-04-11T08:59:53.456Z</time></trkpt><trkpt lat="46.147015" lon="12.98757"><ele>169.0</ele><time>2026-04-11T08:59:54.456Z</time></trkpt><trkpt lat="46.1471083" lon="12.9875617"><ele>169.0</ele><time>2026-04-11T08:59:55.455Z</time></trkpt><trkpt lat="46.1471967" lon="12.987545"><ele>169.0</ele><time>2026-04-11T08:59:56.456Z</time></trkpt><trkpt lat="46.1472767" lon="12.987505"><ele>169.0</ele><time>2026-04-11T08:59:57.456Z</time></trkpt><trkpt lat="46.1473567" lon="12.98744"><ele>169.0</ele><time>2026-04-11T08:59:58.455Z</time></trkpt><trkpt lat="46.14743" lon="12.9873583"><ele>169.0</ele><time>2026-04-11T08:59:59.456Z</time></trkpt><trkpt lat="46.1474867" lon="12.9872467"><ele>169.0</ele><time>2026-04-11T09:00:00.456Z</time></trkpt><trkpt lat="46.1475283" lon="12.98713"><ele>169.0</ele><time>2026-04-11T09:00:01.456Z</time></trkpt><trkpt lat="46.1475717" lon="12.9870267"><ele>169.0</ele><time>2026-04-11T09:00:02.456Z</time></trkpt><trkpt lat="46.1476133" lon="12.986945"><ele>169.0</ele><time>2026-04-11T09:00:03.455Z</time></trkpt><trkpt lat="46.1476933" lon="12.986825"><ele>169.0</ele><time>2026-04-11T09:00:05.456Z</time></trkpt><trkpt lat="46.1477517" lon="12.9867533"><ele>169.0</ele><time>2026-04-11T09:00:07.456Z</time></trkpt><trkpt lat="46.1478367" lon="12.9866383"><ele>168.79999999999998</ele><time>2026-04-11T09:00:16.456Z</time></trkpt><trkpt lat="46.1479567" lon="12.9865283"><ele>168.6</ele><time>2026-04-11T09:00:18.456Z</time></trkpt><trkpt lat="46.1480383" lon="12.9864583"><ele>168.4</ele><time>2026-04-11T09:00:19.456Z</time></trkpt><trkpt lat="46.1481117" lon="12.986395"><ele>168.2</ele><time>2026-04-11T09:00:20.456Z</time></trkpt><trkpt lat="46.1481817" lon="12.9863233"><ele>168.0</ele><time>2026-04-11T09:00:21.456Z</time></trkpt><trkpt lat="46.148255" lon="12.98624"><ele>168.5</ele><time>2026-04-11T09:00:22.456Z</time></trkpt><trkpt lat="46.14832" lon="12.986155"><ele>169.0</ele><time>2026-04-11T09:00:23.456Z</time></trkpt><trkpt lat="46.148375" lon="12.9860783"><ele>169.5</ele><time>2026-04-11T09:00:24.456Z</time></trkpt><trkpt lat="46.1484167" lon="12.985985"><ele>170.0</ele><time>2026-04-11T09:00:25.456Z</time></trkpt><trkpt lat="46.1484667" lon="12.9858967"><ele>170.5</ele><time>2026-04-11T09:00:26.455Z</time></trkpt><trkpt lat="46.14851" lon="12.9858117"><ele>171.0</ele><time>2026-04-11T09:00:27.456Z</time></trkpt><trkpt lat="46.1485517" lon="12.9857333"><ele>171.0</ele><time>2026-04-11T09:00:28.455Z</time></trkpt><trkpt lat="46.148605" lon="12.98567"><ele>171.0</ele><time>2026-04-11T09:00:29.456Z</time></trkpt><trkpt lat="46.1486667" lon="12.9856117"><ele>171.0</ele><time>2026-04-11T09:00:30.456Z</time></trkpt><trkpt lat="46.1487433" lon="12.98556"><ele>171.0</ele><time>2026-04-11T09:00:31.456Z</time></trkpt><trkpt lat="46.14881" lon="12.9855217"><ele>171.0</ele><time>2026-04-11T09:00:32.456Z</time></trkpt><trkpt lat="46.1488833" lon="12.9854833"><ele>171.0</ele><time>2026-04-11T09:00:33.456Z</time></trkpt><trkpt lat="46.1489567" lon="12.9854517"><ele>171.16666666666666</ele><time>2026-04-11T09:00:34.455Z</time></trkpt><trkpt lat="46.1490717" lon="12.9854133"><ele>171.33333333333334</ele><time>2026-04-11T09:00:36.456Z</time></trkpt><trkpt lat="46.1491433" lon="12.9853967"><ele>171.5</ele><time>2026-04-11T09:00:37.455Z</time></trkpt><trkpt lat="46.1492117" lon="12.9853917"><ele>171.66666666666669</ele><time>2026-04-11T09:00:38.456Z</time></trkpt><trkpt lat="46.14928" lon="12.9854067"><ele>171.83333333333334</ele><time>2026-04-11T09:00:39.456Z</time></trkpt><trkpt lat="46.149355" lon="12.9854333"><ele>172.0</ele><time>2026-04-11T09:00:40.455Z</time></trkpt><trkpt lat="46.1494333" lon="12.9854683"><ele>172.0</ele><time>2026-04-11T09:00:41.455Z</time></trkpt><trkpt lat="46.1495083" lon="12.9855167"><ele>172.0</ele><time>2026-04-11T09:00:42.456Z</time></trkpt><trkpt lat="46.1495833" lon="12.98556"><ele>172.0</ele><time>2026-04-11T09:00:43.456Z</time></trkpt><trkpt lat="46.1496517" lon="12.9855967"><ele>172.0</ele><time>2026-04-11T09:00:44.456Z</time></trkpt><trkpt lat="46.14972" lon="12.985635"><ele>172.0</ele><time>2026-04-11T09:00:45.455Z</time></trkpt><trkpt lat="46.1497883" lon="12.98566"><ele>172.0</ele><time>2026-04-11T09:00:46.456Z</time></trkpt><trkpt lat="46.14986" lon="12.9856683"><ele>172.2857142857143</ele><time>2026-04-11T09:00:47.456Z</time></trkpt><trkpt lat="46.1499333" lon="12.98566"><ele>172.57142857142858</ele><time>2026-04-11T09:00:48.456Z</time></trkpt><trkpt lat="46.1500083" lon="12.9856483"><ele>172.85714285714286</ele><time>2026-04-11T09:00:49.456Z</time></trkpt><trkpt lat="46.150085" lon="12.98563"><ele>173.14285714285717</ele><time>2026-04-11T09:00:50.456Z</time></trkpt><trkpt lat="46.150155" lon="12.985595"><ele>173.42857142857144</ele><time>2026-04-11T09:00:51.456Z</time></trkpt><trkpt lat="46.1502267" lon="12.9855583"><ele>173.71428571428572</ele><time>2026-04-11T09:00:52.455Z</time></trkpt><trkpt lat="46.1502883" lon="12.9855233"><ele>174.0</ele><time>2026-04-11T09:00:53.456Z</time></trkpt><trkpt lat="46.15038" lon="12.9854867"><ele>174.0</ele><time>2026-04-11T09:00:55.455Z</time></trkpt><trkpt lat="46.150435" lon="12.9854417"><ele>174.0</ele><time>2026-04-11T09:00:58.455Z</time></trkpt><trkpt lat="46.15048" lon="12.9853417"><ele>174.0</ele><time>2026-04-11T09:01:03.455Z</time></trkpt><trkpt lat="46.1505333" lon="12.98524"><ele>174.0</ele><time>2026-04-11T09:01:05.456Z</time></trkpt><trkpt lat="46.15062" lon="12.9850833"><ele>174.0</ele><time>2026-04-11T09:01:07.456Z</time></trkpt><trkpt lat="46.15066" lon="12.9849933"><ele>174.0</ele><time>2026-04-11T09:01:08.455Z</time></trkpt><trkpt lat="46.150695" lon="12.98491"><ele>173.57142857142856</ele><time>2026-04-11T09:01:09.456Z</time></trkpt><trkpt lat="46.1507283" lon="12.9848317"><ele>173.14285714285714</ele><time>2026-04-11T09:01:10.456Z</time></trkpt><trkpt lat="46.15079" lon="12.9847133"><ele>172.71428571428572</ele><time>2026-04-11T09:01:12.456Z</time></trkpt><trkpt lat="46.1508383" lon="12.98465"><ele>172.28571428571428</ele><time>2026-04-11T09:01:13.456Z</time></trkpt><trkpt lat="46.1508933" lon="12.984595"><ele>171.85714285714286</ele><time>2026-04-11T09:01:14.456Z</time></trkpt><trkpt lat="46.15096" lon="12.9845567"><ele>171.42857142857142</ele><time>2026-04-11T09:01:15.456Z</time></trkpt><trkpt lat="46.15103" lon="12.9845267"><ele>171.0</ele><time>2026-04-11T09:01:16.456Z</time></trkpt><trkpt lat="46.151105" lon="12.9845167"><ele>171.0</ele><time>2026-04-11T09:01:17.455Z</time></trkpt><trkpt lat="46.15118" lon="12.9845167"><ele>171.0</ele><time>2026-04-11T09:01:18.456Z</time></trkpt><trkpt lat="46.1512517" lon="12.9845117"><ele>171.0</ele><time>2026-04-11T09:01:19.456Z</time></trkpt><trkpt lat="46.1513283" lon="12.984505"><ele>171.0</ele><time>2026-04-11T09:01:20.456Z</time></trkpt><trkpt lat="46.1514017" lon="12.9844883"><ele>171.0</ele><time>2026-04-11T09:01:21.456Z</time></trkpt><trkpt lat="46.15148" lon="12.9844683"><ele>171.0</ele><time>2026-04-11T09:01:22.456Z</time></trkpt><trkpt lat="46.151555" lon="12.98445"><ele>171.0</ele><time>2026-04-11T09:01:23.456Z</time></trkpt><trkpt lat="46.1516383" lon="12.98443"><ele>171.0</ele><time>2026-04-11T09:01:24.456Z</time></trkpt><trkpt lat="46.1517183" lon="12.984415"><ele>171.0</ele><time>2026-04-11T09:01:25.455Z</time></trkpt><trkpt lat="46.1517933" lon="12.984405"><ele>171.0</ele><time>2026-04-11T09:01:26.455Z</time></trkpt><trkpt lat="46.15187" lon="12.9843817"><ele>171.0</ele><time>2026-04-11T09:01:27.456Z</time></trkpt><trkpt lat="46.151945" lon="12.984365"><ele>171.0</ele><time>2026-04-11T09:01:28.456Z</time></trkpt><trkpt lat="46.15202" lon="12.98434"><ele>171.0</ele><time>2026-04-11T09:01:29.456Z</time></trkpt><trkpt lat="46.1520883" lon="12.9843183"><ele>171.0</ele><time>2026-04-11T09:01:30.456Z</time></trkpt><trkpt lat="46.15216" lon="12.984295"><ele>171.0</ele><time>2026-04-11T09:01:31.456Z</time></trkpt><trkpt lat="46.1522317" lon="12.9842717"><ele>171.0</ele><time>2026-04-11T09:01:32.456Z</time></trkpt><trkpt lat="46.15231" lon="12.9842467"><ele>171.0</ele><time>2026-04-11T09:01:33.456Z</time></trkpt><trkpt lat="46.1523983" lon="12.98422"><ele>171.0</ele><time>2026-04-11T09:01:34.456Z</time></trkpt><trkpt lat="46.1524933" lon="12.9841917"><ele>171.16666666666666</ele><time>2026-04-11T09:01:35.456Z</time></trkpt><trkpt lat="46.1525767" lon="12.984165"><ele>171.33333333333334</ele><time>2026-04-11T09:01:36.455Z</time></trkpt><trkpt lat="46.1526517" lon="12.9841417"><ele>171.5</ele><time>2026-04-11T09:01:37.456Z</time></trkpt><trkpt lat="46.15273" lon="12.984115"><ele>171.66666666666669</ele><time>2026-04-11T09:01:38.455Z</time></trkpt><trkpt lat="46.15281" lon="12.9841033"><ele>171.83333333333334</ele><time>2026-04-11T09:01:39.455Z</time></trkpt><trkpt lat="46.15289" lon="12.984095"><ele>172.0</ele><time>2026-04-11T09:01:40.455Z</time></trkpt><trkpt lat="46.1529617" lon="12.9840933"><ele>172.0</ele><time>2026-04-11T09:01:41.456Z</time></trkpt><trkpt lat="46.1530467" lon="12.9841"><ele>172.0</ele><time>2026-04-11T09:01:42.456Z</time></trkpt><trkpt lat="46.153135" lon="12.9841117"><ele>172.0</ele><time>2026-04-11T09:01:43.456Z</time></trkpt><trkpt lat="46.1532133" lon="12.9841383"><ele>172.0</ele><time>2026-04-11T09:01:44.456Z</time></trkpt><trkpt lat="46.1532883" lon="12.984175"><ele>172.0</ele><time>2026-04-11T09:01:45.456Z</time></trkpt><trkpt lat="46.15336" lon="12.984205"><ele>172.0</ele><time>2026-04-11T09:01:46.456Z</time></trkpt><trkpt lat="46.1534283" lon="12.9842383"><ele>172.2857142857143</ele><time>2026-04-11T09:01:47.456Z</time></trkpt><trkpt lat="46.1534917" lon="12.9842817"><ele>172.57142857142858</ele><time>2026-04-11T09:01:48.456Z</time></trkpt><trkpt lat="46.1535483" lon="12.9843283"><ele>172.85714285714286</ele><time>2026-04-11T09:01:49.456Z</time></trkpt><trkpt lat="46.1536033" lon="12.9843767"><ele>173.14285714285717</ele><time>2026-04-11T09:01:50.456Z</time></trkpt><trkpt lat="46.1536567" lon="12.9844383"><ele>173.42857142857144</ele><time>2026-04-11T09:01:51.456Z</time></trkpt><trkpt lat="46.153715" lon="12.9845067"><ele>173.71428571428572</ele><time>2026-04-11T09:01:52.456Z</time></trkpt><trkpt lat="46.1537783" lon="12.984565"><ele>174.0</ele><time>2026-04-11T09:01:53.456Z</time></trkpt><trkpt lat="46.1538533" lon="12.9846183"><ele>174.0</ele><time>2026-04-11T09:01:54.456Z</time></trkpt><trkpt lat="46.1539283" lon="12.98466"><ele>174.0</ele><time>2026-04-11T09:01:55.456Z</time></trkpt><trkpt lat="46.1540033" lon="12.984695"><ele>174.0</ele><time>2026-04-11T09:01:56.455Z</time></trkpt><trkpt lat="46.1540767" lon="12.9847217"><ele>174.0</ele><time>2026-04-11T09:01:57.455Z</time></trkpt><trkpt lat="46.1541383" lon="12.984745"><ele>174.0</ele><time>2026-04-11T09:01:58.456Z</time></trkpt><trkpt lat="46.1542133" lon="12.98477"><ele>174.0</ele><time>2026-04-11T09:02:00.456Z</time></trkpt><trkpt lat="46.15428" lon="12.98478"><ele>174.0</ele><time>2026-04-11T09:02:21.456Z</time></trkpt><trkpt lat="46.1543633" lon="12.9848183"><ele>174.2</ele><time>2026-04-11T09:02:23.455Z</time></trkpt><trkpt lat="46.1544833" lon="12.9848683"><ele>174.39999999999998</ele><time>2026-04-11T09:02:25.456Z</time></trkpt><trkpt lat="46.15455" lon="12.9848883"><ele>174.6</ele><time>2026-04-11T09:02:26.456Z</time></trkpt><trkpt lat="46.1546683" lon="12.9849383"><ele>174.8</ele><time>2026-04-11T09:02:28.456Z</time></trkpt><trkpt lat="46.15477" lon="12.98499"><ele>175.0</ele><time>2026-04-11T09:02:30.456Z</time></trkpt><trkpt lat="46.1548467" lon="12.9850333"><ele>175.8</ele><time>2026-04-11T09:02:32.455Z</time></trkpt><trkpt lat="46.1549283" lon="12.9850667"><ele>176.6</ele><time>2026-04-11T09:02:35.455Z</time></trkpt><trkpt lat="46.1549933" lon="12.9851533"><ele>177.39999999999998</ele><time>2026-04-11T09:02:49.456Z</time></trkpt><trkpt lat="46.1550467" lon="12.9852133"><ele>178.2</ele><time>2026-04-11T09:02:52.456Z</time></trkpt><trkpt lat="46.1550967" lon="12.9853217"><ele>179.0</ele><time>2026-04-11T09:02:54.456Z</time></trkpt><trkpt lat="46.1551633" lon="12.9854633"><ele>179.00000000000003</ele><time>2026-04-11T09:02:56.455Z</time></trkpt><trkpt lat="46.1552083" lon="12.98553"><ele>179.0</ele><time>2026-04-11T09:02:57.456Z</time></trkpt><trkpt lat="46.1552533" lon="12.9855983"><ele>179.0</ele><time>2026-04-11T09:02:58.455Z</time></trkpt><trkpt lat="46.1553" lon="12.985665"><ele>179.0</ele><time>2026-04-11T09:02:59.455Z</time></trkpt><trkpt lat="46.155355" lon="12.9857167"><ele>179.0</ele><time>2026-04-11T09:03:00.456Z</time></trkpt><trkpt lat="46.1554183" lon="12.98576"><ele>179.00000000000003</ele><time>2026-04-11T09:03:01.456Z</time></trkpt><trkpt lat="46.15548" lon="12.9858033"><ele>179.0</ele><time>2026-04-11T09:03:02.456Z</time></trkpt><trkpt lat="46.155545" lon="12.9858383"><ele>179.0</ele><time>2026-04-11T09:03:03.455Z</time></trkpt><trkpt lat="46.155605" lon="12.98587"><ele>179.0</ele><time>2026-04-11T09:03:04.456Z</time></trkpt><trkpt lat="46.1557183" lon="12.9859167"><ele>179.0</ele><time>2026-04-11T09:03:06.456Z</time></trkpt><trkpt lat="46.1558283" lon="12.9859583"><ele>179.0</ele><time>2026-04-11T09:03:08.456Z</time></trkpt><trkpt lat="46.1559367" lon="12.9859583"><ele>179.0</ele><time>2026-04-11T09:03:10.456Z</time></trkpt><trkpt lat="46.156" lon="12.9859467"><ele>180.0</ele><time>2026-04-11T09:03:11.455Z</time></trkpt><trkpt lat="46.1561183" lon="12.9859417"><ele>181.0</ele><time>2026-04-11T09:03:13.456Z</time></trkpt><trkpt lat="46.1562483" lon="12.9859617"><ele>182.0</ele><time>2026-04-11T09:03:15.456Z</time></trkpt><trkpt lat="46.1563167" lon="12.9859783"><ele>183.0</ele><time>2026-04-11T09:03:16.456Z</time></trkpt><trkpt lat="46.15638" lon="12.9860017"><ele>184.0</ele><time>2026-04-11T09:03:17.456Z</time></trkpt><trkpt lat="46.156455" lon="12.98603"><ele>184.0</ele><time>2026-04-11T09:03:18.455Z</time></trkpt><trkpt lat="46.1565217" lon="12.986055"><ele>184.0</ele><time>2026-04-11T09:03:19.456Z</time></trkpt><trkpt lat="46.1565883" lon="12.98608"><ele>184.0</ele><time>2026-04-11T09:03:20.456Z</time></trkpt><trkpt lat="46.1566533" lon="12.9861033"><ele>184.0</ele><time>2026-04-11T09:03:21.456Z</time></trkpt><trkpt lat="46.1567717" lon="12.9861583"><ele>184.0</ele><time>2026-04-11T09:03:23.456Z</time></trkpt><trkpt lat="46.1568333" lon="12.9861983"><ele>184.0</ele><time>2026-04-11T09:03:24.456Z</time></trkpt><trkpt lat="46.1568867" lon="12.98626"><ele>184.39999999999998</ele><time>2026-04-11T09:03:25.456Z</time></trkpt><trkpt lat="46.1569567" lon="12.9863317"><ele>184.8</ele><time>2026-04-11T09:03:26.456Z</time></trkpt><trkpt lat="46.1570267" lon="12.9864167"><ele>185.2</ele><time>2026-04-11T09:03:27.455Z</time></trkpt><trkpt lat="46.15709" lon="12.9864933"><ele>185.60000000000002</ele><time>2026-04-11T09:03:28.456Z</time></trkpt><trkpt lat="46.1571583" lon="12.9865433"><ele>186.0</ele><time>2026-04-11T09:03:29.456Z</time></trkpt><trkpt lat="46.1572467" lon="12.9866483"><ele>186.5</ele><time>2026-04-11T09:03:31.455Z</time></trkpt><trkpt lat="46.1573417" lon="12.9867367"><ele>187.0</ele><time>2026-04-11T09:03:33.455Z</time></trkpt><trkpt lat="46.1574" lon="12.9867767"><ele>187.5</ele><time>2026-04-11T09:03:34.456Z</time></trkpt><trkpt lat="46.1574733" lon="12.9868183"><ele>188.0</ele><time>2026-04-11T09:03:35.455Z</time></trkpt><trkpt lat="46.1575483" lon="12.9868633"><ele>188.5</ele><time>2026-04-11T09:03:36.456Z</time></trkpt><trkpt lat="46.157645" lon="12.9868917"><ele>189.0</ele><time>2026-04-11T09:03:37.456Z</time></trkpt><trkpt lat="46.1577433" lon="12.9869233"><ele>189.0</ele><time>2026-04-11T09:03:38.456Z</time></trkpt><trkpt lat="46.1578517" lon="12.98696"><ele>189.0</ele><time>2026-04-11T09:03:39.456Z</time></trkpt><trkpt lat="46.1579683" lon="12.987"><ele>189.0</ele><time>2026-04-11T09:03:40.456Z</time></trkpt><trkpt lat="46.1580967" lon="12.9870283"><ele>189.0</ele><time>2026-04-11T09:03:41.456Z</time></trkpt><trkpt lat="46.1582317" lon="12.98706"><ele>189.5</ele><time>2026-04-11T09:03:42.456Z</time></trkpt><trkpt lat="46.15837" lon="12.9871083"><ele>190.0</ele><time>2026-04-11T09:03:43.456Z</time></trkpt><trkpt lat="46.1585033" lon="12.9871433"><ele>190.5</ele><time>2026-04-11T09:03:44.456Z</time></trkpt><trkpt lat="46.1586233" lon="12.9871833"><ele>191.0</ele><time>2026-04-11T09:03:45.456Z</time></trkpt><trkpt lat="46.1587333" lon="12.987205"><ele>191.0</ele><time>2026-04-11T09:03:46.456Z</time></trkpt><trkpt lat="46.158825" lon="12.98726"><ele>191.0</ele><time>2026-04-11T09:03:47.456Z</time></trkpt><trkpt lat="46.1589083" lon="12.9873133"><ele>191.0</ele><time>2026-04-11T09:03:48.456Z</time></trkpt><trkpt lat="46.1589983" lon="12.987365"><ele>191.0</ele><time>2026-04-11T09:03:49.456Z</time></trkpt><trkpt lat="46.1590733" lon="12.9874083"><ele>191.0</ele><time>2026-04-11T09:03:50.456Z</time></trkpt><trkpt lat="46.159145" lon="12.9874433"><ele>191.0</ele><time>2026-04-11T09:03:51.455Z</time></trkpt><trkpt lat="46.1592083" lon="12.9874733"><ele>191.5</ele><time>2026-04-11T09:03:52.456Z</time></trkpt><trkpt lat="46.1593083" lon="12.9875233"><ele>192.0</ele><time>2026-04-11T09:03:54.456Z</time></trkpt><trkpt lat="46.15939" lon="12.987545"><ele>192.5</ele><time>2026-04-11T09:03:56.455Z</time></trkpt><trkpt lat="46.159435" lon="12.98747"><ele>193.0</ele><time>2026-04-11T09:04:00.456Z</time></trkpt><trkpt lat="46.159445" lon="12.987365"><ele>193.50000000000003</ele><time>2026-04-11T09:04:02.456Z</time></trkpt><trkpt lat="46.1594733" lon="12.987245"><ele>194.0</ele><time>2026-04-11T09:04:04.456Z</time></trkpt><trkpt lat="46.159515" lon="12.987125"><ele>194.0</ele><time>2026-04-11T09:04:06.455Z</time></trkpt><trkpt lat="46.1595417" lon="12.987025"><ele>194.0</ele><time>2026-04-11T09:04:09.455Z</time></trkpt><trkpt lat="46.1594767" lon="12.9871733"><ele>194.0</ele><time>2026-04-11T09:04:42.455Z</time></trkpt><trkpt lat="46.15945" lon="12.9872633"><ele>194.0</ele><time>2026-04-11T09:04:43.455Z</time></trkpt><trkpt lat="46.159405" lon="12.987415"><ele>194.0</ele><time>2026-04-11T09:04:45.455Z</time></trkpt><trkpt lat="46.159395" lon="12.98753"><ele>194.0</ele><time>2026-04-11T09:04:47.455Z</time></trkpt><trkpt lat="46.15943" lon="12.98761"><ele>194.0</ele><time>2026-04-11T09:04:49.455Z</time></trkpt><trkpt lat="46.15954" lon="12.98765"><ele>194.0</ele><time>2026-04-11T09:04:51.454Z</time></trkpt><trkpt lat="46.1596233" lon="12.9876567"><ele>194.0</ele><time>2026-04-11T09:04:52.454Z</time></trkpt><trkpt lat="46.1597167" lon="12.98765"><ele>194.0</ele><time>2026-04-11T09:04:53.455Z</time></trkpt><trkpt lat="46.1598367" lon="12.9876467"><ele>195.0</ele><time>2026-04-11T09:04:54.455Z</time></trkpt><trkpt lat="46.1599783" lon="12.98763"><ele>196.0</ele><time>2026-04-11T09:04:55.454Z</time></trkpt><trkpt lat="46.1601233" lon="12.9876083"><ele>197.0</ele><time>2026-04-11T09:04:56.455Z</time></trkpt><trkpt lat="46.160235" lon="12.9876083"><ele>198.0</ele><time>2026-04-11T09:04:57.455Z</time></trkpt><trkpt lat="46.1603383" lon="12.9876033"><ele>198.0</ele><time>2026-04-11T09:04:58.454Z</time></trkpt><trkpt lat="46.160435" lon="12.987605"><ele>198.0</ele><time>2026-04-11T09:04:59.455Z</time></trkpt><trkpt lat="46.1605233" lon="12.9876083"><ele>198.0</ele><time>2026-04-11T09:05:00.455Z</time></trkpt><trkpt lat="46.160605" lon="12.9876167"><ele>198.0</ele><time>2026-04-11T09:05:01.455Z</time></trkpt><trkpt lat="46.1607067" lon="12.9876117"><ele>198.0</ele><time>2026-04-11T09:05:03.455Z</time></trkpt><trkpt lat="46.1607567" lon="12.98755"><ele>198.0</ele><time>2026-04-11T09:05:05.454Z</time></trkpt><trkpt lat="46.160815" lon="12.98744"><ele>198.60000000000002</ele><time>2026-04-11T09:05:07.455Z</time></trkpt><trkpt lat="46.1609017" lon="12.987325"><ele>199.20000000000002</ele><time>2026-04-11T09:05:09.455Z</time></trkpt><trkpt lat="46.1609533" lon="12.9872667"><ele>199.8</ele><time>2026-04-11T09:05:10.455Z</time></trkpt><trkpt lat="46.1610033" lon="12.987205"><ele>200.4</ele><time>2026-04-11T09:05:11.455Z</time></trkpt><trkpt lat="46.1611033" lon="12.9871083"><ele>201.0</ele><time>2026-04-11T09:05:13.455Z</time></trkpt><trkpt lat="46.1612083" lon="12.9870267"><ele>201.0</ele><time>2026-04-11T09:05:15.455Z</time></trkpt><trkpt lat="46.161275" lon="12.98697"><ele>201.0</ele><time>2026-04-11T09:05:16.455Z</time></trkpt><trkpt lat="46.1613417" lon="12.98692"><ele>201.0</ele><time>2026-04-11T09:05:17.455Z</time></trkpt><trkpt lat="46.161415" lon="12.9868717"><ele>201.0</ele><time>2026-04-11T09:05:18.454Z</time></trkpt><trkpt lat="46.1614833" lon="12.98682"><ele>201.0</ele><time>2026-04-11T09:05:19.455Z</time></trkpt><trkpt lat="46.1615483" lon="12.98676"><ele>201.0</ele><time>2026-04-11T09:05:20.455Z</time></trkpt><trkpt lat="46.161615" lon="12.9867017"><ele>200.4</ele><time>2026-04-11T09:05:21.455Z</time></trkpt><trkpt lat="46.1617383" lon="12.9865983"><ele>199.8</ele><time>2026-04-11T09:05:23.454Z</time></trkpt><trkpt lat="46.1618083" lon="12.9865417"><ele>199.20000000000002</ele><time>2026-04-11T09:05:24.455Z</time></trkpt><trkpt lat="46.1618767" lon="12.9864817"><ele>198.60000000000002</ele><time>2026-04-11T09:05:25.455Z</time></trkpt><trkpt lat="46.1619467" lon="12.9864167"><ele>198.0</ele><time>2026-04-11T09:05:26.455Z</time></trkpt><trkpt lat="46.1620117" lon="12.9863517"><ele>198.0</ele><time>2026-04-11T09:05:27.455Z</time></trkpt><trkpt lat="46.16207" lon="12.98628"><ele>198.0</ele><time>2026-04-11T09:05:28.455Z</time></trkpt><trkpt lat="46.1621267" lon="12.9862083"><ele>198.0</ele><time>2026-04-11T09:05:29.455Z</time></trkpt><trkpt lat="46.1621833" lon="12.9861217"><ele>198.0</ele><time>2026-04-11T09:05:30.455Z</time></trkpt><trkpt lat="46.1622283" lon="12.986035"><ele>198.0</ele><time>2026-04-11T09:05:31.455Z</time></trkpt><trkpt lat="46.16227" lon="12.9859417"><ele>198.0</ele><time>2026-04-11T09:05:32.455Z</time></trkpt><trkpt lat="46.16231" lon="12.98584"><ele>198.0</ele><time>2026-04-11T09:05:33.455Z</time></trkpt><trkpt lat="46.1623567" lon="12.98573"><ele>198.0</ele><time>2026-04-11T09:05:34.455Z</time></trkpt><trkpt lat="46.1624017" lon="12.9856283"><ele>198.0</ele><time>2026-04-11T09:05:35.455Z</time></trkpt><trkpt lat="46.1624367" lon="12.9855267"><ele>198.0</ele><time>2026-04-11T09:05:36.454Z</time></trkpt><trkpt lat="46.162485" lon="12.9854483"><ele>198.0</ele><time>2026-04-11T09:05:37.455Z</time></trkpt><trkpt lat="46.16254" lon="12.9853667"><ele>198.0</ele><time>2026-04-11T09:05:38.455Z</time></trkpt><trkpt lat="46.1626" lon="12.9852883"><ele>198.0</ele><time>2026-04-11T09:05:39.455Z</time></trkpt><trkpt lat="46.1626667" lon="12.98521"><ele>198.0</ele><time>2026-04-11T09:05:40.454Z</time></trkpt><trkpt lat="46.1627317" lon="12.985135"><ele>198.0</ele><time>2026-04-11T09:05:41.455Z</time></trkpt><trkpt lat="46.16279" lon="12.9850683"><ele>198.0</ele><time>2026-04-11T09:05:42.455Z</time></trkpt><trkpt lat="46.1628483" lon="12.985"><ele>198.0</ele><time>2026-04-11T09:05:43.455Z</time></trkpt><trkpt lat="46.1629117" lon="12.9849233"><ele>198.0</ele><time>2026-04-11T09:05:44.455Z</time></trkpt><trkpt lat="46.16298" lon="12.9848417"><ele>198.14285714285714</ele><time>2026-04-11T09:05:45.455Z</time></trkpt><trkpt lat="46.1630383" lon="12.984775"><ele>198.28571428571428</ele><time>2026-04-11T09:05:46.454Z</time></trkpt><trkpt lat="46.1631" lon="12.98471"><ele>198.42857142857142</ele><time>2026-04-11T09:05:47.455Z</time></trkpt><trkpt lat="46.1631567" lon="12.9846417"><ele>198.57142857142856</ele><time>2026-04-11T09:05:48.455Z</time></trkpt><trkpt lat="46.1632183" lon="12.9845783"><ele>198.71428571428572</ele><time>2026-04-11T09:05:49.455Z</time></trkpt><trkpt lat="46.1632717" lon="12.9845083"><ele>198.85714285714283</ele><time>2026-04-11T09:05:50.455Z</time></trkpt><trkpt lat="46.1633267" lon="12.9844367"><ele>199.0</ele><time>2026-04-11T09:05:51.455Z</time></trkpt><trkpt lat="46.163375" lon="12.9843767"><ele>198.66666666666666</ele><time>2026-04-11T09:05:52.455Z</time></trkpt><trkpt lat="46.1634533" lon="12.984275"><ele>198.33333333333331</ele><time>2026-04-11T09:05:54.454Z</time></trkpt><trkpt lat="46.1635133" lon="12.9842033"><ele>198.0</ele><time>2026-04-11T09:05:56.454Z</time></trkpt><trkpt lat="46.1635833" lon="12.984155"><ele>197.66666666666669</ele><time>2026-04-11T09:05:59.455Z</time></trkpt><trkpt lat="46.163685" lon="12.9841617"><ele>197.33333333333334</ele><time>2026-04-11T09:06:01.455Z</time></trkpt><trkpt lat="46.1637567" lon="12.9841633"><ele>197.0</ele><time>2026-04-11T09:06:02.455Z</time></trkpt><trkpt lat="46.1638383" lon="12.98416"><ele>197.0</ele><time>2026-04-11T09:06:03.455Z</time></trkpt><trkpt lat="46.1639317" lon="12.9841633"><ele>197.0</ele><time>2026-04-11T09:06:04.455Z</time></trkpt><trkpt lat="46.164045" lon="12.9841583"><ele>197.0</ele><time>2026-04-11T09:06:05.455Z</time></trkpt><trkpt lat="46.16417" lon="12.9841567"><ele>197.0</ele><time>2026-04-11T09:06:06.454Z</time></trkpt><trkpt lat="46.1642917" lon="12.98418"><ele>197.8</ele><time>2026-04-11T09:06:07.455Z</time></trkpt><trkpt lat="46.1644017" lon="12.984215"><ele>198.6</ele><time>2026-04-11T09:06:08.455Z</time></trkpt><trkpt lat="46.1645017" lon="12.98425"><ele>199.4</ele><time>2026-04-11T09:06:09.455Z</time></trkpt><trkpt lat="46.1645817" lon="12.984275"><ele>200.20000000000002</ele><time>2026-04-11T09:06:10.455Z</time></trkpt><trkpt lat="46.1646517" lon="12.9843017"><ele>201.0</ele><time>2026-04-11T09:06:11.455Z</time></trkpt><trkpt lat="46.16476" lon="12.9843033"><ele>201.0</ele><time>2026-04-11T09:06:13.454Z</time></trkpt><trkpt lat="46.1648217" lon="12.9842567"><ele>201.0</ele><time>2026-04-11T09:06:15.455Z</time></trkpt><trkpt lat="46.1648717" lon="12.9841617"><ele>201.0</ele><time>2026-04-11T09:06:17.455Z</time></trkpt><trkpt lat="46.1649467" lon="12.9840217"><ele>201.0</ele><time>2026-04-11T09:06:19.455Z</time></trkpt><trkpt lat="46.164995" lon="12.9839367"><ele>201.0</ele><time>2026-04-11T09:06:20.455Z</time></trkpt><trkpt lat="46.1650367" lon="12.9838617"><ele>201.0</ele><time>2026-04-11T09:06:21.454Z</time></trkpt><trkpt lat="46.16511" lon="12.9837233"><ele>201.0</ele><time>2026-04-11T09:06:23.455Z</time></trkpt><trkpt lat="46.1651517" lon="12.9836417"><ele>201.0</ele><time>2026-04-11T09:06:24.455Z</time></trkpt><trkpt lat="46.1651983" lon="12.9835483"><ele>201.0</ele><time>2026-04-11T09:06:25.454Z</time></trkpt><trkpt lat="46.1652533" lon="12.98345"><ele>201.0</ele><time>2026-04-11T09:06:26.455Z</time></trkpt><trkpt lat="46.165305" lon="12.9833567"><ele>201.0</ele><time>2026-04-11T09:06:27.455Z</time></trkpt><trkpt lat="46.1653467" lon="12.9832617"><ele>201.0</ele><time>2026-04-11T09:06:28.455Z</time></trkpt><trkpt lat="46.1653883" lon="12.9831583"><ele>200.66666666666666</ele><time>2026-04-11T09:06:29.454Z</time></trkpt><trkpt lat="46.165425" lon="12.983055"><ele>200.33333333333331</ele><time>2026-04-11T09:06:30.454Z</time></trkpt><trkpt lat="46.1654617" lon="12.982955"><ele>200.0</ele><time>2026-04-11T09:06:31.455Z</time></trkpt><trkpt lat="46.1655" lon="12.9828517"><ele>199.66666666666666</ele><time>2026-04-11T09:06:32.455Z</time></trkpt><trkpt lat="46.16554" lon="12.9827583"><ele>199.33333333333331</ele><time>2026-04-11T09:06:33.454Z</time></trkpt><trkpt lat="46.165575" lon="12.98266"><ele>199.0</ele><time>2026-04-11T09:06:34.454Z</time></trkpt><trkpt lat="46.165615" lon="12.9825633"><ele>198.79999999999998</ele><time>2026-04-11T09:06:35.455Z</time></trkpt><trkpt lat="46.1656517" lon="12.9824717"><ele>198.6</ele><time>2026-04-11T09:06:36.454Z</time></trkpt><trkpt lat="46.1656783" lon="12.9823867"><ele>198.4</ele><time>2026-04-11T09:06:37.455Z</time></trkpt><trkpt lat="46.1657383" lon="12.98226"><ele>198.2</ele><time>2026-04-11T09:06:39.455Z</time></trkpt><trkpt lat="46.1658117" lon="12.9821317"><ele>198.0</ele><time>2026-04-11T09:06:41.455Z</time></trkpt><trkpt lat="46.1659083" lon="12.9820167"><ele>198.0</ele><time>2026-04-11T09:06:43.455Z</time></trkpt><trkpt lat="46.1660133" lon="12.9819133"><ele>198.0</ele><time>2026-04-11T09:06:45.455Z</time></trkpt><trkpt lat="46.166065" lon="12.9818567"><ele>198.0</ele><time>2026-04-11T09:06:46.455Z</time></trkpt><trkpt lat="46.1661183" lon="12.981805"><ele>198.0</ele><time>2026-04-11T09:06:47.455Z</time></trkpt><trkpt lat="46.16621" lon="12.9816983"><ele>198.0</ele><time>2026-04-11T09:06:49.454Z</time></trkpt><trkpt lat="46.1662917" lon="12.9816083"><ele>197.8</ele><time>2026-04-11T09:06:51.455Z</time></trkpt><trkpt lat="46.1663783" lon="12.98152"><ele>197.60000000000002</ele><time>2026-04-11T09:06:53.454Z</time></trkpt><trkpt lat="46.1664517" lon="12.9814383"><ele>197.39999999999998</ele><time>2026-04-11T09:06:55.455Z</time></trkpt><trkpt lat="46.1665233" lon="12.98135"><ele>197.2</ele><time>2026-04-11T09:06:57.455Z</time></trkpt><trkpt lat="46.1665917" lon="12.9812767"><ele>197.0</ele><time>2026-04-11T09:06:59.455Z</time></trkpt><trkpt lat="46.16667" lon="12.98121"><ele>197.0</ele><time>2026-04-11T09:07:01.455Z</time></trkpt><trkpt lat="46.16677" lon="12.9811267"><ele>197.0</ele><time>2026-04-11T09:07:03.455Z</time></trkpt><trkpt lat="46.1668683" lon="12.9810517"><ele>197.0</ele><time>2026-04-11T09:07:05.454Z</time></trkpt><trkpt lat="46.1669817" lon="12.9809783"><ele>197.0</ele><time>2026-04-11T09:07:07.455Z</time></trkpt><trkpt lat="46.16704" lon="12.9809367"><ele>197.0</ele><time>2026-04-11T09:07:08.455Z</time></trkpt><trkpt lat="46.1671" lon="12.9808933"><ele>197.14285714285714</ele><time>2026-04-11T09:07:09.455Z</time></trkpt><trkpt lat="46.1671567" lon="12.980845"><ele>197.28571428571428</ele><time>2026-04-11T09:07:10.455Z</time></trkpt><trkpt lat="46.1672133" lon="12.980795"><ele>197.42857142857144</ele><time>2026-04-11T09:07:11.455Z</time></trkpt><trkpt lat="46.1672717" lon="12.98074"><ele>197.57142857142856</ele><time>2026-04-11T09:07:12.454Z</time></trkpt><trkpt lat="46.1673333" lon="12.9806767"><ele>197.7142857142857</ele><time>2026-04-11T09:07:13.455Z</time></trkpt><trkpt lat="46.1673917" lon="12.98061"><ele>197.85714285714286</ele><time>2026-04-11T09:07:14.455Z</time></trkpt><trkpt lat="46.16745" lon="12.980535"><ele>198.0</ele><time>2026-04-11T09:07:15.454Z</time></trkpt><trkpt lat="46.1675217" lon="12.980435"><ele>198.0</ele><time>2026-04-11T09:07:16.454Z</time></trkpt><trkpt lat="46.1675917" lon="12.9803467"><ele>198.0</ele><time>2026-04-11T09:07:17.455Z</time></trkpt><trkpt lat="46.1676517" lon="12.9802617"><ele>198.0</ele><time>2026-04-11T09:07:18.455Z</time></trkpt><trkpt lat="46.1677117" lon="12.9801733"><ele>198.0</ele><time>2026-04-11T09:07:19.454Z</time></trkpt><trkpt lat="46.1677667" lon="12.9800833"><ele>198.0</ele><time>2026-04-11T09:07:20.455Z</time></trkpt><trkpt lat="46.1678083" lon="12.9799983"><ele>198.0</ele><time>2026-04-11T09:07:21.454Z</time></trkpt><trkpt lat="46.167855" lon="12.9799017"><ele>198.0</ele><time>2026-04-11T09:07:22.455Z</time></trkpt><trkpt lat="46.1679017" lon="12.9797967"><ele>198.0</ele><time>2026-04-11T09:07:23.455Z</time></trkpt><trkpt lat="46.1679433" lon="12.97969"><ele>198.0</ele><time>2026-04-11T09:07:24.454Z</time></trkpt><trkpt lat="46.1679967" lon="12.9795883"><ele>198.0</ele><time>2026-04-11T09:07:25.455Z</time></trkpt><trkpt lat="46.1680433" lon="12.97949"><ele>198.0</ele><time>2026-04-11T09:07:26.455Z</time></trkpt><trkpt lat="46.1680967" lon="12.979405"><ele>198.0</ele><time>2026-04-11T09:07:27.455Z</time></trkpt><trkpt lat="46.1681617" lon="12.9793267"><ele>197.8</ele><time>2026-04-11T09:07:28.455Z</time></trkpt><trkpt lat="46.16824" lon="12.979245"><ele>197.60000000000002</ele><time>2026-04-11T09:07:29.454Z</time></trkpt><trkpt lat="46.1683317" lon="12.9791567"><ele>197.39999999999998</ele><time>2026-04-11T09:07:30.455Z</time></trkpt><trkpt lat="46.1684283" lon="12.9790667"><ele>197.2</ele><time>2026-04-11T09:07:31.455Z</time></trkpt><trkpt lat="46.16852" lon="12.9789867"><ele>197.0</ele><time>2026-04-11T09:07:32.455Z</time></trkpt><trkpt lat="46.1686117" lon="12.9789067"><ele>197.0</ele><time>2026-04-11T09:07:33.455Z</time></trkpt><trkpt lat="46.1687017" lon="12.978825"><ele>197.0</ele><time>2026-04-11T09:07:34.455Z</time></trkpt><trkpt lat="46.1687933" lon="12.9787417"><ele>197.0</ele><time>2026-04-11T09:07:35.455Z</time></trkpt><trkpt lat="46.168885" lon="12.9786583"><ele>197.0</ele><time>2026-04-11T09:07:36.455Z</time></trkpt><trkpt lat="46.1689883" lon="12.9785767"><ele>197.0</ele><time>2026-04-11T09:07:37.455Z</time></trkpt><trkpt lat="46.1690933" lon="12.9784967"><ele>197.00000000000003</ele><time>2026-04-11T09:07:38.455Z</time></trkpt><trkpt lat="46.1691833" lon="12.9784317"><ele>197.0</ele><time>2026-04-11T09:07:39.455Z</time></trkpt><trkpt lat="46.1692633" lon="12.9783883"><ele>197.0</ele><time>2026-04-11T09:07:40.455Z</time></trkpt><trkpt lat="46.1693283" lon="12.97837"><ele>197.0</ele><time>2026-04-11T09:07:41.454Z</time></trkpt><trkpt lat="46.1694033" lon="12.97835"><ele>197.00000000000003</ele><time>2026-04-11T09:07:42.455Z</time></trkpt><trkpt lat="46.1694933" lon="12.9783467"><ele>197.0</ele><time>2026-04-11T09:07:43.455Z</time></trkpt><trkpt lat="46.1695767" lon="12.9783617"><ele>197.33333333333334</ele><time>2026-04-11T09:07:44.454Z</time></trkpt><trkpt lat="46.1696567" lon="12.9783833"><ele>197.66666666666669</ele><time>2026-04-11T09:07:45.455Z</time></trkpt><trkpt lat="46.1697367" lon="12.9784317"><ele>198.0</ele><time>2026-04-11T09:07:46.455Z</time></trkpt><trkpt lat="46.1698117" lon="12.9784883"><ele>198.33333333333331</ele><time>2026-04-11T09:07:47.455Z</time></trkpt><trkpt lat="46.169885" lon="12.978555"><ele>198.66666666666666</ele><time>2026-04-11T09:07:48.455Z</time></trkpt><trkpt lat="46.1699567" lon="12.97863"><ele>199.0</ele><time>2026-04-11T09:07:49.455Z</time></trkpt><trkpt lat="46.1700333" lon="12.9787117"><ele>199.49999999999997</ele><time>2026-04-11T09:07:50.454Z</time></trkpt><trkpt lat="46.1701083" lon="12.9787883"><ele>200.0</ele><time>2026-04-11T09:07:51.455Z</time></trkpt><trkpt lat="46.1701833" lon="12.978855"><ele>200.5</ele><time>2026-04-11T09:07:52.454Z</time></trkpt><trkpt lat="46.1702533" lon="12.9789167"><ele>201.0</ele><time>2026-04-11T09:07:53.454Z</time></trkpt><trkpt lat="46.1703217" lon="12.9789717"><ele>201.49999999999997</ele><time>2026-04-11T09:07:54.455Z</time></trkpt><trkpt lat="46.1703817" lon="12.9790167"><ele>202.0</ele><time>2026-04-11T09:07:55.455Z</time></trkpt><trkpt lat="46.1704433" lon="12.979065"><ele>201.99999999999997</ele><time>2026-04-11T09:07:56.455Z</time></trkpt><trkpt lat="46.1705133" lon="12.9790833"><ele>202.0</ele><time>2026-04-11T09:07:57.454Z</time></trkpt><trkpt lat="46.1706017" lon="12.979075"><ele>202.0</ele><time>2026-04-11T09:07:58.455Z</time></trkpt><trkpt lat="46.170685" lon="12.9790683"><ele>202.0</ele><time>2026-04-11T09:07:59.455Z</time></trkpt><trkpt lat="46.170775" lon="12.9790467"><ele>201.99999999999997</ele><time>2026-04-11T09:08:00.455Z</time></trkpt><trkpt lat="46.1708667" lon="12.9790217"><ele>202.0</ele><time>2026-04-11T09:08:01.455Z</time></trkpt><trkpt lat="46.1709567" lon="12.9789883"><ele>203.2</ele><time>2026-04-11T09:08:02.455Z</time></trkpt><trkpt lat="46.1710433" lon="12.978935"><ele>204.39999999999998</ele><time>2026-04-11T09:08:03.455Z</time></trkpt><trkpt lat="46.1711317" lon="12.97889"><ele>205.60000000000002</ele><time>2026-04-11T09:08:04.454Z</time></trkpt><trkpt lat="46.17123" lon="12.9788283"><ele>206.8</ele><time>2026-04-11T09:08:05.455Z</time></trkpt><trkpt lat="46.1713217" lon="12.97877"><ele>208.0</ele><time>2026-04-11T09:08:06.454Z</time></trkpt><trkpt lat="46.17141" lon="12.9787183"><ele>207.99999999999997</ele><time>2026-04-11T09:08:07.455Z</time></trkpt><trkpt lat="46.1714933" lon="12.9786767"><ele>208.0</ele><time>2026-04-11T09:08:08.455Z</time></trkpt><trkpt lat="46.1715667" lon="12.9786517"><ele>208.0</ele><time>2026-04-11T09:08:09.454Z</time></trkpt><trkpt lat="46.171635" lon="12.9786333"><ele>208.0</ele><time>2026-04-11T09:08:10.455Z</time></trkpt><trkpt lat="46.1717" lon="12.9786283"><ele>207.99999999999997</ele><time>2026-04-11T09:08:11.455Z</time></trkpt><trkpt lat="46.17182" lon="12.9785933"><ele>208.0</ele><time>2026-04-11T09:08:13.455Z</time></trkpt><trkpt lat="46.1718883" lon="12.978565"><ele>208.49999999999997</ele><time>2026-04-11T09:08:14.455Z</time></trkpt><trkpt lat="46.1719617" lon="12.978545"><ele>209.0</ele><time>2026-04-11T09:08:15.455Z</time></trkpt><trkpt lat="46.172035" lon="12.9785133"><ele>209.5</ele><time>2026-04-11T09:08:16.454Z</time></trkpt><trkpt lat="46.17211" lon="12.9784767"><ele>210.0</ele><time>2026-04-11T09:08:17.455Z</time></trkpt><trkpt lat="46.1721967" lon="12.9784367"><ele>210.49999999999997</ele><time>2026-04-11T09:08:18.454Z</time></trkpt><trkpt lat="46.1722733" lon="12.9784033"><ele>211.0</ele><time>2026-04-11T09:08:19.455Z</time></trkpt><trkpt lat="46.1723833" lon="12.978405"><ele>210.71428571428572</ele><time>2026-04-11T09:08:21.455Z</time></trkpt><trkpt lat="46.1724483" lon="12.9783967"><ele>210.42857142857144</ele><time>2026-04-11T09:08:28.455Z</time></trkpt><trkpt lat="46.172425" lon="12.978275"><ele>210.14285714285714</ele><time>2026-04-11T09:08:31.454Z</time></trkpt><trkpt lat="46.17238" lon="12.9782083"><ele>209.85714285714286</ele><time>2026-04-11T09:08:32.455Z</time></trkpt><trkpt lat="46.1723383" lon="12.9781383"><ele>209.57142857142856</ele><time>2026-04-11T09:08:33.455Z</time></trkpt><trkpt lat="46.1722933" lon="12.978055"><ele>209.28571428571428</ele><time>2026-04-11T09:08:34.455Z</time></trkpt><trkpt lat="46.1722417" lon="12.9779717"><ele>209.0</ele><time>2026-04-11T09:08:35.455Z</time></trkpt><trkpt lat="46.17219" lon="12.977875"><ele>208.39999999999998</ele><time>2026-04-11T09:08:36.455Z</time></trkpt><trkpt lat="46.1721383" lon="12.9777633"><ele>207.8</ele><time>2026-04-11T09:08:37.455Z</time></trkpt><trkpt lat="46.172075" lon="12.97762"><ele>207.2</ele><time>2026-04-11T09:08:38.455Z</time></trkpt><trkpt lat="46.17202" lon="12.977475"><ele>206.60000000000002</ele><time>2026-04-11T09:08:39.454Z</time></trkpt><trkpt lat="46.171965" lon="12.9773183"><ele>206.0</ele><time>2026-04-11T09:08:40.454Z</time></trkpt><trkpt lat="46.171915" lon="12.97717"><ele>205.60000000000002</ele><time>2026-04-11T09:08:41.455Z</time></trkpt><trkpt lat="46.1718733" lon="12.9770233"><ele>205.2</ele><time>2026-04-11T09:08:42.455Z</time></trkpt><trkpt lat="46.1718267" lon="12.9768917"><ele>204.8</ele><time>2026-04-11T09:08:43.455Z</time></trkpt><trkpt lat="46.1717783" lon="12.9767533"><ele>204.39999999999998</ele><time>2026-04-11T09:08:44.455Z</time></trkpt><trkpt lat="46.1717483" lon="12.9765833"><ele>204.0</ele><time>2026-04-11T09:08:45.455Z</time></trkpt><trkpt lat="46.1717" lon="12.9764367"><ele>203.25</ele><time>2026-04-11T09:08:46.455Z</time></trkpt><trkpt lat="46.1716533" lon="12.9762833"><ele>202.5</ele><time>2026-04-11T09:08:47.455Z</time></trkpt><trkpt lat="46.1716017" lon="12.9761267"><ele>201.75</ele><time>2026-04-11T09:08:48.454Z</time></trkpt><trkpt lat="46.171545" lon="12.97597"><ele>201.0</ele><time>2026-04-11T09:08:49.455Z</time></trkpt><trkpt lat="46.1714883" lon="12.9758233"><ele>200.4</ele><time>2026-04-11T09:08:50.455Z</time></trkpt><trkpt lat="46.171435" lon="12.975685"><ele>199.8</ele><time>2026-04-11T09:08:51.455Z</time></trkpt><trkpt lat="46.17138" lon="12.9755533"><ele>199.20000000000002</ele><time>2026-04-11T09:08:52.455Z</time></trkpt><trkpt lat="46.1713367" lon="12.9754167"><ele>198.60000000000002</ele><time>2026-04-11T09:08:53.455Z</time></trkpt><trkpt lat="46.1712883" lon="12.9753"><ele>198.0</ele><time>2026-04-11T09:08:54.455Z</time></trkpt><trkpt lat="46.17125" lon="12.975185"><ele>198.0</ele><time>2026-04-11T09:08:55.455Z</time></trkpt><trkpt lat="46.1712183" lon="12.97507"><ele>198.0</ele><time>2026-04-11T09:08:56.455Z</time></trkpt><trkpt lat="46.1711883" lon="12.9749533"><ele>198.0</ele><time>2026-04-11T09:08:57.455Z</time></trkpt><trkpt lat="46.1711617" lon="12.974865"><ele>198.0</ele><time>2026-04-11T09:08:58.455Z</time></trkpt><trkpt lat="46.1711367" lon="12.9747417"><ele>198.0</ele><time>2026-04-11T09:09:00.455Z</time></trkpt><trkpt lat="46.171155" lon="12.97463"><ele>198.0</ele><time>2026-04-11T09:09:03.455Z</time></trkpt><trkpt lat="46.1712083" lon="12.9745267"><ele>198.0</ele><time>2026-04-11T09:09:05.455Z</time></trkpt><trkpt lat="46.1712567" lon="12.97439"><ele>198.0</ele><time>2026-04-11T09:09:07.454Z</time></trkpt><trkpt lat="46.171295" lon="12.974255"><ele>198.0</ele><time>2026-04-11T09:09:09.454Z</time></trkpt><trkpt lat="46.1713433" lon="12.974105"><ele>198.0</ele><time>2026-04-11T09:09:11.454Z</time></trkpt><trkpt lat="46.1714083" lon="12.973955"><ele>198.0</ele><time>2026-04-11T09:09:13.455Z</time></trkpt><trkpt lat="46.17147" lon="12.9738017"><ele>198.2</ele><time>2026-04-11T09:09:15.455Z</time></trkpt><trkpt lat="46.1715267" lon="12.973675"><ele>198.4</ele><time>2026-04-11T09:09:17.455Z</time></trkpt><trkpt lat="46.171585" lon="12.9735617"><ele>198.6</ele><time>2026-04-11T09:09:19.454Z</time></trkpt><trkpt lat="46.1716383" lon="12.97345"><ele>198.79999999999998</ele><time>2026-04-11T09:09:21.455Z</time></trkpt><trkpt lat="46.1716917" lon="12.9733567"><ele>199.0</ele><time>2026-04-11T09:09:23.454Z</time></trkpt><trkpt lat="46.1717433" lon="12.9732767"><ele>198.99999999999997</ele><time>2026-04-11T09:09:25.455Z</time></trkpt><trkpt lat="46.1718067" lon="12.97321"><ele>199.0</ele><time>2026-04-11T09:09:27.455Z</time></trkpt><trkpt lat="46.1718933" lon="12.97314"><ele>199.0</ele><time>2026-04-11T09:09:29.455Z</time></trkpt><trkpt lat="46.171955" lon="12.9730767"><ele>199.0</ele><time>2026-04-11T09:09:31.455Z</time></trkpt><trkpt lat="46.1720117" lon="12.973015"><ele>198.99999999999997</ele><time>2026-04-11T09:09:33.455Z</time></trkpt><trkpt lat="46.1720717" lon="12.9729233"><ele>199.0</ele><time>2026-04-11T09:09:35.455Z</time></trkpt><trkpt lat="46.17213" lon="12.9727733"><ele>198.99999999999997</ele><time>2026-04-11T09:09:37.455Z</time></trkpt><trkpt lat="46.1721467" lon="12.972635"><ele>199.0</ele><time>2026-04-11T09:09:39.455Z</time></trkpt><trkpt lat="46.1722033" lon="12.9725767"><ele>199.0</ele><time>2026-04-11T09:09:42.454Z</time></trkpt><trkpt lat="46.17229" lon="12.97262"><ele>199.0</ele><time>2026-04-11T09:09:44.455Z</time></trkpt><trkpt lat="46.172365" lon="12.972655"><ele>198.99999999999997</ele><time>2026-04-11T09:09:46.455Z</time></trkpt><trkpt lat="46.1724433" lon="12.9726317"><ele>199.0</ele><time>2026-04-11T09:09:49.455Z</time></trkpt><trkpt lat="46.1725133" lon="12.9725333"><ele>198.49999999999997</ele><time>2026-04-11T09:09:51.454Z</time></trkpt><trkpt lat="46.1725833" lon="12.9724367"><ele>198.0</ele><time>2026-04-11T09:09:53.454Z</time></trkpt><trkpt lat="46.1726433" lon="12.972355"><ele>197.5</ele><time>2026-04-11T09:09:55.453Z</time></trkpt><trkpt lat="46.1726983" lon="12.97229"><ele>197.0</ele><time>2026-04-11T09:09:57.454Z</time></trkpt><trkpt lat="46.1727633" lon="12.972215"><ele>196.49999999999997</ele><time>2026-04-11T09:10:01.453Z</time></trkpt><trkpt lat="46.1728233" lon="12.9721483"><ele>196.0</ele><time>2026-04-11T09:10:04.454Z</time></trkpt><trkpt lat="46.1728817" lon="12.9720633"><ele>195.99999999999997</ele><time>2026-04-11T09:10:07.454Z</time></trkpt><trkpt lat="46.1729633" lon="12.9719633"><ele>196.0</ele><time>2026-04-11T09:10:09.454Z</time></trkpt><trkpt lat="46.173035" lon="12.9718933"><ele>196.0</ele><time>2026-04-11T09:10:11.454Z</time></trkpt><trkpt lat="46.1731" lon="12.9718233"><ele>196.0</ele><time>2026-04-11T09:10:13.453Z</time></trkpt><trkpt lat="46.1731533" lon="12.9717683"><ele>195.99999999999997</ele><time>2026-04-11T09:10:15.454Z</time></trkpt><trkpt lat="46.17308" lon="12.971855"><ele>196.0</ele><time>2026-04-11T09:10:30.454Z</time></trkpt><trkpt lat="46.1730267" lon="12.9719167"><ele>196.0</ele><time>2026-04-11T09:10:31.453Z</time></trkpt><trkpt lat="46.1729333" lon="12.9720283"><ele>196.0</ele><time>2026-04-11T09:10:33.454Z</time></trkpt><trkpt lat="46.1728517" lon="12.9721267"><ele>196.0</ele><time>2026-04-11T09:10:35.454Z</time></trkpt><trkpt lat="46.1727817" lon="12.972195"><ele>196.0</ele><time>2026-04-11T09:10:37.454Z</time></trkpt><trkpt lat="46.17272" lon="12.972245"><ele>196.0</ele><time>2026-04-11T09:10:39.454Z</time></trkpt><trkpt lat="46.1726533" lon="12.9723183"><ele>196.0</ele><time>2026-04-11T09:10:41.454Z</time></trkpt><trkpt lat="46.1725683" lon="12.972445"><ele>196.0</ele><time>2026-04-11T09:10:43.454Z</time></trkpt><trkpt lat="46.1725067" lon="12.9725317"><ele>196.0</ele><time>2026-04-11T09:10:44.454Z</time></trkpt><trkpt lat="46.1724483" lon="12.97261"><ele>196.0</ele><time>2026-04-11T09:10:45.454Z</time></trkpt><trkpt lat="46.172385" lon="12.9727117"><ele>196.0</ele><time>2026-04-11T09:10:47.453Z</time></trkpt><trkpt lat="46.1724417" lon="12.9727883"><ele>197.0</ele><time>2026-04-11T09:11:18.453Z</time></trkpt><trkpt lat="46.1725433" lon="12.9729133"><ele>198.0</ele><time>2026-04-11T09:11:20.454Z</time></trkpt><trkpt lat="46.17263" lon="12.9729867"><ele>199.0</ele><time>2026-04-11T09:11:21.454Z</time></trkpt><trkpt lat="46.1727483" lon="12.9730867"><ele>200.0</ele><time>2026-04-11T09:11:22.454Z</time></trkpt><trkpt lat="46.17288" lon="12.973195"><ele>200.0</ele><time>2026-04-11T09:11:23.454Z</time></trkpt><trkpt lat="46.1730133" lon="12.9733"><ele>200.0</ele><time>2026-04-11T09:11:24.453Z</time></trkpt><trkpt lat="46.173165" lon="12.973385"><ele>200.0</ele><time>2026-04-11T09:11:25.454Z</time></trkpt><trkpt lat="46.1733183" lon="12.9734533"><ele>201.25</ele><time>2026-04-11T09:11:26.454Z</time></trkpt><trkpt lat="46.17346" lon="12.9735017"><ele>202.5</ele><time>2026-04-11T09:11:27.454Z</time></trkpt><trkpt lat="46.1735933" lon="12.973535"><ele>203.75</ele><time>2026-04-11T09:11:28.454Z</time></trkpt><trkpt lat="46.17371" lon="12.9735483"><ele>205.0</ele><time>2026-04-11T09:11:29.453Z</time></trkpt><trkpt lat="46.17382" lon="12.973565"><ele>205.0</ele><time>2026-04-11T09:11:30.454Z</time></trkpt><trkpt lat="46.1739267" lon="12.97359"><ele>205.0</ele><time>2026-04-11T09:11:31.453Z</time></trkpt><trkpt lat="46.1740217" lon="12.9736283"><ele>205.0</ele><time>2026-04-11T09:11:32.453Z</time></trkpt><trkpt lat="46.1741133" lon="12.9736917"><ele>205.0</ele><time>2026-04-11T09:11:33.454Z</time></trkpt><trkpt lat="46.1742033" lon="12.9737883"><ele>205.0</ele><time>2026-04-11T09:11:34.454Z</time></trkpt><trkpt lat="46.1742967" lon="12.9739017"><ele>205.25</ele><time>2026-04-11T09:11:35.454Z</time></trkpt><trkpt lat="46.1743933" lon="12.9740283"><ele>205.5</ele><time>2026-04-11T09:11:36.454Z</time></trkpt><trkpt lat="46.1744817" lon="12.9741667"><ele>205.75</ele><time>2026-04-11T09:11:37.454Z</time></trkpt><trkpt lat="46.1745717" lon="12.9743"><ele>206.0</ele><time>2026-04-11T09:11:38.454Z</time></trkpt><trkpt lat="46.1746683" lon="12.974445"><ele>206.0</ele><time>2026-04-11T09:11:39.453Z</time></trkpt><trkpt lat="46.1747633" lon="12.974585"><ele>206.0</ele><time>2026-04-11T09:11:40.454Z</time></trkpt><trkpt lat="46.1748483" lon="12.9746967"><ele>206.0</ele><time>2026-04-11T09:11:41.454Z</time></trkpt><trkpt lat="46.1749267" lon="12.9747917"><ele>206.0</ele><time>2026-04-11T09:11:42.454Z</time></trkpt><trkpt lat="46.1750183" lon="12.97486"><ele>206.0</ele><time>2026-04-11T09:11:43.454Z</time></trkpt><trkpt lat="46.1751183" lon="12.9749133"><ele>206.0</ele><time>2026-04-11T09:11:44.454Z</time></trkpt><trkpt lat="46.1752183" lon="12.9749817"><ele>206.0</ele><time>2026-04-11T09:11:45.454Z</time></trkpt><trkpt lat="46.17532" lon="12.9750483"><ele>206.0</ele><time>2026-04-11T09:11:46.454Z</time></trkpt><trkpt lat="46.1754233" lon="12.9751083"><ele>206.0</ele><time>2026-04-11T09:11:47.454Z</time></trkpt><trkpt lat="46.1755283" lon="12.97517"><ele>206.75</ele><time>2026-04-11T09:11:48.454Z</time></trkpt><trkpt lat="46.175645" lon="12.9752267"><ele>207.5</ele><time>2026-04-11T09:11:49.454Z</time></trkpt><trkpt lat="46.17576" lon="12.9752883"><ele>208.25</ele><time>2026-04-11T09:11:50.454Z</time></trkpt><trkpt lat="46.1758767" lon="12.9753567"><ele>209.0</ele><time>2026-04-11T09:11:51.454Z</time></trkpt><trkpt lat="46.1759967" lon="12.9754183"><ele>209.75</ele><time>2026-04-11T09:11:52.454Z</time></trkpt><trkpt lat="46.176105" lon="12.9754817"><ele>210.5</ele><time>2026-04-11T09:11:53.453Z</time></trkpt><trkpt lat="46.176205" lon="12.97555"><ele>211.25</ele><time>2026-04-11T09:11:54.454Z</time></trkpt><trkpt lat="46.1763133" lon="12.97562"><ele>212.0</ele><time>2026-04-11T09:11:55.454Z</time></trkpt><trkpt lat="46.17642" lon="12.9756833"><ele>212.6</ele><time>2026-04-11T09:11:56.454Z</time></trkpt><trkpt lat="46.1765383" lon="12.9757367"><ele>213.2</ele><time>2026-04-11T09:11:57.454Z</time></trkpt><trkpt lat="46.1766433" lon="12.9757933"><ele>213.8</ele><time>2026-04-11T09:11:58.454Z</time></trkpt><trkpt lat="46.1767367" lon="12.9758317"><ele>214.4</ele><time>2026-04-11T09:11:59.454Z</time></trkpt><trkpt lat="46.1768217" lon="12.9758583"><ele>215.0</ele><time>2026-04-11T09:12:00.454Z</time></trkpt><trkpt lat="46.1768983" lon="12.975875"><ele>215.00000000000003</ele><time>2026-04-11T09:12:01.453Z</time></trkpt><trkpt lat="46.17698" lon="12.975905"><ele>215.0</ele><time>2026-04-11T09:12:02.453Z</time></trkpt><trkpt lat="46.1770817" lon="12.9759433"><ele>215.0</ele><time>2026-04-11T09:12:04.453Z</time></trkpt><trkpt lat="46.1771617" lon="12.97591"><ele>215.0</ele><time>2026-04-11T09:12:08.453Z</time></trkpt><trkpt lat="46.177225" lon="12.9758233"><ele>215.00000000000003</ele><time>2026-04-11T09:12:10.454Z</time></trkpt><trkpt lat="46.177265" lon="12.9757417"><ele>215.0</ele><time>2026-04-11T09:12:11.454Z</time></trkpt><trkpt lat="46.1773133" lon="12.9756367"><ele>215.00000000000003</ele><time>2026-04-11T09:12:12.454Z</time></trkpt><trkpt lat="46.17735" lon="12.975535"><ele>215.0</ele><time>2026-04-11T09:12:13.454Z</time></trkpt><trkpt lat="46.177385" lon="12.9754333"><ele>215.0</ele><time>2026-04-11T09:12:14.454Z</time></trkpt><trkpt lat="46.1774117" lon="12.975335"><ele>215.0</ele><time>2026-04-11T09:12:15.454Z</time></trkpt><trkpt lat="46.1774433" lon="12.9752383"><ele>215.00000000000003</ele><time>2026-04-11T09:12:16.454Z</time></trkpt><trkpt lat="46.1774783" lon="12.9751333"><ele>215.0</ele><time>2026-04-11T09:12:17.453Z</time></trkpt><trkpt lat="46.1775067" lon="12.97503"><ele>215.2</ele><time>2026-04-11T09:12:18.453Z</time></trkpt><trkpt lat="46.1775217" lon="12.974925"><ele>215.4</ele><time>2026-04-11T09:12:19.453Z</time></trkpt><trkpt lat="46.1775567" lon="12.9747933"><ele>215.60000000000002</ele><time>2026-04-11T09:12:20.454Z</time></trkpt><trkpt lat="46.1775933" lon="12.97466"><ele>215.8</ele><time>2026-04-11T09:12:21.453Z</time></trkpt><trkpt lat="46.17762" lon="12.9745233"><ele>216.0</ele><time>2026-04-11T09:12:22.454Z</time></trkpt><trkpt lat="46.1776433" lon="12.9744083"><ele>216.0</ele><time>2026-04-11T09:12:23.454Z</time></trkpt><trkpt lat="46.17767" lon="12.9743133"><ele>216.0</ele><time>2026-04-11T09:12:24.453Z</time></trkpt><trkpt lat="46.1777" lon="12.9742233"><ele>216.0</ele><time>2026-04-11T09:12:25.454Z</time></trkpt><trkpt lat="46.177735" lon="12.9741367"><ele>216.0</ele><time>2026-04-11T09:12:26.454Z</time></trkpt><trkpt lat="46.1777767" lon="12.9740517"><ele>216.0</ele><time>2026-04-11T09:12:27.453Z</time></trkpt><trkpt lat="46.1778217" lon="12.97398"><ele>216.0</ele><time>2026-04-11T09:12:28.454Z</time></trkpt><trkpt lat="46.17788" lon="12.9739183"><ele>216.0</ele><time>2026-04-11T09:12:29.454Z</time></trkpt><trkpt lat="46.177955" lon="12.9738417"><ele>215.25</ele><time>2026-04-11T09:12:30.454Z</time></trkpt><trkpt lat="46.1780383" lon="12.97377"><ele>214.5</ele><time>2026-04-11T09:12:31.453Z</time></trkpt><trkpt lat="46.1781517" lon="12.9736733"><ele>213.75</ele><time>2026-04-11T09:12:32.454Z</time></trkpt><trkpt lat="46.1782667" lon="12.9735783"><ele>213.0</ele><time>2026-04-11T09:12:33.454Z</time></trkpt><trkpt lat="46.1783733" lon="12.97346"><ele>211.75</ele><time>2026-04-11T09:12:34.454Z</time></trkpt><trkpt lat="46.1784667" lon="12.9733383"><ele>210.5</ele><time>2026-04-11T09:12:35.454Z</time></trkpt><trkpt lat="46.1785433" lon="12.9732017"><ele>209.25</ele><time>2026-04-11T09:12:36.454Z</time></trkpt><trkpt lat="46.178605" lon="12.973055"><ele>208.0</ele><time>2026-04-11T09:12:37.454Z</time></trkpt><trkpt lat="46.1786467" lon="12.9729233"><ele>208.0</ele><time>2026-04-11T09:12:38.454Z</time></trkpt><trkpt lat="46.17868" lon="12.97279"><ele>208.0</ele><time>2026-04-11T09:12:39.453Z</time></trkpt><trkpt lat="46.178715" lon="12.9726483"><ele>208.0</ele><time>2026-04-11T09:12:40.454Z</time></trkpt><trkpt lat="46.178745" lon="12.9725067"><ele>208.0</ele><time>2026-04-11T09:12:41.454Z</time></trkpt><trkpt lat="46.1787633" lon="12.9723783"><ele>208.0</ele><time>2026-04-11T09:12:42.454Z</time></trkpt><trkpt lat="46.1787683" lon="12.9722633"><ele>207.83333333333331</ele><time>2026-04-11T09:12:43.454Z</time></trkpt><trkpt lat="46.1787783" lon="12.9721033"><ele>207.66666666666666</ele><time>2026-04-11T09:12:45.454Z</time></trkpt><trkpt lat="46.1788183" lon="12.972015"><ele>207.5</ele><time>2026-04-11T09:12:47.454Z</time></trkpt><trkpt lat="46.178885" lon="12.9719583"><ele>207.33333333333331</ele><time>2026-04-11T09:12:49.453Z</time></trkpt><trkpt lat="46.17898" lon="12.9718867"><ele>207.16666666666666</ele><time>2026-04-11T09:12:51.454Z</time></trkpt><trkpt lat="46.1790467" lon="12.9718467"><ele>207.0</ele><time>2026-04-11T09:12:52.454Z</time></trkpt><trkpt lat="46.1791183" lon="12.9718033"><ele>207.2857142857143</ele><time>2026-04-11T09:12:53.454Z</time></trkpt><trkpt lat="46.1791867" lon="12.9717583"><ele>207.57142857142858</ele><time>2026-04-11T09:12:54.454Z</time></trkpt><trkpt lat="46.1792533" lon="12.9717133"><ele>207.85714285714286</ele><time>2026-04-11T09:12:55.454Z</time></trkpt><trkpt lat="46.17932" lon="12.9716667"><ele>208.14285714285717</ele><time>2026-04-11T09:12:56.454Z</time></trkpt><trkpt lat="46.1793833" lon="12.971625"><ele>208.42857142857142</ele><time>2026-04-11T09:12:57.454Z</time></trkpt><trkpt lat="46.1794533" lon="12.97159"><ele>208.71428571428572</ele><time>2026-04-11T09:12:58.454Z</time></trkpt><trkpt lat="46.1795333" lon="12.97157"><ele>209.0</ele><time>2026-04-11T09:12:59.453Z</time></trkpt><trkpt lat="46.179595" lon="12.97154"><ele>209.00000000000003</ele><time>2026-04-11T09:13:00.454Z</time></trkpt><trkpt lat="46.1796567" lon="12.97149"><ele>209.0</ele><time>2026-04-11T09:13:01.454Z</time></trkpt><trkpt lat="46.1797133" lon="12.9714267"><ele>209.0</ele><time>2026-04-11T09:13:02.454Z</time></trkpt><trkpt lat="46.1797583" lon="12.9713517"><ele>209.0</ele><time>2026-04-11T09:13:03.454Z</time></trkpt><trkpt lat="46.1798417" lon="12.9712317"><ele>209.00000000000003</ele><time>2026-04-11T09:13:05.454Z</time></trkpt><trkpt lat="46.1799033" lon="12.971155"><ele>209.0</ele><time>2026-04-11T09:13:07.453Z</time></trkpt><trkpt lat="46.1799783" lon="12.9711533"><ele>209.66666666666669</ele><time>2026-04-11T09:13:14.453Z</time></trkpt><trkpt lat="46.1800633" lon="12.9712383"><ele>210.33333333333334</ele><time>2026-04-11T09:13:16.454Z</time></trkpt><trkpt lat="46.1801133" lon="12.9712967"><ele>211.0</ele><time>2026-04-11T09:13:17.453Z</time></trkpt><trkpt lat="46.180165" lon="12.9713533"><ele>211.66666666666669</ele><time>2026-04-11T09:13:18.454Z</time></trkpt><trkpt lat="46.1802317" lon="12.9714417"><ele>212.33333333333334</ele><time>2026-04-11T09:13:19.454Z</time></trkpt><trkpt lat="46.1803" lon="12.971555"><ele>213.0</ele><time>2026-04-11T09:13:20.454Z</time></trkpt><trkpt lat="46.1803917" lon="12.971685"><ele>213.5</ele><time>2026-04-11T09:13:21.454Z</time></trkpt><trkpt lat="46.1805" lon="12.971815"><ele>214.0</ele><time>2026-04-11T09:13:22.454Z</time></trkpt><trkpt lat="46.180615" lon="12.9719417"><ele>214.5</ele><time>2026-04-11T09:13:23.454Z</time></trkpt><trkpt lat="46.18072" lon="12.972055"><ele>215.0</ele><time>2026-04-11T09:13:24.453Z</time></trkpt><trkpt lat="46.180815" lon="12.9721517"><ele>215.2</ele><time>2026-04-11T09:13:25.454Z</time></trkpt><trkpt lat="46.1808917" lon="12.9722317"><ele>215.4</ele><time>2026-04-11T09:13:26.454Z</time></trkpt><trkpt lat="46.1809767" lon="12.9722883"><ele>215.60000000000002</ele><time>2026-04-11T09:13:27.454Z</time></trkpt><trkpt lat="46.1810517" lon="12.972375"><ele>215.8</ele><time>2026-04-11T09:13:28.454Z</time></trkpt><trkpt lat="46.1811283" lon="12.97246"><ele>216.0</ele><time>2026-04-11T09:13:29.454Z</time></trkpt><trkpt lat="46.1811917" lon="12.97257"><ele>216.0</ele><time>2026-04-11T09:13:30.454Z</time></trkpt><trkpt lat="46.1812517" lon="12.9726783"><ele>216.0</ele><time>2026-04-11T09:13:31.454Z</time></trkpt><trkpt lat="46.181315" lon="12.9727767"><ele>216.0</ele><time>2026-04-11T09:13:32.454Z</time></trkpt><trkpt lat="46.1813667" lon="12.972875"><ele>216.0</ele><time>2026-04-11T09:13:33.454Z</time></trkpt><trkpt lat="46.1814117" lon="12.97298"><ele>216.0</ele><time>2026-04-11T09:13:34.454Z</time></trkpt><trkpt lat="46.1814583" lon="12.9730867"><ele>216.0</ele><time>2026-04-11T09:13:35.454Z</time></trkpt><trkpt lat="46.1815067" lon="12.9731733"><ele>216.16666666666666</ele><time>2026-04-11T09:13:36.454Z</time></trkpt><trkpt lat="46.1815483" lon="12.9732533"><ele>216.33333333333331</ele><time>2026-04-11T09:13:37.453Z</time></trkpt><trkpt lat="46.1816167" lon="12.9733433"><ele>216.5</ele><time>2026-04-11T09:13:39.454Z</time></trkpt><trkpt lat="46.181705" lon="12.9733033"><ele>216.66666666666666</ele><time>2026-04-11T09:13:45.454Z</time></trkpt><trkpt lat="46.1817683" lon="12.9732433"><ele>216.83333333333331</ele><time>2026-04-11T09:13:46.453Z</time></trkpt><trkpt lat="46.181835" lon="12.9731767"><ele>217.0</ele><time>2026-04-11T09:13:47.454Z</time></trkpt><trkpt lat="46.1819117" lon="12.9730933"><ele>217.0</ele><time>2026-04-11T09:13:48.454Z</time></trkpt><trkpt lat="46.1820083" lon="12.9729667"><ele>217.0</ele><time>2026-04-11T09:13:49.454Z</time></trkpt><trkpt lat="46.1821267" lon="12.9728"><ele>217.0</ele><time>2026-04-11T09:13:50.454Z</time></trkpt><trkpt lat="46.182275" lon="12.9726033"><ele>217.0</ele><time>2026-04-11T09:13:51.453Z</time></trkpt><trkpt lat="46.1824133" lon="12.972425"><ele>217.0</ele><time>2026-04-11T09:13:52.454Z</time></trkpt><trkpt lat="46.1825383" lon="12.9722817"><ele>217.0</ele><time>2026-04-11T09:13:53.454Z</time></trkpt><trkpt lat="46.1826433" lon="12.97219"><ele>217.0</ele><time>2026-04-11T09:13:54.454Z</time></trkpt><trkpt lat="46.1827617" lon="12.9721367"><ele>217.0</ele><time>2026-04-11T09:13:55.454Z</time></trkpt><trkpt lat="46.1828783" lon="12.9721133"><ele>217.0</ele><time>2026-04-11T09:13:56.453Z</time></trkpt><trkpt lat="46.1830033" lon="12.97215"><ele>217.0</ele><time>2026-04-11T09:13:57.454Z</time></trkpt><trkpt lat="46.1831317" lon="12.972225"><ele>216.25</ele><time>2026-04-11T09:13:58.453Z</time></trkpt><trkpt lat="46.18324" lon="12.9723417"><ele>215.5</ele><time>2026-04-11T09:13:59.454Z</time></trkpt><trkpt lat="46.183305" lon="12.972495"><ele>214.75</ele><time>2026-04-11T09:14:00.454Z</time></trkpt><trkpt lat="46.18334" lon="12.9726867"><ele>214.0</ele><time>2026-04-11T09:14:01.454Z</time></trkpt><trkpt lat="46.1833633" lon="12.9728833"><ele>214.0</ele><time>2026-04-11T09:14:02.454Z</time></trkpt><trkpt lat="46.1834" lon="12.9730383"><ele>213.99999999999997</ele><time>2026-04-11T09:14:03.454Z</time></trkpt><trkpt lat="46.1834333" lon="12.973155"><ele>213.99999999999997</ele><time>2026-04-11T09:14:04.454Z</time></trkpt><trkpt lat="46.1834733" lon="12.973235"><ele>214.0</ele><time>2026-04-11T09:14:05.454Z</time></trkpt><trkpt lat="46.1835917" lon="12.9732583"><ele>214.0</ele><time>2026-04-11T09:14:07.454Z</time></trkpt><trkpt lat="46.1836583" lon="12.9731933"><ele>213.99999999999997</ele><time>2026-04-11T09:14:08.454Z</time></trkpt><trkpt lat="46.183705" lon="12.9731117"><ele>214.0</ele><time>2026-04-11T09:14:09.454Z</time></trkpt><trkpt lat="46.18375" lon="12.97296"><ele>214.0</ele><time>2026-04-11T09:14:11.454Z</time></trkpt><trkpt lat="46.1837517" lon="12.9728567"><ele>214.0</ele><time>2026-04-11T09:14:12.453Z</time></trkpt><trkpt lat="46.1837333" lon="12.9727333"><ele>213.99999999999997</ele><time>2026-04-11T09:14:13.453Z</time></trkpt><trkpt lat="46.1837" lon="12.9725983"><ele>214.0</ele><time>2026-04-11T09:14:14.454Z</time></trkpt><trkpt lat="46.18366" lon="12.972445"><ele>212.75</ele><time>2026-04-11T09:14:15.454Z</time></trkpt><trkpt lat="46.1836283" lon="12.97226"><ele>211.5</ele><time>2026-04-11T09:14:16.453Z</time></trkpt><trkpt lat="46.18363" lon="12.9720733"><ele>210.25</ele><time>2026-04-11T09:14:17.454Z</time></trkpt><trkpt lat="46.1836383" lon="12.9718933"><ele>209.0</ele><time>2026-04-11T09:14:18.454Z</time></trkpt><trkpt lat="46.1836367" lon="12.97174"><ele>208.33333333333334</ele><time>2026-04-11T09:14:19.454Z</time></trkpt><trkpt lat="46.183635" lon="12.971595"><ele>207.66666666666669</ele><time>2026-04-11T09:14:20.454Z</time></trkpt><trkpt lat="46.18363" lon="12.9714667"><ele>207.0</ele><time>2026-04-11T09:14:21.454Z</time></trkpt><trkpt lat="46.18363" lon="12.971355"><ele>206.33333333333331</ele><time>2026-04-11T09:14:22.454Z</time></trkpt><trkpt lat="46.1836183" lon="12.9712467"><ele>205.66666666666666</ele><time>2026-04-11T09:14:23.454Z</time></trkpt><trkpt lat="46.1836117" lon="12.97114"><ele>205.0</ele><time>2026-04-11T09:14:24.454Z</time></trkpt><trkpt lat="46.183585" lon="12.971025"><ele>205.0</ele><time>2026-04-11T09:14:25.454Z</time></trkpt><trkpt lat="46.18354" lon="12.9709033"><ele>205.0</ele><time>2026-04-11T09:14:26.453Z</time></trkpt><trkpt lat="46.183485" lon="12.9707783"><ele>205.0</ele><time>2026-04-11T09:14:27.454Z</time></trkpt><trkpt lat="46.18342" lon="12.970635"><ele>205.0</ele><time>2026-04-11T09:14:28.454Z</time></trkpt><trkpt lat="46.1833817" lon="12.970485"><ele>205.0</ele><time>2026-04-11T09:14:29.454Z</time></trkpt><trkpt lat="46.1833483" lon="12.9703083"><ele>206.0</ele><time>2026-04-11T09:14:30.454Z</time></trkpt><trkpt lat="46.1833083" lon="12.9701467"><ele>207.0</ele><time>2026-04-11T09:14:31.454Z</time></trkpt><trkpt lat="46.1832767" lon="12.9699883"><ele>208.0</ele><time>2026-04-11T09:14:32.454Z</time></trkpt><trkpt lat="46.18324" lon="12.9698383"><ele>209.0</ele><time>2026-04-11T09:14:33.454Z</time></trkpt><trkpt lat="46.18322" lon="12.969705"><ele>210.0</ele><time>2026-04-11T09:14:34.454Z</time></trkpt><trkpt lat="46.1832217" lon="12.969545"><ele>211.5</ele><time>2026-04-11T09:14:35.454Z</time></trkpt><trkpt lat="46.18323" lon="12.9693817"><ele>213.0</ele><time>2026-04-11T09:14:36.454Z</time></trkpt><trkpt lat="46.1832483" lon="12.9692117"><ele>214.5</ele><time>2026-04-11T09:14:37.454Z</time></trkpt><trkpt lat="46.1832683" lon="12.9690467"><ele>216.0</ele><time>2026-04-11T09:14:38.454Z</time></trkpt><trkpt lat="46.1832833" lon="12.96887"><ele>216.0</ele><time>2026-04-11T09:14:39.453Z</time></trkpt><trkpt lat="46.18331" lon="12.9686817"><ele>216.0</ele><time>2026-04-11T09:14:40.454Z</time></trkpt><trkpt lat="46.183335" lon="12.9684933"><ele>216.0</ele><time>2026-04-11T09:14:41.453Z</time></trkpt><trkpt lat="46.183355" lon="12.96831"><ele>216.0</ele><time>2026-04-11T09:14:42.453Z</time></trkpt><trkpt lat="46.1833683" lon="12.9681317"><ele>215.75</ele><time>2026-04-11T09:14:43.453Z</time></trkpt><trkpt lat="46.1833683" lon="12.9679467"><ele>215.5</ele><time>2026-04-11T09:14:44.454Z</time></trkpt><trkpt lat="46.1833683" lon="12.9677717"><ele>215.25</ele><time>2026-04-11T09:14:45.454Z</time></trkpt><trkpt lat="46.1833683" lon="12.9675833"><ele>215.0</ele><time>2026-04-11T09:14:46.454Z</time></trkpt><trkpt lat="46.1833667" lon="12.9674183"><ele>214.6</ele><time>2026-04-11T09:14:47.454Z</time></trkpt><trkpt lat="46.1833617" lon="12.967245"><ele>214.2</ele><time>2026-04-11T09:14:48.454Z</time></trkpt><trkpt lat="46.18334" lon="12.9670983"><ele>213.8</ele><time>2026-04-11T09:14:49.454Z</time></trkpt><trkpt lat="46.1833383" lon="12.9669617"><ele>213.4</ele><time>2026-04-11T09:14:50.454Z</time></trkpt><trkpt lat="46.1833567" lon="12.9668333"><ele>213.0</ele><time>2026-04-11T09:14:51.454Z</time></trkpt><trkpt lat="46.183385" lon="12.9666917"><ele>212.60000000000002</ele><time>2026-04-11T09:14:52.454Z</time></trkpt><trkpt lat="46.1834217" lon="12.9665633"><ele>212.20000000000002</ele><time>2026-04-11T09:14:53.454Z</time></trkpt><trkpt lat="46.1834783" lon="12.9664283"><ele>211.8</ele><time>2026-04-11T09:14:54.454Z</time></trkpt><trkpt lat="46.183555" lon="12.9663017"><ele>211.4</ele><time>2026-04-11T09:14:55.453Z</time></trkpt><trkpt lat="46.1836433" lon="12.9661933"><ele>211.0</ele><time>2026-04-11T09:14:56.454Z</time></trkpt><trkpt lat="46.1837417" lon="12.9660817"><ele>211.0</ele><time>2026-04-11T09:14:57.454Z</time></trkpt><trkpt lat="46.183835" lon="12.9659683"><ele>211.0</ele><time>2026-04-11T09:14:58.454Z</time></trkpt><trkpt lat="46.1839167" lon="12.965865"><ele>211.0</ele><time>2026-04-11T09:14:59.454Z</time></trkpt><trkpt lat="46.1839833" lon="12.9657533"><ele>211.0</ele><time>2026-04-11T09:15:00.453Z</time></trkpt><trkpt lat="46.1840467" lon="12.9656417"><ele>211.0</ele><time>2026-04-11T09:15:01.454Z</time></trkpt><trkpt lat="46.1841" lon="12.96552"><ele>211.20000000000002</ele><time>2026-04-11T09:15:02.453Z</time></trkpt><trkpt lat="46.1841633" lon="12.9653817"><ele>211.4</ele><time>2026-04-11T09:15:03.454Z</time></trkpt><trkpt lat="46.1842167" lon="12.965245"><ele>211.6</ele><time>2026-04-11T09:15:04.454Z</time></trkpt><trkpt lat="46.18427" lon="12.965105"><ele>211.8</ele><time>2026-04-11T09:15:05.454Z</time></trkpt><trkpt lat="46.1843117" lon="12.96495"><ele>212.0</ele><time>2026-04-11T09:15:06.454Z</time></trkpt><trkpt lat="46.1843517" lon="12.9647883"><ele>211.25</ele><time>2026-04-11T09:15:07.453Z</time></trkpt><trkpt lat="46.1843833" lon="12.964615"><ele>210.5</ele><time>2026-04-11T09:15:08.453Z</time></trkpt><trkpt lat="46.18441" lon="12.964455"><ele>209.75</ele><time>2026-04-11T09:15:09.453Z</time></trkpt><trkpt lat="46.1844367" lon="12.9643"><ele>209.0</ele><time>2026-04-11T09:15:10.452Z</time></trkpt><trkpt lat="46.1844683" lon="12.964135"><ele>209.0</ele><time>2026-04-11T09:15:11.453Z</time></trkpt><trkpt lat="46.184495" lon="12.963965"><ele>209.0</ele><time>2026-04-11T09:15:12.453Z</time></trkpt><trkpt lat="46.1845133" lon="12.9638"><ele>209.0</ele><time>2026-04-11T09:15:13.453Z</time></trkpt><trkpt lat="46.1845333" lon="12.96365"><ele>209.0</ele><time>2026-04-11T09:15:14.452Z</time></trkpt><trkpt lat="46.1845333" lon="12.96352"><ele>209.0</ele><time>2026-04-11T09:15:15.453Z</time></trkpt><trkpt lat="46.1845367" lon="12.9634033"><ele>209.0</ele><time>2026-04-11T09:15:16.453Z</time></trkpt><trkpt lat="46.184545" lon="12.9633017"><ele>209.0</ele><time>2026-04-11T09:15:17.453Z</time></trkpt><trkpt lat="46.18457" lon="12.9632017"><ele>209.0</ele><time>2026-04-11T09:15:18.452Z</time></trkpt><trkpt lat="46.184605" lon="12.9631083"><ele>209.0</ele><time>2026-04-11T09:15:19.453Z</time></trkpt><trkpt lat="46.1846533" lon="12.9630217"><ele>209.0</ele><time>2026-04-11T09:15:20.453Z</time></trkpt><trkpt lat="46.1846983" lon="12.9629433"><ele>209.0</ele><time>2026-04-11T09:15:21.453Z</time></trkpt><trkpt lat="46.1847483" lon="12.9628767"><ele>209.0</ele><time>2026-04-11T09:15:22.453Z</time></trkpt><trkpt lat="46.1848017" lon="12.96281"><ele>210.0</ele><time>2026-04-11T09:15:23.453Z</time></trkpt><trkpt lat="46.1848583" lon="12.962755"><ele>211.0</ele><time>2026-04-11T09:15:24.453Z</time></trkpt><trkpt lat="46.1849283" lon="12.9626967"><ele>212.0</ele><time>2026-04-11T09:15:25.453Z</time></trkpt><trkpt lat="46.18499" lon="12.9626333"><ele>213.0</ele><time>2026-04-11T09:15:26.453Z</time></trkpt><trkpt lat="46.1850533" lon="12.9625817"><ele>214.0</ele><time>2026-04-11T09:15:27.453Z</time></trkpt><trkpt lat="46.1851117" lon="12.96252"><ele>215.0</ele><time>2026-04-11T09:15:28.452Z</time></trkpt><trkpt lat="46.185165" lon="12.962445"><ele>216.0</ele><time>2026-04-11T09:15:29.453Z</time></trkpt><trkpt lat="46.185205" lon="12.9623717"><ele>216.0</ele><time>2026-04-11T09:15:30.453Z</time></trkpt><trkpt lat="46.1852733" lon="12.9622533"><ele>216.00000000000003</ele><time>2026-04-11T09:15:32.452Z</time></trkpt><trkpt lat="46.1853333" lon="12.96208"><ele>216.00000000000003</ele><time>2026-04-11T09:15:34.453Z</time></trkpt><trkpt lat="46.1853633" lon="12.961995"><ele>216.0</ele><time>2026-04-11T09:15:35.453Z</time></trkpt><trkpt lat="46.1854033" lon="12.961885"><ele>216.0</ele><time>2026-04-11T09:15:37.453Z</time></trkpt><trkpt lat="46.1854267" lon="12.9617583"><ele>214.75</ele><time>2026-04-11T09:15:39.453Z</time></trkpt><trkpt lat="46.1854583" lon="12.9616"><ele>213.5</ele><time>2026-04-11T09:15:41.453Z</time></trkpt><trkpt lat="46.1854983" lon="12.96145"><ele>212.25</ele><time>2026-04-11T09:15:43.452Z</time></trkpt><trkpt lat="46.1855217" lon="12.96127"><ele>211.0</ele><time>2026-04-11T09:15:45.452Z</time></trkpt><trkpt lat="46.185555" lon="12.9610967"><ele>211.0</ele><time>2026-04-11T09:15:47.452Z</time></trkpt><trkpt lat="46.1856567" lon="12.9609367"><ele>211.0</ele><time>2026-04-11T09:15:49.453Z</time></trkpt><trkpt lat="46.185775" lon="12.9608917"><ele>211.0</ele><time>2026-04-11T09:15:51.453Z</time></trkpt><trkpt lat="46.18584" lon="12.9609383"><ele>211.0</ele><time>2026-04-11T09:15:52.453Z</time></trkpt><trkpt lat="46.1859033" lon="12.96101"><ele>211.0</ele><time>2026-04-11T09:15:53.453Z</time></trkpt><trkpt lat="46.1859517" lon="12.9610833"><ele>210.8</ele><time>2026-04-11T09:15:54.453Z</time></trkpt><trkpt lat="46.1860383" lon="12.9611567"><ele>210.60000000000002</ele><time>2026-04-11T09:15:55.453Z</time></trkpt><trkpt lat="46.1861317" lon="12.9612717"><ele>210.4</ele><time>2026-04-11T09:15:57.453Z</time></trkpt><trkpt lat="46.1861883" lon="12.9613233"><ele>210.2</ele><time>2026-04-11T09:15:58.452Z</time></trkpt><trkpt lat="46.18629" lon="12.9614017"><ele>210.0</ele><time>2026-04-11T09:16:00.452Z</time></trkpt><trkpt lat="46.186375" lon="12.9614217"><ele>210.0</ele><time>2026-04-11T09:16:02.452Z</time></trkpt><trkpt lat="46.1864517" lon="12.961405"><ele>210.0</ele><time>2026-04-11T09:16:04.453Z</time></trkpt><trkpt lat="46.1865317" lon="12.9613567"><ele>210.0</ele><time>2026-04-11T09:16:07.453Z</time></trkpt><trkpt lat="46.1866083" lon="12.96134"><ele>210.0</ele><time>2026-04-11T09:16:09.453Z</time></trkpt><trkpt lat="46.1866867" lon="12.9613567"><ele>210.0</ele><time>2026-04-11T09:16:11.453Z</time></trkpt><trkpt lat="46.1867667" lon="12.96138"><ele>210.0</ele><time>2026-04-11T09:16:13.452Z</time></trkpt><trkpt lat="46.186865" lon="12.96143"><ele>209.0</ele><time>2026-04-11T09:16:15.453Z</time></trkpt><trkpt lat="46.1869817" lon="12.96145"><ele>208.0</ele><time>2026-04-11T09:16:17.453Z</time></trkpt><trkpt lat="46.187075" lon="12.9614867"><ele>207.0</ele><time>2026-04-11T09:16:19.453Z</time></trkpt><trkpt lat="46.1871533" lon="12.96154"><ele>206.0</ele><time>2026-04-11T09:16:21.453Z</time></trkpt><trkpt lat="46.1872233" lon="12.96162"><ele>205.0</ele><time>2026-04-11T09:16:23.453Z</time></trkpt><trkpt lat="46.1872733" lon="12.9616767"><ele>207.4</ele><time>2026-04-11T09:16:25.453Z</time></trkpt><trkpt lat="46.1873817" lon="12.9617"><ele>209.8</ele><time>2026-04-11T09:20:07.453Z</time></trkpt><trkpt lat="46.1874833" lon="12.96174"><ele>212.2</ele><time>2026-04-11T09:20:09.453Z</time></trkpt><trkpt lat="46.1875867" lon="12.961795"><ele>214.6</ele><time>2026-04-11T09:20:11.453Z</time></trkpt><trkpt lat="46.187655" lon="12.9618217"><ele>217.0</ele><time>2026-04-11T09:20:12.452Z</time></trkpt><trkpt lat="46.1877133" lon="12.9618667"><ele>217.0</ele><time>2026-04-11T09:20:13.453Z</time></trkpt><trkpt lat="46.1877933" lon="12.9619883"><ele>217.0</ele><time>2026-04-11T09:20:15.452Z</time></trkpt><trkpt lat="46.1878967" lon="12.96206"><ele>217.0</ele><time>2026-04-11T09:20:17.453Z</time></trkpt><trkpt lat="46.18801" lon="12.9621"><ele>217.0</ele><time>2026-04-11T09:20:19.453Z</time></trkpt><trkpt lat="46.188095" lon="12.9621833"><ele>215.75</ele><time>2026-04-11T09:20:21.453Z</time></trkpt><trkpt lat="46.1881817" lon="12.9622717"><ele>214.5</ele><time>2026-04-11T09:20:23.453Z</time></trkpt><trkpt lat="46.1882767" lon="12.9623583"><ele>213.25</ele><time>2026-04-11T09:20:25.452Z</time></trkpt><trkpt lat="46.1883917" lon="12.96244"><ele>212.0</ele><time>2026-04-11T09:20:27.453Z</time></trkpt><trkpt lat="46.1884967" lon="12.96253"><ele>215.8</ele><time>2026-04-11T09:20:29.453Z</time></trkpt><trkpt lat="46.1886033" lon="12.9625717"><ele>219.6</ele><time>2026-04-11T09:20:31.452Z</time></trkpt><trkpt lat="46.1886983" lon="12.9626267"><ele>223.40000000000003</ele><time>2026-04-11T09:20:33.452Z</time></trkpt><trkpt lat="46.1888017" lon="12.962665"><ele>227.20000000000002</ele><time>2026-04-11T09:20:35.452Z</time></trkpt><trkpt lat="46.18887" lon="12.96274"><ele>231.0</ele><time>2026-04-11T09:20:37.452Z</time></trkpt><trkpt lat="46.1889283" lon="12.9628283"><ele>231.0</ele><time>2026-04-11T09:20:39.451Z</time></trkpt><trkpt lat="46.1889917" lon="12.9629"><ele>231.0</ele><time>2026-04-11T09:20:41.451Z</time></trkpt><trkpt lat="46.1890967" lon="12.962945"><ele>231.0</ele><time>2026-04-11T09:20:43.451Z</time></trkpt><trkpt lat="46.1891583" lon="12.9629783"><ele>231.0</ele><time>2026-04-11T09:20:44.452Z</time></trkpt><trkpt lat="46.189235" lon="12.963025"><ele>231.0</ele><time>2026-04-11T09:20:45.451Z</time></trkpt><trkpt lat="46.1893067" lon="12.963075"><ele>231.0</ele><time>2026-04-11T09:20:46.451Z</time></trkpt><trkpt lat="46.18937" lon="12.9631433"><ele>232.57142857142856</ele><time>2026-04-11T09:20:47.451Z</time></trkpt><trkpt lat="46.189435" lon="12.963205"><ele>234.14285714285714</ele><time>2026-04-11T09:20:48.451Z</time></trkpt><trkpt lat="46.189495" lon="12.9632483"><ele>235.71428571428572</ele><time>2026-04-11T09:20:49.452Z</time></trkpt><trkpt lat="46.1895517" lon="12.9632967"><ele>237.28571428571428</ele><time>2026-04-11T09:20:50.452Z</time></trkpt><trkpt lat="46.18961" lon="12.96335"><ele>238.85714285714283</ele><time>2026-04-11T09:20:51.452Z</time></trkpt><trkpt lat="46.189705" lon="12.9633767"><ele>240.42857142857142</ele><time>2026-04-11T09:20:52.452Z</time></trkpt><trkpt lat="46.18976" lon="12.963425"><ele>242.0</ele><time>2026-04-11T09:20:53.452Z</time></trkpt><trkpt lat="46.1898233" lon="12.9634583"><ele>237.2</ele><time>2026-04-11T09:20:54.452Z</time></trkpt><trkpt lat="46.1899" lon="12.9635233"><ele>232.39999999999998</ele><time>2026-04-11T09:20:56.452Z</time></trkpt><trkpt lat="46.190015" lon="12.9635417"><ele>227.60000000000002</ele><time>2026-04-11T09:20:58.452Z</time></trkpt><trkpt lat="46.190095" lon="12.96356"><ele>222.8</ele><time>2026-04-11T09:20:59.452Z</time></trkpt><trkpt lat="46.190175" lon="12.9635933"><ele>218.0</ele><time>2026-04-11T09:21:00.452Z</time></trkpt><trkpt lat="46.1902567" lon="12.963615"><ele>218.0</ele><time>2026-04-11T09:21:01.452Z</time></trkpt><trkpt lat="46.1903383" lon="12.9636333"><ele>218.0</ele><time>2026-04-11T09:21:02.452Z</time></trkpt><trkpt lat="46.1904117" lon="12.96363"><ele>218.0</ele><time>2026-04-11T09:21:03.451Z</time></trkpt><trkpt lat="46.190475" lon="12.9636483"><ele>218.0</ele><time>2026-04-11T09:21:04.451Z</time></trkpt><trkpt lat="46.1906083" lon="12.9637167"><ele>218.0</ele><time>2026-04-11T09:21:06.452Z</time></trkpt><trkpt lat="46.1906933" lon="12.9638183"><ele>219.00000000000003</ele><time>2026-04-11T09:21:07.452Z</time></trkpt><trkpt lat="46.1907683" lon="12.9638667"><ele>220.0</ele><time>2026-04-11T09:21:08.451Z</time></trkpt><trkpt lat="46.1908383" lon="12.96393"><ele>221.0</ele><time>2026-04-11T09:21:09.452Z</time></trkpt><trkpt lat="46.190905" lon="12.9639983"><ele>222.0</ele><time>2026-04-11T09:21:10.452Z</time></trkpt><trkpt lat="46.1909667" lon="12.96407"><ele>223.00000000000003</ele><time>2026-04-11T09:21:11.452Z</time></trkpt><trkpt lat="46.191025" lon="12.9641583"><ele>224.0</ele><time>2026-04-11T09:21:12.452Z</time></trkpt><trkpt lat="46.1910833" lon="12.9642367"><ele>224.00000000000003</ele><time>2026-04-11T09:21:13.452Z</time></trkpt><trkpt lat="46.1911333" lon="12.96431"><ele>224.0</ele><time>2026-04-11T09:21:14.452Z</time></trkpt><trkpt lat="46.1911933" lon="12.964375"><ele>224.0</ele><time>2026-04-11T09:21:15.452Z</time></trkpt><trkpt lat="46.1912617" lon="12.964445"><ele>224.0</ele><time>2026-04-11T09:21:16.451Z</time></trkpt><trkpt lat="46.1913283" lon="12.964515"><ele>224.00000000000003</ele><time>2026-04-11T09:21:17.451Z</time></trkpt><trkpt lat="46.1913883" lon="12.9645733"><ele>224.0</ele><time>2026-04-11T09:21:18.451Z</time></trkpt><trkpt lat="46.1914517" lon="12.964625"><ele>224.00000000000003</ele><time>2026-04-11T09:21:19.452Z</time></trkpt><trkpt lat="46.1915017" lon="12.9647133"><ele>224.0</ele><time>2026-04-11T09:21:20.452Z</time></trkpt><trkpt lat="46.191565" lon="12.96483"><ele>224.0</ele><time>2026-04-11T09:21:21.452Z</time></trkpt><trkpt lat="46.191615" lon="12.96489"><ele>224.0</ele><time>2026-04-11T09:21:22.451Z</time></trkpt><trkpt lat="46.1916717" lon="12.9649333"><ele>224.00000000000003</ele><time>2026-04-11T09:21:23.452Z</time></trkpt><trkpt lat="46.1917317" lon="12.9649867"><ele>224.0</ele><time>2026-04-11T09:21:24.452Z</time></trkpt><trkpt lat="46.1917883" lon="12.9650467"><ele>222.50000000000003</ele><time>2026-04-11T09:21:25.452Z</time></trkpt><trkpt lat="46.1918433" lon="12.965125"><ele>221.0</ele><time>2026-04-11T09:21:26.452Z</time></trkpt><trkpt lat="46.19189" lon="12.9652083"><ele>219.5</ele><time>2026-04-11T09:21:27.451Z</time></trkpt><trkpt lat="46.191935" lon="12.9652917"><ele>218.0</ele><time>2026-04-11T09:21:28.451Z</time></trkpt><trkpt lat="46.1919817" lon="12.965385"><ele>216.50000000000003</ele><time>2026-04-11T09:21:29.452Z</time></trkpt><trkpt lat="46.1920283" lon="12.9654867"><ele>215.0</ele><time>2026-04-11T09:21:30.451Z</time></trkpt><trkpt lat="46.1920533" lon="12.9655883"><ele>215.00000000000003</ele><time>2026-04-11T09:21:31.452Z</time></trkpt><trkpt lat="46.1920833" lon="12.9656733"><ele>215.0</ele><time>2026-04-11T09:21:32.452Z</time></trkpt><trkpt lat="46.19212" lon="12.9657567"><ele>215.0</ele><time>2026-04-11T09:21:33.452Z</time></trkpt><trkpt lat="46.192165" lon="12.9658283"><ele>215.0</ele><time>2026-04-11T09:21:34.452Z</time></trkpt><trkpt lat="46.192215" lon="12.9658933"><ele>215.00000000000003</ele><time>2026-04-11T09:21:35.451Z</time></trkpt><trkpt lat="46.1922633" lon="12.9659767"><ele>215.0</ele><time>2026-04-11T09:21:36.452Z</time></trkpt><trkpt lat="46.1923417" lon="12.9661067"><ele>213.50000000000003</ele><time>2026-04-11T09:21:38.452Z</time></trkpt><trkpt lat="46.192385" lon="12.9661817"><ele>212.0</ele><time>2026-04-11T09:21:39.452Z</time></trkpt><trkpt lat="46.192415" lon="12.966265"><ele>210.5</ele><time>2026-04-11T09:21:40.452Z</time></trkpt><trkpt lat="46.19246" lon="12.9663483"><ele>209.0</ele><time>2026-04-11T09:21:41.452Z</time></trkpt><trkpt lat="46.1925033" lon="12.96642"><ele>207.50000000000003</ele><time>2026-04-11T09:21:42.452Z</time></trkpt><trkpt lat="46.1925883" lon="12.9665133"><ele>206.0</ele><time>2026-04-11T09:21:44.452Z</time></trkpt><trkpt lat="46.1926433" lon="12.9666067"><ele>210.20000000000002</ele><time>2026-04-11T09:21:46.452Z</time></trkpt><trkpt lat="46.192705" lon="12.966705"><ele>214.4</ele><time>2026-04-11T09:21:48.452Z</time></trkpt><trkpt lat="46.19283" lon="12.966775"><ele>218.6</ele><time>2026-04-11T09:21:50.452Z</time></trkpt><trkpt lat="46.192925" lon="12.966865"><ele>222.8</ele><time>2026-04-11T09:21:52.451Z</time></trkpt><trkpt lat="46.1930033" lon="12.96695"><ele>227.0</ele><time>2026-04-11T09:21:54.452Z</time></trkpt><trkpt lat="46.1930817" lon="12.9670233"><ele>227.0</ele><time>2026-04-11T09:21:56.451Z</time></trkpt><trkpt lat="46.1931633" lon="12.9670817"><ele>227.0</ele><time>2026-04-11T09:21:58.452Z</time></trkpt><trkpt lat="46.1932067" lon="12.967165"><ele>227.0</ele><time>2026-04-11T09:22:00.452Z</time></trkpt><trkpt lat="46.1932133" lon="12.9672767"><ele>227.0</ele><time>2026-04-11T09:22:02.452Z</time></trkpt><trkpt lat="46.1932" lon="12.9674233"><ele>227.0</ele><time>2026-04-11T09:22:04.451Z</time></trkpt><trkpt lat="46.1931983" lon="12.9676033"><ele>223.85714285714286</ele><time>2026-04-11T09:22:06.452Z</time></trkpt><trkpt lat="46.1931967" lon="12.9677"><ele>220.71428571428572</ele><time>2026-04-11T09:22:07.452Z</time></trkpt><trkpt lat="46.193185" lon="12.967805"><ele>217.57142857142858</ele><time>2026-04-11T09:22:08.452Z</time></trkpt><trkpt lat="46.1931883" lon="12.9678983"><ele>214.42857142857144</ele><time>2026-04-11T09:22:09.452Z</time></trkpt><trkpt lat="46.1932133" lon="12.9679933"><ele>211.28571428571428</ele><time>2026-04-11T09:22:10.452Z</time></trkpt><trkpt lat="46.1932367" lon="12.9680983"><ele>208.14285714285717</ele><time>2026-04-11T09:22:11.452Z</time></trkpt><trkpt lat="46.1932733" lon="12.9681983"><ele>205.0</ele><time>2026-04-11T09:22:12.452Z</time></trkpt><trkpt lat="46.1933067" lon="12.9682917"><ele>208.4</ele><time>2026-04-11T09:22:13.451Z</time></trkpt><trkpt lat="46.193325" lon="12.96839"><ele>211.8</ele><time>2026-04-11T09:22:14.452Z</time></trkpt><trkpt lat="46.19334" lon="12.9684917"><ele>215.2</ele><time>2026-04-11T09:22:15.452Z</time></trkpt><trkpt lat="46.1933717" lon="12.9686633"><ele>218.6</ele><time>2026-04-11T09:22:17.452Z</time></trkpt><trkpt lat="46.1933883" lon="12.9687567"><ele>222.0</ele><time>2026-04-11T09:22:18.452Z</time></trkpt><trkpt lat="46.19343" lon="12.9689367"><ele>222.0</ele><time>2026-04-11T09:22:20.452Z</time></trkpt><trkpt lat="46.1934283" lon="12.9690333"><ele>222.0</ele><time>2026-04-11T09:22:21.451Z</time></trkpt><trkpt lat="46.193455" lon="12.9691283"><ele>222.0</ele><time>2026-04-11T09:22:22.452Z</time></trkpt><trkpt lat="46.193485" lon="12.9692167"><ele>222.0</ele><time>2026-04-11T09:22:23.452Z</time></trkpt><trkpt lat="46.1935733" lon="12.96934"><ele>222.0</ele><time>2026-04-11T09:22:25.452Z</time></trkpt><trkpt lat="46.1936333" lon="12.9694817"><ele>222.0</ele><time>2026-04-11T09:22:27.451Z</time></trkpt><trkpt lat="46.193665" lon="12.9695983"><ele>225.33333333333334</ele><time>2026-04-11T09:22:29.452Z</time></trkpt><trkpt lat="46.1937167" lon="12.9697167"><ele>228.66666666666669</ele><time>2026-04-11T09:22:32.452Z</time></trkpt><trkpt lat="46.1937817" lon="12.9698067"><ele>232.0</ele><time>2026-04-11T09:22:34.452Z</time></trkpt><trkpt lat="46.1938183" lon="12.96992"><ele>235.33333333333334</ele><time>2026-04-11T09:22:36.451Z</time></trkpt><trkpt lat="46.1938517" lon="12.9700067"><ele>238.66666666666669</ele><time>2026-04-11T09:22:37.452Z</time></trkpt><trkpt lat="46.1939067" lon="12.9700667"><ele>242.0</ele><time>2026-04-11T09:22:38.452Z</time></trkpt><trkpt lat="46.1939617" lon="12.97013"><ele>237.2</ele><time>2026-04-11T09:22:39.452Z</time></trkpt><trkpt lat="46.1940267" lon="12.9701783"><ele>232.39999999999998</ele><time>2026-04-11T09:22:40.452Z</time></trkpt><trkpt lat="46.19415" lon="12.97022"><ele>227.60000000000002</ele><time>2026-04-11T09:22:42.451Z</time></trkpt><trkpt lat="46.1942467" lon="12.97028"><ele>222.8</ele><time>2026-04-11T09:22:44.452Z</time></trkpt><trkpt lat="46.1943217" lon="12.9703417"><ele>218.0</ele><time>2026-04-11T09:22:46.451Z</time></trkpt><trkpt lat="46.1943883" lon="12.9704333"><ele>218.00000000000003</ele><time>2026-04-11T09:22:48.452Z</time></trkpt><trkpt lat="46.1944267" lon="12.9705433"><ele>218.0</ele><time>2026-04-11T09:22:50.452Z</time></trkpt><trkpt lat="46.1944433" lon="12.9706333"><ele>218.0</ele><time>2026-04-11T09:22:52.452Z</time></trkpt><trkpt lat="46.1944167" lon="12.9707667"><ele>218.0</ele><time>2026-04-11T09:22:55.452Z</time></trkpt><trkpt lat="46.1944233" lon="12.9708967"><ele>218.00000000000003</ele><time>2026-04-11T09:22:57.451Z</time></trkpt><trkpt lat="46.194445" lon="12.9710167"><ele>218.0</ele><time>2026-04-11T09:22:59.451Z</time></trkpt><trkpt lat="46.19448" lon="12.9711183"><ele>219.8</ele><time>2026-04-11T09:23:01.451Z</time></trkpt><trkpt lat="46.1945517" lon="12.9711717"><ele>221.60000000000002</ele><time>2026-04-11T09:23:03.452Z</time></trkpt><trkpt lat="46.19467" lon="12.9711367"><ele>223.39999999999998</ele><time>2026-04-11T09:23:05.452Z</time></trkpt><trkpt lat="46.1947483" lon="12.9711267"><ele>225.2</ele><time>2026-04-11T09:23:06.452Z</time></trkpt><trkpt lat="46.1948517" lon="12.9711367"><ele>227.0</ele><time>2026-04-11T09:23:08.452Z</time></trkpt><trkpt lat="46.1949367" lon="12.9711667"><ele>222.66666666666669</ele><time>2026-04-11T09:23:10.452Z</time></trkpt><trkpt lat="46.1950217" lon="12.971225"><ele>218.33333333333334</ele><time>2026-04-11T09:23:12.452Z</time></trkpt><trkpt lat="46.1951083" lon="12.9713467"><ele>214.0</ele><time>2026-04-11T09:23:14.452Z</time></trkpt><trkpt lat="46.1951617" lon="12.9714117"><ele>209.66666666666669</ele><time>2026-04-11T09:23:15.452Z</time></trkpt><trkpt lat="46.1952083" lon="12.9715067"><ele>205.33333333333334</ele><time>2026-04-11T09:23:16.452Z</time></trkpt><trkpt lat="46.1952417" lon="12.9715883"><ele>201.0</ele><time>2026-04-11T09:23:17.452Z</time></trkpt><trkpt lat="46.1952783" lon="12.9716767"><ele>203.14285714285714</ele><time>2026-04-11T09:23:18.451Z</time></trkpt><trkpt lat="46.1953033" lon="12.9717733"><ele>205.2857142857143</ele><time>2026-04-11T09:23:19.452Z</time></trkpt><trkpt lat="46.1953317" lon="12.971865"><ele>207.42857142857144</ele><time>2026-04-11T09:23:20.452Z</time></trkpt><trkpt lat="46.1953667" lon="12.97196"><ele>209.57142857142856</ele><time>2026-04-11T09:23:21.452Z</time></trkpt><trkpt lat="46.19541" lon="12.972045"><ele>211.71428571428572</ele><time>2026-04-11T09:23:22.451Z</time></trkpt><trkpt lat="46.1954667" lon="12.9721283"><ele>213.85714285714286</ele><time>2026-04-11T09:23:23.451Z</time></trkpt><trkpt lat="46.1955167" lon="12.972205"><ele>216.0</ele><time>2026-04-11T09:23:24.452Z</time></trkpt><trkpt lat="46.195565" lon="12.9722733"><ele>216.0</ele><time>2026-04-11T09:23:25.452Z</time></trkpt><trkpt lat="46.195635" lon="12.9723983"><ele>216.00000000000003</ele><time>2026-04-11T09:23:27.452Z</time></trkpt><trkpt lat="46.1957333" lon="12.9725317"><ele>216.00000000000003</ele><time>2026-04-11T09:23:29.452Z</time></trkpt><trkpt lat="46.195795" lon="12.9726117"><ele>216.0</ele><time>2026-04-11T09:23:30.452Z</time></trkpt><trkpt lat="46.1958533" lon="12.9726767"><ele>216.0</ele><time>2026-04-11T09:23:31.452Z</time></trkpt><trkpt lat="46.195915" lon="12.97273"><ele>215.4</ele><time>2026-04-11T09:23:32.452Z</time></trkpt><trkpt lat="46.1959967" lon="12.9728483"><ele>214.8</ele><time>2026-04-11T09:23:34.452Z</time></trkpt><trkpt lat="46.1960583" lon="12.9729617"><ele>214.20000000000002</ele><time>2026-04-11T09:23:36.451Z</time></trkpt><trkpt lat="46.196095" lon="12.9731"><ele>213.60000000000002</ele><time>2026-04-11T09:23:38.451Z</time></trkpt><trkpt lat="46.1961267" lon="12.97325"><ele>213.0</ele><time>2026-04-11T09:23:40.452Z</time></trkpt><trkpt lat="46.1961983" lon="12.973375"><ele>213.0</ele><time>2026-04-11T09:23:42.451Z</time></trkpt><trkpt lat="46.1962883" lon="12.9734633"><ele>213.0</ele><time>2026-04-11T09:23:44.451Z</time></trkpt><trkpt lat="46.1963567" lon="12.97357"><ele>213.0</ele><time>2026-04-11T09:23:46.451Z</time></trkpt><trkpt lat="46.1964317" lon="12.9737067"><ele>213.0</ele><time>2026-04-11T09:23:48.452Z</time></trkpt><trkpt lat="46.1965117" lon="12.9738417"><ele>210.0</ele><time>2026-04-11T09:23:50.452Z</time></trkpt><trkpt lat="46.1965983" lon="12.973975"><ele>207.0</ele><time>2026-04-11T09:23:52.452Z</time></trkpt><trkpt lat="46.1966533" lon="12.9740483"><ele>204.0</ele><time>2026-04-11T09:23:53.451Z</time></trkpt><trkpt lat="46.1966983" lon="12.97412"><ele>201.0</ele><time>2026-04-11T09:23:54.452Z</time></trkpt><trkpt lat="46.1967383" lon="12.9741983"><ele>198.0</ele><time>2026-04-11T09:23:55.452Z</time></trkpt><trkpt lat="46.196805" lon="12.9743483"><ele>198.0</ele><time>2026-04-11T09:23:57.451Z</time></trkpt><trkpt lat="46.1968267" lon="12.9744383"><ele>198.0</ele><time>2026-04-11T09:23:58.452Z</time></trkpt><trkpt lat="46.196845" lon="12.9745267"><ele>198.0</ele><time>2026-04-11T09:23:59.452Z</time></trkpt><trkpt lat="46.196875" lon="12.97469"><ele>198.0</ele><time>2026-04-11T09:24:01.452Z</time></trkpt><trkpt lat="46.1968867" lon="12.9747817"><ele>198.0</ele><time>2026-04-11T09:24:02.451Z</time></trkpt><trkpt lat="46.196895" lon="12.9748817"><ele>198.0</ele><time>2026-04-11T09:24:03.452Z</time></trkpt><trkpt lat="46.19691" lon="12.974975"><ele>198.0</ele><time>2026-04-11T09:24:04.452Z</time></trkpt><trkpt lat="46.1969217" lon="12.9750667"><ele>199.66666666666666</ele><time>2026-04-11T09:24:05.451Z</time></trkpt><trkpt lat="46.1969667" lon="12.9752283"><ele>201.33333333333331</ele><time>2026-04-11T09:24:07.452Z</time></trkpt><trkpt lat="46.1969833" lon="12.97532"><ele>203.0</ele><time>2026-04-11T09:24:08.452Z</time></trkpt><trkpt lat="46.1970167" lon="12.9754033"><ele>204.66666666666666</ele><time>2026-04-11T09:24:09.451Z</time></trkpt><trkpt lat="46.197045" lon="12.975485"><ele>206.33333333333331</ele><time>2026-04-11T09:24:10.452Z</time></trkpt><trkpt lat="46.197075" lon="12.97565"><ele>208.0</ele><time>2026-04-11T09:24:12.452Z</time></trkpt><trkpt lat="46.1970733" lon="12.9758283"><ele>209.14285714285714</ele><time>2026-04-11T09:24:14.452Z</time></trkpt><trkpt lat="46.1970467" lon="12.9759233"><ele>210.2857142857143</ele><time>2026-04-11T09:24:15.452Z</time></trkpt><trkpt lat="46.1970467" lon="12.976025"><ele>211.42857142857144</ele><time>2026-04-11T09:24:16.452Z</time></trkpt><trkpt lat="46.1970617" lon="12.9761183"><ele>212.57142857142856</ele><time>2026-04-11T09:24:17.451Z</time></trkpt><trkpt lat="46.1970783" lon="12.976215"><ele>213.71428571428572</ele><time>2026-04-11T09:24:18.452Z</time></trkpt><trkpt lat="46.1971067" lon="12.9763067"><ele>214.85714285714286</ele><time>2026-04-11T09:24:19.451Z</time></trkpt><trkpt lat="46.1971383" lon="12.9763983"><ele>216.0</ele><time>2026-04-11T09:24:20.452Z</time></trkpt><trkpt lat="46.1971617" lon="12.9764833"><ele>216.0</ele><time>2026-04-11T09:24:21.452Z</time></trkpt><trkpt lat="46.19722" lon="12.9766517"><ele>216.0</ele><time>2026-04-11T09:24:23.452Z</time></trkpt><trkpt lat="46.1972533" lon="12.9767367"><ele>216.0</ele><time>2026-04-11T09:24:24.452Z</time></trkpt><trkpt lat="46.1972817" lon="12.9768283"><ele>216.0</ele><time>2026-04-11T09:24:25.451Z</time></trkpt><trkpt lat="46.19732" lon="12.9769067"><ele>216.0</ele><time>2026-04-11T09:24:26.452Z</time></trkpt><trkpt lat="46.197345" lon="12.977"><ele>216.0</ele><time>2026-04-11T09:24:27.452Z</time></trkpt><trkpt lat="46.19739" lon="12.9770833"><ele>214.16666666666666</ele><time>2026-04-11T09:24:28.451Z</time></trkpt><trkpt lat="46.1974417" lon="12.9771733"><ele>212.33333333333331</ele><time>2026-04-11T09:24:29.452Z</time></trkpt><trkpt lat="46.197495" lon="12.97725"><ele>210.5</ele><time>2026-04-11T09:24:30.451Z</time></trkpt><trkpt lat="46.1975483" lon="12.97733"><ele>208.66666666666666</ele><time>2026-04-11T09:24:31.452Z</time></trkpt><trkpt lat="46.19758" lon="12.9774283"><ele>206.83333333333331</ele><time>2026-04-11T09:24:32.452Z</time></trkpt><trkpt lat="46.197605" lon="12.9775283"><ele>205.0</ele><time>2026-04-11T09:24:33.451Z</time></trkpt><trkpt lat="46.1976367" lon="12.9776417"><ele>204.99999999999997</ele><time>2026-04-11T09:24:34.452Z</time></trkpt><trkpt lat="46.19767" lon="12.9777583"><ele>205.0</ele><time>2026-04-11T09:24:35.452Z</time></trkpt><trkpt lat="46.1977017" lon="12.9778917"><ele>205.0</ele><time>2026-04-11T09:24:36.451Z</time></trkpt><trkpt lat="46.19773" lon="12.9780017"><ele>205.0</ele><time>2026-04-11T09:24:37.452Z</time></trkpt><trkpt lat="46.19776" lon="12.9781133"><ele>204.99999999999997</ele><time>2026-04-11T09:24:38.452Z</time></trkpt><trkpt lat="46.1977967" lon="12.978235"><ele>205.0</ele><time>2026-04-11T09:24:39.452Z</time></trkpt><trkpt lat="46.197835" lon="12.9783483"><ele>207.16666666666666</ele><time>2026-04-11T09:24:40.452Z</time></trkpt><trkpt lat="46.19787" lon="12.97846"><ele>209.33333333333331</ele><time>2026-04-11T09:24:41.452Z</time></trkpt><trkpt lat="46.1979" lon="12.9785667"><ele>211.5</ele><time>2026-04-11T09:24:42.452Z</time></trkpt><trkpt lat="46.19793" lon="12.9786783"><ele>213.66666666666669</ele><time>2026-04-11T09:24:43.452Z</time></trkpt><trkpt lat="46.1979483" lon="12.9787783"><ele>215.83333333333334</ele><time>2026-04-11T09:24:44.452Z</time></trkpt><trkpt lat="46.1979717" lon="12.9789083"><ele>218.0</ele><time>2026-04-11T09:24:46.452Z</time></trkpt><trkpt lat="46.197955" lon="12.9790233"><ele>218.00000000000003</ele><time>2026-04-11T09:24:48.452Z</time></trkpt><trkpt lat="46.1979617" lon="12.97914"><ele>218.0</ele><time>2026-04-11T09:24:50.452Z</time></trkpt><trkpt lat="46.1979883" lon="12.979245"><ele>218.0</ele><time>2026-04-11T09:24:52.452Z</time></trkpt><trkpt lat="46.198045" lon="12.9793633"><ele>218.0</ele><time>2026-04-11T09:24:55.452Z</time></trkpt><trkpt lat="46.1981083" lon="12.9794917"><ele>218.00000000000003</ele><time>2026-04-11T09:24:57.452Z</time></trkpt><trkpt lat="46.19815" lon="12.9795617"><ele>218.0</ele><time>2026-04-11T09:24:58.452Z</time></trkpt><trkpt lat="46.19821" lon="12.979715"><ele>216.5</ele><time>2026-04-11T09:25:00.452Z</time></trkpt><trkpt lat="46.1982683" lon="12.9798817"><ele>215.0</ele><time>2026-04-11T09:25:02.452Z</time></trkpt><trkpt lat="46.19831" lon="12.9800283"><ele>213.5</ele><time>2026-04-11T09:25:04.452Z</time></trkpt><trkpt lat="46.1983467" lon="12.9801783"><ele>212.0</ele><time>2026-04-11T09:25:06.452Z</time></trkpt><trkpt lat="46.198375" lon="12.980345"><ele>212.00000000000003</ele><time>2026-04-11T09:25:08.452Z</time></trkpt><trkpt lat="46.1984" lon="12.9804967"><ele>212.0</ele><time>2026-04-11T09:25:10.452Z</time></trkpt><trkpt lat="46.1984" lon="12.9806217"><ele>212.0</ele><time>2026-04-11T09:25:12.451Z</time></trkpt><trkpt lat="46.19838" lon="12.98074"><ele>212.0</ele><time>2026-04-11T09:25:14.451Z</time></trkpt><trkpt lat="46.1983883" lon="12.9808483"><ele>212.00000000000003</ele><time>2026-04-11T09:25:16.451Z</time></trkpt><trkpt lat="46.19844" lon="12.9809483"><ele>212.0</ele><time>2026-04-11T09:25:18.452Z</time></trkpt><trkpt lat="46.1985167" lon="12.981045"><ele>214.2</ele><time>2026-04-11T09:25:20.452Z</time></trkpt><trkpt lat="46.1986067" lon="12.98116"><ele>216.39999999999998</ele><time>2026-04-11T09:25:22.451Z</time></trkpt><trkpt lat="46.1986583" lon="12.981265"><ele>218.60000000000002</ele><time>2026-04-11T09:25:24.451Z</time></trkpt><trkpt lat="46.198675" lon="12.98141"><ele>220.8</ele><time>2026-04-11T09:25:26.452Z</time></trkpt><trkpt lat="46.19869" lon="12.9815567"><ele>223.0</ele><time>2026-04-11T09:25:28.451Z</time></trkpt><trkpt lat="46.1987233" lon="12.98169"><ele>224.83333333333331</ele><time>2026-04-11T09:25:30.452Z</time></trkpt><trkpt lat="46.1987583" lon="12.981815"><ele>226.66666666666666</ele><time>2026-04-11T09:25:32.452Z</time></trkpt><trkpt lat="46.198765" lon="12.9819367"><ele>228.5</ele><time>2026-04-11T09:25:34.452Z</time></trkpt><trkpt lat="46.1987767" lon="12.98206"><ele>230.33333333333331</ele><time>2026-04-11T09:25:36.451Z</time></trkpt><trkpt lat="46.1988067" lon="12.9821883"><ele>232.16666666666666</ele><time>2026-04-11T09:25:38.452Z</time></trkpt><trkpt lat="46.1988283" lon="12.98231"><ele>234.0</ele><time>2026-04-11T09:25:40.452Z</time></trkpt><trkpt lat="46.198845" lon="12.9824283"><ele>235.6</ele><time>2026-04-11T09:25:42.452Z</time></trkpt><trkpt lat="46.1988733" lon="12.98254"><ele>237.2</ele><time>2026-04-11T09:25:44.452Z</time></trkpt><trkpt lat="46.1989117" lon="12.98269"><ele>238.79999999999998</ele><time>2026-04-11T09:25:46.452Z</time></trkpt><trkpt lat="46.19895" lon="12.982835"><ele>240.39999999999998</ele><time>2026-04-11T09:25:48.452Z</time></trkpt><trkpt lat="46.199005" lon="12.98295"><ele>242.0</ele><time>2026-04-11T09:25:50.452Z</time></trkpt><trkpt lat="46.19906" lon="12.98304"><ele>238.16666666666669</ele><time>2026-04-11T09:25:52.452Z</time></trkpt><trkpt lat="46.1991183" lon="12.9831467"><ele>234.33333333333334</ele><time>2026-04-11T09:25:54.452Z</time></trkpt><trkpt lat="46.19917" lon="12.983235"><ele>230.5</ele><time>2026-04-11T09:25:56.452Z</time></trkpt><trkpt lat="46.199225" lon="12.9833217"><ele>226.66666666666669</ele><time>2026-04-11T09:25:58.452Z</time></trkpt><trkpt lat="46.1992817" lon="12.9834283"><ele>222.83333333333334</ele><time>2026-04-11T09:26:00.452Z</time></trkpt><trkpt lat="46.1993267" lon="12.9835283"><ele>219.0</ele><time>2026-04-11T09:26:02.451Z</time></trkpt><trkpt lat="46.199365" lon="12.9836183"><ele>219.0</ele><time>2026-04-11T09:26:05.451Z</time></trkpt><trkpt lat="46.1993983" lon="12.983725"><ele>219.0</ele><time>2026-04-11T09:26:08.452Z</time></trkpt><trkpt lat="46.1994433" lon="12.9838167"><ele>219.0</ele><time>2026-04-11T09:26:10.452Z</time></trkpt><trkpt lat="46.199445" lon="12.9839367"><ele>219.0</ele><time>2026-04-11T09:26:12.452Z</time></trkpt><trkpt lat="46.19944" lon="12.9840517"><ele>219.0</ele><time>2026-04-11T09:26:14.452Z</time></trkpt><trkpt lat="46.199465" lon="12.9841933"><ele>219.0</ele><time>2026-04-11T09:26:16.452Z</time></trkpt><trkpt lat="46.1994967" lon="12.9843967"><ele>220.2</ele><time>2026-04-11T09:26:18.451Z</time></trkpt><trkpt lat="46.1995333" lon="12.9845317"><ele>221.39999999999998</ele><time>2026-04-11T09:26:19.452Z</time></trkpt><trkpt lat="46.19958" lon="12.9846633"><ele>222.6</ele><time>2026-04-11T09:26:20.452Z</time></trkpt><trkpt lat="46.1996317" lon="12.984795"><ele>223.8</ele><time>2026-04-11T09:26:21.452Z</time></trkpt><trkpt lat="46.19967" lon="12.9849317"><ele>225.0</ele><time>2026-04-11T09:26:22.451Z</time></trkpt><trkpt lat="46.1996967" lon="12.9850633"><ele>226.16666666666666</ele><time>2026-04-11T09:26:23.452Z</time></trkpt><trkpt lat="46.199715" lon="12.985185"><ele>227.33333333333331</ele><time>2026-04-11T09:26:24.452Z</time></trkpt><trkpt lat="46.1997267" lon="12.9852983"><ele>228.5</ele><time>2026-04-11T09:26:25.451Z</time></trkpt><trkpt lat="46.199745" lon="12.985405"><ele>229.66666666666666</ele><time>2026-04-11T09:26:26.452Z</time></trkpt><trkpt lat="46.1997483" lon="12.9855283"><ele>230.83333333333331</ele><time>2026-04-11T09:26:27.452Z</time></trkpt><trkpt lat="46.1997583" lon="12.9856383"><ele>232.0</ele><time>2026-04-11T09:26:28.452Z</time></trkpt><trkpt lat="46.1997567" lon="12.9857567"><ele>233.33333333333331</ele><time>2026-04-11T09:26:29.452Z</time></trkpt><trkpt lat="46.1997567" lon="12.9858683"><ele>234.66666666666666</ele><time>2026-04-11T09:26:30.452Z</time></trkpt><trkpt lat="46.1997517" lon="12.98599"><ele>236.0</ele><time>2026-04-11T09:26:31.45Z</time></trkpt><trkpt lat="46.1997467" lon="12.9861133"><ele>237.33333333333331</ele><time>2026-04-11T09:26:32.451Z</time></trkpt><trkpt lat="46.1997483" lon="12.986245"><ele>238.66666666666666</ele><time>2026-04-11T09:26:33.451Z</time></trkpt><trkpt lat="46.1997517" lon="12.9863717"><ele>240.0</ele><time>2026-04-11T09:26:34.45Z</time></trkpt><trkpt lat="46.1997733" lon="12.9864917"><ele>240.0</ele><time>2026-04-11T09:26:35.451Z</time></trkpt><trkpt lat="46.199815" lon="12.986595"><ele>240.0</ele><time>2026-04-11T09:26:36.451Z</time></trkpt><trkpt lat="46.1998533" lon="12.98669"><ele>240.0</ele><time>2026-04-11T09:26:37.451Z</time></trkpt><trkpt lat="46.199895" lon="12.9867833"><ele>240.0</ele><time>2026-04-11T09:26:38.451Z</time></trkpt><trkpt lat="46.199935" lon="12.986875"><ele>240.0</ele><time>2026-04-11T09:26:39.451Z</time></trkpt><trkpt lat="46.1999633" lon="12.9869667"><ele>240.0</ele><time>2026-04-11T09:26:40.451Z</time></trkpt><trkpt lat="46.1999883" lon="12.9870567"><ele>240.0</ele><time>2026-04-11T09:26:41.45Z</time></trkpt><trkpt lat="46.2000033" lon="12.9871483"><ele>238.16666666666666</ele><time>2026-04-11T09:26:42.451Z</time></trkpt><trkpt lat="46.2000217" lon="12.9873317"><ele>236.33333333333331</ele><time>2026-04-11T09:26:44.45Z</time></trkpt><trkpt lat="46.2000417" lon="12.9874283"><ele>234.5</ele><time>2026-04-11T09:26:45.451Z</time></trkpt><trkpt lat="46.2000667" lon="12.9875217"><ele>232.66666666666666</ele><time>2026-04-11T09:26:46.45Z</time></trkpt><trkpt lat="46.2001" lon="12.9876167"><ele>230.83333333333331</ele><time>2026-04-11T09:26:47.451Z</time></trkpt><trkpt lat="46.200135" lon="12.987705"><ele>229.0</ele><time>2026-04-11T09:26:48.451Z</time></trkpt><trkpt lat="46.200155" lon="12.9878033"><ele>228.99999999999997</ele><time>2026-04-11T09:26:49.451Z</time></trkpt><trkpt lat="46.2001767" lon="12.9879033"><ele>229.0</ele><time>2026-04-11T09:26:50.451Z</time></trkpt><trkpt lat="46.2001883" lon="12.9880017"><ele>229.0</ele><time>2026-04-11T09:26:51.451Z</time></trkpt><trkpt lat="46.20021" lon="12.988155"><ele>229.0</ele><time>2026-04-11T09:26:53.451Z</time></trkpt><trkpt lat="46.2002083" lon="12.98825"><ele>228.99999999999997</ele><time>2026-04-11T09:26:54.45Z</time></trkpt><trkpt lat="46.2002367" lon="12.98843"><ele>229.0</ele><time>2026-04-11T09:26:56.451Z</time></trkpt><trkpt lat="46.2002517" lon="12.9885817"><ele>230.0</ele><time>2026-04-11T09:26:58.451Z</time></trkpt><trkpt lat="46.2002317" lon="12.9887333"><ele>230.99999999999997</ele><time>2026-04-11T09:27:00.451Z</time></trkpt><trkpt lat="46.200235" lon="12.98888"><ele>231.99999999999997</ele><time>2026-04-11T09:27:02.451Z</time></trkpt><trkpt lat="46.200295" lon="12.9890367"><ele>233.0</ele><time>2026-04-11T09:27:04.451Z</time></trkpt><trkpt lat="46.2003367" lon="12.9891067"><ele>234.0</ele><time>2026-04-11T09:27:05.451Z</time></trkpt><trkpt lat="46.2003833" lon="12.9891717"><ele>235.16666666666666</ele><time>2026-04-11T09:27:06.45Z</time></trkpt><trkpt lat="46.2004267" lon="12.98926"><ele>236.33333333333331</ele><time>2026-04-11T09:27:07.451Z</time></trkpt><trkpt lat="46.2004617" lon="12.9893617"><ele>237.5</ele><time>2026-04-11T09:27:08.451Z</time></trkpt><trkpt lat="46.2005033" lon="12.9894417"><ele>238.66666666666666</ele><time>2026-04-11T09:27:09.451Z</time></trkpt><trkpt lat="46.20054" lon="12.9895917"><ele>239.83333333333331</ele><time>2026-04-11T09:27:11.451Z</time></trkpt><trkpt lat="46.2005783" lon="12.98971"><ele>241.0</ele><time>2026-04-11T09:27:13.451Z</time></trkpt><trkpt lat="46.200605" lon="12.989825"><ele>240.99999999999997</ele><time>2026-04-11T09:27:15.451Z</time></trkpt><trkpt lat="46.2006567" lon="12.989915"><ele>241.0</ele><time>2026-04-11T09:27:18.451Z</time></trkpt><trkpt lat="46.2007117" lon="12.9899717"><ele>241.0</ele><time>2026-04-11T09:27:20.451Z</time></trkpt><trkpt lat="46.2007617" lon="12.9900383"><ele>241.0</ele><time>2026-04-11T09:27:22.451Z</time></trkpt><trkpt lat="46.2008217" lon="12.9901"><ele>240.99999999999997</ele><time>2026-04-11T09:27:24.451Z</time></trkpt><trkpt lat="46.2009033" lon="12.9902367"><ele>241.0</ele><time>2026-04-11T09:27:26.451Z</time></trkpt><trkpt lat="46.2009667" lon="12.9903767"><ele>238.20000000000002</ele><time>2026-04-11T09:27:28.451Z</time></trkpt><trkpt lat="46.2010333" lon="12.9904933"><ele>235.40000000000003</ele><time>2026-04-11T09:27:30.451Z</time></trkpt><trkpt lat="46.2010917" lon="12.9906067"><ele>232.6</ele><time>2026-04-11T09:27:32.451Z</time></trkpt><trkpt lat="46.2011033" lon="12.99073"><ele>229.8</ele><time>2026-04-11T09:27:34.451Z</time></trkpt><trkpt lat="46.2011333" lon="12.9908417"><ele>227.0</ele><time>2026-04-11T09:27:36.45Z</time></trkpt><trkpt lat="46.2011517" lon="12.990975"><ele>227.0</ele><time>2026-04-11T09:27:38.451Z</time></trkpt><trkpt lat="46.2011617" lon="12.9911217"><ele>227.0</ele><time>2026-04-11T09:27:40.45Z</time></trkpt><trkpt lat="46.20116" lon="12.99129"><ele>227.0</ele><time>2026-04-11T09:27:42.451Z</time></trkpt><trkpt lat="46.2011583" lon="12.99141"><ele>227.0</ele><time>2026-04-11T09:27:43.451Z</time></trkpt><trkpt lat="46.2011583" lon="12.9915133"><ele>227.0</ele><time>2026-04-11T09:27:44.45Z</time></trkpt><trkpt lat="46.2011717" lon="12.99169"><ele>228.2857142857143</ele><time>2026-04-11T09:27:46.451Z</time></trkpt><trkpt lat="46.2011767" lon="12.9917983"><ele>229.5714285714286</ele><time>2026-04-11T09:27:47.451Z</time></trkpt><trkpt lat="46.201185" lon="12.9919067"><ele>230.85714285714286</ele><time>2026-04-11T09:27:48.451Z</time></trkpt><trkpt lat="46.2011917" lon="12.992015"><ele>232.14285714285717</ele><time>2026-04-11T09:27:49.451Z</time></trkpt><trkpt lat="46.2012083" lon="12.992125"><ele>233.42857142857144</ele><time>2026-04-11T09:27:50.451Z</time></trkpt><trkpt lat="46.20122" lon="12.9922217"><ele>234.71428571428572</ele><time>2026-04-11T09:27:51.451Z</time></trkpt><trkpt lat="46.2012583" lon="12.9923017"><ele>236.0</ele><time>2026-04-11T09:27:52.45Z</time></trkpt><trkpt lat="46.2013117" lon="12.9923767"><ele>236.00000000000003</ele><time>2026-04-11T09:27:53.45Z</time></trkpt><trkpt lat="46.2013717" lon="12.9924583"><ele>236.0</ele><time>2026-04-11T09:27:54.451Z</time></trkpt><trkpt lat="46.201415" lon="12.9925983"><ele>236.0</ele><time>2026-04-11T09:27:56.451Z</time></trkpt><trkpt lat="46.2014617" lon="12.9927133"><ele>236.0</ele><time>2026-04-11T09:27:58.451Z</time></trkpt><trkpt lat="46.201505" lon="12.9928167"><ele>236.00000000000003</ele><time>2026-04-11T09:28:00.45Z</time></trkpt><trkpt lat="46.2015483" lon="12.9928983"><ele>236.0</ele><time>2026-04-11T09:28:02.451Z</time></trkpt><trkpt lat="46.2016067" lon="12.992935"><ele>229.16666666666669</ele><time>2026-04-11T09:28:04.45Z</time></trkpt><trkpt lat="46.2017133" lon="12.99293"><ele>222.33333333333334</ele><time>2026-04-11T09:28:08.45Z</time></trkpt><trkpt lat="46.2017483" lon="12.9930333"><ele>215.5</ele><time>2026-04-11T09:28:13.451Z</time></trkpt><trkpt lat="46.201725" lon="12.9931183"><ele>208.66666666666669</ele><time>2026-04-11T09:28:15.45Z</time></trkpt><trkpt lat="46.2017217" lon="12.9932467"><ele>201.83333333333334</ele><time>2026-04-11T09:28:17.451Z</time></trkpt><trkpt lat="46.2017067" lon="12.9933983"><ele>195.0</ele><time>2026-04-11T09:28:19.45Z</time></trkpt><trkpt lat="46.2016933" lon="12.9935517"><ele>195.0</ele><time>2026-04-11T09:28:21.45Z</time></trkpt><trkpt lat="46.2016883" lon="12.993675"><ele>195.0</ele><time>2026-04-11T09:28:23.451Z</time></trkpt><trkpt lat="46.2016883" lon="12.9938067"><ele>195.0</ele><time>2026-04-11T09:28:25.45Z</time></trkpt><trkpt lat="46.20172" lon="12.9938917"><ele>195.0</ele><time>2026-04-11T09:28:27.451Z</time></trkpt><trkpt lat="46.2017717" lon="12.9939683"><ele>195.0</ele><time>2026-04-11T09:28:30.45Z</time></trkpt><trkpt lat="46.2018633" lon="12.9940683"><ele>195.0</ele><time>2026-04-11T09:28:32.451Z</time></trkpt><trkpt lat="46.2019067" lon="12.9941417"><ele>196.5</ele><time>2026-04-11T09:28:33.451Z</time></trkpt><trkpt lat="46.2019567" lon="12.9941983"><ele>198.0</ele><time>2026-04-11T09:28:34.45Z</time></trkpt><trkpt lat="46.202035" lon="12.9943133"><ele>199.5</ele><time>2026-04-11T09:28:36.451Z</time></trkpt><trkpt lat="46.2020917" lon="12.9944167"><ele>201.0</ele><time>2026-04-11T09:28:38.451Z</time></trkpt><trkpt lat="46.2021333" lon="12.99451"><ele>202.5</ele><time>2026-04-11T09:28:40.451Z</time></trkpt><trkpt lat="46.2021267" lon="12.9946267"><ele>204.0</ele><time>2026-04-11T09:28:42.451Z</time></trkpt><trkpt lat="46.2020967" lon="12.9947833"><ele>204.0</ele><time>2026-04-11T09:28:44.451Z</time></trkpt><trkpt lat="46.2020917" lon="12.9949417"><ele>204.0</ele><time>2026-04-11T09:28:46.451Z</time></trkpt><trkpt lat="46.2021233" lon="12.995115"><ele>204.0</ele><time>2026-04-11T09:28:48.451Z</time></trkpt><trkpt lat="46.2021267" lon="12.9952217"><ele>204.0</ele><time>2026-04-11T09:28:49.45Z</time></trkpt><trkpt lat="46.2021283" lon="12.9953283"><ele>204.0</ele><time>2026-04-11T09:28:50.451Z</time></trkpt><trkpt lat="46.2021283" lon="12.9954367"><ele>205.5</ele><time>2026-04-11T09:28:51.451Z</time></trkpt><trkpt lat="46.2021417" lon="12.9955333"><ele>207.0</ele><time>2026-04-11T09:28:52.451Z</time></trkpt><trkpt lat="46.202155" lon="12.9956483"><ele>208.5</ele><time>2026-04-11T09:28:53.45Z</time></trkpt><trkpt lat="46.202165" lon="12.9957533"><ele>210.0</ele><time>2026-04-11T09:28:54.451Z</time></trkpt><trkpt lat="46.20218" lon="12.99585"><ele>211.5</ele><time>2026-04-11T09:28:55.451Z</time></trkpt><trkpt lat="46.202195" lon="12.9959533"><ele>213.0</ele><time>2026-04-11T09:28:56.451Z</time></trkpt><trkpt lat="46.202235" lon="12.996085"><ele>214.4</ele><time>2026-04-11T09:28:58.451Z</time></trkpt><trkpt lat="46.2022883" lon="12.9962133"><ele>215.8</ele><time>2026-04-11T09:29:00.451Z</time></trkpt><trkpt lat="46.202305" lon="12.99634"><ele>217.2</ele><time>2026-04-11T09:29:02.451Z</time></trkpt><trkpt lat="46.2023467" lon="12.99644"><ele>218.6</ele><time>2026-04-11T09:29:04.451Z</time></trkpt><trkpt lat="46.2022533" lon="12.9965767"><ele>220.0</ele><time>2026-04-11T09:29:20.451Z</time></trkpt><trkpt lat="46.2022633" lon="12.99667"><ele>220.66666666666666</ele><time>2026-04-11T09:30:39.451Z</time></trkpt><trkpt lat="46.2022717" lon="12.9967767"><ele>221.33333333333331</ele><time>2026-04-11T09:31:02.451Z</time></trkpt><trkpt lat="46.2022817" lon="12.9969267"><ele>222.0</ele><time>2026-04-11T09:31:04.451Z</time></trkpt><trkpt lat="46.2022917" lon="12.9970333"><ele>222.66666666666669</ele><time>2026-04-11T09:31:05.451Z</time></trkpt><trkpt lat="46.2023083" lon="12.9971483"><ele>223.33333333333334</ele><time>2026-04-11T09:31:06.451Z</time></trkpt><trkpt lat="46.20233" lon="12.9972683"><ele>224.0</ele><time>2026-04-11T09:31:07.45Z</time></trkpt><trkpt lat="46.20235" lon="12.9974"><ele>218.16666666666669</ele><time>2026-04-11T09:31:08.451Z</time></trkpt><trkpt lat="46.2023717" lon="12.9975283"><ele>212.33333333333334</ele><time>2026-04-11T09:31:09.451Z</time></trkpt><trkpt lat="46.2023933" lon="12.9976567"><ele>206.5</ele><time>2026-04-11T09:31:10.451Z</time></trkpt><trkpt lat="46.202415" lon="12.99777"><ele>200.66666666666669</ele><time>2026-04-11T09:31:11.451Z</time></trkpt><trkpt lat="46.2024217" lon="12.9978633"><ele>194.83333333333334</ele><time>2026-04-11T09:31:12.451Z</time></trkpt><trkpt lat="46.2024033" lon="12.9980317"><ele>189.0</ele><time>2026-04-11T09:31:14.451Z</time></trkpt><trkpt lat="46.20238" lon="12.9982"><ele>189.0</ele><time>2026-04-11T09:31:16.45Z</time></trkpt><trkpt lat="46.202395" lon="12.9983517"><ele>189.0</ele><time>2026-04-11T09:31:18.451Z</time></trkpt><trkpt lat="46.2024317" lon="12.998435"><ele>189.0</ele><time>2026-04-11T09:31:19.45Z</time></trkpt><trkpt lat="46.2024733" lon="12.9985267"><ele>189.0</ele><time>2026-04-11T09:31:20.45Z</time></trkpt><trkpt lat="46.2025217" lon="12.9986083"><ele>189.0</ele><time>2026-04-11T09:31:21.451Z</time></trkpt><trkpt lat="46.2025617" lon="12.9986933"><ele>189.0</ele><time>2026-04-11T09:31:22.451Z</time></trkpt><trkpt lat="46.2026" lon="12.998775"><ele>189.0</ele><time>2026-04-11T09:31:23.451Z</time></trkpt><trkpt lat="46.202645" lon="12.99893"><ele>189.0</ele><time>2026-04-11T09:31:25.451Z</time></trkpt><trkpt lat="46.2026533" lon="12.9990283"><ele>189.0</ele><time>2026-04-11T09:31:26.451Z</time></trkpt><trkpt lat="46.2026633" lon="12.9991217"><ele>189.0</ele><time>2026-04-11T09:31:27.451Z</time></trkpt><trkpt lat="46.20268" lon="12.9992967"><ele>189.0</ele><time>2026-04-11T09:31:29.451Z</time></trkpt><trkpt lat="46.2026883" lon="12.9994"><ele>189.0</ele><time>2026-04-11T09:31:30.45Z</time></trkpt><trkpt lat="46.20267" lon="12.99949"><ele>189.6</ele><time>2026-04-11T09:31:31.451Z</time></trkpt><trkpt lat="46.202625" lon="12.9996467"><ele>190.2</ele><time>2026-04-11T09:31:33.45Z</time></trkpt><trkpt lat="46.2026067" lon="12.9998367"><ele>190.79999999999998</ele><time>2026-04-11T09:31:35.45Z</time></trkpt><trkpt lat="46.2025933" lon="12.9999317"><ele>191.39999999999998</ele><time>2026-04-11T09:31:36.451Z</time></trkpt><trkpt lat="46.2025833" lon="13.0000267"><ele>192.0</ele><time>2026-04-11T09:31:37.451Z</time></trkpt><trkpt lat="46.2025733" lon="13.0001317"><ele>192.0</ele><time>2026-04-11T09:31:38.451Z</time></trkpt><trkpt lat="46.2025633" lon="13.000225"><ele>192.0</ele><time>2026-04-11T09:31:39.45Z</time></trkpt><trkpt lat="46.202555" lon="13.00032"><ele>192.0</ele><time>2026-04-11T09:31:40.451Z</time></trkpt><trkpt lat="46.2025433" lon="13.00041"><ele>192.0</ele><time>2026-04-11T09:31:41.451Z</time></trkpt><trkpt lat="46.2025333" lon="13.0005133"><ele>192.0</ele><time>2026-04-11T09:31:42.451Z</time></trkpt><trkpt lat="46.2024817" lon="13.0006683"><ele>192.0</ele><time>2026-04-11T09:31:44.45Z</time></trkpt><trkpt lat="46.2024417" lon="13.0007433"><ele>192.0</ele><time>2026-04-11T09:31:45.451Z</time></trkpt><trkpt lat="46.2023917" lon="13.0008917"><ele>192.0</ele><time>2026-04-11T09:31:47.451Z</time></trkpt><trkpt lat="46.2023567" lon="13.00097"><ele>192.0</ele><time>2026-04-11T09:31:48.451Z</time></trkpt><trkpt lat="46.20232" lon="13.0010517"><ele>192.0</ele><time>2026-04-11T09:31:49.451Z</time></trkpt><trkpt lat="46.202285" lon="13.0011333"><ele>192.0</ele><time>2026-04-11T09:31:50.451Z</time></trkpt><trkpt lat="46.2022567" lon="13.0012767"><ele>192.0</ele><time>2026-04-11T09:31:52.45Z</time></trkpt><trkpt lat="46.202235" lon="13.0014267"><ele>198.8</ele><time>2026-04-11T09:31:54.451Z</time></trkpt><trkpt lat="46.202205" lon="13.0015517"><ele>205.6</ele><time>2026-04-11T09:31:56.451Z</time></trkpt><trkpt lat="46.20218" lon="13.00169"><ele>212.40000000000003</ele><time>2026-04-11T09:31:58.451Z</time></trkpt><trkpt lat="46.2021517" lon="13.0018367"><ele>219.20000000000002</ele><time>2026-04-11T09:32:00.45Z</time></trkpt><trkpt lat="46.2021267" lon="13.0019967"><ele>226.0</ele><time>2026-04-11T09:32:02.451Z</time></trkpt><trkpt lat="46.2021117" lon="13.00218"><ele>226.0</ele><time>2026-04-11T09:32:04.45Z</time></trkpt><trkpt lat="46.2020767" lon="13.0023483"><ele>226.00000000000003</ele><time>2026-04-11T09:32:06.45Z</time></trkpt><trkpt lat="46.2020217" lon="13.0025017"><ele>226.00000000000003</ele><time>2026-04-11T09:32:08.451Z</time></trkpt><trkpt lat="46.201935" lon="13.002645"><ele>226.0</ele><time>2026-04-11T09:32:10.451Z</time></trkpt><trkpt lat="46.2018717" lon="13.0027033"><ele>226.0</ele><time>2026-04-11T09:32:11.451Z</time></trkpt><trkpt lat="46.2017917" lon="13.0027617"><ele>223.33333333333331</ele><time>2026-04-11T09:32:12.45Z</time></trkpt><trkpt lat="46.2016967" lon="13.0028"><ele>220.66666666666666</ele><time>2026-04-11T09:32:13.451Z</time></trkpt><trkpt lat="46.20161" lon="13.0028317"><ele>218.0</ele><time>2026-04-11T09:32:14.45Z</time></trkpt><trkpt lat="46.201525" lon="13.0028567"><ele>215.33333333333331</ele><time>2026-04-11T09:32:15.451Z</time></trkpt><trkpt lat="46.2014533" lon="13.0028733"><ele>212.66666666666666</ele><time>2026-04-11T09:32:16.451Z</time></trkpt><trkpt lat="46.2013867" lon="13.0029"><ele>210.0</ele><time>2026-04-11T09:32:17.451Z</time></trkpt><trkpt lat="46.201325" lon="13.0029383"><ele>212.25</ele><time>2026-04-11T09:32:18.451Z</time></trkpt><trkpt lat="46.2012317" lon="13.0030033"><ele>214.5</ele><time>2026-04-11T09:32:20.451Z</time></trkpt><trkpt lat="46.2011517" lon="13.0031333"><ele>216.75</ele><time>2026-04-11T09:32:22.451Z</time></trkpt><trkpt lat="46.2011383" lon="13.0032983"><ele>219.0</ele><time>2026-04-11T09:32:24.45Z</time></trkpt><trkpt lat="46.201185" lon="13.003485"><ele>219.0</ele><time>2026-04-11T09:32:26.45Z</time></trkpt><trkpt lat="46.2011783" lon="13.00367"><ele>218.99999999999997</ele><time>2026-04-11T09:32:28.45Z</time></trkpt><trkpt lat="46.20116" lon="13.0037717"><ele>218.99999999999997</ele><time>2026-04-11T09:32:29.45Z</time></trkpt><trkpt lat="46.201135" lon="13.00393"><ele>219.0</ele><time>2026-04-11T09:32:31.451Z</time></trkpt><trkpt lat="46.201075" lon="13.004065"><ele>219.0</ele><time>2026-04-11T09:32:33.451Z</time></trkpt><trkpt lat="46.201025" lon="13.0041333"><ele>218.83333333333334</ele><time>2026-04-11T09:32:34.451Z</time></trkpt><trkpt lat="46.2009233" lon="13.0042033"><ele>218.66666666666669</ele><time>2026-04-11T09:32:36.45Z</time></trkpt><trkpt lat="46.20084" lon="13.0042367"><ele>218.5</ele><time>2026-04-11T09:32:37.451Z</time></trkpt><trkpt lat="46.2007567" lon="13.0042517"><ele>218.33333333333334</ele><time>2026-04-11T09:32:38.451Z</time></trkpt><trkpt lat="46.20068" lon="13.00428"><ele>218.16666666666669</ele><time>2026-04-11T09:32:39.451Z</time></trkpt><trkpt lat="46.2005967" lon="13.0043133"><ele>218.0</ele><time>2026-04-11T09:32:40.451Z</time></trkpt><trkpt lat="46.2005317" lon="13.004355"><ele>218.00000000000003</ele><time>2026-04-11T09:32:41.451Z</time></trkpt><trkpt lat="46.20046" lon="13.0044117"><ele>218.0</ele><time>2026-04-11T09:32:42.451Z</time></trkpt><trkpt lat="46.2003967" lon="13.00446"><ele>218.0</ele><time>2026-04-11T09:32:43.45Z</time></trkpt><trkpt lat="46.20033" lon="13.0045133"><ele>218.0</ele><time>2026-04-11T09:32:44.451Z</time></trkpt><trkpt lat="46.20027" lon="13.0045667"><ele>218.00000000000003</ele><time>2026-04-11T09:32:45.45Z</time></trkpt><trkpt lat="46.200215" lon="13.0046217"><ele>218.0</ele><time>2026-04-11T09:32:46.451Z</time></trkpt><trkpt lat="46.2001383" lon="13.0047383"><ele>218.0</ele><time>2026-04-11T09:32:48.451Z</time></trkpt><trkpt lat="46.200075" lon="13.00487"><ele>218.0</ele><time>2026-04-11T09:32:50.451Z</time></trkpt><trkpt lat="46.2000233" lon="13.004985"><ele>218.0</ele><time>2026-04-11T09:32:52.45Z</time></trkpt><trkpt lat="46.19993" lon="13.0050867"><ele>218.0</ele><time>2026-04-11T09:32:54.451Z</time></trkpt><trkpt lat="46.1998683" lon="13.0051217"><ele>218.0</ele><time>2026-04-11T09:32:55.45Z</time></trkpt><trkpt lat="46.1997633" lon="13.0051617"><ele>214.8</ele><time>2026-04-11T09:32:57.451Z</time></trkpt><trkpt lat="46.199675" lon="13.0051683"><ele>211.60000000000002</ele><time>2026-04-11T09:32:59.451Z</time></trkpt><trkpt lat="46.1995617" lon="13.005185"><ele>208.39999999999998</ele><time>2026-04-11T09:33:01.451Z</time></trkpt><trkpt lat="46.19944" lon="13.0052183"><ele>205.2</ele><time>2026-04-11T09:33:03.45Z</time></trkpt><trkpt lat="46.1993717" lon="13.00521"><ele>202.0</ele><time>2026-04-11T09:33:04.45Z</time></trkpt><trkpt lat="46.1992983" lon="13.00521"><ele>201.99999999999997</ele><time>2026-04-11T09:33:05.451Z</time></trkpt><trkpt lat="46.1992233" lon="13.0051817"><ele>202.0</ele><time>2026-04-11T09:33:06.45Z</time></trkpt><trkpt lat="46.199145" lon="13.0051583"><ele>202.0</ele><time>2026-04-11T09:33:07.45Z</time></trkpt><trkpt lat="46.1990667" lon="13.005135"><ele>202.0</ele><time>2026-04-11T09:33:08.451Z</time></trkpt><trkpt lat="46.1989833" lon="13.0051183"><ele>201.99999999999997</ele><time>2026-04-11T09:33:09.45Z</time></trkpt><trkpt lat="46.1989067" lon="13.0051083"><ele>202.0</ele><time>2026-04-11T09:33:10.45Z</time></trkpt><trkpt lat="46.1988267" lon="13.0051217"><ele>202.66666666666666</ele><time>2026-04-11T09:33:11.451Z</time></trkpt><trkpt lat="46.19875" lon="13.00512"><ele>203.33333333333331</ele><time>2026-04-11T09:33:12.45Z</time></trkpt><trkpt lat="46.198635" lon="13.005165"><ele>204.0</ele><time>2026-04-11T09:33:13.451Z</time></trkpt><trkpt lat="46.1985617" lon="13.0051833"><ele>204.66666666666669</ele><time>2026-04-11T09:33:14.451Z</time></trkpt><trkpt lat="46.1984967" lon="13.0052017"><ele>205.33333333333334</ele><time>2026-04-11T09:33:15.451Z</time></trkpt><trkpt lat="46.1984267" lon="13.0052383"><ele>206.0</ele><time>2026-04-11T09:33:16.451Z</time></trkpt><trkpt lat="46.19836" lon="13.0052783"><ele>206.00000000000003</ele><time>2026-04-11T09:33:17.451Z</time></trkpt><trkpt lat="46.19828" lon="13.0053083"><ele>206.0</ele><time>2026-04-11T09:33:18.451Z</time></trkpt><trkpt lat="46.1982067" lon="13.0053417"><ele>206.0</ele><time>2026-04-11T09:33:19.45Z</time></trkpt><trkpt lat="46.1981383" lon="13.0053817"><ele>206.0</ele><time>2026-04-11T09:33:20.451Z</time></trkpt><trkpt lat="46.1980183" lon="13.0054367"><ele>206.00000000000003</ele><time>2026-04-11T09:33:22.45Z</time></trkpt><trkpt lat="46.197945" lon="13.0054683"><ele>206.0</ele><time>2026-04-11T09:33:23.451Z</time></trkpt><trkpt lat="46.197875" lon="13.0054917"><ele>208.66666666666669</ele><time>2026-04-11T09:33:24.45Z</time></trkpt><trkpt lat="46.1978083" lon="13.0055183"><ele>211.33333333333334</ele><time>2026-04-11T09:33:25.45Z</time></trkpt><trkpt lat="46.19769" lon="13.0055867"><ele>214.0</ele><time>2026-04-11T09:33:27.45Z</time></trkpt><trkpt lat="46.19763" lon="13.0056183"><ele>216.66666666666669</ele><time>2026-04-11T09:33:28.451Z</time></trkpt><trkpt lat="46.1975233" lon="13.0056267"><ele>219.33333333333334</ele><time>2026-04-11T09:33:30.451Z</time></trkpt><trkpt lat="46.1974683" lon="13.005705"><ele>222.0</ele><time>2026-04-11T09:33:32.45Z</time></trkpt><trkpt lat="46.197435" lon="13.0057867"><ele>220.0</ele><time>2026-04-11T09:33:33.45Z</time></trkpt><trkpt lat="46.1973683" lon="13.0059283"><ele>218.0</ele><time>2026-04-11T09:33:35.449Z</time></trkpt><trkpt lat="46.1972667" lon="13.0060317"><ele>216.0</ele><time>2026-04-11T09:33:37.45Z</time></trkpt><trkpt lat="46.1971933" lon="13.00607"><ele>214.0</ele><time>2026-04-11T09:33:38.45Z</time></trkpt><trkpt lat="46.1971217" lon="13.006095"><ele>212.0</ele><time>2026-04-11T09:33:39.45Z</time></trkpt><trkpt lat="46.1970333" lon="13.0061167"><ele>212.0</ele><time>2026-04-11T09:33:40.45Z</time></trkpt><trkpt lat="46.196945" lon="13.0061367"><ele>212.0</ele><time>2026-04-11T09:33:41.45Z</time></trkpt><trkpt lat="46.196845" lon="13.006155"><ele>212.0</ele><time>2026-04-11T09:33:42.45Z</time></trkpt><trkpt lat="46.196705" lon="13.006165"><ele>212.0</ele><time>2026-04-11T09:33:43.45Z</time></trkpt><trkpt lat="46.1965617" lon="13.0061783"><ele>211.0</ele><time>2026-04-11T09:33:44.45Z</time></trkpt><trkpt lat="46.196405" lon="13.00618"><ele>210.0</ele><time>2026-04-11T09:33:45.45Z</time></trkpt><trkpt lat="46.1957883" lon="13.0063467"><ele>210.0</ele><time>2026-04-11T09:35:01.467Z</time></trkpt></trkseg></trk></gpx>